Wetterdaten: Sonntag, 01.07.2018
Datum Zeit Temp. A. Feuchte A. Luftdruck Regen Wind Richtung Richtung Sonnenschein ET UV Solar Taupunkt Windchill Windböen
01.07.2018 00:00 14,8 °C 76 % 1011,3 hPa 0,0 mm 0,0 km/h (0 Bft) O-SO 108 ° 0 min 0,000 mm 0,0 UV-I 0 W/m² 10,6 °C 14,8 °C 0,0 km/h (0 Bft)
01.07.2018 00:01 14,9 °C 75 % 1011,3 hPa 0,0 mm 0,0 km/h (0 Bft) O-SO 108 ° 0 min 0,000 mm 0,0 UV-I 0 W/m² 10,5 °C 14,9 °C 0,0 km/h (0 Bft)
01.07.2018 00:02 14,8 °C 76 % 1011,4 hPa 0,0 mm 0,0 km/h (0 Bft) O-SO 108 ° 0 min 0,000 mm 0,0 UV-I 0 W/m² 10,6 °C 14,8 °C 0,0 km/h (0 Bft)
01.07.2018 00:03 14,8 °C 76 % 1011,4 hPa 0,0 mm 0,0 km/h (0 Bft) O-SO 108 ° 0 min 0,000 mm 0,0 UV-I 0 W/m² 10,6 °C 14,8 °C 0,0 km/h (0 Bft)
01.07.2018 00:04 14,8 °C 76 % 1011,4 hPa 0,0 mm 0,0 km/h (0 Bft) O-SO 108 ° 0 min 0,000 mm 0,0 UV-I 0 W/m² 10,6 °C 14,8 °C 0,0 km/h (0 Bft)
01.07.2018 00:05 14,8 °C 75 % 1011,4 hPa 0,0 mm 0,0 km/h (0 Bft) O-SO 108 ° 0 min 0,000 mm 0,0 UV-I 0 W/m² 10,4 °C 14,8 °C 0,0 km/h (0 Bft)
01.07.2018 00:06 14,8 °C 75 % 1011,3 hPa 0,0 mm 0,0 km/h (0 Bft) O-SO 108 ° 0 min 0,000 mm 0,0 UV-I 0 W/m² 10,4 °C 14,8 °C 0,0 km/h (0 Bft)
01.07.2018 00:07 14,8 °C 76 % 1011,4 hPa 0,0 mm 0,0 km/h (0 Bft) O-SO 108 ° 0 min 0,000 mm 0,0 UV-I 0 W/m² 10,6 °C 14,8 °C 0,0 km/h (0 Bft)
01.07.2018 00:08 14,8 °C 76 % 1011,5 hPa 0,0 mm 0,0 km/h (0 Bft) O-SO 108 ° 0 min 0,000 mm 0,0 UV-I 0 W/m² 10,6 °C 14,8 °C 0,0 km/h (0 Bft)
01.07.2018 00:09 14,7 °C 76 % 1011,4 hPa 0,0 mm 0,0 km/h (0 Bft) O-SO 108 ° 0 min 0,000 mm 0,0 UV-I 0 W/m² 10,5 °C 14,7 °C 0,0 km/h (0 Bft)
01.07.2018 00:10 14,7 °C 76 % 1011,5 hPa 0,0 mm 0,0 km/h (0 Bft) O-SO 108 ° 0 min 0,000 mm 0,0 UV-I 0 W/m² 10,5 °C 14,7 °C 0,0 km/h (0 Bft)
01.07.2018 00:11 14,6 °C 76 % 1011,5 hPa 0,0 mm 0,0 km/h (0 Bft) O-SO 108 ° 0 min 0,000 mm 0,0 UV-I 0 W/m² 10,4 °C 14,6 °C 0,0 km/h (0 Bft)
01.07.2018 00:12 14,6 °C 76 % 1011,4 hPa 0,0 mm 0,3 km/h (0 Bft) O-SO 108 ° 0 min 0,000 mm 0,0 UV-I 0 W/m² 10,4 °C 14,6 °C 1,6 km/h (1 Bft)
01.07.2018 00:13 14,6 °C 75 % 1011,4 hPa 0,0 mm 0,5 km/h (0 Bft) O-SO 108 ° 0 min 0,000 mm 0,0 UV-I 0 W/m² 10,2 °C 14,6 °C 1,6 km/h (1 Bft)
01.07.2018 00:14 14,6 °C 76 % 1011,4 hPa 0,0 mm 0,7 km/h (0 Bft) O-SO 108 ° 0 min 0,000 mm 0,0 UV-I 0 W/m² 10,4 °C 14,6 °C 1,6 km/h (1 Bft)
01.07.2018 00:15 14,6 °C 75 % 1011,5 hPa 0,0 mm 0,0 km/h (0 Bft) O-SO 108 ° 0 min 0,000 mm 0,0 UV-I 0 W/m² 10,2 °C 14,6 °C 0,0 km/h (0 Bft)
01.07.2018 00:16 14,5 °C 77 % 1011,5 hPa 0,0 mm 0,0 km/h (0 Bft) O-SO 108 ° 0 min 0,000 mm 0,0 UV-I 0 W/m² 10,5 °C 14,5 °C 0,0 km/h (0 Bft)
01.07.2018 00:17 14,4 °C 77 % 1011,5 hPa 0,0 mm 0,0 km/h (0 Bft) O-SO 108 ° 0 min 0,000 mm 0,0 UV-I 0 W/m² 10,4 °C 14,4 °C 0,0 km/h (0 Bft)
01.07.2018 00:18 14,3 °C 77 % 1011,5 hPa 0,0 mm 0,0 km/h (0 Bft) O-SO 108 ° 0 min 0,000 mm 0,0 UV-I 0 W/m² 10,3 °C 14,3 °C 0,0 km/h (0 Bft)
01.07.2018 00:19 14,2 °C 77 % 1011,5 hPa 0,0 mm 0,0 km/h (0 Bft) O-SO 108 ° 0 min 0,000 mm 0,0 UV-I 0 W/m² 10,2 °C 14,2 °C 0,0 km/h (0 Bft)
01.07.2018 00:20 14,1 °C 78 % 1011,5 hPa 0,0 mm 0,0 km/h (0 Bft) O-SO 108 ° 0 min 0,000 mm 0,0 UV-I 0 W/m² 10,3 °C 14,1 °C 0,0 km/h (0 Bft)
01.07.2018 00:21 13,9 °C 78 % 1011,5 hPa 0,0 mm 0,0 km/h (0 Bft) O-SO 108 ° 0 min 0,000 mm 0,0 UV-I 0 W/m² 10,1 °C 13,9 °C 0,0 km/h (0 Bft)
01.07.2018 00:22 13,8 °C 79 % 1011,5 hPa 0,0 mm 0,0 km/h (0 Bft) O-SO 108 ° 0 min 0,000 mm 0,0 UV-I 0 W/m² 10,2 °C 13,8 °C 0,0 km/h (0 Bft)
01.07.2018 00:23 13,8 °C 79 % 1011,5 hPa 0,0 mm 0,1 km/h (0 Bft) O-SO 108 ° 0 min 0,000 mm 0,0 UV-I 0 W/m² 10,2 °C 13,8 °C 1,6 km/h (1 Bft)
01.07.2018 00:24 13,8 °C 78 % 1011,5 hPa 0,0 mm 0,0 km/h (0 Bft) O-SO 108 ° 0 min 0,000 mm 0,0 UV-I 0 W/m² 10,0 °C 13,8 °C 0,0 km/h (0 Bft)
01.07.2018 00:25 13,8 °C 79 % 1011,5 hPa 0,0 mm 0,0 km/h (0 Bft) O-SO 108 ° 0 min 0,000 mm 0,0 UV-I 0 W/m² 10,2 °C 13,8 °C 0,0 km/h (0 Bft)
01.07.2018 00:26 13,8 °C 78 % 1011,5 hPa 0,0 mm 0,0 km/h (0 Bft) O-SO 108 ° 0 min 0,000 mm 0,0 UV-I 0 W/m² 10,0 °C 13,8 °C 0,0 km/h (0 Bft)
01.07.2018 00:27 13,8 °C 79 % 1011,5 hPa 0,0 mm 0,0 km/h (0 Bft) O-SO 108 ° 0 min 0,000 mm 0,0 UV-I 0 W/m² 10,2 °C 13,8 °C 0,0 km/h (0 Bft)
01.07.2018 00:28 13,7 °C 80 % 1011,5 hPa 0,0 mm 0,0 km/h (0 Bft) O-SO 108 ° 0 min 0,000 mm 0,0 UV-I 0 W/m² 10,3 °C 13,7 °C 0,0 km/h (0 Bft)
01.07.2018 00:29 13,6 °C 80 % 1011,6 hPa 0,0 mm 0,0 km/h (0 Bft) O-SO 108 ° 0 min 0,000 mm 0,0 UV-I 0 W/m² 10,2 °C 13,6 °C 0,0 km/h (0 Bft)
01.07.2018 00:30 13,6 °C 80 % 1011,5 hPa 0,0 mm 0,0 km/h (0 Bft) O-SO 108 ° 0 min 0,000 mm 0,0 UV-I 0 W/m² 10,2 °C 13,6 °C 0,0 km/h (0 Bft)
01.07.2018 00:31 13,4 °C 81 % 1011,5 hPa 0,0 mm 0,0 km/h (0 Bft) O-SO 108 ° 0 min 0,000 mm 0,0 UV-I 0 W/m² 10,2 °C 13,4 °C 0,0 km/h (0 Bft)
01.07.2018 00:32 13,3 °C 82 % 1011,5 hPa 0,0 mm 0,0 km/h (0 Bft) O-SO 108 ° 0 min 0,000 mm 0,0 UV-I 0 W/m² 10,3 °C 13,3 °C 0,0 km/h (0 Bft)
01.07.2018 00:33 13,2 °C 83 % 1011,5 hPa 0,0 mm 0,0 km/h (0 Bft) O-SO 108 ° 0 min 0,000 mm 0,0 UV-I 0 W/m² 10,4 °C 13,2 °C 0,0 km/h (0 Bft)
01.07.2018 00:34 13,2 °C 84 % 1011,5 hPa 0,0 mm 0,0 km/h (0 Bft) O-SO 108 ° 0 min 0,000 mm 0,0 UV-I 0 W/m² 10,6 °C 13,2 °C 0,0 km/h (0 Bft)
01.07.2018 00:35 13,1 °C 83 % 1011,5 hPa 0,0 mm 0,0 km/h (0 Bft) O-SO 108 ° 0 min 0,000 mm 0,0 UV-I 0 W/m² 10,3 °C 13,1 °C 0,0 km/h (0 Bft)
01.07.2018 00:36 13,1 °C 83 % 1011,5 hPa 0,0 mm 0,0 km/h (0 Bft) O-SO 108 ° 0 min 0,000 mm 0,0 UV-I 0 W/m² 10,3 °C 13,1 °C 0,0 km/h (0 Bft)
01.07.2018 00:37 13,1 °C 83 % 1011,5 hPa 0,0 mm 0,0 km/h (0 Bft) O-SO 108 ° 0 min 0,000 mm 0,0 UV-I 0 W/m² 10,3 °C 13,1 °C 0,0 km/h (0 Bft)
01.07.2018 00:38 13,1 °C 83 % 1011,5 hPa 0,0 mm 0,0 km/h (0 Bft) O-SO 108 ° 0 min 0,000 mm 0,0 UV-I 0 W/m² 10,3 °C 13,1 °C 0,0 km/h (0 Bft)
01.07.2018 00:39 13,1 °C 82 % 1011,5 hPa 0,0 mm 0,0 km/h (0 Bft) O-SO 108 ° 0 min 0,000 mm 0,0 UV-I 0 W/m² 10,1 °C 13,1 °C 0,0 km/h (0 Bft)
01.07.2018 00:40 13,1 °C 82 % 1011,5 hPa 0,0 mm 0,0 km/h (0 Bft) O-SO 108 ° 0 min 0,000 mm 0,0 UV-I 0 W/m² 10,1 °C 13,1 °C 0,0 km/h (0 Bft)
01.07.2018 00:41 13,1 °C 82 % 1011,5 hPa 0,0 mm 0,0 km/h (0 Bft) O-SO 108 ° 0 min 0,000 mm 0,0 UV-I 0 W/m² 10,1 °C 13,1 °C 0,0 km/h (0 Bft)
01.07.2018 00:42 13,0 °C 82 % 1011,5 hPa 0,0 mm 0,0 km/h (0 Bft) O-SO 108 ° 0 min 0,000 mm 0,0 UV-I 0 W/m² 10,0 °C 13,0 °C 0,0 km/h (0 Bft)
01.07.2018 00:43 12,9 °C 82 % 1011,5 hPa 0,0 mm 0,0 km/h (0 Bft) O-SO 108 ° 0 min 0,000 mm 0,0 UV-I 0 W/m² 9,9 °C 12,9 °C 0,0 km/h (0 Bft)
01.07.2018 00:44 12,9 °C 82 % 1011,5 hPa 0,0 mm 0,0 km/h (0 Bft) O-SO 108 ° 0 min 0,000 mm 0,0 UV-I 0 W/m² 9,9 °C 12,9 °C 0,0 km/h (0 Bft)
01.07.2018 00:45 13,0 °C 82 % 1011,5 hPa 0,0 mm 0,0 km/h (0 Bft) O-SO 108 ° 0 min 0,000 mm 0,0 UV-I 0 W/m² 10,0 °C 13,0 °C 0,0 km/h (0 Bft)
01.07.2018 00:46 13,0 °C 82 % 1011,5 hPa 0,0 mm 0,0 km/h (0 Bft) O-SO 108 ° 0 min 0,000 mm 0,0 UV-I 0 W/m² 10,0 °C 13,0 °C 0,0 km/h (0 Bft)
01.07.2018 00:47 13,0 °C 82 % 1011,5 hPa 0,0 mm 0,0 km/h (0 Bft) O-SO 108 ° 0 min 0,000 mm 0,0 UV-I 0 W/m² 10,0 °C 13,0 °C 0,0 km/h (0 Bft)
01.07.2018 00:48 13,0 °C 82 % 1011,5 hPa 0,0 mm 0,0 km/h (0 Bft) O-SO 108 ° 0 min 0,000 mm 0,0 UV-I 0 W/m² 10,0 °C 13,0 °C 0,0 km/h (0 Bft)
01.07.2018 00:49 13,0 °C 82 % 1011,4 hPa 0,0 mm 0,0 km/h (0 Bft) O-SO 108 ° 0 min 0,000 mm 0,0 UV-I 0 W/m² 10,0 °C 13,0 °C 0,0 km/h (0 Bft)
01.07.2018 00:50 13,1 °C 83 % 1011,5 hPa 0,0 mm 0,0 km/h (0 Bft) O-SO 108 ° 0 min 0,000 mm 0,0 UV-I 0 W/m² 10,3 °C 13,1 °C 0,0 km/h (0 Bft)
01.07.2018 00:51 13,1 °C 81 % 1011,5 hPa 0,0 mm 0,0 km/h (0 Bft) O-SO 108 ° 0 min 0,000 mm 0,0 UV-I 0 W/m² 9,9 °C 13,1 °C 0,0 km/h (0 Bft)
01.07.2018 00:52 13,0 °C 81 % 1011,4 hPa 0,0 mm 0,0 km/h (0 Bft) O-SO 108 ° 0 min 0,000 mm 0,0 UV-I 0 W/m² 9,8 °C 13,0 °C 0,0 km/h (0 Bft)
01.07.2018 00:53 12,9 °C 81 % 1011,4 hPa 0,0 mm 0,0 km/h (0 Bft) O-SO 108 ° 0 min 0,000 mm 0,0 UV-I 0 W/m² 9,7 °C 12,9 °C 0,0 km/h (0 Bft)
01.07.2018 00:54 12,9 °C 81 % 1011,4 hPa 0,0 mm 0,0 km/h (0 Bft) O-SO 108 ° 0 min 0,000 mm 0,0 UV-I 0 W/m² 9,7 °C 12,9 °C 0,0 km/h (0 Bft)
01.07.2018 00:55 12,9 °C 81 % 1011,5 hPa 0,0 mm 0,0 km/h (0 Bft) O-SO 108 ° 0 min 0,000 mm 0,0 UV-I 0 W/m² 9,7 °C 12,9 °C 0,0 km/h (0 Bft)
01.07.2018 00:56 12,8 °C 81 % 1011,5 hPa 0,0 mm 0,0 km/h (0 Bft) O-SO 108 ° 0 min 0,000 mm 0,0 UV-I 0 W/m² 9,6 °C 12,8 °C 0,0 km/h (0 Bft)
01.07.2018 00:57 12,8 °C 83 % 1011,5 hPa 0,0 mm 0,0 km/h (0 Bft) O-SO 108 ° 0 min 0,000 mm 0,0 UV-I 0 W/m² 10,0 °C 12,8 °C 0,0 km/h (0 Bft)
01.07.2018 00:58 12,7 °C 82 % 1011,5 hPa 0,0 mm 0,0 km/h (0 Bft) O-SO 108 ° 0 min 0,000 mm 0,0 UV-I 0 W/m² 9,7 °C 12,7 °C 0,0 km/h (0 Bft)
01.07.2018 00:59 12,7 °C 82 % 1011,5 hPa 0,0 mm 0,0 km/h (0 Bft) O-SO 108 ° 0 min 0,000 mm 0,0 UV-I 0 W/m² 9,7 °C 12,7 °C 0,0 km/h (0 Bft)
01.07.2018 01:00 12,8 °C 81 % 1011,5 hPa 0,0 mm 0,0 km/h (0 Bft) O-SO 108 ° 0 min 0,025 mm 0,0 UV-I 0 W/m² 9,6 °C 12,8 °C 0,0 km/h (0 Bft)
01.07.2018 01:01 12,7 °C 81 % 1011,5 hPa 0,0 mm 0,0 km/h (0 Bft) O-SO 108 ° 0 min 0,000 mm 0,0 UV-I 0 W/m² 9,5 °C 12,7 °C 0,0 km/h (0 Bft)
01.07.2018 01:02 12,7 °C 81 % 1011,5 hPa 0,0 mm 0,0 km/h (0 Bft) O-SO 108 ° 0 min 0,000 mm 0,0 UV-I 0 W/m² 9,5 °C 12,7 °C 0,0 km/h (0 Bft)
01.07.2018 01:03 12,6 °C 83 % 1011,5 hPa 0,0 mm 0,0 km/h (0 Bft) O-SO 108 ° 0 min 0,000 mm 0,0 UV-I 0 W/m² 9,8 °C 12,6 °C 0,0 km/h (0 Bft)
01.07.2018 01:04 12,6 °C 83 % 1011,5 hPa 0,0 mm 0,0 km/h (0 Bft) O-SO 108 ° 0 min 0,000 mm 0,0 UV-I 0 W/m² 9,8 °C 12,6 °C 0,0 km/h (0 Bft)
01.07.2018 01:05 12,4 °C 84 % 1011,5 hPa 0,0 mm 0,0 km/h (0 Bft) O-SO 108 ° 0 min 0,000 mm 0,0 UV-I 0 W/m² 9,8 °C 12,4 °C 0,0 km/h (0 Bft)
01.07.2018 01:06 12,4 °C 84 % 1011,5 hPa 0,0 mm 0,0 km/h (0 Bft) O-SO 108 ° 0 min 0,000 mm 0,0 UV-I 0 W/m² 9,8 °C 12,4 °C 0,0 km/h (0 Bft)
01.07.2018 01:07 12,4 °C 84 % 1011,4 hPa 0,0 mm 0,0 km/h (0 Bft) O-SO 108 ° 0 min 0,000 mm 0,0 UV-I 0 W/m² 9,8 °C 12,4 °C 0,0 km/h (0 Bft)
01.07.2018 01:08 12,4 °C 84 % 1011,4 hPa 0,0 mm 0,0 km/h (0 Bft) O-SO 108 ° 0 min 0,000 mm 0,0 UV-I 0 W/m² 9,8 °C 12,4 °C 0,0 km/h (0 Bft)
01.07.2018 01:09 12,3 °C 84 % 1011,4 hPa 0,0 mm 0,0 km/h (0 Bft) O-SO 108 ° 0 min 0,000 mm 0,0 UV-I 0 W/m² 9,7 °C 12,3 °C 0,0 km/h (0 Bft)
01.07.2018 01:10 12,3 °C 83 % 1011,4 hPa 0,0 mm 0,0 km/h (0 Bft) O-SO 108 ° 0 min 0,000 mm 0,0 UV-I 0 W/m² 9,5 °C 12,3 °C 0,0 km/h (0 Bft)
01.07.2018 01:11 12,3 °C 83 % 1011,4 hPa 0,0 mm 0,0 km/h (0 Bft) O-SO 108 ° 0 min 0,000 mm 0,0 UV-I 0 W/m² 9,5 °C 12,3 °C 0,0 km/h (0 Bft)
01.07.2018 01:12 12,3 °C 83 % 1011,4 hPa 0,0 mm 0,0 km/h (0 Bft) O-SO 108 ° 0 min 0,000 mm 0,0 UV-I 0 W/m² 9,5 °C 12,3 °C 0,0 km/h (0 Bft)
01.07.2018 01:13 12,3 °C 83 % 1011,4 hPa 0,0 mm 0,0 km/h (0 Bft) O-SO 108 ° 0 min 0,000 mm 0,0 UV-I 0 W/m² 9,5 °C 12,3 °C 0,0 km/h (0 Bft)
01.07.2018 01:14 12,3 °C 83 % 1011,4 hPa 0,0 mm 0,0 km/h (0 Bft) O-SO 108 ° 0 min 0,000 mm 0,0 UV-I 0 W/m² 9,5 °C 12,3 °C 0,0 km/h (0 Bft)
01.07.2018 01:15 12,3 °C 83 % 1011,4 hPa 0,0 mm 0,0 km/h (0 Bft) O-SO 108 ° 0 min 0,000 mm 0,0 UV-I 0 W/m² 9,5 °C 12,3 °C 0,0 km/h (0 Bft)
01.07.2018 01:16 12,3 °C 83 % 1011,4 hPa 0,0 mm 0,0 km/h (0 Bft) O-SO 108 ° 0 min 0,000 mm 0,0 UV-I 0 W/m² 9,5 °C 12,3 °C 0,0 km/h (0 Bft)
01.07.2018 01:17 12,3 °C 82 % 1011,4 hPa 0,0 mm 0,0 km/h (0 Bft) O-SO 108 ° 0 min 0,000 mm 0,0 UV-I 0 W/m² 9,3 °C 12,3 °C 0,0 km/h (0 Bft)
01.07.2018 01:18 12,3 °C 83 % 1011,4 hPa 0,0 mm 0,0 km/h (0 Bft) O-SO 108 ° 0 min 0,000 mm 0,0 UV-I 0 W/m² 9,5 °C 12,3 °C 0,0 km/h (0 Bft)
01.07.2018 01:19 12,3 °C 82 % 1011,4 hPa 0,0 mm 0,0 km/h (0 Bft) O-SO 108 ° 0 min 0,000 mm 0,0 UV-I 0 W/m² 9,3 °C 12,3 °C 0,0 km/h (0 Bft)
01.07.2018 01:20 12,3 °C 83 % 1011,4 hPa 0,0 mm 0,0 km/h (0 Bft) O-SO 108 ° 0 min 0,000 mm 0,0 UV-I 0 W/m² 9,5 °C 12,3 °C 0,0 km/h (0 Bft)
01.07.2018 01:21 12,4 °C 81 % 1011,4 hPa 0,0 mm 0,0 km/h (0 Bft) O-SO 108 ° 0 min 0,000 mm 0,0 UV-I 0 W/m² 9,2 °C 12,4 °C 0,0 km/h (0 Bft)
01.07.2018 01:22 12,4 °C 81 % 1011,4 hPa 0,0 mm 0,0 km/h (0 Bft) O-SO 108 ° 0 min 0,000 mm 0,0 UV-I 0 W/m² 9,2 °C 12,4 °C 0,0 km/h (0 Bft)
01.07.2018 01:23 12,5 °C 81 % 1011,3 hPa 0,0 mm 0,0 km/h (0 Bft) O-SO 108 ° 0 min 0,000 mm 0,0 UV-I 0 W/m² 9,3 °C 12,5 °C 0,0 km/h (0 Bft)
01.07.2018 01:24 12,4 °C 81 % 1011,4 hPa 0,0 mm 0,0 km/h (0 Bft) O-SO 108 ° 0 min 0,000 mm 0,0 UV-I 0 W/m² 9,2 °C 12,4 °C 0,0 km/h (0 Bft)
01.07.2018 01:25 12,4 °C 81 % 1011,4 hPa 0,0 mm 0,0 km/h (0 Bft) O-SO 108 ° 0 min 0,000 mm 0,0 UV-I 0 W/m² 9,2 °C 12,4 °C 0,0 km/h (0 Bft)
01.07.2018 01:26 12,3 °C 81 % 1011,4 hPa 0,0 mm 0,0 km/h (0 Bft) O-SO 108 ° 0 min 0,000 mm 0,0 UV-I 0 W/m² 9,1 °C 12,3 °C 0,0 km/h (0 Bft)
01.07.2018 01:27 12,3 °C 81 % 1011,4 hPa 0,0 mm 0,0 km/h (0 Bft) O-SO 108 ° 0 min 0,000 mm 0,0 UV-I 0 W/m² 9,1 °C 12,3 °C 0,0 km/h (0 Bft)
01.07.2018 01:28 12,3 °C 82 % 1011,4 hPa 0,0 mm 0,0 km/h (0 Bft) O-SO 108 ° 0 min 0,000 mm 0,0 UV-I 0 W/m² 9,3 °C 12,3 °C 0,0 km/h (0 Bft)
01.07.2018 01:29 12,2 °C 83 % 1011,5 hPa 0,0 mm 0,0 km/h (0 Bft) O-SO 108 ° 0 min 0,000 mm 0,0 UV-I 0 W/m² 9,4 °C 12,2 °C 0,0 km/h (0 Bft)
01.07.2018 01:30 12,2 °C 82 % 1011,5 hPa 0,0 mm 0,0 km/h (0 Bft) O-SO 108 ° 0 min 0,000 mm 0,0 UV-I 0 W/m² 9,2 °C 12,2 °C 0,0 km/h (0 Bft)
01.07.2018 01:31 12,1 °C 82 % 1011,5 hPa 0,0 mm 0,0 km/h (0 Bft) O-SO 108 ° 0 min 0,000 mm 0,0 UV-I 0 W/m² 9,1 °C 12,1 °C 0,0 km/h (0 Bft)
01.07.2018 01:32 12,1 °C 82 % 1011,6 hPa 0,0 mm 0,0 km/h (0 Bft) O-SO 108 ° 0 min 0,000 mm 0,0 UV-I 0 W/m² 9,1 °C 12,1 °C 0,0 km/h (0 Bft)
01.07.2018 01:33 12,1 °C 82 % 1011,6 hPa 0,0 mm 0,0 km/h (0 Bft) O-SO 108 ° 0 min 0,000 mm 0,0 UV-I 0 W/m² 9,1 °C 12,1 °C 0,0 km/h (0 Bft)
01.07.2018 01:34 12,1 °C 82 % 1011,5 hPa 0,0 mm 0,0 km/h (0 Bft) O-SO 108 ° 0 min 0,000 mm 0,0 UV-I 0 W/m² 9,1 °C 12,1 °C 0,0 km/h (0 Bft)
01.07.2018 01:35 11,9 °C 83 % 1011,5 hPa 0,0 mm 0,0 km/h (0 Bft) O-SO 108 ° 0 min 0,000 mm 0,0 UV-I 0 W/m² 9,1 °C 11,9 °C 0,0 km/h (0 Bft)
01.07.2018 01:36 11,9 °C 83 % 1011,6 hPa 0,0 mm 0,0 km/h (0 Bft) O-SO 108 ° 0 min 0,000 mm 0,0 UV-I 0 W/m² 9,1 °C 11,9 °C 0,0 km/h (0 Bft)
01.07.2018 01:37 11,8 °C 84 % 1011,6 hPa 0,0 mm 0,0 km/h (0 Bft) O-SO 108 ° 0 min 0,000 mm 0,0 UV-I 0 W/m² 9,2 °C 11,8 °C 0,0 km/h (0 Bft)
01.07.2018 01:38 11,7 °C 84 % 1011,6 hPa 0,0 mm 0,0 km/h (0 Bft) O-SO 108 ° 0 min 0,000 mm 0,0 UV-I 0 W/m² 9,1 °C 11,7 °C 0,0 km/h (0 Bft)
01.07.2018 01:39 11,8 °C 84 % 1011,6 hPa 0,0 mm 0,0 km/h (0 Bft) O-SO 108 ° 0 min 0,000 mm 0,0 UV-I 0 W/m² 9,2 °C 11,8 °C 0,0 km/h (0 Bft)
01.07.2018 01:40 11,8 °C 83 % 1011,6 hPa 0,0 mm 0,0 km/h (0 Bft) O-SO 108 ° 0 min 0,000 mm 0,0 UV-I 0 W/m² 9,0 °C 11,8 °C 0,0 km/h (0 Bft)
01.07.2018 01:41 11,9 °C 83 % 1011,6 hPa 0,0 mm 0,0 km/h (0 Bft) O-SO 108 ° 0 min 0,000 mm 0,0 UV-I 0 W/m² 9,1 °C 11,9 °C 0,0 km/h (0 Bft)
01.07.2018 01:42 11,9 °C 82 % 1011,6 hPa 0,0 mm 0,0 km/h (0 Bft) O-SO 108 ° 0 min 0,000 mm 0,0 UV-I 0 W/m² 8,9 °C 11,9 °C 0,0 km/h (0 Bft)
01.07.2018 01:43 11,8 °C 82 % 1011,6 hPa 0,0 mm 0,0 km/h (0 Bft) O-SO 108 ° 0 min 0,000 mm 0,0 UV-I 0 W/m² 8,8 °C 11,8 °C 0,0 km/h (0 Bft)
01.07.2018 01:44 11,8 °C 84 % 1011,5 hPa 0,0 mm 0,0 km/h (0 Bft) O-SO 108 ° 0 min 0,000 mm 0,0 UV-I 0 W/m² 9,2 °C 11,8 °C 0,0 km/h (0 Bft)
01.07.2018 01:45 11,8 °C 84 % 1011,5 hPa 0,0 mm 0,0 km/h (0 Bft) O-SO 108 ° 0 min 0,000 mm 0,0 UV-I 0 W/m² 9,2 °C 11,8 °C 0,0 km/h (0 Bft)
01.07.2018 01:46 11,8 °C 84 % 1011,4 hPa 0,0 mm 0,0 km/h (0 Bft) O-SO 108 ° 0 min 0,000 mm 0,0 UV-I 0 W/m² 9,2 °C 11,8 °C 0,0 km/h (0 Bft)
01.07.2018 01:47 11,8 °C 82 % 1011,5 hPa 0,0 mm 0,0 km/h (0 Bft) O-SO 108 ° 0 min 0,000 mm 0,0 UV-I 0 W/m² 8,8 °C 11,8 °C 0,0 km/h (0 Bft)
01.07.2018 01:48 11,9 °C 82 % 1011,4 hPa 0,0 mm 0,0 km/h (0 Bft) O-SO 108 ° 0 min 0,000 mm 0,0 UV-I 0 W/m² 8,9 °C 11,9 °C 0,0 km/h (0 Bft)
01.07.2018 01:49 11,9 °C 81 % 1011,4 hPa 0,0 mm 0,0 km/h (0 Bft) O-SO 108 ° 0 min 0,000 mm 0,0 UV-I 0 W/m² 8,7 °C 11,9 °C 0,0 km/h (0 Bft)
01.07.2018 01:50 11,9 °C 81 % 1011,4 hPa 0,0 mm 0,0 km/h (0 Bft) O-SO 108 ° 0 min 0,000 mm 0,0 UV-I 0 W/m² 8,7 °C 11,9 °C 0,0 km/h (0 Bft)
01.07.2018 01:51 11,8 °C 82 % 1011,4 hPa 0,0 mm 0,0 km/h (0 Bft) O-SO 108 ° 0 min 0,000 mm 0,0 UV-I 0 W/m² 8,8 °C 11,8 °C 0,0 km/h (0 Bft)
01.07.2018 01:52 11,7 °C 83 % 1011,4 hPa 0,0 mm 0,0 km/h (0 Bft) O-SO 108 ° 0 min 0,000 mm 0,0 UV-I 0 W/m² 8,9 °C 11,7 °C 0,0 km/h (0 Bft)
01.07.2018 01:53 11,7 °C 83 % 1011,4 hPa 0,0 mm 0,0 km/h (0 Bft) O-SO 108 ° 0 min 0,000 mm 0,0 UV-I 0 W/m² 8,9 °C 11,7 °C 0,0 km/h (0 Bft)
01.07.2018 01:54 11,6 °C 84 % 1011,4 hPa 0,0 mm 0,0 km/h (0 Bft) O-SO 108 ° 0 min 0,000 mm 0,0 UV-I 0 W/m² 9,0 °C 11,6 °C 0,0 km/h (0 Bft)
01.07.2018 01:55 11,5 °C 84 % 1011,5 hPa 0,0 mm 0,0 km/h (0 Bft) O-SO 108 ° 0 min 0,000 mm 0,0 UV-I 0 W/m² 8,9 °C 11,5 °C 0,0 km/h (0 Bft)
01.07.2018 01:56 11,5 °C 85 % 1011,5 hPa 0,0 mm 0,0 km/h (0 Bft) O-SO 108 ° 0 min 0,000 mm 0,0 UV-I 0 W/m² 9,1 °C 11,5 °C 0,0 km/h (0 Bft)
01.07.2018 01:57 11,5 °C 84 % 1011,5 hPa 0,0 mm 0,0 km/h (0 Bft) O-SO 108 ° 0 min 0,000 mm 0,0 UV-I 0 W/m² 8,9 °C 11,5 °C 0,0 km/h (0 Bft)
01.07.2018 01:58 11,4 °C 83 % 1011,4 hPa 0,0 mm 0,0 km/h (0 Bft) O-SO 108 ° 0 min 0,000 mm 0,0 UV-I 0 W/m² 8,6 °C 11,4 °C 0,0 km/h (0 Bft)
01.07.2018 01:59 11,4 °C 84 % 1011,4 hPa 0,0 mm 0,0 km/h (0 Bft) O-SO 108 ° 0 min 0,000 mm 0,0 UV-I 0 W/m² 8,8 °C 11,4 °C 0,0 km/h (0 Bft)
01.07.2018 02:00 11,4 °C 84 % 1011,4 hPa 0,0 mm 0,0 km/h (0 Bft) O-SO 108 ° 0 min 0,000 mm 0,0 UV-I 0 W/m² 8,8 °C 11,4 °C 0,0 km/h (0 Bft)
01.07.2018 02:01 11,4 °C 84 % 1011,4 hPa 0,0 mm 0,0 km/h (0 Bft) O-SO 108 ° 0 min 0,000 mm 0,0 UV-I 0 W/m² 8,8 °C 11,4 °C 0,0 km/h (0 Bft)
01.07.2018 02:02 11,4 °C 85 % 1011,4 hPa 0,0 mm 0,0 km/h (0 Bft) O-SO 108 ° 0 min 0,000 mm 0,0 UV-I 0 W/m² 9,0 °C 11,4 °C 0,0 km/h (0 Bft)
01.07.2018 02:03 11,4 °C 84 % 1011,4 hPa 0,0 mm 0,0 km/h (0 Bft) O-SO 108 ° 0 min 0,000 mm 0,0 UV-I 0 W/m² 8,8 °C 11,4 °C 0,0 km/h (0 Bft)
01.07.2018 02:04 11,4 °C 84 % 1011,4 hPa 0,0 mm 0,0 km/h (0 Bft) O-SO 108 ° 0 min 0,000 mm 0,0 UV-I 0 W/m² 8,8 °C 11,4 °C 0,0 km/h (0 Bft)
01.07.2018 02:05 11,4 °C 84 % 1011,4 hPa 0,0 mm 0,0 km/h (0 Bft) O-SO 108 ° 0 min 0,000 mm 0,0 UV-I 0 W/m² 8,8 °C 11,4 °C 0,0 km/h (0 Bft)
01.07.2018 02:06 11,4 °C 83 % 1011,4 hPa 0,0 mm 1,7 km/h (1 Bft) O-SO 108 ° 0 min 0,000 mm 0,0 UV-I 0 W/m² 8,6 °C 11,4 °C 3,2 km/h (1 Bft)
01.07.2018 02:07 11,5 °C 83 % 1011,4 hPa 0,0 mm 1,9 km/h (1 Bft) O-SO 108 ° 0 min 0,000 mm 0,0 UV-I 0 W/m² 8,7 °C 11,5 °C 3,2 km/h (1 Bft)
01.07.2018 02:08 11,5 °C 83 % 1011,4 hPa 0,0 mm 1,7 km/h (1 Bft) O-SO 108 ° 0 min 0,000 mm 0,0 UV-I 0 W/m² 8,7 °C 11,5 °C 3,2 km/h (1 Bft)
01.07.2018 02:09 11,5 °C 83 % 1011,4 hPa 0,0 mm 1,3 km/h (1 Bft) O-SO 108 ° 0 min 0,000 mm 0,0 UV-I 0 W/m² 8,7 °C 11,5 °C 1,6 km/h (1 Bft)
01.07.2018 02:10 11,6 °C 83 % 1011,4 hPa 0,0 mm 0,4 km/h (0 Bft) O-SO 108 ° 0 min 0,000 mm 0,0 UV-I 0 W/m² 8,8 °C 11,6 °C 1,6 km/h (1 Bft)
01.07.2018 02:11 11,5 °C 83 % 1011,4 hPa 0,0 mm 0,5 km/h (0 Bft) O-SO 108 ° 0 min 0,000 mm 0,0 UV-I 0 W/m² 8,7 °C 11,5 °C 1,6 km/h (1 Bft)
01.07.2018 02:12 11,4 °C 83 % 1011,4 hPa 0,0 mm 0,0 km/h (0 Bft) O-SO 108 ° 0 min 0,000 mm 0,0 UV-I 0 W/m² 8,6 °C 11,4 °C 0,0 km/h (0 Bft)
01.07.2018 02:13 11,3 °C 83 % 1011,4 hPa 0,0 mm 0,0 km/h (0 Bft) O-SO 108 ° 0 min 0,000 mm 0,0 UV-I 0 W/m² 8,5 °C 11,3 °C 0,0 km/h (0 Bft)
01.07.2018 02:14 11,2 °C 84 % 1011,4 hPa 0,0 mm 0,0 km/h (0 Bft) O-SO 108 ° 0 min 0,000 mm 0,0 UV-I 0 W/m² 8,6 °C 11,2 °C 0,0 km/h (0 Bft)
01.07.2018 02:15 11,2 °C 84 % 1011,3 hPa 0,0 mm 0,0 km/h (0 Bft) O-SO 108 ° 0 min 0,000 mm 0,0 UV-I 0 W/m² 8,6 °C 11,2 °C 0,0 km/h (0 Bft)
01.07.2018 02:16 11,2 °C 84 % 1011,4 hPa 0,0 mm 0,0 km/h (0 Bft) O-SO 108 ° 0 min 0,000 mm 0,0 UV-I 0 W/m² 8,6 °C 11,2 °C 0,0 km/h (0 Bft)
01.07.2018 02:17 11,2 °C 84 % 1011,4 hPa 0,0 mm 0,0 km/h (0 Bft) O-SO 108 ° 0 min 0,000 mm 0,0 UV-I 0 W/m² 8,6 °C 11,2 °C 0,0 km/h (0 Bft)
01.07.2018 02:18 11,3 °C 83 % 1011,4 hPa 0,0 mm 0,0 km/h (0 Bft) O-SO 108 ° 0 min 0,000 mm 0,0 UV-I 0 W/m² 8,5 °C 11,3 °C 0,0 km/h (0 Bft)
01.07.2018 02:19 11,3 °C 82 % 1011,4 hPa 0,0 mm 0,0 km/h (0 Bft) O-SO 108 ° 0 min 0,000 mm 0,0 UV-I 0 W/m² 8,3 °C 11,3 °C 0,0 km/h (0 Bft)
01.07.2018 02:20 11,3 °C 82 % 1011,4 hPa 0,0 mm 0,0 km/h (0 Bft) O-SO 108 ° 0 min 0,000 mm 0,0 UV-I 0 W/m² 8,3 °C 11,3 °C 0,0 km/h (0 Bft)
01.07.2018 02:21 11,4 °C 82 % 1011,4 hPa 0,0 mm 0,0 km/h (0 Bft) O-SO 108 ° 0 min 0,000 mm 0,0 UV-I 0 W/m² 8,4 °C 11,4 °C 0,0 km/h (0 Bft)
01.07.2018 02:22 11,4 °C 82 % 1011,4 hPa 0,0 mm 0,0 km/h (0 Bft) O-SO 108 ° 0 min 0,000 mm 0,0 UV-I 0 W/m² 8,4 °C 11,4 °C 0,0 km/h (0 Bft)
01.07.2018 02:23 11,4 °C 82 % 1011,4 hPa 0,0 mm 0,0 km/h (0 Bft) O-SO 108 ° 0 min 0,000 mm 0,0 UV-I 0 W/m² 8,4 °C 11,4 °C 0,0 km/h (0 Bft)
01.07.2018 02:24 11,3 °C 82 % 1011,4 hPa 0,0 mm 0,0 km/h (0 Bft) O-SO 108 ° 0 min 0,000 mm 0,0 UV-I 0 W/m² 8,3 °C 11,3 °C 0,0 km/h (0 Bft)
01.07.2018 02:25 11,3 °C 82 % 1011,4 hPa 0,0 mm 0,0 km/h (0 Bft) O-SO 108 ° 0 min 0,000 mm 0,0 UV-I 0 W/m² 8,3 °C 11,3 °C 0,0 km/h (0 Bft)
01.07.2018 02:26 11,3 °C 83 % 1011,4 hPa 0,0 mm 0,0 km/h (0 Bft) O-SO 108 ° 0 min 0,000 mm 0,0 UV-I 0 W/m² 8,5 °C 11,3 °C 0,0 km/h (0 Bft)
01.07.2018 02:27 11,2 °C 83 % 1011,3 hPa 0,0 mm 0,0 km/h (0 Bft) O-SO 108 ° 0 min 0,000 mm 0,0 UV-I 0 W/m² 8,4 °C 11,2 °C 0,0 km/h (0 Bft)
01.07.2018 02:28 11,2 °C 84 % 1011,3 hPa 0,0 mm 0,0 km/h (0 Bft) O-SO 109 ° 0 min 0,000 mm 0,0 UV-I 0 W/m² 8,6 °C 11,2 °C 0,0 km/h (0 Bft)
01.07.2018 02:29 11,2 °C 83 % 1011,3 hPa 0,0 mm 0,0 km/h (0 Bft) O-SO 108 ° 0 min 0,000 mm 0,0 UV-I 0 W/m² 8,4 °C 11,2 °C 0,0 km/h (0 Bft)
01.07.2018 02:30 11,2 °C 83 % 1011,3 hPa 0,0 mm 0,0 km/h (0 Bft) O-SO 108 ° 0 min 0,000 mm 0,0 UV-I 0 W/m² 8,4 °C 11,2 °C 0,0 km/h (0 Bft)
01.07.2018 02:31 11,2 °C 82 % 1011,3 hPa 0,0 mm 0,2 km/h (0 Bft) O-SO 108 ° 0 min 0,000 mm 0,0 UV-I 0 W/m² 8,2 °C 11,2 °C 1,6 km/h (1 Bft)
01.07.2018 02:32 11,2 °C 83 % 1011,3 hPa 0,0 mm 0,7 km/h (0 Bft) O-SO 108 ° 0 min 0,000 mm 0,0 UV-I 0 W/m² 8,4 °C 11,2 °C 1,6 km/h (1 Bft)
01.07.2018 02:33 11,2 °C 83 % 1011,3 hPa 0,0 mm 0,0 km/h (0 Bft) O-SO 108 ° 0 min 0,000 mm 0,0 UV-I 0 W/m² 8,4 °C 11,2 °C 0,0 km/h (0 Bft)
01.07.2018 02:34 11,2 °C 84 % 1011,3 hPa 0,0 mm 0,0 km/h (0 Bft) O-SO 108 ° 0 min 0,000 mm 0,0 UV-I 0 W/m² 8,6 °C 11,2 °C 0,0 km/h (0 Bft)
01.07.2018 02:35 11,1 °C 84 % 1011,4 hPa 0,0 mm 0,0 km/h (0 Bft) O-SO 108 ° 0 min 0,000 mm 0,0 UV-I 0 W/m² 8,5 °C 11,1 °C 0,0 km/h (0 Bft)
01.07.2018 02:36 11,1 °C 84 % 1011,4 hPa 0,0 mm 0,0 km/h (0 Bft) O-SO 108 ° 0 min 0,000 mm 0,0 UV-I 0 W/m² 8,5 °C 11,1 °C 0,0 km/h (0 Bft)
01.07.2018 02:37 11,0 °C 85 % 1011,4 hPa 0,0 mm 0,0 km/h (0 Bft) O-SO 108 ° 0 min 0,000 mm 0,0 UV-I 0 W/m² 8,6 °C 11,0 °C 0,0 km/h (0 Bft)
01.07.2018 02:38 10,9 °C 85 % 1011,4 hPa 0,0 mm 0,0 km/h (0 Bft) O-SO 108 ° 0 min 0,000 mm 0,0 UV-I 0 W/m² 8,5 °C 10,9 °C 0,0 km/h (0 Bft)
01.07.2018 02:39 10,9 °C 84 % 1011,4 hPa 0,0 mm 0,0 km/h (0 Bft) O-SO 108 ° 0 min 0,000 mm 0,0 UV-I 0 W/m² 8,3 °C 10,9 °C 0,0 km/h (0 Bft)
01.07.2018 02:40 11,0 °C 84 % 1011,3 hPa 0,0 mm 0,0 km/h (0 Bft) O-SO 108 ° 0 min 0,000 mm 0,0 UV-I 0 W/m² 8,4 °C 11,0 °C 0,0 km/h (0 Bft)
01.07.2018 02:41 10,9 °C 84 % 1011,3 hPa 0,0 mm 0,0 km/h (0 Bft) O-SO 108 ° 0 min 0,000 mm 0,0 UV-I 0 W/m² 8,3 °C 10,9 °C 0,0 km/h (0 Bft)
01.07.2018 02:42 10,9 °C 84 % 1011,4 hPa 0,0 mm 0,0 km/h (0 Bft) O-SO 108 ° 0 min 0,000 mm 0,0 UV-I 0 W/m² 8,3 °C 10,9 °C 0,0 km/h (0 Bft)
01.07.2018 02:43 10,9 °C 84 % 1011,4 hPa 0,0 mm 0,0 km/h (0 Bft) O-SO 108 ° 0 min 0,000 mm 0,0 UV-I 0 W/m² 8,3 °C 10,9 °C 0,0 km/h (0 Bft)
01.07.2018 02:44 10,9 °C 84 % 1011,4 hPa 0,0 mm 0,0 km/h (0 Bft) O-SO 108 ° 0 min 0,000 mm 0,0 UV-I 0 W/m² 8,3 °C 10,9 °C 0,0 km/h (0 Bft)
01.07.2018 02:45 10,8 °C 85 % 1011,4 hPa 0,0 mm 0,0 km/h (0 Bft) O-SO 108 ° 0 min 0,000 mm 0,0 UV-I 0 W/m² 8,4 °C 10,8 °C 0,0 km/h (0 Bft)
01.07.2018 02:46 10,8 °C 85 % 1011,4 hPa 0,0 mm 0,0 km/h (0 Bft) O-SO 108 ° 0 min 0,000 mm 0,0 UV-I 0 W/m² 8,4 °C 10,8 °C 0,0 km/h (0 Bft)
01.07.2018 02:47 10,8 °C 85 % 1011,4 hPa 0,0 mm 0,0 km/h (0 Bft) O-SO 108 ° 0 min 0,000 mm 0,0 UV-I 0 W/m² 8,4 °C 10,8 °C 0,0 km/h (0 Bft)
01.07.2018 02:48 10,8 °C 85 % 1011,4 hPa 0,0 mm 0,0 km/h (0 Bft) O-SO 108 ° 0 min 0,000 mm 0,0 UV-I 0 W/m² 8,4 °C 10,8 °C 0,0 km/h (0 Bft)
01.07.2018 02:49 10,7 °C 84 % 1011,4 hPa 0,0 mm 0,0 km/h (0 Bft) O-SO 108 ° 0 min 0,000 mm 0,0 UV-I 0 W/m² 8,1 °C 10,7 °C 0,0 km/h (0 Bft)
01.07.2018 02:50 10,7 °C 85 % 1011,4 hPa 0,0 mm 0,0 km/h (0 Bft) O-SO 108 ° 0 min 0,000 mm 0,0 UV-I 0 W/m² 8,3 °C 10,7 °C 0,0 km/h (0 Bft)
01.07.2018 02:51 10,7 °C 85 % 1011,4 hPa 0,0 mm 0,0 km/h (0 Bft) O-SO 108 ° 0 min 0,000 mm 0,0 UV-I 0 W/m² 8,3 °C 10,7 °C 0,0 km/h (0 Bft)
01.07.2018 02:52 10,7 °C 86 % 1011,4 hPa 0,0 mm 0,0 km/h (0 Bft) O-SO 108 ° 0 min 0,000 mm 0,0 UV-I 0 W/m² 8,5 °C 10,7 °C 0,0 km/h (0 Bft)
01.07.2018 02:53 10,6 °C 85 % 1011,4 hPa 0,0 mm 0,0 km/h (0 Bft) O-SO 108 ° 0 min 0,000 mm 0,0 UV-I 0 W/m² 8,2 °C 10,6 °C 0,0 km/h (0 Bft)
01.07.2018 02:54 10,7 °C 86 % 1011,4 hPa 0,0 mm 0,0 km/h (0 Bft) O-SO 108 ° 0 min 0,000 mm 0,0 UV-I 0 W/m² 8,5 °C 10,7 °C 0,0 km/h (0 Bft)
01.07.2018 02:55 10,7 °C 85 % 1011,4 hPa 0,0 mm 0,0 km/h (0 Bft) O-SO 108 ° 0 min 0,000 mm 0,0 UV-I 0 W/m² 8,3 °C 10,7 °C 0,0 km/h (0 Bft)
01.07.2018 02:56 10,6 °C 85 % 1011,5 hPa 0,0 mm 0,0 km/h (0 Bft) O-SO 108 ° 0 min 0,000 mm 0,0 UV-I 0 W/m² 8,2 °C 10,6 °C 0,0 km/h (0 Bft)
01.07.2018 02:57 10,6 °C 85 % 1011,5 hPa 0,0 mm 0,0 km/h (0 Bft) O-SO 108 ° 0 min 0,000 mm 0,0 UV-I 0 W/m² 8,2 °C 10,6 °C 0,0 km/h (0 Bft)
01.07.2018 02:58 10,6 °C 85 % 1011,5 hPa 0,0 mm 0,0 km/h (0 Bft) O-SO 108 ° 0 min 0,000 mm 0,0 UV-I 0 W/m² 8,2 °C 10,6 °C 0,0 km/h (0 Bft)
01.07.2018 02:59 10,6 °C 85 % 1011,5 hPa 0,0 mm 0,0 km/h (0 Bft) O-SO 108 ° 0 min 0,000 mm 0,0 UV-I 0 W/m² 8,2 °C 10,6 °C 0,0 km/h (0 Bft)
01.07.2018 03:00 10,6 °C 85 % 1011,5 hPa 0,0 mm 0,0 km/h (0 Bft) O-SO 108 ° 0 min 0,000 mm 0,0 UV-I 0 W/m² 8,2 °C 10,6 °C 0,0 km/h (0 Bft)
01.07.2018 03:01 10,6 °C 85 % 1011,5 hPa 0,0 mm 0,0 km/h (0 Bft) O-SO 108 ° 0 min 0,000 mm 0,0 UV-I 0 W/m² 8,2 °C 10,6 °C 0,0 km/h (0 Bft)
01.07.2018 03:02 10,6 °C 84 % 1011,5 hPa 0,0 mm 0,0 km/h (0 Bft) O-SO 108 ° 0 min 0,000 mm 0,0 UV-I 0 W/m² 8,0 °C 10,6 °C 0,0 km/h (0 Bft)
01.07.2018 03:03 10,6 °C 85 % 1011,5 hPa 0,0 mm 0,0 km/h (0 Bft) O-SO 108 ° 0 min 0,000 mm 0,0 UV-I 0 W/m² 8,2 °C 10,6 °C 0,0 km/h (0 Bft)
01.07.2018 03:05 10,6 °C 85 % 1011,4 hPa 0,0 mm 0,0 km/h (0 Bft) O-SO 108 ° 0 min 0,000 mm 0,0 UV-I 0 W/m² 8,2 °C 10,6 °C 0,0 km/h (0 Bft)
01.07.2018 03:06 10,6 °C 85 % 1011,4 hPa 0,0 mm 0,0 km/h (0 Bft) O-SO 108 ° 0 min 0,000 mm 0,0 UV-I 0 W/m² 8,2 °C 10,6 °C 0,0 km/h (0 Bft)
01.07.2018 03:07 10,5 °C 85 % 1011,4 hPa 0,0 mm 0,0 km/h (0 Bft) O-SO 108 ° 0 min 0,000 mm 0,0 UV-I 0 W/m² 8,1 °C 10,5 °C 0,0 km/h (0 Bft)
01.07.2018 03:08 10,4 °C 85 % 1011,5 hPa 0,0 mm 0,0 km/h (0 Bft) O-SO 108 ° 0 min 0,000 mm 0,0 UV-I 0 W/m² 8,0 °C 10,4 °C 0,0 km/h (0 Bft)
01.07.2018 03:09 10,4 °C 84 % 1011,4 hPa 0,0 mm 0,0 km/h (0 Bft) O-SO 108 ° 0 min 0,000 mm 0,0 UV-I 0 W/m² 7,8 °C 10,4 °C 0,0 km/h (0 Bft)
01.07.2018 03:10 10,4 °C 85 % 1011,4 hPa 0,0 mm 0,0 km/h (0 Bft) O-SO 108 ° 0 min 0,000 mm 0,0 UV-I 0 W/m² 8,0 °C 10,4 °C 0,0 km/h (0 Bft)
01.07.2018 03:11 10,4 °C 85 % 1011,5 hPa 0,0 mm 0,0 km/h (0 Bft) O-SO 108 ° 0 min 0,000 mm 0,0 UV-I 0 W/m² 8,0 °C 10,4 °C 0,0 km/h (0 Bft)
01.07.2018 03:12 10,4 °C 84 % 1011,4 hPa 0,0 mm 0,0 km/h (0 Bft) O-SO 108 ° 0 min 0,000 mm 0,0 UV-I 0 W/m² 7,8 °C 10,4 °C 0,0 km/h (0 Bft)
01.07.2018 03:13 10,5 °C 84 % 1011,4 hPa 0,0 mm 0,0 km/h (0 Bft) O-SO 108 ° 0 min 0,000 mm 0,0 UV-I 0 W/m² 7,9 °C 10,5 °C 0,0 km/h (0 Bft)
01.07.2018 03:14 10,4 °C 84 % 1011,4 hPa 0,0 mm 0,0 km/h (0 Bft) O-SO 108 ° 0 min 0,000 mm 0,0 UV-I 0 W/m² 7,8 °C 10,4 °C 0,0 km/h (0 Bft)
01.07.2018 03:15 10,4 °C 84 % 1011,4 hPa 0,0 mm 0,0 km/h (0 Bft) O-SO 108 ° 0 min 0,000 mm 0,0 UV-I 0 W/m² 7,8 °C 10,4 °C 0,0 km/h (0 Bft)
01.07.2018 03:16 10,4 °C 84 % 1011,4 hPa 0,0 mm 0,0 km/h (0 Bft) O-SO 108 ° 0 min 0,000 mm 0,0 UV-I 0 W/m² 7,8 °C 10,4 °C 0,0 km/h (0 Bft)
01.07.2018 03:17 10,3 °C 85 % 1011,4 hPa 0,0 mm 0,0 km/h (0 Bft) O-SO 108 ° 0 min 0,000 mm 0,0 UV-I 0 W/m² 7,9 °C 10,3 °C 0,0 km/h (0 Bft)
01.07.2018 03:18 10,3 °C 85 % 1011,4 hPa 0,0 mm 0,0 km/h (0 Bft) O-SO 108 ° 0 min 0,000 mm 0,0 UV-I 0 W/m² 7,9 °C 10,3 °C 0,0 km/h (0 Bft)
01.07.2018 03:19 10,3 °C 86 % 1011,4 hPa 0,0 mm 0,0 km/h (0 Bft) O-SO 108 ° 0 min 0,000 mm 0,0 UV-I 0 W/m² 8,1 °C 10,3 °C 0,0 km/h (0 Bft)
01.07.2018 03:20 10,3 °C 85 % 1011,4 hPa 0,0 mm 0,0 km/h (0 Bft) O-SO 108 ° 0 min 0,000 mm 0,0 UV-I 0 W/m² 7,9 °C 10,3 °C 0,0 km/h (0 Bft)
01.07.2018 03:21 10,3 °C 85 % 1011,4 hPa 0,0 mm 0,0 km/h (0 Bft) O-SO 108 ° 0 min 0,000 mm 0,0 UV-I 0 W/m² 7,9 °C 10,3 °C 0,0 km/h (0 Bft)
01.07.2018 03:22 10,3 °C 85 % 1011,4 hPa 0,0 mm 0,0 km/h (0 Bft) O-SO 108 ° 0 min 0,000 mm 0,0 UV-I 0 W/m² 7,9 °C 10,3 °C 0,0 km/h (0 Bft)
01.07.2018 03:23 10,3 °C 85 % 1011,4 hPa 0,0 mm 0,0 km/h (0 Bft) O-SO 108 ° 0 min 0,000 mm 0,0 UV-I 0 W/m² 7,9 °C 10,3 °C 0,0 km/h (0 Bft)
01.07.2018 03:24 10,3 °C 85 % 1011,4 hPa 0,0 mm 0,0 km/h (0 Bft) O-SO 108 ° 0 min 0,000 mm 0,0 UV-I 0 W/m² 7,9 °C 10,3 °C 0,0 km/h (0 Bft)
01.07.2018 03:25 10,3 °C 85 % 1011,4 hPa 0,0 mm 0,0 km/h (0 Bft) O-SO 108 ° 0 min 0,000 mm 0,0 UV-I 0 W/m² 7,9 °C 10,3 °C 0,0 km/h (0 Bft)
01.07.2018 03:26 10,3 °C 85 % 1011,4 hPa 0,0 mm 0,0 km/h (0 Bft) O-SO 108 ° 0 min 0,000 mm 0,0 UV-I 0 W/m² 7,9 °C 10,3 °C 0,0 km/h (0 Bft)
01.07.2018 03:27 10,3 °C 85 % 1011,4 hPa 0,0 mm 0,0 km/h (0 Bft) O-SO 108 ° 0 min 0,000 mm 0,0 UV-I 0 W/m² 7,9 °C 10,3 °C 0,0 km/h (0 Bft)
01.07.2018 03:28 10,3 °C 85 % 1011,4 hPa 0,0 mm 0,0 km/h (0 Bft) O-SO 108 ° 0 min 0,000 mm 0,0 UV-I 0 W/m² 7,9 °C 10,3 °C 0,0 km/h (0 Bft)
01.07.2018 03:29 10,2 °C 85 % 1011,4 hPa 0,0 mm 0,0 km/h (0 Bft) O-SO 108 ° 0 min 0,000 mm 0,0 UV-I 0 W/m² 7,8 °C 10,2 °C 0,0 km/h (0 Bft)
01.07.2018 03:30 10,2 °C 85 % 1011,4 hPa 0,0 mm 0,0 km/h (0 Bft) O-SO 108 ° 0 min 0,000 mm 0,0 UV-I 0 W/m² 7,8 °C 10,2 °C 0,0 km/h (0 Bft)
01.07.2018 03:31 10,1 °C 85 % 1011,4 hPa 0,0 mm 0,0 km/h (0 Bft) O-SO 108 ° 0 min 0,000 mm 0,0 UV-I 0 W/m² 7,7 °C 10,1 °C 0,0 km/h (0 Bft)
01.07.2018 03:32 10,1 °C 86 % 1011,4 hPa 0,0 mm 0,0 km/h (0 Bft) O-SO 108 ° 0 min 0,000 mm 0,0 UV-I 0 W/m² 7,9 °C 10,1 °C 0,0 km/h (0 Bft)
01.07.2018 03:33 10,1 °C 86 % 1011,3 hPa 0,0 mm 0,0 km/h (0 Bft) O-SO 108 ° 0 min 0,000 mm 0,0 UV-I 0 W/m² 7,9 °C 10,1 °C 0,0 km/h (0 Bft)
01.07.2018 03:34 10,1 °C 86 % 1011,3 hPa 0,0 mm 0,0 km/h (0 Bft) O-SO 108 ° 0 min 0,000 mm 0,0 UV-I 0 W/m² 7,9 °C 10,1 °C 0,0 km/h (0 Bft)
01.07.2018 03:35 10,1 °C 86 % 1011,3 hPa 0,0 mm 0,0 km/h (0 Bft) O-SO 108 ° 0 min 0,000 mm 0,0 UV-I 0 W/m² 7,9 °C 10,1 °C 0,0 km/h (0 Bft)
01.07.2018 03:36 10,1 °C 86 % 1011,3 hPa 0,0 mm 0,0 km/h (0 Bft) O-SO 108 ° 0 min 0,000 mm 0,0 UV-I 0 W/m² 7,9 °C 10,1 °C 0,0 km/h (0 Bft)
01.07.2018 03:37 10,1 °C 86 % 1011,3 hPa 0,0 mm 0,0 km/h (0 Bft) O-SO 108 ° 0 min 0,000 mm 0,0 UV-I 0 W/m² 7,9 °C 10,1 °C 0,0 km/h (0 Bft)
01.07.2018 03:38 10,1 °C 86 % 1011,3 hPa 0,0 mm 0,0 km/h (0 Bft) O-SO 108 ° 0 min 0,000 mm 0,0 UV-I 0 W/m² 7,9 °C 10,1 °C 0,0 km/h (0 Bft)
01.07.2018 03:39 10,2 °C 86 % 1011,3 hPa 0,0 mm 0,0 km/h (0 Bft) O-SO 108 ° 0 min 0,000 mm 0,0 UV-I 0 W/m² 8,0 °C 10,2 °C 0,0 km/h (0 Bft)
01.07.2018 03:40 10,1 °C 86 % 1011,3 hPa 0,0 mm 0,0 km/h (0 Bft) O-SO 108 ° 0 min 0,000 mm 0,0 UV-I 0 W/m² 7,9 °C 10,1 °C 0,0 km/h (0 Bft)
01.07.2018 03:41 10,1 °C 86 % 1011,3 hPa 0,0 mm 0,0 km/h (0 Bft) O-SO 108 ° 0 min 0,000 mm 0,0 UV-I 0 W/m² 7,9 °C 10,1 °C 0,0 km/h (0 Bft)
01.07.2018 03:42 10,0 °C 86 % 1011,3 hPa 0,0 mm 0,0 km/h (0 Bft) O-SO 108 ° 0 min 0,000 mm 0,0 UV-I 0 W/m² 7,8 °C 10,0 °C 0,0 km/h (0 Bft)
01.07.2018 03:43 10,0 °C 86 % 1011,3 hPa 0,0 mm 0,0 km/h (0 Bft) O-SO 108 ° 0 min 0,000 mm 0,0 UV-I 0 W/m² 7,8 °C 10,0 °C 0,0 km/h (0 Bft)
01.07.2018 03:44 10,0 °C 86 % 1011,3 hPa 0,0 mm 0,0 km/h (0 Bft) O-SO 108 ° 0 min 0,000 mm 0,0 UV-I 0 W/m² 7,8 °C 10,0 °C 0,0 km/h (0 Bft)
01.07.2018 03:45 9,9 °C 86 % 1011,3 hPa 0,0 mm 0,0 km/h (0 Bft) O-SO 108 ° 0 min 0,000 mm 0,0 UV-I 0 W/m² 7,7 °C 9,9 °C 0,0 km/h (0 Bft)
01.07.2018 03:46 9,9 °C 87 % 1011,2 hPa 0,0 mm 0,0 km/h (0 Bft) O-SO 108 ° 0 min 0,000 mm 0,0 UV-I 0 W/m² 7,8 °C 9,9 °C 0,0 km/h (0 Bft)
01.07.2018 03:47 9,9 °C 87 % 1011,2 hPa 0,0 mm 0,0 km/h (0 Bft) O-SO 108 ° 0 min 0,000 mm 0,0 UV-I 0 W/m² 7,8 °C 9,9 °C 0,0 km/h (0 Bft)
01.07.2018 03:48 9,9 °C 87 % 1011,3 hPa 0,0 mm 0,0 km/h (0 Bft) O-SO 108 ° 0 min 0,000 mm 0,0 UV-I 0 W/m² 7,8 °C 9,9 °C 0,0 km/h (0 Bft)
01.07.2018 03:49 10,0 °C 86 % 1011,3 hPa 0,0 mm 0,0 km/h (0 Bft) O-SO 108 ° 0 min 0,000 mm 0,0 UV-I 0 W/m² 7,8 °C 10,0 °C 0,0 km/h (0 Bft)
01.07.2018 03:50 10,2 °C 86 % 1011,2 hPa 0,0 mm 0,9 km/h (0 Bft) O-SO 108 ° 0 min 0,000 mm 0,0 UV-I 0 W/m² 8,0 °C 10,2 °C 1,6 km/h (1 Bft)
01.07.2018 03:51 10,3 °C 86 % 1011,2 hPa 0,0 mm 0,5 km/h (0 Bft) O-SO 108 ° 0 min 0,000 mm 0,0 UV-I 0 W/m² 8,1 °C 10,3 °C 1,6 km/h (1 Bft)
01.07.2018 03:52 10,5 °C 85 % 1011,2 hPa 0,0 mm 0,0 km/h (0 Bft) O-SO 108 ° 0 min 0,000 mm 0,0 UV-I 0 W/m² 8,1 °C 10,5 °C 0,0 km/h (0 Bft)
01.07.2018 03:53 10,6 °C 85 % 1011,3 hPa 0,0 mm 0,0 km/h (0 Bft) O-SO 108 ° 0 min 0,000 mm 0,0 UV-I 0 W/m² 8,2 °C 10,6 °C 0,0 km/h (0 Bft)
01.07.2018 03:54 10,6 °C 85 % 1011,2 hPa 0,0 mm 0,0 km/h (0 Bft) O-SO 108 ° 0 min 0,000 mm 0,0 UV-I 0 W/m² 8,2 °C 10,6 °C 0,0 km/h (0 Bft)
01.07.2018 03:55 10,4 °C 85 % 1011,3 hPa 0,0 mm 0,0 km/h (0 Bft) O-SO 108 ° 0 min 0,000 mm 0,0 UV-I 0 W/m² 8,0 °C 10,4 °C 0,0 km/h (0 Bft)
01.07.2018 03:56 10,3 °C 85 % 1011,3 hPa 0,0 mm 0,0 km/h (0 Bft) O-SO 108 ° 0 min 0,000 mm 0,0 UV-I 0 W/m² 7,9 °C 10,3 °C 0,0 km/h (0 Bft)
01.07.2018 03:57 10,3 °C 85 % 1011,2 hPa 0,0 mm 0,0 km/h (0 Bft) O-SO 108 ° 0 min 0,000 mm 0,0 UV-I 0 W/m² 7,9 °C 10,3 °C 0,0 km/h (0 Bft)
01.07.2018 03:58 10,3 °C 85 % 1011,2 hPa 0,0 mm 0,0 km/h (0 Bft) O-SO 108 ° 0 min 0,000 mm 0,0 UV-I 0 W/m² 7,9 °C 10,3 °C 0,0 km/h (0 Bft)
01.07.2018 03:59 10,3 °C 85 % 1011,3 hPa 0,0 mm 0,0 km/h (0 Bft) O-SO 108 ° 0 min 0,000 mm 0,0 UV-I 0 W/m² 7,9 °C 10,3 °C 0,0 km/h (0 Bft)
01.07.2018 04:00 10,2 °C 85 % 1011,3 hPa 0,0 mm 0,0 km/h (0 Bft) O-SO 108 ° 0 min 0,000 mm 0,0 UV-I 0 W/m² 7,8 °C 10,2 °C 0,0 km/h (0 Bft)
01.07.2018 04:01 10,1 °C 85 % 1011,3 hPa 0,0 mm 0,0 km/h (0 Bft) O-SO 108 ° 0 min 0,000 mm 0,0 UV-I 0 W/m² 7,7 °C 10,1 °C 0,0 km/h (0 Bft)
01.07.2018 04:02 10,0 °C 86 % 1011,3 hPa 0,0 mm 0,0 km/h (0 Bft) O-SO 108 ° 0 min 0,000 mm 0,0 UV-I 0 W/m² 7,8 °C 10,0 °C 0,0 km/h (0 Bft)
01.07.2018 04:03 9,9 °C 86 % 1011,2 hPa 0,0 mm 0,0 km/h (0 Bft) O-SO 108 ° 0 min 0,000 mm 0,0 UV-I 0 W/m² 7,7 °C 9,9 °C 0,0 km/h (0 Bft)
01.07.2018 04:04 9,8 °C 87 % 1011,3 hPa 0,0 mm 0,0 km/h (0 Bft) O-SO 108 ° 0 min 0,000 mm 0,0 UV-I 0 W/m² 7,7 °C 9,8 °C 0,0 km/h (0 Bft)
01.07.2018 04:05 9,8 °C 87 % 1011,3 hPa 0,0 mm 0,0 km/h (0 Bft) O-SO 108 ° 0 min 0,000 mm 0,0 UV-I 0 W/m² 7,7 °C 9,8 °C 0,0 km/h (0 Bft)
01.07.2018 04:06 9,7 °C 87 % 1011,3 hPa 0,0 mm 0,0 km/h (0 Bft) O-SO 108 ° 0 min 0,000 mm 0,0 UV-I 0 W/m² 7,6 °C 9,7 °C 0,0 km/h (0 Bft)
01.07.2018 04:07 9,7 °C 88 % 1011,3 hPa 0,0 mm 0,0 km/h (0 Bft) O-SO 108 ° 0 min 0,000 mm 0,0 UV-I 0 W/m² 7,8 °C 9,7 °C 0,0 km/h (0 Bft)
01.07.2018 04:08 9,8 °C 87 % 1011,3 hPa 0,0 mm 0,0 km/h (0 Bft) O-SO 108 ° 0 min 0,000 mm 0,0 UV-I 0 W/m² 7,7 °C 9,8 °C 0,0 km/h (0 Bft)
01.07.2018 04:09 10,0 °C 87 % 1011,3 hPa 0,0 mm 0,0 km/h (0 Bft) O-SO 108 ° 0 min 0,000 mm 0,0 UV-I 0 W/m² 7,9 °C 10,0 °C 0,0 km/h (0 Bft)
01.07.2018 04:10 10,0 °C 86 % 1011,3 hPa 0,0 mm 0,0 km/h (0 Bft) O-SO 108 ° 0 min 0,000 mm 0,0 UV-I 0 W/m² 7,8 °C 10,0 °C 0,0 km/h (0 Bft)
01.07.2018 04:11 10,1 °C 86 % 1011,3 hPa 0,0 mm 0,0 km/h (0 Bft) O-SO 108 ° 0 min 0,000 mm 0,0 UV-I 0 W/m² 7,9 °C 10,1 °C 0,0 km/h (0 Bft)
01.07.2018 04:12 10,1 °C 87 % 1011,3 hPa 0,0 mm 0,0 km/h (0 Bft) O-SO 108 ° 0 min 0,000 mm 0,0 UV-I 0 W/m² 8,0 °C 10,1 °C 0,0 km/h (0 Bft)
01.07.2018 04:13 10,1 °C 86 % 1011,3 hPa 0,0 mm 0,0 km/h (0 Bft) O-SO 108 ° 0 min 0,000 mm 0,0 UV-I 0 W/m² 7,9 °C 10,1 °C 0,0 km/h (0 Bft)
01.07.2018 04:14 10,2 °C 86 % 1011,4 hPa 0,0 mm 0,0 km/h (0 Bft) O-SO 108 ° 0 min 0,000 mm 0,0 UV-I 0 W/m² 8,0 °C 10,2 °C 0,0 km/h (0 Bft)
01.07.2018 04:15 10,2 °C 85 % 1011,4 hPa 0,0 mm 0,0 km/h (0 Bft) O-SO 108 ° 0 min 0,000 mm 0,0 UV-I 0 W/m² 7,8 °C 10,2 °C 0,0 km/h (0 Bft)
01.07.2018 04:16 10,1 °C 86 % 1011,4 hPa 0,0 mm 0,0 km/h (0 Bft) O-SO 108 ° 0 min 0,000 mm 0,0 UV-I 0 W/m² 7,9 °C 10,1 °C 0,0 km/h (0 Bft)
01.07.2018 04:17 10,1 °C 86 % 1011,4 hPa 0,0 mm 0,0 km/h (0 Bft) O-SO 108 ° 0 min 0,000 mm 0,0 UV-I 0 W/m² 7,9 °C 10,1 °C 0,0 km/h (0 Bft)
01.07.2018 04:18 10,0 °C 86 % 1011,5 hPa 0,0 mm 0,0 km/h (0 Bft) O-SO 108 ° 0 min 0,000 mm 0,0 UV-I 0 W/m² 7,8 °C 10,0 °C 0,0 km/h (0 Bft)
01.07.2018 04:19 9,9 °C 86 % 1011,4 hPa 0,0 mm 0,0 km/h (0 Bft) O-SO 108 ° 0 min 0,000 mm 0,0 UV-I 0 W/m² 7,7 °C 9,9 °C 0,0 km/h (0 Bft)
01.07.2018 04:20 9,8 °C 87 % 1011,4 hPa 0,0 mm 0,0 km/h (0 Bft) O-SO 108 ° 0 min 0,000 mm 0,0 UV-I 0 W/m² 7,7 °C 9,8 °C 0,0 km/h (0 Bft)
01.07.2018 04:21 9,8 °C 87 % 1011,4 hPa 0,0 mm 0,0 km/h (0 Bft) O-SO 108 ° 0 min 0,000 mm 0,0 UV-I 0 W/m² 7,7 °C 9,8 °C 0,0 km/h (0 Bft)
01.07.2018 04:22 9,8 °C 87 % 1011,4 hPa 0,0 mm 0,0 km/h (0 Bft) O-SO 108 ° 0 min 0,000 mm 0,0 UV-I 0 W/m² 7,7 °C 9,8 °C 0,0 km/h (0 Bft)
01.07.2018 04:23 9,8 °C 87 % 1011,4 hPa 0,0 mm 0,0 km/h (0 Bft) O-SO 108 ° 0 min 0,000 mm 0,0 UV-I 0 W/m² 7,7 °C 9,8 °C 0,0 km/h (0 Bft)
01.07.2018 04:24 9,8 °C 87 % 1011,4 hPa 0,0 mm 0,0 km/h (0 Bft) O-SO 108 ° 0 min 0,000 mm 0,0 UV-I 0 W/m² 7,7 °C 9,8 °C 0,0 km/h (0 Bft)
01.07.2018 04:25 9,8 °C 87 % 1011,5 hPa 0,0 mm 0,0 km/h (0 Bft) O-SO 108 ° 0 min 0,000 mm 0,0 UV-I 0 W/m² 7,7 °C 9,8 °C 0,0 km/h (0 Bft)
01.07.2018 04:26 9,8 °C 87 % 1011,5 hPa 0,0 mm 0,0 km/h (0 Bft) O-SO 108 ° 0 min 0,000 mm 0,0 UV-I 0 W/m² 7,7 °C 9,8 °C 0,0 km/h (0 Bft)
01.07.2018 04:27 9,7 °C 87 % 1011,5 hPa 0,0 mm 0,0 km/h (0 Bft) O-SO 108 ° 0 min 0,000 mm 0,0 UV-I 0 W/m² 7,6 °C 9,7 °C 0,0 km/h (0 Bft)
01.07.2018 04:28 9,7 °C 87 % 1011,5 hPa 0,0 mm 0,0 km/h (0 Bft) O-SO 108 ° 0 min 0,000 mm 0,0 UV-I 0 W/m² 7,6 °C 9,7 °C 0,0 km/h (0 Bft)
01.07.2018 04:29 9,7 °C 87 % 1011,5 hPa 0,0 mm 0,0 km/h (0 Bft) O-SO 108 ° 0 min 0,000 mm 0,0 UV-I 0 W/m² 7,6 °C 9,7 °C 0,0 km/h (0 Bft)
01.07.2018 04:30 9,7 °C 87 % 1011,5 hPa 0,0 mm 0,0 km/h (0 Bft) O-SO 108 ° 0 min 0,000 mm 0,0 UV-I 0 W/m² 7,6 °C 9,7 °C 0,0 km/h (0 Bft)
01.07.2018 04:31 9,7 °C 87 % 1011,5 hPa 0,0 mm 0,0 km/h (0 Bft) O-SO 108 ° 0 min 0,000 mm 0,0 UV-I 0 W/m² 7,6 °C 9,7 °C 0,0 km/h (0 Bft)
01.07.2018 04:32 9,7 °C 87 % 1011,5 hPa 0,0 mm 0,0 km/h (0 Bft) O-SO 108 ° 0 min 0,000 mm 0,0 UV-I 0 W/m² 7,6 °C 9,7 °C 0,0 km/h (0 Bft)
01.07.2018 04:33 9,7 °C 87 % 1011,5 hPa 0,0 mm 0,0 km/h (0 Bft) O-SO 108 ° 0 min 0,000 mm 0,0 UV-I 0 W/m² 7,6 °C 9,7 °C 0,0 km/h (0 Bft)
01.07.2018 04:34 9,7 °C 88 % 1011,5 hPa 0,0 mm 0,0 km/h (0 Bft) O-SO 108 ° 0 min 0,000 mm 0,0 UV-I 0 W/m² 7,8 °C 9,7 °C 0,0 km/h (0 Bft)
01.07.2018 04:35 9,6 °C 88 % 1011,5 hPa 0,0 mm 0,0 km/h (0 Bft) O-SO 108 ° 0 min 0,000 mm 0,0 UV-I 0 W/m² 7,7 °C 9,6 °C 0,0 km/h (0 Bft)
01.07.2018 04:36 9,6 °C 88 % 1011,5 hPa 0,0 mm 0,0 km/h (0 Bft) O-SO 108 ° 0 min 0,000 mm 0,0 UV-I 0 W/m² 7,7 °C 9,6 °C 0,0 km/h (0 Bft)
01.07.2018 04:37 9,5 °C 88 % 1011,5 hPa 0,0 mm 0,0 km/h (0 Bft) O-SO 108 ° 0 min 0,000 mm 0,0 UV-I 0 W/m² 7,6 °C 9,5 °C 0,0 km/h (0 Bft)
01.07.2018 04:38 9,4 °C 88 % 1011,5 hPa 0,0 mm 0,0 km/h (0 Bft) O-SO 108 ° 0 min 0,000 mm 0,0 UV-I 0 W/m² 7,5 °C 9,4 °C 0,0 km/h (0 Bft)
01.07.2018 04:39 9,4 °C 89 % 1011,5 hPa 0,0 mm 0,0 km/h (0 Bft) O-SO 108 ° 0 min 0,000 mm 0,0 UV-I 0 W/m² 7,7 °C 9,4 °C 0,0 km/h (0 Bft)
01.07.2018 04:40 9,4 °C 89 % 1011,5 hPa 0,0 mm 0,0 km/h (0 Bft) O-SO 108 ° 0 min 0,000 mm 0,0 UV-I 0 W/m² 7,7 °C 9,4 °C 0,0 km/h (0 Bft)
01.07.2018 04:41 9,4 °C 89 % 1011,5 hPa 0,0 mm 0,0 km/h (0 Bft) O-SO 108 ° 0 min 0,000 mm 0,0 UV-I 0 W/m² 7,7 °C 9,4 °C 0,0 km/h (0 Bft)
01.07.2018 04:42 9,4 °C 89 % 1011,5 hPa 0,0 mm 0,0 km/h (0 Bft) O-SO 108 ° 0 min 0,000 mm 0,0 UV-I 0 W/m² 7,7 °C 9,4 °C 0,0 km/h (0 Bft)
01.07.2018 04:43 9,4 °C 89 % 1011,5 hPa 0,0 mm 0,0 km/h (0 Bft) O-SO 108 ° 0 min 0,000 mm 0,0 UV-I 0 W/m² 7,7 °C 9,4 °C 0,0 km/h (0 Bft)
01.07.2018 04:44 9,5 °C 89 % 1011,5 hPa 0,0 mm 0,0 km/h (0 Bft) O-SO 108 ° 0 min 0,000 mm 0,0 UV-I 0 W/m² 7,8 °C 9,5 °C 0,0 km/h (0 Bft)
01.07.2018 04:45 9,5 °C 89 % 1011,6 hPa 0,0 mm 0,0 km/h (0 Bft) O-SO 108 ° 0 min 0,000 mm 0,0 UV-I 0 W/m² 7,8 °C 9,5 °C 0,0 km/h (0 Bft)
01.07.2018 04:46 9,4 °C 89 % 1011,6 hPa 0,0 mm 0,0 km/h (0 Bft) O-SO 108 ° 0 min 0,000 mm 0,0 UV-I 0 W/m² 7,7 °C 9,4 °C 0,0 km/h (0 Bft)
01.07.2018 04:47 9,5 °C 89 % 1011,6 hPa 0,0 mm 0,0 km/h (0 Bft) O-SO 108 ° 0 min 0,000 mm 0,0 UV-I 0 W/m² 7,8 °C 9,5 °C 0,0 km/h (0 Bft)
01.07.2018 04:48 9,5 °C 89 % 1011,5 hPa 0,0 mm 0,0 km/h (0 Bft) O-SO 108 ° 0 min 0,000 mm 0,0 UV-I 0 W/m² 7,8 °C 9,5 °C 0,0 km/h (0 Bft)
01.07.2018 04:49 9,5 °C 89 % 1011,6 hPa 0,0 mm 0,0 km/h (0 Bft) O-SO 108 ° 0 min 0,000 mm 0,0 UV-I 0 W/m² 7,8 °C 9,5 °C 0,0 km/h (0 Bft)
01.07.2018 04:50 9,5 °C 89 % 1011,6 hPa 0,0 mm 0,0 km/h (0 Bft) O-SO 108 ° 0 min 0,000 mm 0,0 UV-I 0 W/m² 7,8 °C 9,5 °C 0,0 km/h (0 Bft)
01.07.2018 04:51 9,4 °C 89 % 1011,6 hPa 0,0 mm 0,0 km/h (0 Bft) O-SO 108 ° 0 min 0,000 mm 0,0 UV-I 0 W/m² 7,7 °C 9,4 °C 0,0 km/h (0 Bft)
01.07.2018 04:52 9,4 °C 89 % 1011,6 hPa 0,0 mm 0,0 km/h (0 Bft) O-SO 108 ° 0 min 0,000 mm 0,0 UV-I 0 W/m² 7,7 °C 9,4 °C 0,0 km/h (0 Bft)
01.07.2018 04:53 9,4 °C 89 % 1011,6 hPa 0,0 mm 0,0 km/h (0 Bft) O-SO 108 ° 0 min 0,000 mm 0,0 UV-I 0 W/m² 7,7 °C 9,4 °C 0,0 km/h (0 Bft)
01.07.2018 04:54 9,4 °C 89 % 1011,6 hPa 0,0 mm 0,0 km/h (0 Bft) O-SO 108 ° 0 min 0,000 mm 0,0 UV-I 0 W/m² 7,7 °C 9,4 °C 0,0 km/h (0 Bft)
01.07.2018 04:55 9,4 °C 89 % 1011,6 hPa 0,0 mm 0,0 km/h (0 Bft) O-SO 108 ° 0 min 0,000 mm 0,0 UV-I 0 W/m² 7,7 °C 9,4 °C 0,0 km/h (0 Bft)
01.07.2018 04:56 9,4 °C 89 % 1011,6 hPa 0,0 mm 0,0 km/h (0 Bft) O-SO 108 ° 0 min 0,000 mm 0,0 UV-I 0 W/m² 7,7 °C 9,4 °C 0,0 km/h (0 Bft)
01.07.2018 04:57 9,6 °C 89 % 1011,6 hPa 0,0 mm 0,0 km/h (0 Bft) O-SO 108 ° 0 min 0,000 mm 0,0 UV-I 0 W/m² 7,9 °C 9,6 °C 0,0 km/h (0 Bft)
01.07.2018 04:58 9,7 °C 88 % 1011,6 hPa 0,0 mm 0,0 km/h (0 Bft) O-SO 108 ° 0 min 0,000 mm 0,0 UV-I 0 W/m² 7,8 °C 9,7 °C 0,0 km/h (0 Bft)
01.07.2018 04:59 9,8 °C 88 % 1011,6 hPa 0,0 mm 0,0 km/h (0 Bft) O-SO 108 ° 0 min 0,000 mm 0,0 UV-I 0 W/m² 7,9 °C 9,8 °C 0,0 km/h (0 Bft)
01.07.2018 05:00 9,7 °C 88 % 1011,6 hPa 0,0 mm 0,0 km/h (0 Bft) O-SO 108 ° 0 min 0,000 mm 0,0 UV-I 0 W/m² 7,8 °C 9,7 °C 0,0 km/h (0 Bft)
01.07.2018 05:01 9,7 °C 88 % 1011,6 hPa 0,0 mm 0,0 km/h (0 Bft) O-SO 108 ° 0 min 0,000 mm 0,0 UV-I 0 W/m² 7,8 °C 9,7 °C 0,0 km/h (0 Bft)
01.07.2018 05:02 9,7 °C 88 % 1011,6 hPa 0,0 mm 0,0 km/h (0 Bft) O-SO 108 ° 0 min 0,000 mm 0,0 UV-I 0 W/m² 7,8 °C 9,7 °C 0,0 km/h (0 Bft)
01.07.2018 05:03 9,6 °C 88 % 1011,6 hPa 0,0 mm 0,0 km/h (0 Bft) O-SO 108 ° 0 min 0,000 mm 0,0 UV-I 0 W/m² 7,7 °C 9,6 °C 0,0 km/h (0 Bft)
01.07.2018 05:04 9,6 °C 88 % 1011,6 hPa 0,0 mm 0,0 km/h (0 Bft) O-SO 108 ° 0 min 0,000 mm 0,0 UV-I 0 W/m² 7,7 °C 9,6 °C 0,0 km/h (0 Bft)
01.07.2018 05:05 9,7 °C 88 % 1011,6 hPa 0,0 mm 0,0 km/h (0 Bft) O-SO 108 ° 0 min 0,000 mm 0,0 UV-I 0 W/m² 7,8 °C 9,7 °C 0,0 km/h (0 Bft)
01.07.2018 05:06 9,6 °C 88 % 1011,6 hPa 0,0 mm 0,0 km/h (0 Bft) O-SO 108 ° 0 min 0,000 mm 0,0 UV-I 0 W/m² 7,7 °C 9,6 °C 0,0 km/h (0 Bft)
01.07.2018 05:07 9,6 °C 88 % 1011,6 hPa 0,0 mm 0,0 km/h (0 Bft) O-SO 108 ° 0 min 0,000 mm 0,0 UV-I 0 W/m² 7,7 °C 9,6 °C 0,0 km/h (0 Bft)
01.07.2018 05:08 9,6 °C 88 % 1011,7 hPa 0,0 mm 0,0 km/h (0 Bft) O-SO 108 ° 0 min 0,000 mm 0,0 UV-I 0 W/m² 7,7 °C 9,6 °C 0,0 km/h (0 Bft)
01.07.2018 05:09 9,6 °C 88 % 1011,6 hPa 0,0 mm 0,0 km/h (0 Bft) O-SO 108 ° 0 min 0,000 mm 0,0 UV-I 0 W/m² 7,7 °C 9,6 °C 0,0 km/h (0 Bft)
01.07.2018 05:10 9,5 °C 88 % 1011,6 hPa 0,0 mm 0,0 km/h (0 Bft) O-SO 108 ° 0 min 0,000 mm 0,0 UV-I 0 W/m² 7,6 °C 9,5 °C 0,0 km/h (0 Bft)
01.07.2018 05:11 9,6 °C 88 % 1011,6 hPa 0,0 mm 0,0 km/h (0 Bft) O-SO 108 ° 0 min 0,000 mm 0,0 UV-I 0 W/m² 7,7 °C 9,6 °C 0,0 km/h (0 Bft)
01.07.2018 05:12 9,7 °C 88 % 1011,8 hPa 0,0 mm 0,0 km/h (0 Bft) O-SO 108 ° 0 min 0,000 mm 0,0 UV-I 0 W/m² 7,8 °C 9,7 °C 0,0 km/h (0 Bft)
01.07.2018 05:13 9,8 °C 87 % 1011,8 hPa 0,0 mm 0,0 km/h (0 Bft) O-SO 108 ° 0 min 0,000 mm 0,0 UV-I 0 W/m² 7,7 °C 9,8 °C 0,0 km/h (0 Bft)
01.07.2018 05:14 9,8 °C 87 % 1011,8 hPa 0,0 mm 0,0 km/h (0 Bft) O-SO 108 ° 0 min 0,000 mm 0,0 UV-I 0 W/m² 7,7 °C 9,8 °C 0,0 km/h (0 Bft)
01.07.2018 05:15 9,8 °C 87 % 1011,8 hPa 0,0 mm 0,0 km/h (0 Bft) O-SO 108 ° 0 min 0,000 mm 0,0 UV-I 0 W/m² 7,7 °C 9,8 °C 0,0 km/h (0 Bft)
01.07.2018 05:16 9,8 °C 87 % 1011,7 hPa 0,0 mm 0,0 km/h (0 Bft) O-SO 108 ° 0 min 0,000 mm 0,0 UV-I 0 W/m² 7,7 °C 9,8 °C 0,0 km/h (0 Bft)
01.07.2018 05:17 9,7 °C 87 % 1011,8 hPa 0,0 mm 0,0 km/h (0 Bft) O-SO 108 ° 0 min 0,000 mm 0,0 UV-I 0 W/m² 7,6 °C 9,7 °C 0,0 km/h (0 Bft)
01.07.2018 05:18 9,7 °C 87 % 1011,7 hPa 0,0 mm 0,0 km/h (0 Bft) O-SO 108 ° 0 min 0,000 mm 0,0 UV-I 0 W/m² 7,6 °C 9,7 °C 0,0 km/h (0 Bft)
01.07.2018 05:19 9,6 °C 87 % 1011,7 hPa 0,0 mm 0,0 km/h (0 Bft) O-SO 108 ° 0 min 0,000 mm 0,0 UV-I 0 W/m² 7,5 °C 9,6 °C 0,0 km/h (0 Bft)
01.07.2018 05:20 9,5 °C 88 % 1011,8 hPa 0,0 mm 0,0 km/h (0 Bft) O-SO 108 ° 0 min 0,000 mm 0,0 UV-I 0 W/m² 7,6 °C 9,5 °C 0,0 km/h (0 Bft)
01.07.2018 05:21 9,4 °C 88 % 1011,8 hPa 0,0 mm 0,0 km/h (0 Bft) O-SO 108 ° 0 min 0,000 mm 0,0 UV-I 0 W/m² 7,5 °C 9,4 °C 0,0 km/h (0 Bft)
01.07.2018 05:22 9,4 °C 88 % 1011,8 hPa 0,0 mm 0,0 km/h (0 Bft) O-SO 108 ° 0 min 0,000 mm 0,0 UV-I 0 W/m² 7,5 °C 9,4 °C 0,0 km/h (0 Bft)
01.07.2018 05:23 9,3 °C 88 % 1011,8 hPa 0,0 mm 0,0 km/h (0 Bft) O-SO 108 ° 0 min 0,000 mm 0,0 UV-I 5 W/m² 7,4 °C 9,3 °C 0,0 km/h (0 Bft)
01.07.2018 05:24 9,3 °C 88 % 1011,8 hPa 0,0 mm 0,0 km/h (0 Bft) O-SO 109 ° 0 min 0,000 mm 0,0 UV-I 5 W/m² 7,4 °C 9,3 °C 0,0 km/h (0 Bft)
01.07.2018 05:25 9,4 °C 88 % 1011,8 hPa 0,0 mm 0,0 km/h (0 Bft) O-SO 108 ° 0 min 0,000 mm 0,0 UV-I 5 W/m² 7,5 °C 9,4 °C 0,0 km/h (0 Bft)
01.07.2018 05:26 9,4 °C 88 % 1011,8 hPa 0,0 mm 0,0 km/h (0 Bft) O-SO 108 ° 0 min 0,000 mm 0,0 UV-I 5 W/m² 7,5 °C 9,4 °C 0,0 km/h (0 Bft)
01.07.2018 05:27 9,3 °C 88 % 1011,8 hPa 0,0 mm 0,0 km/h (0 Bft) O-SO 108 ° 0 min 0,000 mm 0,0 UV-I 5 W/m² 7,4 °C 9,3 °C 0,0 km/h (0 Bft)
01.07.2018 05:28 9,3 °C 88 % 1011,8 hPa 0,0 mm 0,0 km/h (0 Bft) O-SO 108 ° 0 min 0,000 mm 0,0 UV-I 5 W/m² 7,4 °C 9,3 °C 0,0 km/h (0 Bft)
01.07.2018 05:29 9,3 °C 88 % 1011,7 hPa 0,0 mm 0,0 km/h (0 Bft) O-SO 108 ° 0 min 0,000 mm 0,0 UV-I 7 W/m² 7,4 °C 9,3 °C 0,0 km/h (0 Bft)
01.07.2018 05:30 9,2 °C 89 % 1011,8 hPa 0,0 mm 0,0 km/h (0 Bft) O-SO 108 ° 0 min 0,000 mm 0,0 UV-I 7 W/m² 7,5 °C 9,2 °C 0,0 km/h (0 Bft)
01.07.2018 05:31 9,2 °C 89 % 1011,8 hPa 0,0 mm 0,0 km/h (0 Bft) O-SO 108 ° 0 min 0,000 mm 0,0 UV-I 7 W/m² 7,5 °C 9,2 °C 0,0 km/h (0 Bft)
01.07.2018 05:32 9,2 °C 89 % 1011,8 hPa 0,0 mm 0,0 km/h (0 Bft) O-SO 108 ° 0 min 0,000 mm 0,0 UV-I 7 W/m² 7,5 °C 9,2 °C 0,0 km/h (0 Bft)
01.07.2018 05:33 9,2 °C 89 % 1011,8 hPa 0,0 mm 0,0 km/h (0 Bft) O-SO 108 ° 0 min 0,000 mm 0,0 UV-I 7 W/m² 7,5 °C 9,2 °C 0,0 km/h (0 Bft)
01.07.2018 05:34 9,2 °C 89 % 1011,8 hPa 0,0 mm 0,0 km/h (0 Bft) O-SO 108 ° 0 min 0,000 mm 0,0 UV-I 9 W/m² 7,5 °C 9,2 °C 0,0 km/h (0 Bft)
01.07.2018 05:35 9,3 °C 89 % 1011,9 hPa 0,0 mm 0,0 km/h (0 Bft) O-SO 108 ° 0 min 0,000 mm 0,0 UV-I 9 W/m² 7,6 °C 9,3 °C 0,0 km/h (0 Bft)
01.07.2018 05:36 9,3 °C 89 % 1011,8 hPa 0,0 mm 0,0 km/h (0 Bft) O-SO 108 ° 0 min 0,000 mm 0,0 UV-I 11 W/m² 7,6 °C 9,3 °C 0,0 km/h (0 Bft)
01.07.2018 05:37 9,4 °C 89 % 1011,8 hPa 0,0 mm 0,0 km/h (0 Bft) O-SO 108 ° 0 min 0,000 mm 0,0 UV-I 11 W/m² 7,7 °C 9,4 °C 0,0 km/h (0 Bft)
01.07.2018 05:38 9,4 °C 89 % 1011,8 hPa 0,0 mm 0,0 km/h (0 Bft) O-SO 108 ° 0 min 0,000 mm 0,0 UV-I 11 W/m² 7,7 °C 9,4 °C 0,0 km/h (0 Bft)
01.07.2018 05:39 9,6 °C 89 % 1011,8 hPa 0,0 mm 0,0 km/h (0 Bft) O-SO 108 ° 0 min 0,000 mm 0,0 UV-I 11 W/m² 7,9 °C 9,6 °C 0,0 km/h (0 Bft)
01.07.2018 05:40 9,5 °C 88 % 1011,7 hPa 0,0 mm 0,0 km/h (0 Bft) O-SO 108 ° 0 min 0,000 mm 0,0 UV-I 12 W/m² 7,6 °C 9,5 °C 0,0 km/h (0 Bft)
01.07.2018 05:41 9,4 °C 88 % 1011,7 hPa 0,0 mm 0,0 km/h (0 Bft) O-SO 108 ° 0 min 0,000 mm 0,0 UV-I 12 W/m² 7,5 °C 9,4 °C 0,0 km/h (0 Bft)
01.07.2018 05:42 9,4 °C 89 % 1011,8 hPa 0,0 mm 0,0 km/h (0 Bft) O-SO 108 ° 0 min 0,000 mm 0,0 UV-I 12 W/m² 7,7 °C 9,4 °C 0,0 km/h (0 Bft)
01.07.2018 05:43 9,4 °C 89 % 1011,8 hPa 0,0 mm 0,0 km/h (0 Bft) O-SO 108 ° 0 min 0,000 mm 0,0 UV-I 14 W/m² 7,7 °C 9,4 °C 0,0 km/h (0 Bft)
01.07.2018 05:44 9,4 °C 88 % 1011,8 hPa 0,0 mm 0,0 km/h (0 Bft) O-SO 109 ° 0 min 0,000 mm 0,0 UV-I 14 W/m² 7,5 °C 9,4 °C 0,0 km/h (0 Bft)
01.07.2018 05:45 9,4 °C 88 % 1011,8 hPa 0,0 mm 0,0 km/h (0 Bft) O-SO 108 ° 0 min 0,000 mm 0,0 UV-I 14 W/m² 7,5 °C 9,4 °C 0,0 km/h (0 Bft)
01.07.2018 05:46 9,4 °C 88 % 1011,8 hPa 0,0 mm 0,0 km/h (0 Bft) O-SO 108 ° 0 min 0,000 mm 0,0 UV-I 16 W/m² 7,5 °C 9,4 °C 0,0 km/h (0 Bft)
01.07.2018 05:47 9,6 °C 89 % 1011,8 hPa 0,0 mm 0,0 km/h (0 Bft) O-SO 108 ° 0 min 0,000 mm 0,0 UV-I 16 W/m² 7,9 °C 9,6 °C 0,0 km/h (0 Bft)
01.07.2018 05:48 9,7 °C 88 % 1011,8 hPa 0,0 mm 0,0 km/h (0 Bft) O-SO 108 ° 0 min 0,000 mm 0,0 UV-I 18 W/m² 7,8 °C 9,7 °C 0,0 km/h (0 Bft)
01.07.2018 05:49 9,8 °C 88 % 1011,8 hPa 0,0 mm 0,0 km/h (0 Bft) O-SO 108 ° 0 min 0,000 mm 0,0 UV-I 18 W/m² 7,9 °C 9,8 °C 0,0 km/h (0 Bft)
01.07.2018 05:50 9,8 °C 88 % 1011,8 hPa 0,0 mm 0,0 km/h (0 Bft) O-SO 108 ° 0 min 0,000 mm 0,0 UV-I 18 W/m² 7,9 °C 9,8 °C 0,0 km/h (0 Bft)
01.07.2018 05:51 9,8 °C 88 % 1011,9 hPa 0,0 mm 0,0 km/h (0 Bft) O-SO 108 ° 0 min 0,000 mm 0,0 UV-I 19 W/m² 7,9 °C 9,8 °C 0,0 km/h (0 Bft)
01.07.2018 05:52 9,8 °C 88 % 1011,8 hPa 0,0 mm 0,0 km/h (0 Bft) O-SO 108 ° 0 min 0,000 mm 0,0 UV-I 19 W/m² 7,9 °C 9,8 °C 0,0 km/h (0 Bft)
01.07.2018 05:53 9,8 °C 87 % 1011,9 hPa 0,0 mm 0,0 km/h (0 Bft) O-SO 108 ° 0 min 0,000 mm 0,0 UV-I 21 W/m² 7,7 °C 9,8 °C 0,0 km/h (0 Bft)
01.07.2018 05:54 9,7 °C 88 % 1011,9 hPa 0,0 mm 0,0 km/h (0 Bft) O-SO 108 ° 0 min 0,000 mm 0,0 UV-I 21 W/m² 7,8 °C 9,7 °C 0,0 km/h (0 Bft)
01.07.2018 05:55 9,7 °C 88 % 1011,9 hPa 0,0 mm 0,0 km/h (0 Bft) O-SO 109 ° 0 min 0,000 mm 0,0 UV-I 21 W/m² 7,8 °C 9,7 °C 0,0 km/h (0 Bft)
01.07.2018 05:56 9,7 °C 88 % 1011,8 hPa 0,0 mm 0,0 km/h (0 Bft) O-SO 109 ° 0 min 0,000 mm 0,0 UV-I 23 W/m² 7,8 °C 9,7 °C 0,0 km/h (0 Bft)
01.07.2018 05:57 9,6 °C 88 % 1011,8 hPa 0,0 mm 0,0 km/h (0 Bft) O-SO 108 ° 0 min 0,000 mm 0,0 UV-I 23 W/m² 7,7 °C 9,6 °C 0,0 km/h (0 Bft)
01.07.2018 05:58 9,6 °C 88 % 1011,8 hPa 0,0 mm 0,0 km/h (0 Bft) O-SO 108 ° 0 min 0,000 mm 0,0 UV-I 25 W/m² 7,7 °C 9,6 °C 0,0 km/h (0 Bft)
01.07.2018 05:59 9,6 °C 88 % 1011,8 hPa 0,0 mm 0,0 km/h (0 Bft) O-SO 108 ° 0 min 0,000 mm 0,0 UV-I 25 W/m² 7,7 °C 9,6 °C 0,0 km/h (0 Bft)
01.07.2018 06:00 9,5 °C 88 % 1011,8 hPa 0,0 mm 0,0 km/h (0 Bft) O-SO 108 ° 0 min 0,000 mm 0,0 UV-I 26 W/m² 7,6 °C 9,5 °C 0,0 km/h (0 Bft)
01.07.2018 06:01 9,4 °C 88 % 1011,7 hPa 0,0 mm 0,0 km/h (0 Bft) O-SO 109 ° 0 min 0,000 mm 0,0 UV-I 26 W/m² 7,5 °C 9,4 °C 0,0 km/h (0 Bft)
01.07.2018 06:02 9,4 °C 88 % 1011,8 hPa 0,0 mm 0,0 km/h (0 Bft) O-SO 108 ° 0 min 0,000 mm 0,0 UV-I 28 W/m² 7,5 °C 9,4 °C 0,0 km/h (0 Bft)
01.07.2018 06:03 9,3 °C 89 % 1011,8 hPa 0,0 mm 0,0 km/h (0 Bft) O-SO 108 ° 0 min 0,000 mm 0,0 UV-I 28 W/m² 7,6 °C 9,3 °C 0,0 km/h (0 Bft)
01.07.2018 06:04 9,3 °C 89 % 1011,7 hPa 0,0 mm 0,0 km/h (0 Bft) O-SO 109 ° 0 min 0,000 mm 0,0 UV-I 30 W/m² 7,6 °C 9,3 °C 0,0 km/h (0 Bft)
01.07.2018 06:05 9,4 °C 89 % 1011,7 hPa 0,0 mm 0,0 km/h (0 Bft) O-SO 108 ° 0 min 0,000 mm 0,0 UV-I 33 W/m² 7,7 °C 9,4 °C 0,0 km/h (0 Bft)
01.07.2018 06:06 9,5 °C 89 % 1011,8 hPa 0,0 mm 0,0 km/h (0 Bft) O-SO 108 ° 0 min 0,000 mm 0,0 UV-I 39 W/m² 7,8 °C 9,5 °C 0,0 km/h (0 Bft)
01.07.2018 06:07 9,7 °C 89 % 1011,8 hPa 0,0 mm 0,0 km/h (0 Bft) O-SO 108 ° 0 min 0,000 mm 0,0 UV-I 42 W/m² 8,0 °C 9,7 °C 0,0 km/h (0 Bft)
01.07.2018 06:08 9,7 °C 89 % 1011,8 hPa 0,0 mm 0,0 km/h (0 Bft) O-SO 109 ° 0 min 0,000 mm 0,0 UV-I 44 W/m² 8,0 °C 9,7 °C 0,0 km/h (0 Bft)
01.07.2018 06:09 9,7 °C 88 % 1011,8 hPa 0,0 mm 0,0 km/h (0 Bft) O-SO 109 ° 0 min 0,000 mm 0,0 UV-I 44 W/m² 7,8 °C 9,7 °C 0,0 km/h (0 Bft)
01.07.2018 06:10 9,7 °C 89 % 1011,8 hPa 0,0 mm 0,0 km/h (0 Bft) O-SO 108 ° 0 min 0,000 mm 0,0 UV-I 47 W/m² 8,0 °C 9,7 °C 0,0 km/h (0 Bft)
01.07.2018 06:11 9,7 °C 89 % 1011,8 hPa 0,0 mm 0,0 km/h (0 Bft) O-SO 108 ° 0 min 0,000 mm 0,0 UV-I 49 W/m² 8,0 °C 9,7 °C 0,0 km/h (0 Bft)
01.07.2018 06:12 9,6 °C 89 % 1011,8 hPa 0,0 mm 0,0 km/h (0 Bft) O-SO 108 ° 0 min 0,000 mm 0,0 UV-I 51 W/m² 7,9 °C 9,6 °C 0,0 km/h (0 Bft)
01.07.2018 06:13 9,6 °C 89 % 1011,8 hPa 0,0 mm 0,0 km/h (0 Bft) O-SO 108 ° 0 min 0,000 mm 0,0 UV-I 51 W/m² 7,9 °C 9,6 °C 0,0 km/h (0 Bft)
01.07.2018 06:14 9,6 °C 89 % 1011,7 hPa 0,0 mm 0,0 km/h (0 Bft) O-SO 109 ° 0 min 0,000 mm 0,0 UV-I 53 W/m² 7,9 °C 9,6 °C 0,0 km/h (0 Bft)
01.07.2018 06:15 9,6 °C 89 % 1011,8 hPa 0,0 mm 0,0 km/h (0 Bft) O-SO 108 ° 0 min 0,000 mm 0,0 UV-I 58 W/m² 7,9 °C 9,6 °C 0,0 km/h (0 Bft)
01.07.2018 06:16 9,6 °C 89 % 1011,8 hPa 0,0 mm 0,0 km/h (0 Bft) O-SO 109 ° 0 min 0,000 mm 0,0 UV-I 60 W/m² 7,9 °C 9,6 °C 0,0 km/h (0 Bft)
01.07.2018 06:17 9,7 °C 89 % 1011,8 hPa 0,0 mm 0,0 km/h (0 Bft) O-SO 109 ° 0 min 0,000 mm 0,0 UV-I 62 W/m² 8,0 °C 9,7 °C 0,0 km/h (0 Bft)
01.07.2018 06:18 9,7 °C 89 % 1011,8 hPa 0,0 mm 0,0 km/h (0 Bft) O-SO 109 ° 0 min 0,000 mm 0,0 UV-I 63 W/m² 8,0 °C 9,7 °C 0,0 km/h (0 Bft)
01.07.2018 06:19 9,7 °C 89 % 1011,8 hPa 0,0 mm 0,0 km/h (0 Bft) O-SO 109 ° 0 min 0,000 mm 0,0 UV-I 65 W/m² 8,0 °C 9,7 °C 0,0 km/h (0 Bft)
01.07.2018 06:20 9,8 °C 89 % 1011,8 hPa 0,0 mm 0,0 km/h (0 Bft) O-SO 109 ° 0 min 0,000 mm 0,0 UV-I 67 W/m² 8,1 °C 9,8 °C 0,0 km/h (0 Bft)
01.07.2018 06:21 9,8 °C 89 % 1011,8 hPa 0,0 mm 0,0 km/h (0 Bft) O-SO 109 ° 0 min 0,000 mm 0,0 UV-I 72 W/m² 8,1 °C 9,8 °C 0,0 km/h (0 Bft)
01.07.2018 06:22 9,8 °C 90 % 1011,8 hPa 0,0 mm 0,0 km/h (0 Bft) O-SO 108 ° 0 min 0,000 mm 0,0 UV-I 76 W/m² 8,2 °C 9,8 °C 0,0 km/h (0 Bft)
01.07.2018 06:23 9,9 °C 89 % 1011,7 hPa 0,0 mm 0,0 km/h (0 Bft) O-SO 109 ° 0 min 0,000 mm 0,0 UV-I 77 W/m² 8,2 °C 9,9 °C 0,0 km/h (0 Bft)
01.07.2018 06:24 9,9 °C 89 % 1011,7 hPa 0,0 mm 0,0 km/h (0 Bft) O-SO 109 ° 0 min 0,000 mm 0,0 UV-I 79 W/m² 8,2 °C 9,9 °C 0,0 km/h (0 Bft)
01.07.2018 06:25 10,1 °C 89 % 1011,7 hPa 0,0 mm 0,0 km/h (0 Bft) O-SO 109 ° 0 min 0,000 mm 0,0 UV-I 81 W/m² 8,4 °C 10,1 °C 0,0 km/h (0 Bft)
01.07.2018 06:26 10,1 °C 90 % 1011,7 hPa 0,0 mm 0,0 km/h (0 Bft) O-SO 109 ° 0 min 0,000 mm 0,0 UV-I 83 W/m² 8,5 °C 10,1 °C 0,0 km/h (0 Bft)
01.07.2018 06:27 10,3 °C 89 % 1011,7 hPa 0,0 mm 0,0 km/h (0 Bft) O-SO 109 ° 0 min 0,000 mm 0,0 UV-I 84 W/m² 8,6 °C 10,3 °C 0,0 km/h (0 Bft)
01.07.2018 06:28 10,4 °C 89 % 1011,8 hPa 0,0 mm 0,0 km/h (0 Bft) O-SO 109 ° 0 min 0,000 mm 0,0 UV-I 84 W/m² 8,7 °C 10,4 °C 0,0 km/h (0 Bft)
01.07.2018 06:29 10,4 °C 88 % 1011,7 hPa 0,0 mm 0,0 km/h (0 Bft) O-SO 109 ° 0 min 0,000 mm 0,0 UV-I 86 W/m² 8,5 °C 10,4 °C 0,0 km/h (0 Bft)
01.07.2018 06:30 10,5 °C 88 % 1011,8 hPa 0,0 mm 0,0 km/h (0 Bft) O-SO 109 ° 0 min 0,000 mm 0,0 UV-I 88 W/m² 8,6 °C 10,5 °C 0,0 km/h (0 Bft)
01.07.2018 06:31 10,6 °C 88 % 1011,8 hPa 0,0 mm 0,0 km/h (0 Bft) O-SO 109 ° 0 min 0,000 mm 0,0 UV-I 90 W/m² 8,7 °C 10,6 °C 0,0 km/h (0 Bft)
01.07.2018 06:32 10,7 °C 88 % 1011,8 hPa 0,0 mm 0,6 km/h (0 Bft) O-SO 109 ° 0 min 0,000 mm 0,0 UV-I 90 W/m² 8,8 °C 10,7 °C 1,6 km/h (1 Bft)
01.07.2018 06:33 10,7 °C 88 % 1011,8 hPa 0,0 mm 0,0 km/h (0 Bft) O-SO 108 ° 0 min 0,000 mm 0,0 UV-I 93 W/m² 8,8 °C 10,7 °C 0,0 km/h (0 Bft)
01.07.2018 06:34 10,8 °C 88 % 1011,8 hPa 0,0 mm 0,0 km/h (0 Bft) O-SO 108 ° 0 min 0,000 mm 0,0 UV-I 95 W/m² 8,9 °C 10,8 °C 0,0 km/h (0 Bft)
01.07.2018 06:35 10,8 °C 88 % 1011,8 hPa 0,0 mm 0,0 km/h (0 Bft) O-SO 109 ° 0 min 0,000 mm 0,0 UV-I 97 W/m² 8,9 °C 10,8 °C 0,0 km/h (0 Bft)
01.07.2018 06:36 10,8 °C 88 % 1011,8 hPa 0,0 mm 0,0 km/h (0 Bft) O-SO 109 ° 0 min 0,000 mm 0,0 UV-I 98 W/m² 8,9 °C 10,8 °C 0,0 km/h (0 Bft)
01.07.2018 06:37 10,9 °C 87 % 1011,8 hPa 0,0 mm 0,0 km/h (0 Bft) O-SO 108 ° 0 min 0,000 mm 0,0 UV-I 100 W/m² 8,8 °C 10,9 °C 0,0 km/h (0 Bft)
01.07.2018 06:38 11,0 °C 87 % 1011,8 hPa 0,0 mm 0,0 km/h (0 Bft) O-SO 108 ° 0 min 0,000 mm 0,0 UV-I 104 W/m² 8,9 °C 11,0 °C 0,0 km/h (0 Bft)
01.07.2018 06:39 11,1 °C 87 % 1011,8 hPa 0,0 mm 0,5 km/h (0 Bft) O-SO 108 ° 0 min 0,000 mm 0,0 UV-I 109 W/m² 9,0 °C 11,1 °C 1,6 km/h (1 Bft)
01.07.2018 06:40 11,1 °C 87 % 1011,8 hPa 0,0 mm 0,0 km/h (0 Bft) O-SO 108 ° 0 min 0,000 mm 0,0 UV-I 111 W/m² 9,0 °C 11,1 °C 0,0 km/h (0 Bft)
01.07.2018 06:41 11,1 °C 87 % 1011,8 hPa 0,0 mm 0,0 km/h (0 Bft) O-SO 108 ° 0 min 0,000 mm 0,0 UV-I 114 W/m² 9,0 °C 11,1 °C 0,0 km/h (0 Bft)
01.07.2018 06:42 11,1 °C 86 % 1011,8 hPa 0,0 mm 0,0 km/h (0 Bft) O-SO 109 ° 0 min 0,000 mm 0,5 UV-I 118 W/m² 8,8 °C 11,1 °C 0,0 km/h (0 Bft)
01.07.2018 06:43 11,2 °C 87 % 1011,8 hPa 0,0 mm 0,3 km/h (0 Bft) O-SO 108 ° 0 min 0,000 mm 0,5 UV-I 121 W/m² 9,1 °C 11,2 °C 1,6 km/h (1 Bft)
01.07.2018 06:44 11,3 °C 86 % 1011,8 hPa 0,0 mm 0,3 km/h (0 Bft) O-SO 108 ° 0 min 0,000 mm 0,5 UV-I 127 W/m² 9,0 °C 11,3 °C 1,6 km/h (1 Bft)
01.07.2018 06:45 11,5 °C 86 % 1011,8 hPa 0,0 mm 0,1 km/h (0 Bft) O-SO 108 ° 0 min 0,000 mm 0,5 UV-I 132 W/m² 9,2 °C 11,5 °C 1,6 km/h (1 Bft)
01.07.2018 06:46 11,6 °C 86 % 1011,8 hPa 0,0 mm 1,0 km/h (0 Bft) O-SO 108 ° 0 min 0,000 mm 0,5 UV-I 135 W/m² 9,3 °C 11,6 °C 3,2 km/h (1 Bft)
01.07.2018 06:47 11,6 °C 85 % 1011,8 hPa 0,0 mm 0,0 km/h (0 Bft) O-SO 108 ° 0 min 0,000 mm 0,5 UV-I 137 W/m² 9,2 °C 11,6 °C 0,0 km/h (0 Bft)
01.07.2018 06:48 11,6 °C 85 % 1011,8 hPa 0,0 mm 0,9 km/h (0 Bft) O-SO 108 ° 0 min 0,000 mm 0,5 UV-I 139 W/m² 9,2 °C 11,6 °C 3,2 km/h (1 Bft)
01.07.2018 06:49 11,7 °C 83 % 1011,8 hPa 0,0 mm 0,1 km/h (0 Bft) O-SO 108 ° 0 min 0,000 mm 0,5 UV-I 141 W/m² 8,9 °C 11,7 °C 1,6 km/h (1 Bft)
01.07.2018 06:50 11,7 °C 82 % 1011,8 hPa 0,0 mm 1,3 km/h (1 Bft) O-SO 108 ° 0 min 0,000 mm 0,5 UV-I 141 W/m² 8,7 °C 11,7 °C 3,2 km/h (1 Bft)
01.07.2018 06:51 11,8 °C 82 % 1011,8 hPa 0,0 mm 1,6 km/h (1 Bft) O-SO 108 ° 0 min 0,000 mm 0,5 UV-I 142 W/m² 8,8 °C 11,8 °C 3,2 km/h (1 Bft)
01.07.2018 06:52 11,9 °C 81 % 1011,8 hPa 0,0 mm 1,1 km/h (1 Bft) O-SO 108 ° 0 min 0,000 mm 0,6 UV-I 148 W/m² 8,7 °C 11,9 °C 3,2 km/h (1 Bft)
01.07.2018 06:53 12,1 °C 81 % 1011,8 hPa 0,0 mm 0,8 km/h (0 Bft) O-SO 108 ° 0 min 0,000 mm 0,6 UV-I 153 W/m² 8,9 °C 12,1 °C 3,2 km/h (1 Bft)
01.07.2018 06:54 12,1 °C 81 % 1011,8 hPa 0,0 mm 0,4 km/h (0 Bft) O-SO 108 ° 0 min 0,000 mm 0,6 UV-I 156 W/m² 8,9 °C 12,1 °C 1,6 km/h (1 Bft)
01.07.2018 06:55 12,2 °C 82 % 1011,8 hPa 0,0 mm 1,3 km/h (1 Bft) O-SO 108 ° 0 min 0,000 mm 0,6 UV-I 162 W/m² 9,2 °C 12,2 °C 3,2 km/h (1 Bft)
01.07.2018 06:56 12,2 °C 81 % 1011,8 hPa 0,0 mm 2,5 km/h (1 Bft) O-NO 65 ° 0 min 0,000 mm 0,6 UV-I 163 W/m² 9,0 °C 12,2 °C 4,8 km/h (1 Bft)
01.07.2018 06:57 12,3 °C 81 % 1011,8 hPa 0,0 mm 1,1 km/h (1 Bft) O-NO 65 ° 0 min 0,000 mm 0,6 UV-I 167 W/m² 9,1 °C 12,3 °C 1,6 km/h (1 Bft)
01.07.2018 06:58 12,3 °C 81 % 1011,8 hPa 0,0 mm 2,9 km/h (1 Bft) O-NO 65 ° 0 min 0,000 mm 0,6 UV-I 169 W/m² 9,1 °C 12,3 °C 4,8 km/h (1 Bft)
01.07.2018 06:59 12,3 °C 79 % 1011,8 hPa 0,0 mm 1,7 km/h (1 Bft) O-NO 65 ° 0 min 0,000 mm 0,6 UV-I 167 W/m² 8,8 °C 12,3 °C 3,2 km/h (1 Bft)
01.07.2018 07:00 12,2 °C 79 % 1011,8 hPa 0,0 mm 1,8 km/h (1 Bft) O-NO 65 ° 0 min 0,000 mm 0,6 UV-I 167 W/m² 8,7 °C 12,2 °C 3,2 km/h (1 Bft)
01.07.2018 07:01 12,2 °C 79 % 1011,8 hPa 0,0 mm 3,4 km/h (1 Bft) O-NO 65 ° 0 min 0,051 mm 0,7 UV-I 167 W/m² 8,7 °C 12,2 °C 4,8 km/h (1 Bft)
01.07.2018 07:02 12,2 °C 80 % 1011,8 hPa 0,0 mm 1,0 km/h (0 Bft) O-NO 65 ° 0 min 0,000 mm 0,7 UV-I 163 W/m² 8,9 °C 12,2 °C 3,2 km/h (1 Bft)
01.07.2018 07:03 12,3 °C 80 % 1011,8 hPa 0,0 mm 0,9 km/h (0 Bft) O-NO 65 ° 0 min 0,000 mm 0,7 UV-I 149 W/m² 8,9 °C 12,3 °C 3,2 km/h (1 Bft)
01.07.2018 07:04 12,3 °C 80 % 1011,8 hPa 0,0 mm 0,0 km/h (0 Bft) O-NO 65 ° 0 min 0,000 mm 0,7 UV-I 67 W/m² 8,9 °C 12,3 °C 0,0 km/h (0 Bft)
01.07.2018 07:05 12,3 °C 80 % 1011,8 hPa 0,0 mm 0,0 km/h (0 Bft) O-NO 65 ° 0 min 0,000 mm 0,7 UV-I 109 W/m² 8,9 °C 12,3 °C 0,0 km/h (0 Bft)
01.07.2018 07:06 12,2 °C 81 % 1011,9 hPa 0,0 mm 0,2 km/h (0 Bft) O-NO 65 ° 0 min 0,000 mm 0,7 UV-I 165 W/m² 9,0 °C 12,2 °C 1,6 km/h (1 Bft)
01.07.2018 07:07 12,2 °C 81 % 1011,9 hPa 0,0 mm 2,2 km/h (1 Bft) O-NO 65 ° 0 min 0,000 mm 0,7 UV-I 134 W/m² 9,0 °C 12,2 °C 3,2 km/h (1 Bft)
01.07.2018 07:08 12,3 °C 80 % 1011,9 hPa 0,0 mm 1,4 km/h (1 Bft) O-NO 65 ° 0 min 0,000 mm 0,7 UV-I 174 W/m² 8,9 °C 12,3 °C 3,2 km/h (1 Bft)
01.07.2018 07:09 12,2 °C 80 % 1011,8 hPa 0,0 mm 0,0 km/h (0 Bft) O-NO 65 ° 0 min 0,000 mm 0,7 UV-I 179 W/m² 8,9 °C 12,2 °C 0,0 km/h (0 Bft)
01.07.2018 07:10 12,2 °C 80 % 1011,8 hPa 0,0 mm 0,0 km/h (0 Bft) O-NO 65 ° 0 min 0,000 mm 0,8 UV-I 186 W/m² 8,9 °C 12,2 °C 0,0 km/h (0 Bft)
01.07.2018 07:11 12,2 °C 81 % 1011,8 hPa 0,0 mm 0,0 km/h (0 Bft) O-NO 65 ° 0 min 0,000 mm 0,8 UV-I 190 W/m² 9,0 °C 12,2 °C 0,0 km/h (0 Bft)
01.07.2018 07:12 12,3 °C 80 % 1011,8 hPa 0,0 mm 0,7 km/h (0 Bft) O-NO 65 ° 0 min 0,000 mm 0,8 UV-I 188 W/m² 8,9 °C 12,3 °C 1,6 km/h (1 Bft)
01.07.2018 07:13 12,3 °C 80 % 1011,8 hPa 0,0 mm 0,3 km/h (0 Bft) O-NO 65 ° 0 min 0,000 mm 0,8 UV-I 190 W/m² 8,9 °C 12,3 °C 1,6 km/h (1 Bft)
01.07.2018 07:14 12,3 °C 80 % 1011,8 hPa 0,0 mm 1,5 km/h (1 Bft) O-NO 65 ° 0 min 0,000 mm 0,8 UV-I 195 W/m² 8,9 °C 12,3 °C 3,2 km/h (1 Bft)
01.07.2018 07:15 12,4 °C 79 % 1011,8 hPa 0,0 mm 0,1 km/h (0 Bft) O-NO 65 ° 0 min 0,000 mm 0,8 UV-I 200 W/m² 8,9 °C 12,4 °C 1,6 km/h (1 Bft)
01.07.2018 07:16 12,5 °C 79 % 1011,9 hPa 0,0 mm 0,4 km/h (0 Bft) O-NO 65 ° 0 min 0,000 mm 0,8 UV-I 207 W/m² 9,0 °C 12,5 °C 3,2 km/h (1 Bft)
01.07.2018 07:17 12,6 °C 79 % 1011,9 hPa 0,0 mm 1,1 km/h (1 Bft) O-NO 65 ° 0 min 0,000 mm 0,9 UV-I 214 W/m² 9,1 °C 12,6 °C 4,8 km/h (1 Bft)
01.07.2018 07:18 12,7 °C 81 % 1011,9 hPa 0,0 mm 3,4 km/h (1 Bft) O-NO 63 ° 0 min 0,000 mm 0,9 UV-I 220 W/m² 9,5 °C 12,7 °C 4,8 km/h (1 Bft)
01.07.2018 07:19 12,7 °C 79 % 1011,9 hPa 0,0 mm 2,6 km/h (1 Bft) O-NO 63 ° 0 min 0,000 mm 0,9 UV-I 225 W/m² 9,2 °C 12,7 °C 3,2 km/h (1 Bft)
01.07.2018 07:20 12,8 °C 78 % 1011,9 hPa 0,0 mm 0,2 km/h (0 Bft) O-NO 63 ° 0 min 0,000 mm 0,9 UV-I 237 W/m² 9,1 °C 12,8 °C 1,6 km/h (1 Bft)
01.07.2018 07:21 12,8 °C 80 % 1011,9 hPa 0,0 mm 0,1 km/h (0 Bft) O-NO 63 ° 0 min 0,000 mm 1,0 UV-I 244 W/m² 9,4 °C 12,8 °C 1,6 km/h (1 Bft)
01.07.2018 07:22 12,8 °C 79 % 1011,9 hPa 0,0 mm 2,4 km/h (1 Bft) O-NO 63 ° 0 min 0,000 mm 1,0 UV-I 251 W/m² 9,2 °C 12,8 °C 3,2 km/h (1 Bft)
01.07.2018 07:23 12,8 °C 79 % 1011,9 hPa 0,0 mm 1,9 km/h (1 Bft) O-NO 63 ° 0 min 0,000 mm 1,0 UV-I 257 W/m² 9,2 °C 12,8 °C 3,2 km/h (1 Bft)
01.07.2018 07:24 12,8 °C 78 % 1011,9 hPa 0,0 mm 2,1 km/h (1 Bft) O-NO 63 ° 0 min 0,000 mm 1,0 UV-I 258 W/m² 9,1 °C 12,8 °C 3,2 km/h (1 Bft)
01.07.2018 07:25 12,8 °C 80 % 1011,9 hPa 0,0 mm 2,3 km/h (1 Bft) O-NO 63 ° 0 min 0,000 mm 1,0 UV-I 262 W/m² 9,4 °C 12,8 °C 3,2 km/h (1 Bft)
01.07.2018 07:26 12,9 °C 80 % 1011,9 hPa 0,0 mm 3,1 km/h (1 Bft) O-NO 62 ° 0 min 0,000 mm 1,0 UV-I 274 W/m² 9,5 °C 12,9 °C 4,8 km/h (1 Bft)
01.07.2018 07:27 12,9 °C 78 % 1011,9 hPa 0,0 mm 5,0 km/h (1 Bft) NO 54 ° 0 min 0,000 mm 1,0 UV-I 278 W/m² 9,2 °C 12,9 °C 6,4 km/h (2 Bft)
01.07.2018 07:28 12,9 °C 79 % 1011,9 hPa 0,0 mm 2,1 km/h (1 Bft) NO 54 ° 0 min 0,000 mm 1,1 UV-I 279 W/m² 9,3 °C 12,9 °C 3,2 km/h (1 Bft)
01.07.2018 07:29 13,1 °C 78 % 1011,9 hPa 0,0 mm 2,5 km/h (1 Bft) NO 54 ° 0 min 0,000 mm 1,1 UV-I 279 W/m² 9,4 °C 13,1 °C 3,2 km/h (1 Bft)
01.07.2018 07:30 13,1 °C 78 % 1011,9 hPa 0,0 mm 2,6 km/h (1 Bft) NO 54 ° 0 min 0,000 mm 1,1 UV-I 281 W/m² 9,4 °C 13,1 °C 4,8 km/h (1 Bft)
01.07.2018 07:31 13,1 °C 78 % 1011,9 hPa 0,0 mm 0,5 km/h (0 Bft) NO 54 ° 0 min 0,000 mm 1,1 UV-I 278 W/m² 9,4 °C 13,1 °C 1,6 km/h (1 Bft)
01.07.2018 07:32 13,2 °C 80 % 1011,9 hPa 0,0 mm 0,3 km/h (0 Bft) NO 54 ° 0 min 0,000 mm 1,1 UV-I 288 W/m² 9,8 °C 13,2 °C 1,6 km/h (1 Bft)
01.07.2018 07:33 13,2 °C 78 % 1012,0 hPa 0,0 mm 2,1 km/h (1 Bft) NO 54 ° 0 min 0,000 mm 1,1 UV-I 290 W/m² 9,4 °C 13,2 °C 4,8 km/h (1 Bft)
01.07.2018 07:34 13,2 °C 78 % 1011,9 hPa 0,0 mm 2,9 km/h (1 Bft) NO 55 ° 0 min 0,000 mm 1,1 UV-I 292 W/m² 9,4 °C 13,2 °C 4,8 km/h (1 Bft)
01.07.2018 07:35 13,2 °C 78 % 1011,9 hPa 0,0 mm 2,2 km/h (1 Bft) NO 55 ° 0 min 0,000 mm 1,1 UV-I 290 W/m² 9,4 °C 13,2 °C 4,8 km/h (1 Bft)
01.07.2018 07:36 13,2 °C 78 % 1011,9 hPa 0,0 mm 3,4 km/h (1 Bft) NO 41 ° 0 min 0,000 mm 1,1 UV-I 287 W/m² 9,4 °C 13,2 °C 6,4 km/h (2 Bft)
01.07.2018 07:37 13,2 °C 77 % 1011,9 hPa 0,0 mm 4,5 km/h (1 Bft) NO 37 ° 0 min 0,000 mm 1,1 UV-I 283 W/m² 9,3 °C 13,2 °C 8,0 km/h (2 Bft)
01.07.2018 07:38 13,2 °C 77 % 1011,9 hPa 0,0 mm 4,7 km/h (1 Bft) N-NO 28 ° 0 min 0,000 mm 1,1 UV-I 283 W/m² 9,3 °C 13,2 °C 8,0 km/h (2 Bft)
01.07.2018 07:39 13,2 °C 77 % 1011,9 hPa 0,0 mm 2,0 km/h (1 Bft) N-NO 28 ° 0 min 0,000 mm 1,2 UV-I 278 W/m² 9,3 °C 13,2 °C 4,8 km/h (1 Bft)
01.07.2018 07:40 13,2 °C 77 % 1011,8 hPa 0,0 mm 0,9 km/h (0 Bft) N-NO 28 ° 0 min 0,000 mm 1,2 UV-I 265 W/m² 9,3 °C 13,2 °C 3,2 km/h (1 Bft)
01.07.2018 07:41 13,2 °C 77 % 1011,9 hPa 0,0 mm 4,2 km/h (1 Bft) N-NO 13 ° 0 min 0,000 mm 1,2 UV-I 279 W/m² 9,3 °C 13,2 °C 4,8 km/h (1 Bft)
01.07.2018 07:42 13,2 °C 77 % 1011,9 hPa 0,0 mm 2,4 km/h (1 Bft) O-NO 78 ° 0 min 0,000 mm 1,2 UV-I 274 W/m² 9,3 °C 13,2 °C 4,8 km/h (1 Bft)
01.07.2018 07:43 13,3 °C 77 % 1011,9 hPa 0,0 mm 3,0 km/h (1 Bft) O-NO 78 ° 0 min 0,000 mm 1,2 UV-I 288 W/m² 9,4 °C 13,3 °C 4,8 km/h (1 Bft)
01.07.2018 07:44 13,3 °C 78 % 1012,0 hPa 0,0 mm 3,7 km/h (1 Bft) O-NO 76 ° 0 min 0,000 mm 1,2 UV-I 257 W/m² 9,5 °C 13,3 °C 6,4 km/h (2 Bft)
01.07.2018 07:45 13,2 °C 77 % 1012,0 hPa 0,0 mm 3,6 km/h (1 Bft) O-NO 76 ° 0 min 0,000 mm 1,3 UV-I 204 W/m² 9,3 °C 13,2 °C 4,8 km/h (1 Bft)
01.07.2018 07:46 13,2 °C 77 % 1011,9 hPa 0,0 mm 2,1 km/h (1 Bft) O-NO 76 ° 0 min 0,000 mm 1,3 UV-I 204 W/m² 9,3 °C 13,2 °C 4,8 km/h (1 Bft)
01.07.2018 07:47 13,3 °C 78 % 1011,9 hPa 0,0 mm 3,8 km/h (1 Bft) NO 53 ° 0 min 0,000 mm 1,2 UV-I 281 W/m² 9,5 °C 13,3 °C 4,8 km/h (1 Bft)
01.07.2018 07:48 13,3 °C 78 % 1011,9 hPa 0,0 mm 3,2 km/h (1 Bft) N-NO 32 ° 0 min 0,000 mm 1,2 UV-I 197 W/m² 9,5 °C 13,3 °C 4,8 km/h (1 Bft)
01.07.2018 07:49 13,4 °C 79 % 1011,9 hPa 0,0 mm 3,1 km/h (1 Bft) N-NO 29 ° 0 min 0,000 mm 1,2 UV-I 153 W/m² 9,8 °C 13,4 °C 4,8 km/h (1 Bft)
01.07.2018 07:50 13,4 °C 79 % 1011,9 hPa 0,0 mm 3,6 km/h (1 Bft) N-NO 22 ° 0 min 0,000 mm 1,2 UV-I 144 W/m² 9,8 °C 13,4 °C 4,8 km/h (1 Bft)
01.07.2018 07:51 13,5 °C 78 % 1011,9 hPa 0,0 mm 3,9 km/h (1 Bft) O-NO 76 ° 0 min 0,000 mm 1,2 UV-I 141 W/m² 9,7 °C 13,5 °C 4,8 km/h (1 Bft)
01.07.2018 07:52 13,4 °C 77 % 1012,0 hPa 0,0 mm 4,8 km/h (1 Bft) O 90 ° 0 min 0,000 mm 1,2 UV-I 141 W/m² 9,5 °C 13,4 °C 9,7 km/h (2 Bft)
01.07.2018 07:53 13,3 °C 77 % 1011,9 hPa 0,0 mm 3,3 km/h (1 Bft) NO 56 ° 0 min 0,000 mm 1,2 UV-I 142 W/m² 9,4 °C 13,3 °C 4,8 km/h (1 Bft)
01.07.2018 07:54 13,3 °C 77 % 1012,0 hPa 0,0 mm 0,7 km/h (0 Bft) NO 56 ° 0 min 0,000 mm 1,2 UV-I 144 W/m² 9,4 °C 13,3 °C 1,6 km/h (1 Bft)
01.07.2018 07:55 13,2 °C 78 % 1012,0 hPa 0,0 mm 2,6 km/h (1 Bft) NO 56 ° 0 min 0,000 mm 1,3 UV-I 155 W/m² 9,4 °C 13,2 °C 4,8 km/h (1 Bft)
01.07.2018 07:56 13,2 °C 78 % 1012,0 hPa 0,0 mm 2,8 km/h (1 Bft) NO 56 ° 0 min 0,000 mm 1,3 UV-I 206 W/m² 9,4 °C 13,2 °C 4,8 km/h (1 Bft)
01.07.2018 07:57 13,2 °C 78 % 1012,0 hPa 0,0 mm 2,3 km/h (1 Bft) NO 56 ° 0 min 0,000 mm 1,4 UV-I 206 W/m² 9,4 °C 13,2 °C 4,8 km/h (1 Bft)
01.07.2018 07:58 13,3 °C 78 % 1012,1 hPa 0,0 mm 3,6 km/h (1 Bft) NO 55 ° 0 min 0,000 mm 1,3 UV-I 206 W/m² 9,5 °C 13,3 °C 6,4 km/h (2 Bft)
01.07.2018 07:59 13,3 °C 79 % 1012,0 hPa 0,0 mm 2,1 km/h (1 Bft) NO 55 ° 0 min 0,000 mm 1,3 UV-I 206 W/m² 9,7 °C 13,3 °C 3,2 km/h (1 Bft)
01.07.2018 08:00 13,4 °C 79 % 1012,0 hPa 0,0 mm 5,6 km/h (1 Bft) NO 46 ° 0 min 0,000 mm 1,5 UV-I 206 W/m² 9,8 °C 13,4 °C 6,4 km/h (2 Bft)
01.07.2018 08:01 13,4 °C 77 % 1012,0 hPa 0,0 mm 2,8 km/h (1 Bft) O-NO 70 ° 0 min 0,127 mm 1,5 UV-I 373 W/m² 9,5 °C 13,4 °C 6,4 km/h (2 Bft)
01.07.2018 08:02 13,4 °C 78 % 1012,0 hPa 0,0 mm 4,0 km/h (1 Bft) N-NO 29 ° 0 min 0,000 mm 1,4 UV-I 373 W/m² 9,6 °C 13,4 °C 8,0 km/h (2 Bft)
01.07.2018 08:03 13,4 °C 77 % 1012,0 hPa 0,0 mm 4,3 km/h (1 Bft) O-NO 71 ° 0 min 0,000 mm 1,4 UV-I 295 W/m² 9,5 °C 13,4 °C 8,0 km/h (2 Bft)
01.07.2018 08:04 13,4 °C 77 % 1012,0 hPa 0,0 mm 1,0 km/h (0 Bft) O-NO 71 ° 0 min 0,000 mm 1,5 UV-I 385 W/m² 9,5 °C 13,4 °C 4,8 km/h (1 Bft)
01.07.2018 08:05 13,4 °C 77 % 1012,1 hPa 0,0 mm 4,4 km/h (1 Bft) O-NO 61 ° 0 min 0,000 mm 1,3 UV-I 385 W/m² 9,5 °C 13,4 °C 6,4 km/h (2 Bft)
01.07.2018 08:06 13,4 °C 78 % 1012,0 hPa 0,0 mm 3,1 km/h (1 Bft) NO 55 ° 0 min 0,000 mm 1,3 UV-I 287 W/m² 9,6 °C 13,4 °C 4,8 km/h (1 Bft)
01.07.2018 08:07 13,4 °C 77 % 1012,0 hPa 0,0 mm 2,3 km/h (1 Bft) NO 55 ° 0 min 0,000 mm 1,3 UV-I 162 W/m² 9,5 °C 13,4 °C 4,8 km/h (1 Bft)
01.07.2018 08:08 13,4 °C 78 % 1012,0 hPa 0,0 mm 2,1 km/h (1 Bft) O-NO 76 ° 0 min 0,000 mm 1,4 UV-I 179 W/m² 9,6 °C 13,4 °C 4,8 km/h (1 Bft)
01.07.2018 08:09 13,3 °C 78 % 1012,1 hPa 0,0 mm 3,7 km/h (1 Bft) O-NO 76 ° 0 min 0,000 mm 1,4 UV-I 225 W/m² 9,5 °C 13,3 °C 6,4 km/h (2 Bft)
01.07.2018 08:10 13,3 °C 78 % 1012,0 hPa 0,0 mm 5,9 km/h (2 Bft) O-NO 57 ° 0 min 0,000 mm 1,5 UV-I 225 W/m² 9,5 °C 13,3 °C 8,0 km/h (2 Bft)
01.07.2018 08:11 13,3 °C 78 % 1012,0 hPa 0,0 mm 4,6 km/h (1 Bft) O-NO 78 ° 0 min 0,000 mm 1,4 UV-I 339 W/m² 9,5 °C 13,3 °C 8,0 km/h (2 Bft)
01.07.2018 08:12 13,3 °C 78 % 1012,0 hPa 0,0 mm 4,8 km/h (1 Bft) O-NO 65 ° 0 min 0,000 mm 1,3 UV-I 339 W/m² 9,5 °C 13,3 °C 6,4 km/h (2 Bft)
01.07.2018 08:13 13,3 °C 78 % 1012,0 hPa 0,0 mm 3,6 km/h (1 Bft) O-NO 63 ° 0 min 0,000 mm 1,3 UV-I 142 W/m² 9,5 °C 13,3 °C 4,8 km/h (1 Bft)
01.07.2018 08:14 13,3 °C 78 % 1012,0 hPa 0,0 mm 3,0 km/h (1 Bft) O-NO 57 ° 0 min 0,000 mm 1,5 UV-I 178 W/m² 9,5 °C 13,3 °C 6,4 km/h (2 Bft)
01.07.2018 08:15 13,4 °C 78 % 1012,0 hPa 0,0 mm 2,8 km/h (1 Bft) O-NO 57 ° 0 min 0,000 mm 1,7 UV-I 178 W/m² 9,6 °C 13,4 °C 4,8 km/h (1 Bft)
01.07.2018 08:16 13,4 °C 79 % 1012,0 hPa 0,0 mm 4,3 km/h (1 Bft) O-NO 74 ° 0 min 0,000 mm 1,8 UV-I 401 W/m² 9,8 °C 13,4 °C 6,4 km/h (2 Bft)
01.07.2018 08:17 13,6 °C 78 % 1012,0 hPa 0,0 mm 4,3 km/h (1 Bft) O-NO 70 ° 0 min 0,000 mm 1,6 UV-I 339 W/m² 9,8 °C 13,6 °C 6,4 km/h (2 Bft)
01.07.2018 08:18 13,6 °C 78 % 1012,0 hPa 0,0 mm 3,8 km/h (1 Bft) O-NO 70 ° 0 min 0,000 mm 1,9 UV-I 339 W/m² 9,8 °C 13,6 °C 4,8 km/h (1 Bft)
01.07.2018 08:19 13,7 °C 78 % 1012,0 hPa 0,0 mm 3,2 km/h (1 Bft) O-NO 69 ° 0 min 0,000 mm 1,5 UV-I 339 W/m² 9,9 °C 13,7 °C 4,8 km/h (1 Bft)
01.07.2018 08:20 13,7 °C 78 % 1012,0 hPa 0,0 mm 2,9 km/h (1 Bft) O-NO 70 ° 0 min 0,000 mm 1,5 UV-I 339 W/m² 9,9 °C 13,7 °C 6,4 km/h (2 Bft)
01.07.2018 08:21 13,7 °C 77 % 1012,0 hPa 0,0 mm 3,4 km/h (1 Bft) O-NO 70 ° 0 min 0,000 mm 1,5 UV-I 190 W/m² 9,7 °C 13,7 °C 4,8 km/h (1 Bft)
01.07.2018 08:22 13,7 °C 77 % 1012,1 hPa 0,0 mm 1,0 km/h (0 Bft) O 80 ° 0 min 0,000 mm 1,5 UV-I 188 W/m² 9,7 °C 13,7 °C 3,2 km/h (1 Bft)
01.07.2018 08:23 13,7 °C 78 % 1012,1 hPa 0,0 mm 3,7 km/h (1 Bft) O 90 ° 0 min 0,000 mm 1,5 UV-I 204 W/m² 9,9 °C 13,7 °C 6,4 km/h (2 Bft)
01.07.2018 08:24 13,6 °C 78 % 1012,0 hPa 0,0 mm 1,1 km/h (1 Bft) O 90 ° 0 min 0,000 mm 1,5 UV-I 297 W/m² 9,8 °C 13,6 °C 3,2 km/h (1 Bft)
01.07.2018 08:25 13,6 °C 78 % 1012,0 hPa 0,0 mm 3,2 km/h (1 Bft) O 90 ° 0 min 0,000 mm 1,5 UV-I 297 W/m² 9,8 °C 13,6 °C 4,8 km/h (1 Bft)
01.07.2018 08:26 13,5 °C 77 % 1012,0 hPa 0,0 mm 0,8 km/h (0 Bft) O 90 ° 0 min 0,000 mm 1,8 UV-I 213 W/m² 9,5 °C 13,5 °C 3,2 km/h (1 Bft)
01.07.2018 08:27 13,5 °C 77 % 1012,0 hPa 0,0 mm 2,5 km/h (1 Bft) O 89 ° 0 min 0,000 mm 1,6 UV-I 253 W/m² 9,5 °C 13,5 °C 3,2 km/h (1 Bft)
01.07.2018 08:28 13,6 °C 79 % 1012,0 hPa 0,0 mm 1,9 km/h (1 Bft) O 89 ° 0 min 0,000 mm 1,9 UV-I 253 W/m² 10,0 °C 13,6 °C 3,2 km/h (1 Bft)
01.07.2018 08:29 13,7 °C 80 % 1012,0 hPa 0,0 mm 0,7 km/h (0 Bft) O 89 ° 0 min 0,000 mm 1,6 UV-I 253 W/m² 10,3 °C 13,7 °C 1,6 km/h (1 Bft)
01.07.2018 08:30 13,8 °C 79 % 1012,0 hPa 0,0 mm 0,3 km/h (0 Bft) O 89 ° 0 min 0,000 mm 1,9 UV-I 211 W/m² 10,2 °C 13,8 °C 3,2 km/h (1 Bft)
01.07.2018 08:31 13,9 °C 79 % 1012,0 hPa 0,0 mm 2,0 km/h (1 Bft) O 89 ° 0 min 0,000 mm 1,8 UV-I 211 W/m² 10,3 °C 13,9 °C 3,2 km/h (1 Bft)
01.07.2018 08:32 14,0 °C 78 % 1012,0 hPa 0,0 mm 2,4 km/h (1 Bft) O 89 ° 0 min 0,000 mm 2,1 UV-I 211 W/m² 10,2 °C 14,0 °C 4,8 km/h (1 Bft)
01.07.2018 08:33 13,9 °C 77 % 1012,0 hPa 0,0 mm 1,7 km/h (1 Bft) O 89 ° 0 min 0,000 mm 2,0 UV-I 211 W/m² 9,9 °C 13,9 °C 4,8 km/h (1 Bft)
01.07.2018 08:34 14,0 °C 77 % 1012,1 hPa 0,0 mm 0,7 km/h (0 Bft) O 89 ° 0 min 0,000 mm 2,1 UV-I 211 W/m² 10,0 °C 14,0 °C 6,4 km/h (2 Bft)
01.07.2018 08:35 14,0 °C 77 % 1012,1 hPa 0,0 mm 1,4 km/h (1 Bft) O 88 ° 0 min 0,000 mm 2,1 UV-I 418 W/m² 10,0 °C 14,0 °C 6,4 km/h (2 Bft)
01.07.2018 08:36 14,1 °C 78 % 1012,1 hPa 0,0 mm 1,6 km/h (1 Bft) O 88 ° 0 min 0,000 mm 2,2 UV-I 452 W/m² 10,3 °C 14,1 °C 3,2 km/h (1 Bft)
01.07.2018 08:37 14,1 °C 77 % 1012,1 hPa 0,0 mm 3,9 km/h (1 Bft) O-NO 67 ° 0 min 0,000 mm 2,2 UV-I 454 W/m² 10,1 °C 14,1 °C 6,4 km/h (2 Bft)
01.07.2018 08:38 14,1 °C 77 % 1012,1 hPa 0,0 mm 4,3 km/h (1 Bft) O-NO 68 ° 0 min 0,000 mm 2,3 UV-I 454 W/m² 10,1 °C 14,1 °C 6,4 km/h (2 Bft)
01.07.2018 08:39 14,0 °C 77 % 1012,1 hPa 0,0 mm 3,4 km/h (1 Bft) O-NO 68 ° 0 min 0,000 mm 2,3 UV-I 446 W/m² 10,0 °C 14,0 °C 6,4 km/h (2 Bft)
01.07.2018 08:40 14,0 °C 77 % 1012,0 hPa 0,0 mm 1,1 km/h (1 Bft) O-NO 68 ° 0 min 0,000 mm 2,3 UV-I 446 W/m² 10,0 °C 14,0 °C 3,2 km/h (1 Bft)
01.07.2018 08:41 13,9 °C 76 % 1012,0 hPa 0,0 mm 2,7 km/h (1 Bft) O-NO 68 ° 0 min 0,000 mm 2,3 UV-I 459 W/m² 9,7 °C 13,9 °C 4,8 km/h (1 Bft)
01.07.2018 08:42 14,0 °C 77 % 1012,0 hPa 0,0 mm 3,9 km/h (1 Bft) O-NO 68 ° 0 min 0,000 mm 2,4 UV-I 461 W/m² 10,0 °C 14,0 °C 4,8 km/h (1 Bft)
01.07.2018 08:43 14,1 °C 79 % 1012,0 hPa 0,0 mm 3,6 km/h (1 Bft) NO 56 ° 0 min 0,000 mm 2,3 UV-I 462 W/m² 10,5 °C 14,1 °C 6,4 km/h (2 Bft)
01.07.2018 08:44 14,1 °C 77 % 1012,1 hPa 0,0 mm 6,0 km/h (2 Bft) NO 54 ° 0 min 0,000 mm 2,4 UV-I 438 W/m² 10,1 °C 14,1 °C 8,0 km/h (2 Bft)
01.07.2018 08:45 14,2 °C 77 % 1012,0 hPa 0,0 mm 2,4 km/h (1 Bft) NO 53 ° 0 min 0,000 mm 2,3 UV-I 438 W/m² 10,2 °C 14,2 °C 6,4 km/h (2 Bft)
01.07.2018 08:46 14,2 °C 78 % 1012,0 hPa 0,0 mm 4,7 km/h (1 Bft) N-NO 33 ° 0 min 0,000 mm 2,2 UV-I 272 W/m² 10,4 °C 14,2 °C 8,0 km/h (2 Bft)
01.07.2018 08:47 14,3 °C 77 % 1012,0 hPa 0,0 mm 4,4 km/h (1 Bft) O-NO 78 ° 0 min 0,000 mm 2,2 UV-I 272 W/m² 10,3 °C 14,3 °C 4,8 km/h (1 Bft)
01.07.2018 08:48 14,3 °C 76 % 1012,1 hPa 0,0 mm 5,2 km/h (1 Bft) O 82 ° 0 min 0,000 mm 2,5 UV-I 489 W/m² 10,1 °C 14,3 °C 6,4 km/h (2 Bft)
01.07.2018 08:49 14,2 °C 76 % 1012,1 hPa 0,0 mm 6,1 km/h (2 Bft) O 91 ° 0 min 0,000 mm 2,6 UV-I 492 W/m² 10,0 °C 14,2 °C 12,9 km/h (3 Bft)
01.07.2018 08:50 14,2 °C 76 % 1012,1 hPa 0,0 mm 7,2 km/h (2 Bft) O 81 ° 0 min 0,000 mm 2,6 UV-I 490 W/m² 10,0 °C 14,2 °C 11,3 km/h (2 Bft)
01.07.2018 08:51 14,2 °C 76 % 1012,2 hPa 0,0 mm 4,2 km/h (1 Bft) NO 36 ° 0 min 0,000 mm 2,6 UV-I 496 W/m² 10,0 °C 14,2 °C 9,7 km/h (2 Bft)
01.07.2018 08:52 14,2 °C 77 % 1012,1 hPa 0,0 mm 5,2 km/h (1 Bft) O-NO 76 ° 0 min 0,000 mm 2,6 UV-I 485 W/m² 10,2 °C 14,2 °C 11,3 km/h (2 Bft)
01.07.2018 08:53 14,2 °C 77 % 1012,2 hPa 0,0 mm 4,2 km/h (1 Bft) O-NO 59 ° 0 min 0,000 mm 2,0 UV-I 485 W/m² 10,2 °C 14,2 °C 8,0 km/h (2 Bft)
01.07.2018 08:54 14,2 °C 77 % 1012,2 hPa 0,0 mm 3,3 km/h (1 Bft) NO 50 ° 0 min 0,000 mm 2,5 UV-I 200 W/m² 10,2 °C 14,2 °C 6,4 km/h (2 Bft)
01.07.2018 08:55 14,2 °C 76 % 1012,1 hPa 0,0 mm 0,8 km/h (0 Bft) NO 50 ° 0 min 0,000 mm 2,7 UV-I 515 W/m² 10,0 °C 14,2 °C 3,2 km/h (1 Bft)
01.07.2018 08:56 14,3 °C 78 % 1012,2 hPa 0,0 mm 3,4 km/h (1 Bft) O-NO 70 ° 0 min 0,000 mm 2,7 UV-I 519 W/m² 10,5 °C 14,3 °C 4,8 km/h (1 Bft)
01.07.2018 08:57 14,4 °C 76 % 1012,2 hPa 0,0 mm 5,4 km/h (1 Bft) NO 50 ° 0 min 0,000 mm 2,3 UV-I 429 W/m² 10,2 °C 14,4 °C 6,4 km/h (2 Bft)
01.07.2018 08:58 14,4 °C 77 % 1012,1 hPa 0,0 mm 3,0 km/h (1 Bft) O-NO 65 ° 0 min 0,000 mm 2,6 UV-I 527 W/m² 10,4 °C 14,4 °C 6,4 km/h (2 Bft)
01.07.2018 08:59 14,6 °C 78 % 1012,1 hPa 0,0 mm 7,2 km/h (2 Bft) S 178 ° 0 min 0,000 mm 2,4 UV-I 434 W/m² 10,8 °C 14,6 °C 11,3 km/h (2 Bft)
01.07.2018 09:00 14,6 °C 76 % 1012,2 hPa 0,0 mm 4,6 km/h (1 Bft) O 94 ° 0 min 0,000 mm 2,6 UV-I 469 W/m² 10,4 °C 14,6 °C 8,0 km/h (2 Bft)
01.07.2018 09:01 14,6 °C 76 % 1012,1 hPa 0,0 mm 2,3 km/h (1 Bft) O-NO 77 ° 0 min 0,178 mm 2,1 UV-I 156 W/m² 10,4 °C 14,6 °C 4,8 km/h (1 Bft)
01.07.2018 09:02 14,5 °C 77 % 1012,1 hPa 0,0 mm 1,9 km/h (1 Bft) O-NO 68 ° 0 min 0,000 mm 2,2 UV-I 156 W/m² 10,5 °C 14,5 °C 6,4 km/h (2 Bft)
01.07.2018 09:03 14,6 °C 78 % 1012,1 hPa 0,0 mm 3,6 km/h (1 Bft) NO 53 ° 0 min 0,000 mm 2,9 UV-I 156 W/m² 10,8 °C 14,6 °C 6,4 km/h (2 Bft)
01.07.2018 09:04 14,7 °C 79 % 1012,1 hPa 0,0 mm 0,9 km/h (0 Bft) SO 131 ° 0 min 0,000 mm 2,9 UV-I 540 W/m² 11,1 °C 14,7 °C 6,4 km/h (2 Bft)
01.07.2018 09:05 14,7 °C 77 % 1012,1 hPa 0,0 mm 6,2 km/h (2 Bft) O-SO 102 ° 0 min 0,000 mm 2,9 UV-I 540 W/m² 10,7 °C 14,7 °C 9,7 km/h (2 Bft)
01.07.2018 09:06 14,7 °C 77 % 1012,1 hPa 0,0 mm 4,3 km/h (1 Bft) O-NO 69 ° 0 min 0,000 mm 3,0 UV-I 543 W/m² 10,7 °C 14,7 °C 6,4 km/h (2 Bft)
01.07.2018 09:07 14,7 °C 77 % 1012,1 hPa 0,0 mm 3,4 km/h (1 Bft) NO 48 ° 0 min 0,000 mm 2,9 UV-I 529 W/m² 10,7 °C 14,7 °C 9,7 km/h (2 Bft)
01.07.2018 09:08 14,7 °C 76 % 1012,1 hPa 0,0 mm 7,8 km/h (2 Bft) NO 46 ° 0 min 0,000 mm 3,0 UV-I 531 W/m² 10,5 °C 14,7 °C 11,3 km/h (2 Bft)
01.07.2018 09:09 14,7 °C 76 % 1012,1 hPa 0,0 mm 5,3 km/h (1 Bft) O-NO 77 ° 0 min 0,000 mm 2,9 UV-I 520 W/m² 10,5 °C 14,7 °C 8,0 km/h (2 Bft)
01.07.2018 09:10 14,8 °C 76 % 1012,0 hPa 0,0 mm 2,6 km/h (1 Bft) N-NO 19 ° 0 min 0,000 mm 3,0 UV-I 536 W/m² 10,6 °C 14,8 °C 4,8 km/h (1 Bft)
01.07.2018 09:11 14,8 °C 77 % 1012,0 hPa 0,0 mm 2,5 km/h (1 Bft) NO 36 ° 0 min 0,000 mm 3,0 UV-I 522 W/m² 10,8 °C 14,8 °C 4,8 km/h (1 Bft)
01.07.2018 09:12 14,9 °C 77 % 1012,1 hPa 0,0 mm 2,3 km/h (1 Bft) O-NO 61 ° 0 min 0,000 mm 3,0 UV-I 533 W/m² 10,9 °C 14,9 °C 4,8 km/h (1 Bft)
01.07.2018 09:13 15,1 °C 78 % 1012,0 hPa 0,0 mm 3,4 km/h (1 Bft) O-NO 64 ° 0 min 0,000 mm 3,1 UV-I 536 W/m² 11,3 °C 15,1 °C 4,8 km/h (1 Bft)
01.07.2018 09:14 15,1 °C 75 % 1012,1 hPa 0,0 mm 2,5 km/h (1 Bft) NO 37 ° 0 min 0,000 mm 3,1 UV-I 534 W/m² 10,7 °C 15,1 °C 4,8 km/h (1 Bft)
01.07.2018 09:15 15,1 °C 75 % 1012,1 hPa 0,0 mm 2,1 km/h (1 Bft) O 82 ° 0 min 0,000 mm 3,1 UV-I 534 W/m² 10,7 °C 15,1 °C 4,8 km/h (1 Bft)
01.07.2018 09:16 15,1 °C 76 % 1012,0 hPa 0,0 mm 0,1 km/h (0 Bft) O 82 ° 0 min 0,000 mm 3,1 UV-I 524 W/m² 10,9 °C 15,1 °C 1,6 km/h (1 Bft)
01.07.2018 09:17 15,1 °C 78 % 1012,1 hPa 0,0 mm 4,3 km/h (1 Bft) N 5 ° 0 min 0,000 mm 3,1 UV-I 522 W/m² 11,3 °C 15,1 °C 9,7 km/h (2 Bft)
01.07.2018 09:18 15,1 °C 78 % 1012,1 hPa 0,0 mm 4,6 km/h (1 Bft) N 360 ° 0 min 0,000 mm 3,1 UV-I 531 W/m² 11,3 °C 15,1 °C 6,4 km/h (2 Bft)
01.07.2018 09:19 15,2 °C 78 % 1012,0 hPa 0,0 mm 7,6 km/h (2 Bft) N-NO 33 ° 0 min 0,000 mm 3,1 UV-I 531 W/m² 11,4 °C 15,2 °C 11,3 km/h (2 Bft)
01.07.2018 09:20 15,3 °C 76 % 1012,0 hPa 0,0 mm 7,0 km/h (2 Bft) NO 55 ° 0 min 0,000 mm 3,2 UV-I 548 W/m² 11,1 °C 15,3 °C 9,7 km/h (2 Bft)
01.07.2018 09:21 15,3 °C 75 % 1012,1 hPa 0,0 mm 6,0 km/h (2 Bft) NO 54 ° 0 min 0,000 mm 3,3 UV-I 570 W/m² 10,9 °C 15,3 °C 8,0 km/h (2 Bft)
01.07.2018 09:22 15,3 °C 76 % 1012,1 hPa 0,0 mm 4,2 km/h (1 Bft) N 10 ° 0 min 0,000 mm 3,4 UV-I 587 W/m² 11,1 °C 15,3 °C 6,4 km/h (2 Bft)
01.07.2018 09:23 15,2 °C 76 % 1012,1 hPa 0,0 mm 5,6 km/h (1 Bft) O 88 ° 0 min 0,000 mm 3,4 UV-I 598 W/m² 11,0 °C 15,2 °C 8,0 km/h (2 Bft)
01.07.2018 09:24 15,2 °C 76 % 1012,1 hPa 0,0 mm 3,1 km/h (1 Bft) N 355 ° 0 min 0,000 mm 3,4 UV-I 575 W/m² 11,0 °C 15,2 °C 6,4 km/h (2 Bft)
01.07.2018 09:25 15,2 °C 77 % 1012,1 hPa 0,0 mm 8,0 km/h (2 Bft) N-NO 24 ° 0 min 0,000 mm 3,4 UV-I 524 W/m² 11,2 °C 15,2 °C 12,9 km/h (3 Bft)
01.07.2018 09:26 15,3 °C 76 % 1012,1 hPa 0,0 mm 6,1 km/h (2 Bft) NO 40 ° 0 min 0,000 mm 3,3 UV-I 524 W/m² 11,1 °C 15,3 °C 8,0 km/h (2 Bft)
01.07.2018 09:27 15,3 °C 77 % 1012,1 hPa 0,0 mm 5,2 km/h (1 Bft) N-NO 28 ° 0 min 0,000 mm 3,1 UV-I 524 W/m² 11,3 °C 15,3 °C 8,0 km/h (2 Bft)
01.07.2018 09:28 15,4 °C 77 % 1012,1 hPa 0,0 mm 3,2 km/h (1 Bft) NO 34 ° 0 min 0,000 mm 3,6 UV-I 501 W/m² 11,4 °C 15,4 °C 6,4 km/h (2 Bft)
01.07.2018 09:29 15,4 °C 76 % 1012,1 hPa 0,0 mm 3,9 km/h (1 Bft) NO 53 ° 0 min 0,000 mm 3,3 UV-I 501 W/m² 11,2 °C 15,4 °C 8,0 km/h (2 Bft)
01.07.2018 09:30 15,5 °C 77 % 1012,1 hPa 0,0 mm 4,5 km/h (1 Bft) N-NO 29 ° 0 min 0,000 mm 2,4 UV-I 230 W/m² 11,5 °C 15,5 °C 8,0 km/h (2 Bft)
01.07.2018 09:31 15,6 °C 77 % 1012,1 hPa 0,0 mm 4,0 km/h (1 Bft) NO 43 ° 0 min 0,000 mm 2,3 UV-I 195 W/m² 11,6 °C 15,6 °C 8,0 km/h (2 Bft)
01.07.2018 09:32 15,6 °C 75 % 1012,1 hPa 0,0 mm 6,2 km/h (2 Bft) NO 55 ° 0 min 0,000 mm 2,4 UV-I 197 W/m² 11,2 °C 15,6 °C 9,7 km/h (2 Bft)
01.07.2018 09:33 15,4 °C 75 % 1012,1 hPa 0,0 mm 4,3 km/h (1 Bft) N 5 ° 0 min 0,000 mm 2,6 UV-I 230 W/m² 11,0 °C 15,4 °C 8,0 km/h (2 Bft)
01.07.2018 09:34 15,3 °C 76 % 1012,1 hPa 0,0 mm 4,0 km/h (1 Bft) NO 51 ° 0 min 0,000 mm 2,6 UV-I 230 W/m² 11,1 °C 15,3 °C 6,4 km/h (2 Bft)
01.07.2018 09:35 15,3 °C 76 % 1012,1 hPa 0,0 mm 2,2 km/h (1 Bft) N-NW 344 ° 0 min 0,000 mm 2,7 UV-I 292 W/m² 11,1 °C 15,3 °C 6,4 km/h (2 Bft)
01.07.2018 09:36 15,3 °C 77 % 1012,1 hPa 0,0 mm 5,3 km/h (1 Bft) N-NO 24 ° 0 min 0,000 mm 3,4 UV-I 292 W/m² 11,3 °C 15,3 °C 9,7 km/h (2 Bft)
01.07.2018 09:37 15,4 °C 78 % 1012,1 hPa 0,0 mm 4,7 km/h (1 Bft) NO 47 ° 0 min 0,000 mm 3,5 UV-I 582 W/m² 11,6 °C 15,4 °C 6,4 km/h (2 Bft)
01.07.2018 09:38 15,4 °C 75 % 1012,1 hPa 0,0 mm 6,6 km/h (2 Bft) N-NO 33 ° 0 min 0,000 mm 3,6 UV-I 599 W/m² 11,0 °C 15,4 °C 8,0 km/h (2 Bft)
01.07.2018 09:39 15,4 °C 76 % 1012,2 hPa 0,0 mm 5,7 km/h (1 Bft) NO 38 ° 1 min 0,000 mm 3,7 UV-I 617 W/m² 11,2 °C 15,4 °C 9,7 km/h (2 Bft)
01.07.2018 09:40 15,4 °C 76 % 1012,2 hPa 0,0 mm 2,5 km/h (1 Bft) O-NO 71 ° 1 min 0,000 mm 3,8 UV-I 647 W/m² 11,2 °C 15,4 °C 4,8 km/h (1 Bft)
01.07.2018 09:41 15,6 °C 77 % 1012,1 hPa 0,0 mm 3,2 km/h (1 Bft) O-NO 59 ° 1 min 0,000 mm 3,9 UV-I 686 W/m² 11,6 °C 15,6 °C 6,4 km/h (2 Bft)
01.07.2018 09:42 15,6 °C 76 % 1012,2 hPa 0,0 mm 6,4 km/h (2 Bft) O-NO 57 ° 1 min 0,000 mm 2,9 UV-I 686 W/m² 11,4 °C 15,6 °C 9,7 km/h (2 Bft)
01.07.2018 09:43 15,5 °C 75 % 1012,2 hPa 0,0 mm 4,0 km/h (1 Bft) NO 42 ° 1 min 0,000 mm 2,7 UV-I 686 W/m² 11,1 °C 15,5 °C 8,0 km/h (2 Bft)
01.07.2018 09:44 15,4 °C 76 % 1012,2 hPa 0,0 mm 6,6 km/h (2 Bft) N-NO 28 ° 0 min 0,000 mm 2,6 UV-I 243 W/m² 11,2 °C 15,4 °C 9,7 km/h (2 Bft)
01.07.2018 09:45 15,4 °C 77 % 1012,2 hPa 0,0 mm 6,3 km/h (2 Bft) NO 38 ° 0 min 0,000 mm 2,5 UV-I 225 W/m² 11,4 °C 15,4 °C 8,0 km/h (2 Bft)
01.07.2018 09:46 15,4 °C 76 % 1012,2 hPa 0,0 mm 4,2 km/h (1 Bft) NO 34 ° 0 min 0,000 mm 2,8 UV-I 350 W/m² 11,2 °C 15,4 °C 8,0 km/h (2 Bft)
01.07.2018 09:47 15,4 °C 76 % 1012,2 hPa 0,0 mm 3,6 km/h (1 Bft) N-NO 17 ° 0 min 0,000 mm 2,9 UV-I 311 W/m² 11,2 °C 15,4 °C 6,4 km/h (2 Bft)
01.07.2018 09:48 15,4 °C 76 % 1012,1 hPa 0,0 mm 4,2 km/h (1 Bft) NO 53 ° 0 min 0,000 mm 3,5 UV-I 265 W/m² 11,2 °C 15,4 °C 9,7 km/h (2 Bft)
01.07.2018 09:49 15,3 °C 76 % 1012,2 hPa 0,0 mm 4,2 km/h (1 Bft) N-NO 17 ° 0 min 0,000 mm 3,9 UV-I 265 W/m² 11,1 °C 15,3 °C 9,7 km/h (2 Bft)
01.07.2018 09:50 15,3 °C 77 % 1012,1 hPa 0,0 mm 2,5 km/h (1 Bft) NO 55 ° 0 min 0,000 mm 3,7 UV-I 265 W/m² 11,3 °C 15,3 °C 6,4 km/h (2 Bft)
01.07.2018 09:51 15,3 °C 77 % 1012,2 hPa 0,0 mm 5,7 km/h (1 Bft) O 93 ° 0 min 0,000 mm 3,1 UV-I 265 W/m² 11,3 °C 15,3 °C 9,7 km/h (2 Bft)
01.07.2018 09:52 15,3 °C 77 % 1012,2 hPa 0,0 mm 8,4 km/h (2 Bft) N-NO 15 ° 0 min 0,000 mm 2,9 UV-I 357 W/m² 11,3 °C 15,3 °C 14,5 km/h (3 Bft)
01.07.2018 09:53 15,3 °C 77 % 1012,2 hPa 0,0 mm 7,8 km/h (2 Bft) O 83 ° 0 min 0,000 mm 3,5 UV-I 357 W/m² 11,3 °C 15,3 °C 11,3 km/h (2 Bft)
01.07.2018 09:54 15,3 °C 76 % 1012,2 hPa 0,0 mm 3,8 km/h (1 Bft) O-NO 75 ° 0 min 0,000 mm 2,8 UV-I 357 W/m² 11,1 °C 15,3 °C 6,4 km/h (2 Bft)
01.07.2018 09:55 15,3 °C 77 % 1012,2 hPa 0,0 mm 3,8 km/h (1 Bft) NO 56 ° 0 min 0,000 mm 2,9 UV-I 332 W/m² 11,3 °C 15,3 °C 6,4 km/h (2 Bft)
01.07.2018 09:56 15,3 °C 77 % 1012,2 hPa 0,0 mm 5,3 km/h (1 Bft) NO 56 ° 0 min 0,000 mm 3,3 UV-I 323 W/m² 11,3 °C 15,3 °C 8,0 km/h (2 Bft)
01.07.2018 09:57 15,3 °C 77 % 1012,2 hPa 0,0 mm 5,4 km/h (1 Bft) O-NO 58 ° 0 min 0,000 mm 2,8 UV-I 315 W/m² 11,3 °C 15,3 °C 8,0 km/h (2 Bft)
01.07.2018 09:58 15,3 °C 77 % 1012,2 hPa 0,0 mm 3,1 km/h (1 Bft) O-NO 63 ° 0 min 0,000 mm 2,8 UV-I 290 W/m² 11,3 °C 15,3 °C 4,8 km/h (1 Bft)
01.07.2018 09:59 15,3 °C 77 % 1012,2 hPa 0,0 mm 4,2 km/h (1 Bft) NO 53 ° 0 min 0,000 mm 2,8 UV-I 294 W/m² 11,3 °C 15,3 °C 6,4 km/h (2 Bft)
01.07.2018 10:00 15,4 °C 77 % 1012,2 hPa 0,0 mm 3,7 km/h (1 Bft) N-NO 15 ° 0 min 0,000 mm 3,6 UV-I 311 W/m² 11,4 °C 15,4 °C 4,8 km/h (1 Bft)
01.07.2018 10:01 15,4 °C 77 % 1012,2 hPa 0,0 mm 4,6 km/h (1 Bft) N-NW 348 ° 0 min 0,254 mm 2,7 UV-I 274 W/m² 11,4 °C 15,4 °C 8,0 km/h (2 Bft)
01.07.2018 10:02 15,6 °C 77 % 1012,2 hPa 0,0 mm 5,4 km/h (1 Bft) N 9 ° 0 min 0,000 mm 3,3 UV-I 274 W/m² 11,6 °C 15,6 °C 8,0 km/h (2 Bft)
01.07.2018 10:03 15,6 °C 76 % 1012,2 hPa 0,0 mm 9,1 km/h (2 Bft) N 9 ° 1 min 0,000 mm 4,2 UV-I 789 W/m² 11,4 °C 15,6 °C 14,5 km/h (3 Bft)
01.07.2018 10:04 15,7 °C 78 % 1012,2 hPa 0,0 mm 5,4 km/h (1 Bft) O 88 ° 1 min 0,000 mm 4,2 UV-I 784 W/m² 11,9 °C 15,7 °C 9,7 km/h (2 Bft)
01.07.2018 10:05 15,7 °C 76 % 1012,2 hPa 0,0 mm 6,6 km/h (2 Bft) N-NO 31 ° 0 min 0,000 mm 2,8 UV-I 246 W/m² 11,5 °C 15,7 °C 8,0 km/h (2 Bft)
01.07.2018 10:06 15,6 °C 76 % 1012,2 hPa 0,0 mm 7,0 km/h (2 Bft) O-NO 57 ° 0 min 0,000 mm 3,8 UV-I 246 W/m² 11,4 °C 15,6 °C 11,3 km/h (2 Bft)
01.07.2018 10:07 15,6 °C 76 % 1012,2 hPa 0,0 mm 5,3 km/h (1 Bft) O-NO 75 ° 0 min 0,000 mm 4,1 UV-I 246 W/m² 11,4 °C 15,6 °C 9,7 km/h (2 Bft)
01.07.2018 10:08 15,6 °C 78 % 1012,2 hPa 0,0 mm 2,3 km/h (1 Bft) NO 53 ° 1 min 0,000 mm 4,1 UV-I 643 W/m² 11,8 °C 15,6 °C 3,2 km/h (1 Bft)
01.07.2018 10:09 15,6 °C 78 % 1012,2 hPa 0,0 mm 2,3 km/h (1 Bft) NO 39 ° 1 min 0,000 mm 4,5 UV-I 643 W/m² 11,8 °C 15,6 °C 4,8 km/h (1 Bft)
01.07.2018 10:10 15,8 °C 79 % 1012,1 hPa 0,0 mm 1,1 km/h (1 Bft) NO 39 ° 1 min 0,000 mm 4,5 UV-I 765 W/m² 12,2 °C 15,8 °C 3,2 km/h (1 Bft)
01.07.2018 10:11 15,9 °C 78 % 1012,1 hPa 0,0 mm 4,4 km/h (1 Bft) N-NO 24 ° 1 min 0,000 mm 3,7 UV-I 765 W/m² 12,1 °C 15,9 °C 6,4 km/h (2 Bft)
01.07.2018 10:12 16,1 °C 78 % 1012,2 hPa 0,0 mm 5,9 km/h (2 Bft) NO 34 ° 1 min 0,000 mm 3,5 UV-I 765 W/m² 12,3 °C 16,1 °C 8,0 km/h (2 Bft)
01.07.2018 10:13 16,3 °C 77 % 1012,2 hPa 0,0 mm 4,0 km/h (1 Bft) O-NO 69 ° 0 min 0,000 mm 3,3 UV-I 429 W/m² 12,3 °C 16,3 °C 6,4 km/h (2 Bft)
01.07.2018 10:14 16,2 °C 75 % 1012,2 hPa 0,0 mm 4,1 km/h (1 Bft) O-NO 73 ° 0 min 0,000 mm 3,1 UV-I 401 W/m² 11,8 °C 16,2 °C 9,7 km/h (2 Bft)
01.07.2018 10:15 16,1 °C 75 % 1012,2 hPa 0,0 mm 6,3 km/h (2 Bft) O-NO 63 ° 0 min 0,000 mm 3,1 UV-I 394 W/m² 11,7 °C 16,1 °C 9,7 km/h (2 Bft)
01.07.2018 10:16 15,9 °C 76 % 1012,2 hPa 0,0 mm 4,8 km/h (1 Bft) N 5 ° 0 min 0,000 mm 2,9 UV-I 348 W/m² 11,7 °C 15,9 °C 9,7 km/h (2 Bft)
01.07.2018 10:17 16,0 °C 76 % 1012,2 hPa 0,0 mm 6,7 km/h (2 Bft) NO 44 ° 0 min 0,000 mm 2,9 UV-I 348 W/m² 11,8 °C 16,0 °C 12,9 km/h (3 Bft)
01.07.2018 10:18 15,9 °C 75 % 1012,2 hPa 0,0 mm 4,6 km/h (1 Bft) NO 37 ° 0 min 0,000 mm 2,9 UV-I 346 W/m² 11,5 °C 15,9 °C 6,4 km/h (2 Bft)
01.07.2018 10:19 15,9 °C 75 % 1012,2 hPa 0,0 mm 4,8 km/h (1 Bft) N-NO 25 ° 0 min 0,000 mm 2,9 UV-I 346 W/m² 11,5 °C 15,9 °C 11,3 km/h (2 Bft)
01.07.2018 10:20 15,9 °C 75 % 1012,3 hPa 0,0 mm 5,2 km/h (1 Bft) N 355 ° 0 min 0,000 mm 2,8 UV-I 346 W/m² 11,5 °C 15,9 °C 8,0 km/h (2 Bft)
01.07.2018 10:21 15,9 °C 75 % 1012,2 hPa 0,0 mm 3,7 km/h (1 Bft) N-NO 22 ° 0 min 0,000 mm 3,2 UV-I 350 W/m² 11,5 °C 15,9 °C 9,7 km/h (2 Bft)
01.07.2018 10:22 15,9 °C 76 % 1012,2 hPa 0,0 mm 5,0 km/h (1 Bft) NO 39 ° 0 min 0,000 mm 3,0 UV-I 355 W/m² 11,7 °C 15,9 °C 6,4 km/h (2 Bft)
01.07.2018 10:23 15,8 °C 76 % 1012,3 hPa 0,0 mm 5,5 km/h (1 Bft) O 100 ° 0 min 0,000 mm 3,1 UV-I 383 W/m² 11,6 °C 15,8 °C 9,7 km/h (2 Bft)
01.07.2018 10:24 15,8 °C 76 % 1012,3 hPa 0,0 mm 5,1 km/h (1 Bft) O-NO 76 ° 0 min 0,000 mm 4,5 UV-I 468 W/m² 11,6 °C 15,8 °C 6,4 km/h (2 Bft)
01.07.2018 10:25 15,8 °C 75 % 1012,3 hPa 0,0 mm 3,1 km/h (1 Bft) O-NO 71 ° 0 min 0,000 mm 3,1 UV-I 418 W/m² 11,4 °C 15,8 °C 8,0 km/h (2 Bft)
01.07.2018 10:26 15,8 °C 76 % 1012,4 hPa 0,0 mm 3,5 km/h (1 Bft) NO 48 ° 0 min 0,000 mm 2,9 UV-I 385 W/m² 11,6 °C 15,8 °C 6,4 km/h (2 Bft)
01.07.2018 10:27 15,8 °C 75 % 1012,4 hPa 0,0 mm 2,9 km/h (1 Bft) NO 52 ° 0 min 0,000 mm 2,8 UV-I 313 W/m² 11,4 °C 15,8 °C 4,8 km/h (1 Bft)
01.07.2018 10:28 15,8 °C 75 % 1012,3 hPa 0,0 mm 3,6 km/h (1 Bft) NO 38 ° 0 min 0,000 mm 2,7 UV-I 325 W/m² 11,4 °C 15,8 °C 6,4 km/h (2 Bft)
01.07.2018 10:29 15,8 °C 76 % 1012,4 hPa 0,0 mm 5,2 km/h (1 Bft) NO 53 ° 0 min 0,000 mm 2,7 UV-I 285 W/m² 11,6 °C 15,8 °C 6,4 km/h (2 Bft)
01.07.2018 10:30 15,9 °C 77 % 1012,4 hPa 0,0 mm 4,8 km/h (1 Bft) O 92 ° 0 min 0,000 mm 2,7 UV-I 279 W/m² 11,9 °C 15,9 °C 8,0 km/h (2 Bft)
01.07.2018 10:31 15,9 °C 77 % 1012,4 hPa 0,0 mm 2,5 km/h (1 Bft) O 91 ° 0 min 0,000 mm 2,9 UV-I 301 W/m² 11,9 °C 15,9 °C 4,8 km/h (1 Bft)
01.07.2018 10:32 16,0 °C 77 % 1012,4 hPa 0,0 mm 3,6 km/h (1 Bft) NO 36 ° 0 min 0,000 mm 3,4 UV-I 301 W/m² 12,0 °C 16,0 °C 6,4 km/h (2 Bft)
01.07.2018 10:33 16,0 °C 76 % 1012,4 hPa 0,0 mm 4,8 km/h (1 Bft) O-NO 76 ° 0 min 0,000 mm 2,8 UV-I 301 W/m² 11,8 °C 16,0 °C 6,4 km/h (2 Bft)
01.07.2018 10:34 16,1 °C 76 % 1012,4 hPa 0,0 mm 4,9 km/h (1 Bft) O-NO 66 ° 0 min 0,000 mm 2,9 UV-I 285 W/m² 11,9 °C 16,1 °C 8,0 km/h (2 Bft)
01.07.2018 10:35 16,1 °C 75 % 1012,4 hPa 0,0 mm 3,0 km/h (1 Bft) O 90 ° 0 min 0,000 mm 3,2 UV-I 279 W/m² 11,7 °C 16,1 °C 4,8 km/h (1 Bft)
01.07.2018 10:36 16,1 °C 76 % 1012,4 hPa 0,0 mm 5,3 km/h (1 Bft) O-NO 73 ° 0 min 0,000 mm 5,2 UV-I 279 W/m² 11,9 °C 16,1 °C 8,0 km/h (2 Bft)
01.07.2018 10:37 16,1 °C 76 % 1012,4 hPa 0,0 mm 3,0 km/h (1 Bft) O 98 ° 1 min 0,000 mm 5,0 UV-I 872 W/m² 11,9 °C 16,1 °C 9,7 km/h (2 Bft)
01.07.2018 10:38 16,1 °C 76 % 1012,4 hPa 0,0 mm 6,0 km/h (2 Bft) O-SO 102 ° 1 min 0,000 mm 3,4 UV-I 872 W/m² 11,9 °C 16,1 °C 12,9 km/h (3 Bft)
01.07.2018 10:39 16,2 °C 76 % 1012,4 hPa 0,0 mm 4,4 km/h (1 Bft) O-NO 66 ° 0 min 0,000 mm 3,6 UV-I 345 W/m² 12,0 °C 16,2 °C 6,4 km/h (2 Bft)
01.07.2018 10:40 16,2 °C 75 % 1012,4 hPa 0,0 mm 3,9 km/h (1 Bft) N-NO 15 ° 0 min 0,000 mm 5,1 UV-I 345 W/m² 11,8 °C 16,2 °C 6,4 km/h (2 Bft)
01.07.2018 10:41 16,3 °C 77 % 1012,5 hPa 0,0 mm 2,6 km/h (1 Bft) N 360 ° 1 min 0,000 mm 4,4 UV-I 810 W/m² 12,3 °C 16,3 °C 8,0 km/h (2 Bft)
01.07.2018 10:42 16,4 °C 77 % 1012,5 hPa 0,0 mm 5,9 km/h (2 Bft) NO 39 ° 1 min 0,000 mm 5,4 UV-I 810 W/m² 12,4 °C 16,4 °C 9,7 km/h (2 Bft)
01.07.2018 10:43 16,6 °C 75 % 1012,4 hPa 0,0 mm 5,2 km/h (1 Bft) O-NO 58 ° 1 min 0,000 mm 5,5 UV-I 810 W/m² 12,1 °C 16,6 °C 11,3 km/h (2 Bft)
01.07.2018 10:44 16,7 °C 76 % 1012,4 hPa 0,0 mm 6,3 km/h (2 Bft) N-NW 339 ° 1 min 0,000 mm 5,3 UV-I 810 W/m² 12,4 °C 16,7 °C 12,9 km/h (3 Bft)
01.07.2018 10:45 16,7 °C 74 % 1012,4 hPa 0,0 mm 5,4 km/h (1 Bft) NO 43 ° 1 min 0,000 mm 3,6 UV-I 810 W/m² 12,0 °C 16,7 °C 9,7 km/h (2 Bft)
01.07.2018 10:46 16,6 °C 73 % 1012,5 hPa 0,0 mm 4,4 km/h (1 Bft) O-NO 60 ° 1 min 0,000 mm 3,2 UV-I 810 W/m² 11,7 °C 16,6 °C 11,3 km/h (2 Bft)
01.07.2018 10:47 16,4 °C 74 % 1012,5 hPa 0,0 mm 5,1 km/h (1 Bft) O 82 ° 1 min 0,000 mm 3,2 UV-I 810 W/m² 11,8 °C 16,4 °C 6,4 km/h (2 Bft)
01.07.2018 10:48 16,3 °C 76 % 1012,4 hPa 0,0 mm 3,2 km/h (1 Bft) O 79 ° 1 min 0,000 mm 5,4 UV-I 810 W/m² 12,1 °C 16,3 °C 6,4 km/h (2 Bft)
01.07.2018 10:49 16,4 °C 76 % 1012,5 hPa 0,0 mm 6,4 km/h (2 Bft) O-NO 57 ° 1 min 0,000 mm 3,3 UV-I 810 W/m² 12,2 °C 16,4 °C 12,9 km/h (3 Bft)
01.07.2018 10:50 16,4 °C 74 % 1012,5 hPa 0,0 mm 7,2 km/h (2 Bft) O 91 ° 1 min 0,000 mm 3,3 UV-I 810 W/m² 11,8 °C 16,4 °C 11,3 km/h (2 Bft)
01.07.2018 10:51 16,4 °C 75 % 1012,5 hPa 0,0 mm 5,1 km/h (1 Bft) O-NO 63 ° 1 min 0,000 mm 5,5 UV-I 933 W/m² 12,0 °C 16,4 °C 8,0 km/h (2 Bft)
01.07.2018 10:52 16,5 °C 76 % 1012,5 hPa 0,0 mm 7,9 km/h (2 Bft) NO 50 ° 1 min 0,000 mm 3,3 UV-I 933 W/m² 12,3 °C 16,5 °C 12,9 km/h (3 Bft)
01.07.2018 10:53 16,5 °C 75 % 1012,5 hPa 0,0 mm 6,6 km/h (2 Bft) NO 42 ° 0 min 0,000 mm 3,4 UV-I 306 W/m² 12,1 °C 16,5 °C 11,3 km/h (2 Bft)
01.07.2018 10:54 16,5 °C 75 % 1012,5 hPa 0,0 mm 3,6 km/h (1 Bft) NO 53 ° 0 min 0,000 mm 5,3 UV-I 306 W/m² 12,1 °C 16,5 °C 8,0 km/h (2 Bft)
01.07.2018 10:55 16,7 °C 76 % 1012,5 hPa 0,0 mm 2,9 km/h (1 Bft) NO 37 ° 0 min 0,000 mm 4,6 UV-I 306 W/m² 12,4 °C 16,7 °C 4,8 km/h (1 Bft)
01.07.2018 10:56 16,8 °C 75 % 1012,5 hPa 0,0 mm 5,5 km/h (1 Bft) N-NO 24 ° 1 min 0,000 mm 4,6 UV-I 773 W/m² 12,3 °C 16,8 °C 9,7 km/h (2 Bft)
01.07.2018 10:57 16,9 °C 74 % 1012,6 hPa 0,0 mm 7,2 km/h (2 Bft) NO 55 ° 1 min 0,000 mm 4,2 UV-I 773 W/m² 12,2 °C 16,9 °C 9,7 km/h (2 Bft)
01.07.2018 10:58 16,9 °C 74 % 1012,6 hPa 0,0 mm 4,7 km/h (1 Bft) O 88 ° 1 min 0,000 mm 3,6 UV-I 773 W/m² 12,2 °C 16,9 °C 8,0 km/h (2 Bft)
01.07.2018 10:59 16,8 °C 73 % 1012,5 hPa 0,0 mm 6,0 km/h (2 Bft) NO 55 ° 1 min 0,000 mm 3,4 UV-I 773 W/m² 11,9 °C 16,8 °C 11,3 km/h (2 Bft)
01.07.2018 11:00 16,8 °C 74 % 1012,6 hPa 0,0 mm 8,1 km/h (2 Bft) NO 53 ° 1 min 0,000 mm 3,7 UV-I 773 W/m² 12,1 °C 16,8 °C 12,9 km/h (3 Bft)
01.07.2018 11:01 16,7 °C 74 % 1012,6 hPa 0,0 mm 6,7 km/h (2 Bft) O 91 ° 1 min 0,279 mm 3,9 UV-I 773 W/m² 12,0 °C 16,7 °C 9,7 km/h (2 Bft)
01.07.2018 11:02 16,8 °C 75 % 1012,5 hPa 0,0 mm 4,7 km/h (1 Bft) N-NW 328 ° 1 min 0,000 mm 5,4 UV-I 773 W/m² 12,3 °C 16,8 °C 8,0 km/h (2 Bft)
01.07.2018 11:03 16,9 °C 76 % 1012,6 hPa 0,0 mm 3,4 km/h (1 Bft) O 80 ° 1 min 0,000 mm 5,6 UV-I 773 W/m² 12,6 °C 16,9 °C 6,4 km/h (2 Bft)
01.07.2018 11:04 17,1 °C 76 % 1012,6 hPa 0,0 mm 6,2 km/h (2 Bft) NO 49 ° 1 min 0,000 mm 6,1 UV-I 773 W/m² 12,8 °C 17,1 °C 9,7 km/h (2 Bft)
01.07.2018 11:05 17,2 °C 75 % 1012,6 hPa 0,0 mm 4,4 km/h (1 Bft) O-NO 61 ° 1 min 0,000 mm 5,9 UV-I 773 W/m² 12,7 °C 17,2 °C 8,0 km/h (2 Bft)
01.07.2018 11:06 17,3 °C 72 % 1012,6 hPa 0,0 mm 4,3 km/h (1 Bft) O-NO 70 ° 1 min 0,000 mm 4,7 UV-I 773 W/m² 12,2 °C 17,3 °C 6,4 km/h (2 Bft)
01.07.2018 11:07 17,2 °C 73 % 1012,6 hPa 0,0 mm 3,8 km/h (1 Bft) NO 34 ° 1 min 0,000 mm 3,8 UV-I 773 W/m² 12,3 °C 17,2 °C 4,8 km/h (1 Bft)
01.07.2018 11:08 17,3 °C 73 % 1012,6 hPa 0,0 mm 6,0 km/h (2 Bft) NO 43 ° 1 min 0,000 mm 4,9 UV-I 773 W/m² 12,4 °C 17,3 °C 8,0 km/h (2 Bft)
01.07.2018 11:09 17,2 °C 72 % 1012,6 hPa 0,0 mm 5,0 km/h (1 Bft) NO 50 ° 0 min 0,000 mm 4,0 UV-I 385 W/m² 12,1 °C 17,2 °C 14,5 km/h (3 Bft)
01.07.2018 11:10 17,2 °C 73 % 1012,6 hPa 0,0 mm 7,5 km/h (2 Bft) O 94 ° 0 min 0,000 mm 4,7 UV-I 485 W/m² 12,3 °C 17,2 °C 11,3 km/h (2 Bft)
01.07.2018 11:11 17,2 °C 72 % 1012,6 hPa 0,0 mm 5,0 km/h (1 Bft) NO 53 ° 0 min 0,000 mm 4,0 UV-I 485 W/m² 12,1 °C 17,2 °C 8,0 km/h (2 Bft)
01.07.2018 11:12 17,2 °C 72 % 1012,6 hPa 0,0 mm 5,8 km/h (2 Bft) SO 142 ° 0 min 0,000 mm 6,0 UV-I 485 W/m² 12,1 °C 17,2 °C 11,3 km/h (2 Bft)
01.07.2018 11:13 17,2 °C 73 % 1012,6 hPa 0,0 mm 3,6 km/h (1 Bft) O 93 ° 0 min 0,000 mm 5,5 UV-I 485 W/m² 12,3 °C 17,2 °C 8,0 km/h (2 Bft)
01.07.2018 11:14 17,2 °C 73 % 1012,6 hPa 0,0 mm 7,2 km/h (2 Bft) NO 40 ° 0 min 0,000 mm 3,7 UV-I 485 W/m² 12,3 °C 17,2 °C 9,7 km/h (2 Bft)
01.07.2018 11:15 17,2 °C 73 % 1012,7 hPa 0,0 mm 3,6 km/h (1 Bft) O-NO 78 ° 1 min 0,000 mm 6,1 UV-I 904 W/m² 12,3 °C 17,2 °C 11,3 km/h (2 Bft)
01.07.2018 11:16 17,3 °C 74 % 1012,7 hPa 0,0 mm 5,2 km/h (1 Bft) O-NO 69 ° 1 min 0,000 mm 6,0 UV-I 954 W/m² 12,6 °C 17,3 °C 11,3 km/h (2 Bft)
01.07.2018 11:17 17,5 °C 73 % 1012,6 hPa 0,0 mm 0,8 km/h (0 Bft) N-NO 17 ° 1 min 0,000 mm 6,1 UV-I 981 W/m² 12,6 °C 17,5 °C 3,2 km/h (1 Bft)
01.07.2018 11:18 17,7 °C 76 % 1012,6 hPa 0,0 mm 4,9 km/h (1 Bft) N-NO 30 ° 1 min 0,000 mm 4,3 UV-I 921 W/m² 13,4 °C 17,7 °C 8,0 km/h (2 Bft)
01.07.2018 11:19 17,8 °C 72 % 1012,6 hPa 0,0 mm 6,2 km/h (2 Bft) NO 36 ° 1 min 0,000 mm 3,5 UV-I 921 W/m² 12,7 °C 17,8 °C 11,3 km/h (2 Bft)
01.07.2018 11:20 17,8 °C 72 % 1012,6 hPa 0,0 mm 2,5 km/h (1 Bft) N-NO 24 ° 0 min 0,000 mm 3,6 UV-I 323 W/m² 12,7 °C 17,8 °C 4,8 km/h (1 Bft)
01.07.2018 11:21 17,9 °C 73 % 1012,7 hPa 0,0 mm 5,4 km/h (1 Bft) O-NO 76 ° 0 min 0,000 mm 4,2 UV-I 392 W/m² 13,0 °C 17,9 °C 8,0 km/h (2 Bft)
01.07.2018 11:22 17,8 °C 72 % 1012,7 hPa 0,0 mm 6,8 km/h (2 Bft) NO 41 ° 0 min 0,000 mm 5,4 UV-I 469 W/m² 12,7 °C 17,8 °C 14,5 km/h (3 Bft)
01.07.2018 11:23 17,7 °C 72 % 1012,7 hPa 0,0 mm 8,4 km/h (2 Bft) NO 50 ° 0 min 0,000 mm 4,2 UV-I 399 W/m² 12,6 °C 17,7 °C 11,3 km/h (2 Bft)
01.07.2018 11:24 17,7 °C 71 % 1012,7 hPa 0,0 mm 4,6 km/h (1 Bft) NO 35 ° 0 min 0,000 mm 5,9 UV-I 399 W/m² 12,4 °C 17,7 °C 8,0 km/h (2 Bft)
01.07.2018 11:25 17,6 °C 74 % 1012,7 hPa 0,0 mm 5,6 km/h (1 Bft) N-NO 27 ° 0 min 0,000 mm 3,8 UV-I 399 W/m² 12,9 °C 17,6 °C 8,0 km/h (2 Bft)
01.07.2018 11:26 17,6 °C 72 % 1012,7 hPa 0,0 mm 2,5 km/h (1 Bft) NO 37 ° 0 min 0,000 mm 4,4 UV-I 320 W/m² 12,5 °C 17,6 °C 6,4 km/h (2 Bft)
01.07.2018 11:27 17,7 °C 74 % 1012,7 hPa 0,0 mm 5,0 km/h (1 Bft) N 349 ° 0 min 0,000 mm 5,7 UV-I 320 W/m² 13,0 °C 17,7 °C 9,7 km/h (2 Bft)
01.07.2018 11:28 17,7 °C 72 % 1012,7 hPa 0,0 mm 8,3 km/h (2 Bft) NO 43 ° 0 min 0,000 mm 6,1 UV-I 320 W/m² 12,6 °C 17,7 °C 14,5 km/h (3 Bft)
01.07.2018 11:29 17,7 °C 72 % 1012,7 hPa 0,0 mm 10,1 km/h (2 Bft) N 351 ° 1 min 0,000 mm 6,4 UV-I 967 W/m² 12,6 °C 17,7 °C 17,7 km/h (3 Bft)
01.07.2018 11:30 17,8 °C 73 % 1012,7 hPa 0,0 mm 7,3 km/h (2 Bft) N-NO 27 ° 1 min 0,000 mm 6,3 UV-I 960 W/m² 12,9 °C 17,8 °C 12,9 km/h (3 Bft)
01.07.2018 11:31 18,1 °C 75 % 1012,7 hPa 0,0 mm 4,4 km/h (1 Bft) N-NO 22 ° 1 min 0,000 mm 6,2 UV-I 960 W/m² 13,6 °C 18,1 °C 8,0 km/h (2 Bft)
01.07.2018 11:32 18,1 °C 72 % 1012,7 hPa 0,0 mm 4,8 km/h (1 Bft) NO 44 ° 1 min 0,000 mm 6,3 UV-I 960 W/m² 13,0 °C 18,1 °C 6,4 km/h (2 Bft)
01.07.2018 11:33 18,1 °C 73 % 1012,7 hPa 0,0 mm 5,9 km/h (2 Bft) O-SO 111 ° 1 min 0,000 mm 3,6 UV-I 960 W/m² 13,2 °C 18,1 °C 9,7 km/h (2 Bft)
01.07.2018 11:34 17,9 °C 71 % 1012,7 hPa 0,0 mm 4,1 km/h (1 Bft) NO 46 ° 0 min 0,000 mm 4,4 UV-I 264 W/m² 12,6 °C 17,9 °C 9,7 km/h (2 Bft)
01.07.2018 11:35 17,8 °C 72 % 1012,6 hPa 0,0 mm 1,5 km/h (1 Bft) O-NO 64 ° 0 min 0,000 mm 6,4 UV-I 264 W/m² 12,7 °C 17,8 °C 3,2 km/h (1 Bft)
01.07.2018 11:36 17,7 °C 75 % 1012,6 hPa 0,0 mm 5,3 km/h (1 Bft) O 87 ° 1 min 0,000 mm 6,4 UV-I 896 W/m² 13,2 °C 17,7 °C 11,3 km/h (2 Bft)
01.07.2018 11:37 17,8 °C 73 % 1012,6 hPa 0,0 mm 6,4 km/h (2 Bft) O-NO 69 ° 1 min 0,000 mm 6,3 UV-I 872 W/m² 12,9 °C 17,8 °C 11,3 km/h (2 Bft)
01.07.2018 11:38 17,7 °C 72 % 1012,7 hPa 0,0 mm 4,7 km/h (1 Bft) N-NO 32 ° 1 min 0,000 mm 6,4 UV-I 940 W/m² 12,6 °C 17,7 °C 8,0 km/h (2 Bft)
01.07.2018 11:39 17,8 °C 73 % 1012,7 hPa 0,0 mm 2,9 km/h (1 Bft) O-NO 57 ° 0 min 0,000 mm 5,2 UV-I 316 W/m² 12,9 °C 17,8 °C 4,8 km/h (1 Bft)
01.07.2018 11:40 17,8 °C 73 % 1012,6 hPa 0,0 mm 2,9 km/h (1 Bft) O-NO 70 ° 0 min 0,000 mm 6,3 UV-I 316 W/m² 12,9 °C 17,8 °C 6,4 km/h (2 Bft)
01.07.2018 11:41 17,8 °C 70 % 1012,7 hPa 0,0 mm 5,4 km/h (1 Bft) SO 136 ° 1 min 0,000 mm 6,3 UV-I 900 W/m² 12,3 °C 17,8 °C 8,0 km/h (2 Bft)
01.07.2018 11:42 17,7 °C 71 % 1012,7 hPa 0,0 mm 2,0 km/h (1 Bft) SO 143 ° 1 min 0,000 mm 6,4 UV-I 902 W/m² 12,4 °C 17,7 °C 6,4 km/h (2 Bft)
01.07.2018 11:43 17,7 °C 74 % 1012,6 hPa 0,0 mm 4,2 km/h (1 Bft) N-NO 19 ° 1 min 0,000 mm 4,7 UV-I 902 W/m² 13,0 °C 17,7 °C 6,4 km/h (2 Bft)
01.07.2018 11:44 17,9 °C 73 % 1012,6 hPa 0,0 mm 2,7 km/h (1 Bft) O-NO 70 ° 1 min 0,000 mm 4,6 UV-I 902 W/m² 13,0 °C 17,9 °C 4,8 km/h (1 Bft)
01.07.2018 11:45 18,0 °C 72 % 1012,6 hPa 0,0 mm 3,1 km/h (1 Bft) O-NO 69 ° 1 min 0,000 mm 4,3 UV-I 902 W/m² 12,9 °C 18,0 °C 9,7 km/h (2 Bft)
01.07.2018 11:46 18,1 °C 71 % 1012,6 hPa 0,0 mm 6,7 km/h (2 Bft) O-SO 108 ° 1 min 0,000 mm 4,3 UV-I 902 W/m² 12,8 °C 18,1 °C 11,3 km/h (2 Bft)
01.07.2018 11:47 18,1 °C 70 % 1012,6 hPa 0,0 mm 5,3 km/h (1 Bft) O-SO 115 ° 1 min 0,000 mm 5,2 UV-I 902 W/m² 12,5 °C 18,1 °C 8,0 km/h (2 Bft)
01.07.2018 11:48 18,1 °C 70 % 1012,7 hPa 0,0 mm 6,0 km/h (2 Bft) O-NO 57 ° 1 min 0,000 mm 4,5 UV-I 902 W/m² 12,5 °C 18,1 °C 11,3 km/h (2 Bft)
01.07.2018 11:49 18,1 °C 70 % 1012,7 hPa 0,0 mm 12,0 km/h (2 Bft) O-NO 76 ° 0 min 0,000 mm 4,0 UV-I 287 W/m² 12,5 °C 18,1 °C 14,5 km/h (3 Bft)
01.07.2018 11:50 17,9 °C 69 % 1012,7 hPa 0,0 mm 6,2 km/h (2 Bft) O-NO 67 ° 0 min 0,000 mm 3,4 UV-I 355 W/m² 12,1 °C 17,9 °C 8,0 km/h (2 Bft)
01.07.2018 11:51 17,8 °C 69 % 1012,6 hPa 0,0 mm 5,8 km/h (2 Bft) NO 44 ° 0 min 0,000 mm 3,6 UV-I 255 W/m² 12,0 °C 17,8 °C 9,7 km/h (2 Bft)
01.07.2018 11:52 17,8 °C 70 % 1012,6 hPa 0,0 mm 6,8 km/h (2 Bft) NO 46 ° 0 min 0,000 mm 3,6 UV-I 255 W/m² 12,3 °C 17,8 °C 9,7 km/h (2 Bft)
01.07.2018 11:53 17,7 °C 70 % 1012,7 hPa 0,0 mm 2,6 km/h (1 Bft) NO 50 ° 0 min 0,000 mm 4,0 UV-I 248 W/m² 12,2 °C 17,7 °C 4,8 km/h (1 Bft)
01.07.2018 11:54 17,7 °C 70 % 1012,6 hPa 0,0 mm 4,4 km/h (1 Bft) O-NO 62 ° 0 min 0,000 mm 6,2 UV-I 248 W/m² 12,2 °C 17,7 °C 6,4 km/h (2 Bft)
01.07.2018 11:55 17,7 °C 73 % 1012,6 hPa 0,0 mm 3,6 km/h (1 Bft) O 89 ° 1 min 0,000 mm 4,7 UV-I 904 W/m² 12,8 °C 17,7 °C 11,3 km/h (2 Bft)
01.07.2018 11:56 17,9 °C 71 % 1012,6 hPa 0,0 mm 2,8 km/h (1 Bft) O-NO 69 ° 1 min 0,000 mm 6,6 UV-I 893 W/m² 12,6 °C 17,9 °C 6,4 km/h (2 Bft)
01.07.2018 11:57 18,1 °C 72 % 1012,7 hPa 0,0 mm 6,2 km/h (2 Bft) NO 46 ° 1 min 0,000 mm 6,2 UV-I 860 W/m² 13,0 °C 18,1 °C 9,7 km/h (2 Bft)
01.07.2018 11:58 18,1 °C 69 % 1012,6 hPa 0,0 mm 6,2 km/h (2 Bft) SO 146 ° 1 min 0,000 mm 6,8 UV-I 872 W/m² 12,3 °C 18,1 °C 12,9 km/h (3 Bft)
01.07.2018 11:59 18,2 °C 70 % 1012,6 hPa 0,0 mm 7,3 km/h (2 Bft) O-NO 67 ° 1 min 0,000 mm 6,7 UV-I 896 W/m² 12,6 °C 18,2 °C 11,3 km/h (2 Bft)
01.07.2018 12:00 18,3 °C 70 % 1012,6 hPa 0,0 mm 5,6 km/h (1 Bft) O 83 ° 1 min 0,000 mm 6,7 UV-I 898 W/m² 12,7 °C 18,3 °C 11,3 km/h (2 Bft)
01.07.2018 12:01 18,4 °C 69 % 1012,7 hPa 0,0 mm 5,6 km/h (1 Bft) O-SO 105 ° 1 min 0,381 mm 6,8 UV-I 923 W/m² 12,6 °C 18,4 °C 6,4 km/h (2 Bft)
01.07.2018 12:02 18,5 °C 70 % 1012,7 hPa 0,0 mm 4,2 km/h (1 Bft) N-NO 27 ° 1 min 0,000 mm 6,9 UV-I 923 W/m² 12,9 °C 18,5 °C 8,0 km/h (2 Bft)
01.07.2018 12:03 18,7 °C 69 % 1012,6 hPa 0,0 mm 7,0 km/h (2 Bft) SO 130 ° 1 min 0,000 mm 6,7 UV-I 916 W/m² 12,9 °C 18,7 °C 11,3 km/h (2 Bft)
01.07.2018 12:04 18,8 °C 71 % 1012,7 hPa 0,0 mm 5,6 km/h (1 Bft) O 93 ° 1 min 0,000 mm 6,7 UV-I 914 W/m² 13,4 °C 18,8 °C 8,0 km/h (2 Bft)
01.07.2018 12:05 18,9 °C 67 % 1012,6 hPa 0,0 mm 6,5 km/h (2 Bft) O 96 ° 1 min 0,000 mm 6,8 UV-I 919 W/m² 12,6 °C 18,9 °C 14,5 km/h (3 Bft)
01.07.2018 12:06 18,9 °C 67 % 1012,6 hPa 0,0 mm 10,5 km/h (2 Bft) O 92 ° 1 min 0,000 mm 6,7 UV-I 932 W/m² 12,6 °C 18,9 °C 12,9 km/h (3 Bft)
01.07.2018 12:07 18,7 °C 67 % 1012,6 hPa 0,0 mm 5,4 km/h (1 Bft) NO 35 ° 1 min 0,000 mm 6,8 UV-I 923 W/m² 12,4 °C 18,7 °C 11,3 km/h (2 Bft)
01.07.2018 12:08 18,7 °C 69 % 1012,6 hPa 0,0 mm 4,1 km/h (1 Bft) NO 41 ° 1 min 0,000 mm 6,5 UV-I 923 W/m² 12,9 °C 18,7 °C 8,0 km/h (2 Bft)
01.07.2018 12:09 18,7 °C 67 % 1012,6 hPa 0,0 mm 4,7 km/h (1 Bft) N 5 ° 1 min 0,000 mm 5,7 UV-I 923 W/m² 12,4 °C 18,7 °C 11,3 km/h (2 Bft)
01.07.2018 12:10 18,6 °C 67 % 1012,6 hPa 0,0 mm 8,2 km/h (2 Bft) O 80 ° 1 min 0,000 mm 6,3 UV-I 923 W/m² 12,3 °C 18,6 °C 14,5 km/h (3 Bft)
01.07.2018 12:11 18,6 °C 66 % 1012,6 hPa 0,0 mm 10,4 km/h (2 Bft) O-NO 65 ° 1 min 0,000 mm 6,8 UV-I 923 W/m² 12,1 °C 18,6 °C 14,5 km/h (3 Bft)
01.07.2018 12:12 18,7 °C 65 % 1012,6 hPa 0,0 mm 4,8 km/h (1 Bft) NO 56 ° 1 min 0,000 mm 6,8 UV-I 879 W/m² 12,0 °C 18,7 °C 9,7 km/h (2 Bft)
01.07.2018 12:13 18,8 °C 67 % 1012,6 hPa 0,0 mm 6,6 km/h (2 Bft) NO 49 ° 1 min 0,000 mm 6,7 UV-I 874 W/m² 12,5 °C 18,8 °C 9,7 km/h (2 Bft)
01.07.2018 12:14 18,8 °C 66 % 1012,6 hPa 0,0 mm 6,4 km/h (2 Bft) NO 38 ° 1 min 0,000 mm 6,9 UV-I 882 W/m² 12,3 °C 18,8 °C 11,3 km/h (2 Bft)
01.07.2018 12:15 18,9 °C 67 % 1012,6 hPa 0,0 mm 7,6 km/h (2 Bft) N-NO 26 ° 1 min 0,000 mm 6,9 UV-I 882 W/m² 12,6 °C 18,9 °C 12,9 km/h (3 Bft)
01.07.2018 12:16 18,9 °C 66 % 1012,6 hPa 0,0 mm 8,1 km/h (2 Bft) O-NO 63 ° 1 min 0,000 mm 6,9 UV-I 882 W/m² 12,4 °C 18,9 °C 12,9 km/h (3 Bft)
01.07.2018 12:17 18,9 °C 64 % 1012,6 hPa 0,0 mm 6,2 km/h (2 Bft) O-NO 65 ° 1 min 0,000 mm 6,9 UV-I 879 W/m² 11,9 °C 18,9 °C 11,3 km/h (2 Bft)
01.07.2018 12:18 18,9 °C 65 % 1012,5 hPa 0,0 mm 7,3 km/h (2 Bft) O 100 ° 1 min 0,000 mm 6,9 UV-I 877 W/m² 12,2 °C 18,9 °C 12,9 km/h (3 Bft)
01.07.2018 12:19 18,8 °C 65 % 1012,5 hPa 0,0 mm 8,3 km/h (2 Bft) NO 35 ° 1 min 0,000 mm 6,9 UV-I 877 W/m² 12,1 °C 18,8 °C 12,9 km/h (3 Bft)
01.07.2018 12:20 18,8 °C 65 % 1012,5 hPa 0,0 mm 2,1 km/h (1 Bft) O 86 ° 1 min 0,000 mm 6,8 UV-I 875 W/m² 12,1 °C 18,8 °C 6,4 km/h (2 Bft)
01.07.2018 12:21 18,8 °C 66 % 1012,5 hPa 0,0 mm 2,3 km/h (1 Bft) N-NO 22 ° 1 min 0,000 mm 6,8 UV-I 870 W/m² 12,3 °C 18,8 °C 4,8 km/h (1 Bft)
01.07.2018 12:22 18,9 °C 65 % 1012,5 hPa 0,0 mm 1,6 km/h (1 Bft) NO 50 ° 1 min 0,000 mm 6,9 UV-I 867 W/m² 12,2 °C 18,9 °C 6,4 km/h (2 Bft)
01.07.2018 12:23 19,1 °C 65 % 1012,5 hPa 0,0 mm 8,4 km/h (2 Bft) NO 50 ° 1 min 0,000 mm 7,0 UV-I 879 W/m² 12,4 °C 19,1 °C 16,1 km/h (3 Bft)
01.07.2018 12:24 19,2 °C 66 % 1012,5 hPa 0,0 mm 4,4 km/h (1 Bft) N-NW 342 ° 1 min 0,000 mm 7,0 UV-I 886 W/m² 12,7 °C 19,2 °C 8,0 km/h (2 Bft)
01.07.2018 12:25 19,2 °C 66 % 1012,5 hPa 0,0 mm 6,8 km/h (2 Bft) N 355 ° 1 min 0,000 mm 7,0 UV-I 881 W/m² 12,7 °C 19,2 °C 11,3 km/h (2 Bft)
01.07.2018 12:26 19,4 °C 65 % 1012,5 hPa 0,0 mm 7,4 km/h (2 Bft) N-NO 17 ° 1 min 0,000 mm 6,9 UV-I 872 W/m² 12,6 °C 19,4 °C 11,3 km/h (2 Bft)
01.07.2018 12:27 19,4 °C 63 % 1012,4 hPa 0,0 mm 9,8 km/h (2 Bft) N-NW 332 ° 1 min 0,000 mm 7,0 UV-I 889 W/m² 12,2 °C 19,4 °C 14,5 km/h (3 Bft)
01.07.2018 12:28 19,5 °C 66 % 1012,5 hPa 0,0 mm 7,3 km/h (2 Bft) N-NO 25 ° 1 min 0,000 mm 7,1 UV-I 904 W/m² 13,0 °C 19,5 °C 9,7 km/h (2 Bft)
01.07.2018 12:29 19,6 °C 64 % 1012,5 hPa 0,0 mm 3,9 km/h (1 Bft) NO 56 ° 1 min 0,000 mm 7,2 UV-I 921 W/m² 12,6 °C 19,6 °C 8,0 km/h (2 Bft)
01.07.2018 12:30 19,6 °C 65 % 1012,4 hPa 0,0 mm 5,9 km/h (2 Bft) O-NO 63 ° 1 min 0,000 mm 7,1 UV-I 949 W/m² 12,8 °C 19,6 °C 9,7 km/h (2 Bft)
01.07.2018 12:31 19,4 °C 62 % 1012,5 hPa 0,0 mm 5,3 km/h (1 Bft) NO 55 ° 1 min 0,000 mm 7,2 UV-I 949 W/m² 11,9 °C 19,4 °C 8,0 km/h (2 Bft)
01.07.2018 12:32 19,3 °C 63 % 1012,4 hPa 0,0 mm 5,2 km/h (1 Bft) NO 43 ° 1 min 0,000 mm 7,0 UV-I 949 W/m² 12,1 °C 19,3 °C 9,7 km/h (2 Bft)
01.07.2018 12:33 19,3 °C 65 % 1012,5 hPa 0,0 mm 7,4 km/h (2 Bft) O-SO 102 ° 1 min 0,000 mm 3,9 UV-I 949 W/m² 12,6 °C 19,3 °C 12,9 km/h (3 Bft)
01.07.2018 12:34 19,2 °C 63 % 1012,4 hPa 0,0 mm 5,6 km/h (1 Bft) O 81 ° 0 min 0,000 mm 3,8 UV-I 213 W/m² 12,0 °C 19,2 °C 11,3 km/h (2 Bft)
01.07.2018 12:35 19,1 °C 64 % 1012,5 hPa 0,0 mm 7,4 km/h (2 Bft) NO 40 ° 0 min 0,000 mm 6,4 UV-I 274 W/m² 12,1 °C 19,1 °C 12,9 km/h (3 Bft)
01.07.2018 12:36 19,1 °C 63 % 1012,5 hPa 0,0 mm 13,2 km/h (3 Bft) O-NO 66 ° 0 min 0,000 mm 4,2 UV-I 274 W/m² 11,9 °C 19,1 °C 19,3 km/h (3 Bft)
01.07.2018 12:37 19,0 °C 63 % 1012,5 hPa 0,0 mm 4,4 km/h (1 Bft) NO 50 ° 0 min 0,000 mm 3,8 UV-I 274 W/m² 11,8 °C 19,0 °C 8,0 km/h (2 Bft)
01.07.2018 12:38 18,8 °C 62 % 1012,5 hPa 0,0 mm 2,8 km/h (1 Bft) N-NO 24 ° 0 min 0,000 mm 7,2 UV-I 274 W/m² 11,4 °C 18,8 °C 8,0 km/h (2 Bft)
01.07.2018 12:39 18,9 °C 64 % 1012,4 hPa 0,0 mm 4,3 km/h (1 Bft) N-NO 19 ° 0 min 0,000 mm 7,0 UV-I 274 W/m² 11,9 °C 18,9 °C 9,7 km/h (2 Bft)
01.07.2018 12:40 19,0 °C 64 % 1012,5 hPa 0,0 mm 5,5 km/h (1 Bft) O-NO 57 ° 0 min 0,000 mm 7,0 UV-I 274 W/m² 12,0 °C 19,0 °C 8,0 km/h (2 Bft)
01.07.2018 12:41 19,2 °C 64 % 1012,4 hPa 0,0 mm 1,8 km/h (1 Bft) NO 49 ° 0 min 0,000 mm 4,1 UV-I 274 W/m² 12,2 °C 19,2 °C 4,8 km/h (1 Bft)
01.07.2018 12:42 19,2 °C 64 % 1012,4 hPa 0,0 mm 4,9 km/h (1 Bft) O-NO 61 ° 0 min 0,000 mm 7,1 UV-I 274 W/m² 12,2 °C 19,2 °C 11,3 km/h (2 Bft)
01.07.2018 12:43 19,1 °C 63 % 1012,4 hPa 0,0 mm 3,4 km/h (1 Bft) NO 56 ° 0 min 0,000 mm 5,9 UV-I 274 W/m² 11,9 °C 19,1 °C 4,8 km/h (1 Bft)
01.07.2018 12:44 19,2 °C 63 % 1012,4 hPa 0,0 mm 4,8 km/h (1 Bft) O 85 ° 1 min 0,000 mm 7,1 UV-I 937 W/m² 12,0 °C 19,2 °C 8,0 km/h (2 Bft)
01.07.2018 12:45 19,1 °C 65 % 1012,4 hPa 0,0 mm 6,0 km/h (2 Bft) O 100 ° 1 min 0,000 mm 7,2 UV-I 937 W/m² 12,4 °C 19,1 °C 9,7 km/h (2 Bft)
01.07.2018 12:46 19,2 °C 67 % 1012,4 hPa 0,0 mm 4,6 km/h (1 Bft) O-NO 74 ° 1 min 0,000 mm 7,2 UV-I 937 W/m² 12,9 °C 19,2 °C 8,0 km/h (2 Bft)
01.07.2018 12:47 19,4 °C 65 % 1012,4 hPa 0,0 mm 6,1 km/h (2 Bft) N-NO 30 ° 1 min 0,000 mm 5,4 UV-I 937 W/m² 12,6 °C 19,4 °C 11,3 km/h (2 Bft)
01.07.2018 12:48 19,4 °C 62 % 1012,4 hPa 0,0 mm 5,7 km/h (1 Bft) N-NO 26 ° 1 min 0,000 mm 7,2 UV-I 907 W/m² 11,9 °C 19,4 °C 12,9 km/h (3 Bft)
01.07.2018 12:49 19,4 °C 62 % 1012,4 hPa 0,0 mm 7,5 km/h (2 Bft) O 82 ° 1 min 0,000 mm 7,1 UV-I 898 W/m² 11,9 °C 19,4 °C 11,3 km/h (2 Bft)
01.07.2018 12:50 19,5 °C 62 % 1012,4 hPa 0,0 mm 9,9 km/h (2 Bft) NO 53 ° 1 min 0,000 mm 7,1 UV-I 889 W/m² 12,0 °C 19,5 °C 14,5 km/h (3 Bft)
01.07.2018 12:51 19,5 °C 62 % 1012,5 hPa 0,0 mm 8,3 km/h (2 Bft) O-NO 60 ° 1 min 0,000 mm 7,1 UV-I 882 W/m² 12,0 °C 19,5 °C 14,5 km/h (3 Bft)
01.07.2018 12:52 19,5 °C 62 % 1012,4 hPa 0,0 mm 8,5 km/h (2 Bft) NO 34 ° 1 min 0,000 mm 7,1 UV-I 898 W/m² 12,0 °C 19,5 °C 14,5 km/h (3 Bft)
01.07.2018 12:53 19,6 °C 63 % 1012,4 hPa 0,0 mm 4,2 km/h (1 Bft) NO 42 ° 1 min 0,000 mm 7,1 UV-I 911 W/m² 12,4 °C 19,6 °C 9,7 km/h (2 Bft)
01.07.2018 12:54 19,6 °C 62 % 1012,4 hPa 0,0 mm 3,4 km/h (1 Bft) NO 46 ° 1 min 0,000 mm 7,2 UV-I 912 W/m² 12,1 °C 19,6 °C 8,0 km/h (2 Bft)
01.07.2018 12:55 19,7 °C 62 % 1012,5 hPa 0,0 mm 6,4 km/h (2 Bft) N-NO 18 ° 1 min 0,000 mm 6,2 UV-I 819 W/m² 12,2 °C 19,7 °C 12,9 km/h (3 Bft)
01.07.2018 12:56 19,7 °C 60 % 1012,5 hPa 0,0 mm 2,8 km/h (1 Bft) NO 38 ° 1 min 0,000 mm 7,1 UV-I 898 W/m² 11,7 °C 19,7 °C 11,3 km/h (2 Bft)
01.07.2018 12:57 19,7 °C 63 % 1012,4 hPa 0,0 mm 6,4 km/h (2 Bft) O-NO 76 ° 1 min 0,000 mm 7,3 UV-I 905 W/m² 12,5 °C 19,7 °C 11,3 km/h (2 Bft)
01.07.2018 12:58 19,8 °C 60 % 1012,5 hPa 0,0 mm 7,5 km/h (2 Bft) N-NO 32 ° 1 min 0,000 mm 7,2 UV-I 900 W/m² 11,8 °C 19,8 °C 12,9 km/h (3 Bft)
01.07.2018 12:59 19,8 °C 60 % 1012,5 hPa 0,0 mm 6,5 km/h (2 Bft) N-NW 342 ° 1 min 0,000 mm 7,1 UV-I 896 W/m² 11,8 °C 19,8 °C 9,7 km/h (2 Bft)
01.07.2018 13:00 19,7 °C 61 % 1012,5 hPa 0,0 mm 5,0 km/h (1 Bft) NO 47 ° 1 min 0,000 mm 7,2 UV-I 902 W/m² 12,0 °C 19,7 °C 11,3 km/h (2 Bft)
01.07.2018 13:01 19,8 °C 61 % 1012,5 hPa 0,0 mm 9,9 km/h (2 Bft) NO 42 ° 1 min 0,483 mm 7,3 UV-I 902 W/m² 12,1 °C 19,8 °C 16,1 km/h (3 Bft)
01.07.2018 13:02 19,8 °C 62 % 1012,5 hPa 0,0 mm 2,4 km/h (1 Bft) O 79 ° 1 min 0,000 mm 7,2 UV-I 902 W/m² 12,3 °C 19,8 °C 3,2 km/h (1 Bft)
01.07.2018 13:03 19,8 °C 61 % 1012,5 hPa 0,0 mm 3,6 km/h (1 Bft) NO 54 ° 1 min 0,000 mm 7,3 UV-I 905 W/m² 12,1 °C 19,8 °C 9,7 km/h (2 Bft)
01.07.2018 13:04 19,8 °C 61 % 1012,5 hPa 0,0 mm 6,4 km/h (2 Bft) NO 36 ° 1 min 0,000 mm 7,3 UV-I 909 W/m² 12,1 °C 19,8 °C 11,3 km/h (2 Bft)
01.07.2018 13:05 19,8 °C 60 % 1012,5 hPa 0,0 mm 6,0 km/h (2 Bft) N-NO 30 ° 1 min 0,000 mm 7,3 UV-I 914 W/m² 11,8 °C 19,8 °C 8,0 km/h (2 Bft)
01.07.2018 13:06 19,9 °C 61 % 1012,5 hPa 0,0 mm 3,8 km/h (1 Bft) O-NO 71 ° 1 min 0,000 mm 7,3 UV-I 942 W/m² 12,2 °C 19,9 °C 8,0 km/h (2 Bft)
01.07.2018 13:07 19,9 °C 61 % 1012,5 hPa 0,0 mm 0,9 km/h (0 Bft) O-NO 71 ° 1 min 0,000 mm 7,4 UV-I 962 W/m² 12,2 °C 19,9 °C 3,2 km/h (1 Bft)
01.07.2018 13:08 19,8 °C 61 % 1012,4 hPa 0,0 mm 2,5 km/h (1 Bft) N-NO 15 ° 1 min 0,000 mm 7,4 UV-I 933 W/m² 12,1 °C 19,8 °C 4,8 km/h (1 Bft)
01.07.2018 13:09 19,8 °C 63 % 1012,4 hPa 0,0 mm 3,7 km/h (1 Bft) O-NO 73 ° 1 min 0,000 mm 7,2 UV-I 956 W/m² 12,5 °C 19,8 °C 8,0 km/h (2 Bft)
01.07.2018 13:10 20,0 °C 62 % 1012,4 hPa 0,0 mm 6,8 km/h (2 Bft) N-NO 15 ° 1 min 0,000 mm 7,4 UV-I 1004 W/m² 12,5 °C 20,0 °C 17,7 km/h (3 Bft)
01.07.2018 13:11 20,1 °C 63 % 1012,5 hPa 0,0 mm 10,1 km/h (2 Bft) O-NO 59 ° 1 min 0,000 mm 7,5 UV-I 981 W/m² 12,8 °C 20,1 °C 16,1 km/h (3 Bft)
01.07.2018 13:12 20,0 °C 60 % 1012,5 hPa 0,0 mm 8,2 km/h (2 Bft) O 80 ° 1 min 0,000 mm 7,5 UV-I 990 W/m² 12,0 °C 20,0 °C 11,3 km/h (2 Bft)
01.07.2018 13:13 19,9 °C 59 % 1012,5 hPa 0,0 mm 4,6 km/h (1 Bft) NO 53 ° 1 min 0,000 mm 7,4 UV-I 974 W/m² 11,6 °C 19,9 °C 6,4 km/h (2 Bft)
01.07.2018 13:14 19,8 °C 61 % 1012,5 hPa 0,0 mm 5,2 km/h (1 Bft) NO 47 ° 1 min 0,000 mm 7,4 UV-I 990 W/m² 12,1 °C 19,8 °C 8,0 km/h (2 Bft)
01.07.2018 13:15 20,1 °C 64 % 1012,4 hPa 0,0 mm 8,5 km/h (2 Bft) N-NO 23 ° 1 min 0,000 mm 7,5 UV-I 986 W/m² 13,1 °C 20,1 °C 14,5 km/h (3 Bft)
01.07.2018 13:16 20,3 °C 64 % 1012,4 hPa 0,0 mm 8,9 km/h (2 Bft) N 355 ° 1 min 0,000 mm 7,5 UV-I 937 W/m² 13,3 °C 20,3 °C 14,5 km/h (3 Bft)
01.07.2018 13:17 20,6 °C 64 % 1012,4 hPa 0,0 mm 6,6 km/h (2 Bft) N-NO 24 ° 1 min 0,000 mm 7,6 UV-I 974 W/m² 13,5 °C 20,6 °C 9,7 km/h (2 Bft)
01.07.2018 13:18 20,8 °C 62 % 1012,4 hPa 0,0 mm 5,9 km/h (2 Bft) NO 37 ° 1 min 0,000 mm 7,4 UV-I 970 W/m² 13,2 °C 20,8 °C 9,7 km/h (2 Bft)
01.07.2018 13:19 20,9 °C 59 % 1012,4 hPa 0,0 mm 5,3 km/h (1 Bft) NO 34 ° 1 min 0,000 mm 7,4 UV-I 956 W/m² 12,6 °C 20,9 °C 9,7 km/h (2 Bft)
01.07.2018 13:20 20,8 °C 59 % 1012,4 hPa 0,0 mm 7,5 km/h (2 Bft) N-NO 28 ° 1 min 0,000 mm 7,4 UV-I 942 W/m² 12,5 °C 20,8 °C 12,9 km/h (3 Bft)
01.07.2018 13:21 20,7 °C 58 % 1012,4 hPa 0,0 mm 13,2 km/h (3 Bft) NO 36 ° 1 min 0,000 mm 7,4 UV-I 940 W/m² 12,1 °C 20,7 °C 20,9 km/h (4 Bft)
01.07.2018 13:22 20,7 °C 57 % 1012,4 hPa 0,0 mm 9,9 km/h (2 Bft) NO 53 ° 1 min 0,000 mm 7,3 UV-I 932 W/m² 11,9 °C 20,7 °C 16,1 km/h (3 Bft)
01.07.2018 13:23 20,4 °C 58 % 1012,5 hPa 0,0 mm 10,3 km/h (2 Bft) NO 40 ° 1 min 0,000 mm 7,4 UV-I 930 W/m² 11,9 °C 20,4 °C 16,1 km/h (3 Bft)
01.07.2018 13:24 20,4 °C 59 % 1012,4 hPa 0,0 mm 6,6 km/h (2 Bft) N-NO 30 ° 1 min 0,000 mm 7,3 UV-I 914 W/m² 12,1 °C 20,4 °C 11,3 km/h (2 Bft)
01.07.2018 13:25 20,3 °C 58 % 1012,5 hPa 0,0 mm 5,2 km/h (1 Bft) N-NO 13 ° 1 min 0,000 mm 7,3 UV-I 912 W/m² 11,8 °C 20,3 °C 9,7 km/h (2 Bft)
01.07.2018 13:26 20,3 °C 60 % 1012,4 hPa 0,0 mm 3,5 km/h (1 Bft) NO 36 ° 1 min 0,000 mm 7,3 UV-I 911 W/m² 12,3 °C 20,3 °C 6,4 km/h (2 Bft)
01.07.2018 13:27 20,3 °C 60 % 1012,4 hPa 0,0 mm 3,0 km/h (1 Bft) O-NO 65 ° 1 min 0,000 mm 7,2 UV-I 911 W/m² 12,3 °C 20,3 °C 4,8 km/h (1 Bft)
01.07.2018 13:28 20,2 °C 59 % 1012,5 hPa 0,0 mm 2,7 km/h (1 Bft) N-NW 335 ° 1 min 0,000 mm 7,2 UV-I 905 W/m² 11,9 °C 20,2 °C 8,0 km/h (2 Bft)
01.07.2018 13:29 20,3 °C 64 % 1012,4 hPa 0,0 mm 4,7 km/h (1 Bft) N-NW 346 ° 1 min 0,000 mm 7,2 UV-I 937 W/m² 13,3 °C 20,3 °C 8,0 km/h (2 Bft)
01.07.2018 13:30 20,4 °C 63 % 1012,4 hPa 0,0 mm 4,7 km/h (1 Bft) N-NW 336 ° 1 min 0,000 mm 4,9 UV-I 937 W/m² 13,1 °C 20,4 °C 9,7 km/h (2 Bft)
01.07.2018 13:31 20,5 °C 66 % 1012,5 hPa 0,0 mm 4,7 km/h (1 Bft) O 84 ° 1 min 0,000 mm 7,2 UV-I 694 W/m² 13,9 °C 20,5 °C 9,7 km/h (2 Bft)
01.07.2018 13:32 20,4 °C 60 % 1012,5 hPa 0,0 mm 8,6 km/h (2 Bft) NO 55 ° 1 min 0,000 mm 6,4 UV-I 694 W/m² 12,4 °C 20,4 °C 14,5 km/h (3 Bft)
01.07.2018 13:33 20,4 °C 60 % 1012,5 hPa 0,0 mm 6,1 km/h (2 Bft) N-NO 21 ° 1 min 0,000 mm 5,1 UV-I 694 W/m² 12,4 °C 20,4 °C 12,9 km/h (3 Bft)
01.07.2018 13:34 20,4 °C 61 % 1012,5 hPa 0,0 mm 10,6 km/h (2 Bft) N-NO 29 ° 1 min 0,000 mm 5,4 UV-I 694 W/m² 12,6 °C 20,4 °C 17,7 km/h (3 Bft)
01.07.2018 13:35 20,3 °C 58 % 1012,5 hPa 0,0 mm 7,4 km/h (2 Bft) N-NO 27 ° 1 min 0,000 mm 4,9 UV-I 694 W/m² 11,8 °C 20,3 °C 12,9 km/h (3 Bft)
01.07.2018 13:36 20,3 °C 58 % 1012,5 hPa 0,0 mm 8,2 km/h (2 Bft) N 355 ° 1 min 0,000 mm 7,4 UV-I 694 W/m² 11,8 °C 20,3 °C 14,5 km/h (3 Bft)
01.07.2018 13:37 20,4 °C 62 % 1012,4 hPa 0,0 mm 6,2 km/h (2 Bft) NW 325 ° 1 min 0,000 mm 7,2 UV-I 694 W/m² 12,9 °C 20,4 °C 9,7 km/h (2 Bft)
01.07.2018 13:38 20,4 °C 59 % 1012,4 hPa 0,0 mm 7,0 km/h (2 Bft) N-NO 26 ° 1 min 0,000 mm 7,3 UV-I 925 W/m² 12,1 °C 20,4 °C 14,5 km/h (3 Bft)
01.07.2018 13:39 20,5 °C 61 % 1012,4 hPa 0,0 mm 4,2 km/h (1 Bft) NO 38 ° 1 min 0,000 mm 6,9 UV-I 874 W/m² 12,7 °C 20,5 °C 8,0 km/h (2 Bft)
01.07.2018 13:40 20,6 °C 59 % 1012,4 hPa 0,0 mm 4,8 km/h (1 Bft) NW 317 ° 1 min 0,000 mm 5,6 UV-I 874 W/m² 12,3 °C 20,6 °C 6,4 km/h (2 Bft)
01.07.2018 13:41 20,4 °C 59 % 1012,4 hPa 0,0 mm 3,0 km/h (1 Bft) N 5 ° 1 min 0,000 mm 7,4 UV-I 898 W/m² 12,1 °C 20,4 °C 6,4 km/h (2 Bft)
01.07.2018 13:42 20,6 °C 62 % 1012,4 hPa 0,0 mm 5,1 km/h (1 Bft) N-NO 30 ° 1 min 0,000 mm 7,5 UV-I 898 W/m² 13,1 °C 20,6 °C 8,0 km/h (2 Bft)
01.07.2018 13:43 20,7 °C 61 % 1012,4 hPa 0,0 mm 7,4 km/h (2 Bft) O 92 ° 1 min 0,000 mm 7,2 UV-I 898 W/m² 12,9 °C 20,7 °C 12,9 km/h (3 Bft)
01.07.2018 13:44 20,6 °C 59 % 1012,4 hPa 0,0 mm 7,4 km/h (2 Bft) NO 42 ° 1 min 0,000 mm 7,2 UV-I 911 W/m² 12,3 °C 20,6 °C 14,5 km/h (3 Bft)
01.07.2018 13:45 20,6 °C 58 % 1012,4 hPa 0,0 mm 11,5 km/h (2 Bft) NO 46 ° 1 min 0,000 mm 7,2 UV-I 918 W/m² 12,0 °C 20,6 °C 14,5 km/h (3 Bft)
01.07.2018 13:46 20,6 °C 59 % 1012,4 hPa 0,0 mm 6,2 km/h (2 Bft) O-SO 121 ° 1 min 0,000 mm 7,2 UV-I 911 W/m² 12,3 °C 20,6 °C 9,7 km/h (2 Bft)
01.07.2018 13:47 20,5 °C 58 % 1012,4 hPa 0,0 mm 2,0 km/h (1 Bft) O-NO 73 ° 1 min 0,000 mm 7,2 UV-I 900 W/m² 11,9 °C 20,5 °C 4,8 km/h (1 Bft)
01.07.2018 13:48 20,5 °C 60 % 1012,4 hPa 0,0 mm 3,3 km/h (1 Bft) O-NO 69 ° 1 min 0,000 mm 7,2 UV-I 905 W/m² 12,5 °C 20,5 °C 6,4 km/h (2 Bft)
01.07.2018 13:49 20,6 °C 63 % 1012,4 hPa 0,0 mm 8,8 km/h (2 Bft) O-NO 72 ° 1 min 0,000 mm 7,0 UV-I 882 W/m² 13,3 °C 20,6 °C 14,5 km/h (3 Bft)
01.07.2018 13:50 20,6 °C 60 % 1012,4 hPa 0,0 mm 7,8 km/h (2 Bft) N-NO 22 ° 1 min 0,000 mm 7,1 UV-I 893 W/m² 12,6 °C 20,6 °C 12,9 km/h (3 Bft)
01.07.2018 13:51 20,5 °C 58 % 1012,4 hPa 0,0 mm 8,9 km/h (2 Bft) O 82 ° 1 min 0,000 mm 7,1 UV-I 889 W/m² 11,9 °C 20,5 °C 14,5 km/h (3 Bft)
01.07.2018 13:52 20,6 °C 60 % 1012,4 hPa 0,0 mm 5,1 km/h (1 Bft) NW 325 ° 1 min 0,000 mm 7,1 UV-I 891 W/m² 12,6 °C 20,6 °C 9,7 km/h (2 Bft)
01.07.2018 13:53 20,7 °C 59 % 1012,4 hPa 0,0 mm 6,4 km/h (2 Bft) O 80 ° 1 min 0,000 mm 7,1 UV-I 886 W/m² 12,4 °C 20,7 °C 12,9 km/h (3 Bft)
01.07.2018 13:54 20,6 °C 58 % 1012,4 hPa 0,0 mm 8,5 km/h (2 Bft) O-NO 69 ° 1 min 0,000 mm 7,1 UV-I 886 W/m² 12,0 °C 20,6 °C 14,5 km/h (3 Bft)
01.07.2018 13:55 20,4 °C 58 % 1012,4 hPa 0,0 mm 6,6 km/h (2 Bft) NO 53 ° 1 min 0,000 mm 7,1 UV-I 893 W/m² 11,9 °C 20,4 °C 11,3 km/h (2 Bft)
01.07.2018 13:56 20,4 °C 62 % 1012,4 hPa 0,0 mm 3,8 km/h (1 Bft) N 5 ° 1 min 0,000 mm 7,2 UV-I 895 W/m² 12,9 °C 20,4 °C 4,8 km/h (1 Bft)
01.07.2018 13:57 20,5 °C 61 % 1012,4 hPa 0,0 mm 5,0 km/h (1 Bft) NO 56 ° 1 min 0,000 mm 7,1 UV-I 889 W/m² 12,7 °C 20,5 °C 8,0 km/h (2 Bft)
01.07.2018 13:58 20,7 °C 60 % 1012,5 hPa 0,0 mm 8,6 km/h (2 Bft) N-NO 32 ° 1 min 0,000 mm 7,1 UV-I 888 W/m² 12,7 °C 20,7 °C 14,5 km/h (3 Bft)
01.07.2018 13:59 20,7 °C 58 % 1012,4 hPa 0,0 mm 7,3 km/h (2 Bft) N-NO 16 ° 1 min 0,000 mm 7,1 UV-I 893 W/m² 12,1 °C 20,7 °C 11,3 km/h (2 Bft)
01.07.2018 14:00 20,7 °C 57 % 1012,4 hPa 0,0 mm 7,7 km/h (2 Bft) N-NO 30 ° 1 min 0,000 mm 7,1 UV-I 893 W/m² 11,9 °C 20,7 °C 12,9 km/h (3 Bft)
01.07.2018 14:01 20,6 °C 56 % 1012,4 hPa 0,0 mm 2,5 km/h (1 Bft) NO 52 ° 1 min 0,559 mm 7,1 UV-I 895 W/m² 11,5 °C 20,6 °C 6,4 km/h (2 Bft)
01.07.2018 14:02 20,6 °C 58 % 1012,4 hPa 0,0 mm 7,5 km/h (2 Bft) O 96 ° 1 min 0,000 mm 7,1 UV-I 891 W/m² 12,0 °C 20,6 °C 14,5 km/h (3 Bft)
01.07.2018 14:03 20,4 °C 58 % 1012,4 hPa 0,0 mm 8,6 km/h (2 Bft) O 96 ° 1 min 0,000 mm 7,0 UV-I 891 W/m² 11,9 °C 20,4 °C 12,9 km/h (3 Bft)
01.07.2018 14:04 20,3 °C 58 % 1012,4 hPa 0,0 mm 1,3 km/h (1 Bft) O 79 ° 1 min 0,000 mm 6,9 UV-I 870 W/m² 11,8 °C 20,3 °C 3,2 km/h (1 Bft)
01.07.2018 14:05 20,3 °C 59 % 1012,4 hPa 0,0 mm 8,1 km/h (2 Bft) N-NO 21 ° 1 min 0,000 mm 6,7 UV-I 824 W/m² 12,0 °C 20,3 °C 12,9 km/h (3 Bft)
01.07.2018 14:06 20,3 °C 58 % 1012,4 hPa 0,0 mm 4,5 km/h (1 Bft) NO 42 ° 1 min 0,000 mm 6,4 UV-I 768 W/m² 11,8 °C 20,3 °C 8,0 km/h (2 Bft)
01.07.2018 14:07 20,3 °C 58 % 1012,4 hPa 0,0 mm 3,8 km/h (1 Bft) O 95 ° 1 min 0,000 mm 6,9 UV-I 768 W/m² 11,8 °C 20,3 °C 11,3 km/h (2 Bft)
01.07.2018 14:08 20,4 °C 59 % 1012,4 hPa 0,0 mm 11,5 km/h (2 Bft) O 85 ° 1 min 0,000 mm 6,9 UV-I 865 W/m² 12,1 °C 20,4 °C 16,1 km/h (3 Bft)
01.07.2018 14:09 20,4 °C 59 % 1012,3 hPa 0,0 mm 7,0 km/h (2 Bft) O-SO 105 ° 1 min 0,000 mm 7,0 UV-I 884 W/m² 12,1 °C 20,4 °C 12,9 km/h (3 Bft)
01.07.2018 14:10 20,4 °C 62 % 1012,4 hPa 0,0 mm 7,0 km/h (2 Bft) N-NO 18 ° 1 min 0,000 mm 6,9 UV-I 877 W/m² 12,9 °C 20,4 °C 11,3 km/h (2 Bft)
01.07.2018 14:11 20,5 °C 60 % 1012,4 hPa 0,0 mm 7,5 km/h (2 Bft) N 355 ° 1 min 0,000 mm 7,0 UV-I 886 W/m² 12,5 °C 20,5 °C 12,9 km/h (3 Bft)
01.07.2018 14:12 20,6 °C 58 % 1012,4 hPa 0,0 mm 5,6 km/h (1 Bft) O-NO 64 ° 1 min 0,000 mm 7,0 UV-I 888 W/m² 12,0 °C 20,6 °C 9,7 km/h (2 Bft)
01.07.2018 14:13 20,7 °C 60 % 1012,4 hPa 0,0 mm 5,6 km/h (1 Bft) N-NO 14 ° 1 min 0,000 mm 7,0 UV-I 889 W/m² 12,7 °C 20,7 °C 8,0 km/h (2 Bft)
01.07.2018 14:14 20,8 °C 59 % 1012,4 hPa 0,0 mm 10,0 km/h (2 Bft) N-NW 346 ° 1 min 0,000 mm 6,9 UV-I 884 W/m² 12,5 °C 20,8 °C 14,5 km/h (3 Bft)
01.07.2018 14:15 20,9 °C 58 % 1012,4 hPa 0,0 mm 9,7 km/h (2 Bft) N 355 ° 1 min 0,000 mm 7,0 UV-I 884 W/m² 12,3 °C 20,9 °C 19,3 km/h (3 Bft)
01.07.2018 14:16 20,9 °C 58 % 1012,4 hPa 0,0 mm 2,7 km/h (1 Bft) N-NO 16 ° 1 min 0,000 mm 7,0 UV-I 889 W/m² 12,3 °C 20,9 °C 8,0 km/h (2 Bft)
01.07.2018 14:17 21,0 °C 59 % 1012,4 hPa 0,0 mm 4,7 km/h (1 Bft) NW 320 ° 1 min 0,000 mm 6,9 UV-I 882 W/m² 12,7 °C 21,0 °C 6,4 km/h (2 Bft)
01.07.2018 14:18 21,1 °C 57 % 1012,4 hPa 0,0 mm 5,7 km/h (1 Bft) NO 35 ° 1 min 0,000 mm 6,8 UV-I 874 W/m² 12,2 °C 21,1 °C 12,9 km/h (3 Bft)
01.07.2018 14:19 21,0 °C 58 % 1012,4 hPa 0,0 mm 7,9 km/h (2 Bft) O-NO 70 ° 1 min 0,000 mm 6,9 UV-I 875 W/m² 12,4 °C 21,0 °C 12,9 km/h (3 Bft)
01.07.2018 14:20 21,0 °C 57 % 1012,4 hPa 0,0 mm 6,5 km/h (2 Bft) NO 35 ° 1 min 0,000 mm 6,9 UV-I 879 W/m² 12,1 °C 21,0 °C 11,3 km/h (2 Bft)
01.07.2018 14:21 20,9 °C 57 % 1012,4 hPa 0,0 mm 7,7 km/h (2 Bft) O-SO 108 ° 1 min 0,000 mm 7,0 UV-I 895 W/m² 12,1 °C 20,9 °C 12,9 km/h (3 Bft)
01.07.2018 14:22 20,8 °C 58 % 1012,4 hPa 0,0 mm 4,0 km/h (1 Bft) O 86 ° 1 min 0,000 mm 7,0 UV-I 895 W/m² 12,2 °C 20,8 °C 6,4 km/h (2 Bft)
01.07.2018 14:23 20,8 °C 57 % 1012,4 hPa 0,0 mm 1,2 km/h (1 Bft) O-NO 76 ° 1 min 0,000 mm 7,0 UV-I 891 W/m² 12,0 °C 20,8 °C 3,2 km/h (1 Bft)
01.07.2018 14:24 20,8 °C 59 % 1012,4 hPa 0,0 mm 3,9 km/h (1 Bft) O 82 ° 1 min 0,000 mm 7,0 UV-I 889 W/m² 12,5 °C 20,8 °C 6,4 km/h (2 Bft)
01.07.2018 14:25 20,9 °C 63 % 1012,4 hPa 0,0 mm 6,9 km/h (2 Bft) NO 40 ° 1 min 0,000 mm 6,9 UV-I 884 W/m² 13,6 °C 20,9 °C 9,7 km/h (2 Bft)
01.07.2018 14:26 20,9 °C 57 % 1012,4 hPa 0,0 mm 7,1 km/h (2 Bft) NO 34 ° 1 min 0,000 mm 6,9 UV-I 884 W/m² 12,1 °C 20,9 °C 12,9 km/h (3 Bft)
01.07.2018 14:27 21,0 °C 58 % 1012,4 hPa 0,0 mm 2,9 km/h (1 Bft) NO 52 ° 1 min 0,000 mm 6,9 UV-I 881 W/m² 12,4 °C 21,0 °C 8,0 km/h (2 Bft)
01.07.2018 14:28 21,0 °C 57 % 1012,4 hPa 0,0 mm 4,2 km/h (1 Bft) N 355 ° 1 min 0,000 mm 6,8 UV-I 884 W/m² 12,1 °C 21,0 °C 8,0 km/h (2 Bft)
01.07.2018 14:29 21,1 °C 60 % 1012,3 hPa 0,0 mm 6,7 km/h (2 Bft) N 355 ° 1 min 0,000 mm 6,9 UV-I 893 W/m² 13,0 °C 21,1 °C 8,0 km/h (2 Bft)
01.07.2018 14:30 21,3 °C 58 % 1012,3 hPa 0,0 mm 9,0 km/h (2 Bft) NO 42 ° 1 min 0,000 mm 6,9 UV-I 904 W/m² 12,7 °C 21,3 °C 14,5 km/h (3 Bft)
01.07.2018 14:31 21,4 °C 60 % 1012,4 hPa 0,0 mm 5,3 km/h (1 Bft) NO 34 ° 1 min 0,000 mm 7,0 UV-I 925 W/m² 13,3 °C 21,4 °C 8,0 km/h (2 Bft)
01.07.2018 14:32 21,3 °C 55 % 1012,4 hPa 0,0 mm 3,5 km/h (1 Bft) NO 34 ° 1 min 0,000 mm 7,1 UV-I 942 W/m² 11,9 °C 21,3 °C 6,4 km/h (2 Bft)
01.07.2018 14:33 21,3 °C 59 % 1012,3 hPa 0,0 mm 4,1 km/h (1 Bft) N-NO 30 ° 1 min 0,000 mm 7,0 UV-I 937 W/m² 13,0 °C 21,3 °C 6,4 km/h (2 Bft)
01.07.2018 14:34 21,3 °C 58 % 1012,4 hPa 0,0 mm 7,5 km/h (2 Bft) O-NO 66 ° 1 min 0,000 mm 7,0 UV-I 916 W/m² 12,7 °C 21,3 °C 12,9 km/h (3 Bft)
01.07.2018 14:35 21,2 °C 56 % 1012,4 hPa 0,0 mm 6,4 km/h (2 Bft) NO 53 ° 1 min 0,000 mm 6,9 UV-I 912 W/m² 12,1 °C 21,2 °C 11,3 km/h (2 Bft)
01.07.2018 14:36 21,0 °C 55 % 1012,4 hPa 0,0 mm 9,5 km/h (2 Bft) O-NO 71 ° 1 min 0,000 mm 6,4 UV-I 904 W/m² 11,6 °C 21,0 °C 17,7 km/h (3 Bft)
01.07.2018 14:37 20,8 °C 57 % 1012,4 hPa 0,0 mm 7,0 km/h (2 Bft) NO 53 ° 1 min 0,000 mm 4,5 UV-I 904 W/m² 12,0 °C 20,8 °C 9,7 km/h (2 Bft)
01.07.2018 14:38 20,7 °C 57 % 1012,4 hPa 0,0 mm 6,8 km/h (2 Bft) NO 53 ° 1 min 0,000 mm 5,8 UV-I 904 W/m² 11,9 °C 20,7 °C 9,7 km/h (2 Bft)
01.07.2018 14:39 20,7 °C 56 % 1012,4 hPa 0,0 mm 10,5 km/h (2 Bft) NO 46 ° 1 min 0,000 mm 6,6 UV-I 904 W/m² 11,6 °C 20,7 °C 16,1 km/h (3 Bft)
01.07.2018 14:40 20,7 °C 56 % 1012,4 hPa 0,0 mm 8,4 km/h (2 Bft) NO 50 ° 1 min 0,000 mm 6,8 UV-I 891 W/m² 11,6 °C 20,7 °C 14,5 km/h (3 Bft)
01.07.2018 14:41 20,7 °C 56 % 1012,4 hPa 0,0 mm 8,7 km/h (2 Bft) NO 38 ° 1 min 0,000 mm 6,8 UV-I 881 W/m² 11,6 °C 20,7 °C 14,5 km/h (3 Bft)
01.07.2018 14:42 20,7 °C 58 % 1012,4 hPa 0,0 mm 7,3 km/h (2 Bft) O-NO 69 ° 1 min 0,000 mm 6,7 UV-I 870 W/m² 12,1 °C 20,7 °C 11,3 km/h (2 Bft)
01.07.2018 14:43 20,7 °C 55 % 1012,3 hPa 0,0 mm 3,6 km/h (1 Bft) S 191 ° 1 min 0,000 mm 6,6 UV-I 867 W/m² 11,3 °C 20,7 °C 6,4 km/h (2 Bft)
01.07.2018 14:44 20,6 °C 55 % 1012,3 hPa 0,0 mm 0,3 km/h (0 Bft) S-SW 192 ° 1 min 0,000 mm 6,5 UV-I 858 W/m² 11,2 °C 20,6 °C 1,6 km/h (1 Bft)
01.07.2018 14:45 20,7 °C 57 % 1012,3 hPa 0,0 mm 5,0 km/h (1 Bft) NO 46 ° 1 min 0,000 mm 6,1 UV-I 858 W/m² 11,9 °C 20,7 °C 8,0 km/h (2 Bft)
01.07.2018 14:46 20,8 °C 59 % 1012,4 hPa 0,0 mm 4,0 km/h (1 Bft) O 90 ° 1 min 0,000 mm 6,7 UV-I 911 W/m² 12,5 °C 20,8 °C 12,9 km/h (3 Bft)
01.07.2018 14:47 20,7 °C 56 % 1012,4 hPa 0,0 mm 11,4 km/h (2 Bft) O-NO 74 ° 1 min 0,000 mm 6,6 UV-I 925 W/m² 11,6 °C 20,7 °C 17,7 km/h (3 Bft)
01.07.2018 14:48 20,8 °C 56 % 1012,4 hPa 0,0 mm 10,4 km/h (2 Bft) O-NO 67 ° 1 min 0,000 mm 6,3 UV-I 939 W/m² 11,7 °C 20,8 °C 19,3 km/h (3 Bft)
01.07.2018 14:49 20,8 °C 55 % 1012,4 hPa 0,0 mm 11,2 km/h (2 Bft) N-NO 26 ° 1 min 0,000 mm 5,8 UV-I 939 W/m² 11,4 °C 20,8 °C 19,3 km/h (3 Bft)
01.07.2018 14:50 20,7 °C 57 % 1012,3 hPa 0,0 mm 6,6 km/h (2 Bft) N-NO 24 ° 1 min 0,000 mm 6,7 UV-I 939 W/m² 11,9 °C 20,7 °C 12,9 km/h (3 Bft)
01.07.2018 14:51 20,8 °C 57 % 1012,4 hPa 0,0 mm 8,4 km/h (2 Bft) N-NO 20 ° 1 min 0,000 mm 6,7 UV-I 914 W/m² 12,0 °C 20,8 °C 14,5 km/h (3 Bft)
01.07.2018 14:52 20,7 °C 54 % 1012,4 hPa 0,0 mm 5,9 km/h (2 Bft) N-NO 26 ° 1 min 0,000 mm 6,3 UV-I 819 W/m² 11,1 °C 20,7 °C 9,7 km/h (2 Bft)
01.07.2018 14:53 20,7 °C 58 % 1012,4 hPa 0,0 mm 4,8 km/h (1 Bft) O 80 ° 1 min 0,000 mm 6,3 UV-I 828 W/m² 12,1 °C 20,7 °C 9,7 km/h (2 Bft)
01.07.2018 14:54 20,7 °C 56 % 1012,4 hPa 0,0 mm 7,2 km/h (2 Bft) NO 55 ° 1 min 0,000 mm 6,3 UV-I 826 W/m² 11,6 °C 20,7 °C 12,9 km/h (3 Bft)
01.07.2018 14:55 20,8 °C 56 % 1012,4 hPa 0,0 mm 7,8 km/h (2 Bft) O-NO 63 ° 1 min 0,000 mm 6,4 UV-I 842 W/m² 11,7 °C 20,8 °C 14,5 km/h (3 Bft)
01.07.2018 14:56 20,7 °C 55 % 1012,4 hPa 0,0 mm 9,4 km/h (2 Bft) N-NO 28 ° 1 min 0,000 mm 6,4 UV-I 851 W/m² 11,3 °C 20,7 °C 12,9 km/h (3 Bft)
01.07.2018 14:57 20,7 °C 55 % 1012,4 hPa 0,0 mm 4,6 km/h (1 Bft) O-NO 63 ° 1 min 0,000 mm 6,4 UV-I 851 W/m² 11,3 °C 20,7 °C 8,0 km/h (2 Bft)
01.07.2018 14:58 20,7 °C 55 % 1012,4 hPa 0,0 mm 5,2 km/h (1 Bft) O-NO 74 ° 1 min 0,000 mm 6,3 UV-I 846 W/m² 11,3 °C 20,7 °C 9,7 km/h (2 Bft)
01.07.2018 14:59 20,7 °C 57 % 1012,4 hPa 0,0 mm 7,0 km/h (2 Bft) NO 55 ° 1 min 0,000 mm 6,3 UV-I 840 W/m² 11,9 °C 20,7 °C 14,5 km/h (3 Bft)
01.07.2018 15:00 20,7 °C 55 % 1012,4 hPa 0,0 mm 12,5 km/h (3 Bft) NO 47 ° 1 min 0,000 mm 6,2 UV-I 840 W/m² 11,3 °C 20,7 °C 17,7 km/h (3 Bft)
01.07.2018 15:01 20,7 °C 56 % 1012,4 hPa 0,0 mm 7,9 km/h (2 Bft) NO 40 ° 1 min 0,533 mm 6,2 UV-I 833 W/m² 11,6 °C 20,7 °C 17,7 km/h (3 Bft)
01.07.2018 15:02 20,8 °C 54 % 1012,3 hPa 0,0 mm 6,2 km/h (2 Bft) N 355 ° 1 min 0,000 mm 6,2 UV-I 833 W/m² 11,1 °C 20,8 °C 9,7 km/h (2 Bft)
01.07.2018 15:03 20,8 °C 55 % 1012,4 hPa 0,0 mm 6,8 km/h (2 Bft) O-SO 108 ° 1 min 0,000 mm 6,1 UV-I 828 W/m² 11,4 °C 20,8 °C 12,9 km/h (3 Bft)
01.07.2018 15:04 20,8 °C 56 % 1012,3 hPa 0,0 mm 2,5 km/h (1 Bft) NO 44 ° 1 min 0,000 mm 6,0 UV-I 805 W/m² 11,7 °C 20,8 °C 6,4 km/h (2 Bft)
01.07.2018 15:05 20,9 °C 57 % 1012,3 hPa 0,0 mm 6,0 km/h (2 Bft) N-NO 28 ° 1 min 0,000 mm 6,3 UV-I 853 W/m² 12,1 °C 20,9 °C 12,9 km/h (3 Bft)
01.07.2018 15:06 21,0 °C 57 % 1012,3 hPa 0,0 mm 4,6 km/h (1 Bft) N-NO 29 ° 1 min 0,000 mm 6,3 UV-I 865 W/m² 12,1 °C 21,0 °C 9,7 km/h (2 Bft)
01.07.2018 15:07 21,1 °C 55 % 1012,3 hPa 0,0 mm 8,5 km/h (2 Bft) O 92 ° 1 min 0,000 mm 6,4 UV-I 877 W/m² 11,7 °C 21,1 °C 11,3 km/h (2 Bft)
01.07.2018 15:08 21,1 °C 56 % 1012,3 hPa 0,0 mm 9,6 km/h (2 Bft) O 82 ° 1 min 0,000 mm 6,4 UV-I 879 W/m² 12,0 °C 21,1 °C 14,5 km/h (3 Bft)
01.07.2018 15:09 21,0 °C 56 % 1012,3 hPa 0,0 mm 6,4 km/h (2 Bft) N-NO 32 ° 1 min 0,000 mm 6,3 UV-I 879 W/m² 11,9 °C 21,0 °C 11,3 km/h (2 Bft)
01.07.2018 15:10 21,1 °C 56 % 1012,3 hPa 0,0 mm 4,4 km/h (1 Bft) O-NO 67 ° 1 min 0,000 mm 5,4 UV-I 879 W/m² 12,0 °C 21,1 °C 6,4 km/h (2 Bft)
01.07.2018 15:11 21,2 °C 57 % 1012,3 hPa 0,0 mm 2,5 km/h (1 Bft) N 5 ° 1 min 0,000 mm 5,1 UV-I 879 W/m² 12,3 °C 21,2 °C 4,8 km/h (1 Bft)
01.07.2018 15:12 21,2 °C 55 % 1012,3 hPa 0,0 mm 5,2 km/h (1 Bft) NO 52 ° 0 min 0,000 mm 4,7 UV-I 497 W/m² 11,8 °C 21,2 °C 8,0 km/h (2 Bft)
01.07.2018 15:13 21,2 °C 55 % 1012,3 hPa 0,0 mm 10,9 km/h (2 Bft) O 84 ° 0 min 0,000 mm 4,2 UV-I 497 W/m² 11,8 °C 21,2 °C 17,7 km/h (3 Bft)
01.07.2018 15:14 21,1 °C 55 % 1012,4 hPa 0,0 mm 3,8 km/h (1 Bft) O-NO 76 ° 0 min 0,000 mm 3,8 UV-I 380 W/m² 11,7 °C 21,1 °C 6,4 km/h (2 Bft)
01.07.2018 15:15 20,8 °C 54 % 1012,3 hPa 0,0 mm 4,3 km/h (1 Bft) NO 44 ° 0 min 0,000 mm 3,9 UV-I 373 W/m² 11,1 °C 20,8 °C 11,3 km/h (2 Bft)
01.07.2018 15:16 20,7 °C 54 % 1012,3 hPa 0,0 mm 9,3 km/h (2 Bft) O-NO 76 ° 0 min 0,000 mm 3,8 UV-I 399 W/m² 11,1 °C 20,7 °C 14,5 km/h (3 Bft)
01.07.2018 15:17 20,7 °C 55 % 1012,3 hPa 0,0 mm 5,9 km/h (2 Bft) NO 42 ° 0 min 0,000 mm 4,6 UV-I 399 W/m² 11,3 °C 20,7 °C 11,3 km/h (2 Bft)
01.07.2018 15:18 20,7 °C 55 % 1012,3 hPa 0,0 mm 9,3 km/h (2 Bft) NO 34 ° 0 min 0,000 mm 4,9 UV-I 527 W/m² 11,3 °C 20,7 °C 14,5 km/h (3 Bft)
01.07.2018 15:19 20,6 °C 56 % 1012,3 hPa 0,0 mm 5,2 km/h (1 Bft) NO 48 ° 0 min 0,000 mm 5,5 UV-I 527 W/m² 11,5 °C 20,6 °C 9,7 km/h (2 Bft)
01.07.2018 15:20 20,6 °C 56 % 1012,3 hPa 0,0 mm 4,4 km/h (1 Bft) O-NO 59 ° 1 min 0,000 mm 4,5 UV-I 624 W/m² 11,5 °C 20,6 °C 8,0 km/h (2 Bft)
01.07.2018 15:21 20,6 °C 55 % 1012,3 hPa 0,0 mm 5,7 km/h (1 Bft) O 80 ° 1 min 0,000 mm 4,7 UV-I 624 W/m² 11,2 °C 20,6 °C 8,0 km/h (2 Bft)
01.07.2018 15:22 20,5 °C 57 % 1012,2 hPa 0,0 mm 2,3 km/h (1 Bft) N 9 ° 0 min 0,000 mm 4,5 UV-I 422 W/m² 11,7 °C 20,5 °C 4,8 km/h (1 Bft)
01.07.2018 15:23 20,5 °C 56 % 1012,2 hPa 0,0 mm 4,1 km/h (1 Bft) NO 36 ° 0 min 0,000 mm 5,8 UV-I 422 W/m² 11,4 °C 20,5 °C 6,4 km/h (2 Bft)
01.07.2018 15:24 20,7 °C 56 % 1012,2 hPa 0,0 mm 8,1 km/h (2 Bft) NO 51 ° 1 min 0,000 mm 5,9 UV-I 824 W/m² 11,6 °C 20,7 °C 14,5 km/h (3 Bft)
01.07.2018 15:25 20,7 °C 56 % 1012,2 hPa 0,0 mm 7,6 km/h (2 Bft) N-NW 327 ° 1 min 0,000 mm 5,8 UV-I 791 W/m² 11,6 °C 20,7 °C 12,9 km/h (3 Bft)
01.07.2018 15:26 20,8 °C 58 % 1012,1 hPa 0,0 mm 3,4 km/h (1 Bft) NO 44 ° 1 min 0,000 mm 5,7 UV-I 793 W/m² 12,2 °C 20,8 °C 6,4 km/h (2 Bft)
01.07.2018 15:27 20,9 °C 58 % 1012,2 hPa 0,0 mm 2,5 km/h (1 Bft) NO 40 ° 1 min 0,000 mm 5,7 UV-I 789 W/m² 12,3 °C 20,9 °C 4,8 km/h (1 Bft)
01.07.2018 15:28 20,9 °C 57 % 1012,2 hPa 0,0 mm 4,4 km/h (1 Bft) O-NO 78 ° 1 min 0,000 mm 5,7 UV-I 786 W/m² 12,1 °C 20,9 °C 6,4 km/h (2 Bft)
01.07.2018 15:29 21,1 °C 58 % 1012,2 hPa 0,0 mm 5,1 km/h (1 Bft) O-NO 70 ° 1 min 0,000 mm 5,6 UV-I 773 W/m² 12,5 °C 21,1 °C 9,7 km/h (2 Bft)
01.07.2018 15:30 21,1 °C 55 % 1012,2 hPa 0,0 mm 1,6 km/h (1 Bft) O-NO 69 ° 1 min 0,000 mm 5,7 UV-I 773 W/m² 11,7 °C 21,1 °C 4,8 km/h (1 Bft)
01.07.2018 15:31 21,1 °C 58 % 1012,1 hPa 0,0 mm 1,5 km/h (1 Bft) O-NO 69 ° 1 min 0,000 mm 5,7 UV-I 782 W/m² 12,5 °C 21,1 °C 4,8 km/h (1 Bft)
01.07.2018 15:32 21,1 °C 56 % 1012,2 hPa 0,0 mm 3,1 km/h (1 Bft) N-NO 14 ° 1 min 0,000 mm 5,7 UV-I 782 W/m² 12,0 °C 21,1 °C 6,4 km/h (2 Bft)
01.07.2018 15:33 21,2 °C 58 % 1012,2 hPa 0,0 mm 12,2 km/h (2 Bft) NO 49 ° 1 min 0,000 mm 5,7 UV-I 782 W/m² 12,6 °C 21,2 °C 17,7 km/h (3 Bft)
01.07.2018 15:34 21,2 °C 53 % 1012,2 hPa 0,0 mm 11,1 km/h (2 Bft) NO 34 ° 1 min 0,000 mm 5,7 UV-I 782 W/m² 11,2 °C 21,2 °C 16,1 km/h (3 Bft)
01.07.2018 15:35 21,1 °C 54 % 1012,2 hPa 0,0 mm 7,8 km/h (2 Bft) O-NO 73 ° 1 min 0,000 mm 5,6 UV-I 775 W/m² 11,4 °C 21,1 °C 12,9 km/h (3 Bft)
01.07.2018 15:36 21,1 °C 55 % 1012,2 hPa 0,0 mm 8,5 km/h (2 Bft) NO 39 ° 1 min 0,000 mm 5,5 UV-I 763 W/m² 11,7 °C 21,1 °C 12,9 km/h (3 Bft)
01.07.2018 15:37 21,1 °C 56 % 1012,2 hPa 0,0 mm 5,0 km/h (1 Bft) NO 43 ° 1 min 0,000 mm 5,5 UV-I 768 W/m² 12,0 °C 21,1 °C 8,0 km/h (2 Bft)
01.07.2018 15:38 21,1 °C 53 % 1012,2 hPa 0,0 mm 9,7 km/h (2 Bft) NO 55 ° 1 min 0,000 mm 5,4 UV-I 747 W/m² 11,1 °C 21,1 °C 16,1 km/h (3 Bft)
01.07.2018 15:39 21,1 °C 53 % 1012,2 hPa 0,0 mm 7,4 km/h (2 Bft) O 91 ° 1 min 0,000 mm 5,3 UV-I 751 W/m² 11,1 °C 21,1 °C 16,1 km/h (3 Bft)
01.07.2018 15:40 20,9 °C 54 % 1012,2 hPa 0,0 mm 5,7 km/h (1 Bft) O 83 ° 1 min 0,000 mm 5,3 UV-I 749 W/m² 11,2 °C 20,9 °C 9,7 km/h (2 Bft)
01.07.2018 15:41 20,9 °C 54 % 1012,2 hPa 0,0 mm 6,5 km/h (2 Bft) O-SO 111 ° 1 min 0,000 mm 5,2 UV-I 745 W/m² 11,2 °C 20,9 °C 9,7 km/h (2 Bft)
01.07.2018 15:42 20,8 °C 55 % 1012,2 hPa 0,0 mm 5,7 km/h (1 Bft) NO 44 ° 1 min 0,000 mm 5,2 UV-I 754 W/m² 11,4 °C 20,8 °C 8,0 km/h (2 Bft)
01.07.2018 15:43 20,8 °C 57 % 1012,2 hPa 0,0 mm 6,5 km/h (2 Bft) NO 46 ° 1 min 0,000 mm 5,2 UV-I 761 W/m² 12,0 °C 20,8 °C 8,0 km/h (2 Bft)
01.07.2018 15:44 20,9 °C 55 % 1012,2 hPa 0,0 mm 4,2 km/h (1 Bft) N 355 ° 1 min 0,000 mm 5,2 UV-I 763 W/m² 11,5 °C 20,9 °C 4,8 km/h (1 Bft)
01.07.2018 15:45 21,0 °C 54 % 1012,1 hPa 0,0 mm 6,0 km/h (2 Bft) O 87 ° 1 min 0,000 mm 5,1 UV-I 765 W/m² 11,3 °C 21,0 °C 8,0 km/h (2 Bft)
01.07.2018 15:46 21,0 °C 54 % 1012,2 hPa 0,0 mm 2,7 km/h (1 Bft) O-SO 103 ° 1 min 0,000 mm 5,1 UV-I 765 W/m² 11,3 °C 21,0 °C 6,4 km/h (2 Bft)
01.07.2018 15:47 21,1 °C 56 % 1012,2 hPa 0,0 mm 4,4 km/h (1 Bft) O-NO 60 ° 1 min 0,000 mm 5,0 UV-I 763 W/m² 12,0 °C 21,1 °C 6,4 km/h (2 Bft)
01.07.2018 15:48 21,1 °C 56 % 1012,2 hPa 0,0 mm 5,7 km/h (1 Bft) N-NO 30 ° 1 min 0,000 mm 5,0 UV-I 763 W/m² 12,0 °C 21,1 °C 11,3 km/h (2 Bft)
01.07.2018 15:49 21,1 °C 54 % 1012,1 hPa 0,0 mm 7,9 km/h (2 Bft) O-NO 76 ° 1 min 0,000 mm 4,9 UV-I 763 W/m² 11,4 °C 21,1 °C 11,3 km/h (2 Bft)
01.07.2018 15:50 21,2 °C 55 % 1012,2 hPa 0,0 mm 3,8 km/h (1 Bft) NO 52 ° 1 min 0,000 mm 4,9 UV-I 751 W/m² 11,8 °C 21,2 °C 8,0 km/h (2 Bft)
01.07.2018 15:51 21,1 °C 52 % 1012,2 hPa 0,0 mm 3,6 km/h (1 Bft) O-NO 70 ° 1 min 0,000 mm 4,8 UV-I 744 W/m² 10,9 °C 21,1 °C 6,4 km/h (2 Bft)
01.07.2018 15:52 20,9 °C 52 % 1012,1 hPa 0,0 mm 2,7 km/h (1 Bft) O-NO 70 ° 1 min 0,000 mm 4,8 UV-I 747 W/m² 10,7 °C 20,9 °C 4,8 km/h (1 Bft)
01.07.2018 15:53 20,8 °C 56 % 1012,1 hPa 0,0 mm 5,2 km/h (1 Bft) O 87 ° 1 min 0,000 mm 4,7 UV-I 738 W/m² 11,7 °C 20,8 °C 11,3 km/h (2 Bft)
01.07.2018 15:54 20,9 °C 58 % 1012,2 hPa 0,0 mm 4,2 km/h (1 Bft) N-NO 28 ° 1 min 0,000 mm 4,7 UV-I 737 W/m² 12,3 °C 20,9 °C 9,7 km/h (2 Bft)
01.07.2018 15:55 20,9 °C 57 % 1012,1 hPa 0,0 mm 2,0 km/h (1 Bft) N 355 ° 1 min 0,000 mm 4,7 UV-I 731 W/m² 12,1 °C 20,9 °C 4,8 km/h (1 Bft)
01.07.2018 15:56 21,1 °C 58 % 1012,2 hPa 0,0 mm 2,8 km/h (1 Bft) N 360 ° 1 min 0,000 mm 4,7 UV-I 728 W/m² 12,5 °C 21,1 °C 4,8 km/h (1 Bft)
01.07.2018 15:57 21,1 °C 55 % 1012,2 hPa 0,0 mm 7,3 km/h (2 Bft) N-NO 19 ° 1 min 0,000 mm 4,7 UV-I 729 W/m² 11,7 °C 21,1 °C 14,5 km/h (3 Bft)
01.07.2018 15:58 21,2 °C 53 % 1012,2 hPa 0,0 mm 4,7 km/h (1 Bft) O-SO 104 ° 1 min 0,000 mm 4,7 UV-I 735 W/m² 11,2 °C 21,2 °C 11,3 km/h (2 Bft)
01.07.2018 15:59 21,2 °C 57 % 1012,2 hPa 0,0 mm 3,8 km/h (1 Bft) NO 51 ° 1 min 0,000 mm 4,7 UV-I 740 W/m² 12,3 °C 21,2 °C 8,0 km/h (2 Bft)
01.07.2018 16:00 21,2 °C 55 % 1012,2 hPa 0,0 mm 9,5 km/h (2 Bft) O 97 ° 1 min 0,000 mm 4,6 UV-I 738 W/m² 11,8 °C 21,2 °C 17,7 km/h (3 Bft)
01.07.2018 16:01 21,2 °C 55 % 1012,2 hPa 0,0 mm 8,3 km/h (2 Bft) N-NO 27 ° 1 min 0,457 mm 4,6 UV-I 729 W/m² 11,8 °C 21,2 °C 16,1 km/h (3 Bft)
01.07.2018 16:02 21,2 °C 53 % 1012,2 hPa 0,0 mm 9,9 km/h (2 Bft) N-NO 23 ° 1 min 0,000 mm 4,5 UV-I 726 W/m² 11,2 °C 21,2 °C 14,5 km/h (3 Bft)
01.07.2018 16:03 21,2 °C 53 % 1012,2 hPa 0,0 mm 10,3 km/h (2 Bft) O-NO 76 ° 1 min 0,000 mm 4,5 UV-I 722 W/m² 11,2 °C 21,2 °C 14,5 km/h (3 Bft)
01.07.2018 16:04 21,2 °C 53 % 1012,2 hPa 0,0 mm 7,2 km/h (2 Bft) O 86 ° 1 min 0,000 mm 4,5 UV-I 722 W/m² 11,2 °C 21,2 °C 12,9 km/h (3 Bft)
01.07.2018 16:05 20,9 °C 54 % 1012,2 hPa 0,0 mm 5,2 km/h (1 Bft) O 88 ° 1 min 0,000 mm 4,5 UV-I 722 W/m² 11,2 °C 20,9 °C 11,3 km/h (2 Bft)
01.07.2018 16:06 20,9 °C 56 % 1012,2 hPa 0,0 mm 5,8 km/h (2 Bft) O-NO 77 ° 1 min 0,000 mm 4,5 UV-I 719 W/m² 11,8 °C 20,9 °C 9,7 km/h (2 Bft)
01.07.2018 16:07 20,8 °C 57 % 1012,2 hPa 0,0 mm 8,2 km/h (2 Bft) O-NO 67 ° 1 min 0,000 mm 4,4 UV-I 707 W/m² 12,0 °C 20,8 °C 12,9 km/h (3 Bft)
01.07.2018 16:08 20,8 °C 53 % 1012,2 hPa 0,0 mm 5,9 km/h (2 Bft) NO 45 ° 1 min 0,000 mm 4,3 UV-I 691 W/m² 10,9 °C 20,8 °C 12,9 km/h (3 Bft)
01.07.2018 16:09 20,8 °C 56 % 1012,2 hPa 0,0 mm 10,7 km/h (2 Bft) O 82 ° 1 min 0,000 mm 4,3 UV-I 698 W/m² 11,7 °C 20,8 °C 14,5 km/h (3 Bft)
01.07.2018 16:10 20,7 °C 55 % 1012,2 hPa 0,0 mm 7,6 km/h (2 Bft) N-NO 19 ° 1 min 0,000 mm 4,4 UV-I 705 W/m² 11,3 °C 20,7 °C 11,3 km/h (2 Bft)
01.07.2018 16:11 20,8 °C 58 % 1012,1 hPa 0,0 mm 5,0 km/h (1 Bft) O 85 ° 1 min 0,000 mm 4,4 UV-I 708 W/m² 12,2 °C 20,8 °C 8,0 km/h (2 Bft)
01.07.2018 16:12 20,8 °C 55 % 1012,2 hPa 0,0 mm 7,3 km/h (2 Bft) NO 48 ° 1 min 0,000 mm 4,2 UV-I 708 W/m² 11,4 °C 20,8 °C 11,3 km/h (2 Bft)
01.07.2018 16:13 20,9 °C 56 % 1012,2 hPa 0,0 mm 5,5 km/h (1 Bft) NO 49 ° 0 min 0,000 mm 3,8 UV-I 232 W/m² 11,8 °C 20,9 °C 11,3 km/h (2 Bft)
01.07.2018 16:14 20,9 °C 54 % 1012,1 hPa 0,0 mm 6,9 km/h (2 Bft) NO 56 ° 0 min 0,000 mm 3,5 UV-I 232 W/m² 11,2 °C 20,9 °C 12,9 km/h (3 Bft)
01.07.2018 16:15 20,9 °C 58 % 1012,2 hPa 0,0 mm 6,8 km/h (2 Bft) O-SO 108 ° 0 min 0,000 mm 2,9 UV-I 232 W/m² 12,3 °C 20,9 °C 11,3 km/h (2 Bft)
01.07.2018 16:16 20,8 °C 54 % 1012,1 hPa 0,0 mm 10,1 km/h (2 Bft) O 83 ° 0 min 0,000 mm 2,6 UV-I 102 W/m² 11,1 °C 20,8 °C 14,5 km/h (3 Bft)
01.07.2018 16:17 20,8 °C 55 % 1012,2 hPa 0,0 mm 6,8 km/h (2 Bft) O-NO 76 ° 0 min 0,000 mm 2,6 UV-I 100 W/m² 11,4 °C 20,8 °C 9,7 km/h (2 Bft)
01.07.2018 16:18 20,8 °C 56 % 1012,1 hPa 0,0 mm 7,5 km/h (2 Bft) O 96 ° 0 min 0,000 mm 2,6 UV-I 102 W/m² 11,7 °C 20,8 °C 11,3 km/h (2 Bft)
01.07.2018 16:19 20,9 °C 55 % 1012,2 hPa 0,0 mm 6,4 km/h (2 Bft) NO 46 ° 0 min 0,000 mm 2,6 UV-I 107 W/m² 11,5 °C 20,9 °C 14,5 km/h (3 Bft)
01.07.2018 16:20 20,8 °C 54 % 1012,2 hPa 0,0 mm 5,8 km/h (2 Bft) O 86 ° 0 min 0,000 mm 2,6 UV-I 113 W/m² 11,1 °C 20,8 °C 9,7 km/h (2 Bft)
01.07.2018 16:21 20,8 °C 55 % 1012,2 hPa 0,0 mm 6,4 km/h (2 Bft) O-NO 62 ° 0 min 0,000 mm 2,6 UV-I 111 W/m² 11,4 °C 20,8 °C 9,7 km/h (2 Bft)
01.07.2018 16:22 20,8 °C 56 % 1012,2 hPa 0,0 mm 6,0 km/h (2 Bft) O-NO 57 ° 0 min 0,000 mm 2,6 UV-I 109 W/m² 11,7 °C 20,8 °C 9,7 km/h (2 Bft)
01.07.2018 16:23 20,8 °C 56 % 1012,2 hPa 0,0 mm 8,8 km/h (2 Bft) NO 42 ° 0 min 0,000 mm 2,5 UV-I 104 W/m² 11,7 °C 20,8 °C 12,9 km/h (3 Bft)
01.07.2018 16:24 20,8 °C 55 % 1012,2 hPa 0,0 mm 7,6 km/h (2 Bft) O-SO 105 ° 0 min 0,000 mm 2,5 UV-I 102 W/m² 11,4 °C 20,8 °C 11,3 km/h (2 Bft)
01.07.2018 16:25 20,8 °C 54 % 1012,1 hPa 0,0 mm 9,4 km/h (2 Bft) O-NO 76 ° 0 min 0,000 mm 2,5 UV-I 100 W/m² 11,1 °C 20,8 °C 16,1 km/h (3 Bft)
01.07.2018 16:26 20,7 °C 54 % 1012,1 hPa 0,0 mm 8,0 km/h (2 Bft) NO 40 ° 0 min 0,000 mm 2,5 UV-I 98 W/m² 11,1 °C 20,7 °C 12,9 km/h (3 Bft)
01.07.2018 16:27 20,7 °C 55 % 1012,2 hPa 0,0 mm 4,7 km/h (1 Bft) O-NO 58 ° 0 min 0,000 mm 2,5 UV-I 100 W/m² 11,3 °C 20,7 °C 6,4 km/h (2 Bft)
01.07.2018 16:28 20,6 °C 54 % 1012,2 hPa 0,0 mm 10,1 km/h (2 Bft) NO 40 ° 0 min 0,000 mm 2,5 UV-I 98 W/m² 11,0 °C 20,6 °C 14,5 km/h (3 Bft)
01.07.2018 16:29 20,7 °C 54 % 1012,2 hPa 0,0 mm 6,6 km/h (2 Bft) N-NO 32 ° 0 min 0,000 mm 2,4 UV-I 100 W/m² 11,1 °C 20,7 °C 12,9 km/h (3 Bft)
01.07.2018 16:30 20,7 °C 54 % 1012,2 hPa 0,0 mm 6,8 km/h (2 Bft) NO 44 ° 0 min 0,000 mm 2,4 UV-I 102 W/m² 11,1 °C 20,7 °C 11,3 km/h (2 Bft)
01.07.2018 16:31 20,7 °C 55 % 1012,2 hPa 0,0 mm 6,1 km/h (2 Bft) O-NO 64 ° 0 min 0,000 mm 2,4 UV-I 102 W/m² 11,3 °C 20,7 °C 8,0 km/h (2 Bft)
01.07.2018 16:32 20,7 °C 54 % 1012,2 hPa 0,0 mm 6,3 km/h (2 Bft) O 80 ° 0 min 0,000 mm 2,4 UV-I 102 W/m² 11,1 °C 20,7 °C 11,3 km/h (2 Bft)
01.07.2018 16:33 20,7 °C 54 % 1012,2 hPa 0,0 mm 6,7 km/h (2 Bft) O-NO 69 ° 0 min 0,000 mm 2,4 UV-I 97 W/m² 11,1 °C 20,7 °C 11,3 km/h (2 Bft)
01.07.2018 16:34 20,7 °C 54 % 1012,2 hPa 0,0 mm 9,4 km/h (2 Bft) O 84 ° 0 min 0,000 mm 2,4 UV-I 97 W/m² 11,1 °C 20,7 °C 14,5 km/h (3 Bft)
01.07.2018 16:35 20,7 °C 54 % 1012,2 hPa 0,0 mm 7,1 km/h (2 Bft) O-NO 71 ° 0 min 0,000 mm 2,4 UV-I 90 W/m² 11,1 °C 20,7 °C 16,1 km/h (3 Bft)
01.07.2018 16:36 20,7 °C 56 % 1012,2 hPa 0,0 mm 6,1 km/h (2 Bft) O-NO 69 ° 0 min 0,000 mm 2,3 UV-I 86 W/m² 11,6 °C 20,7 °C 8,0 km/h (2 Bft)
01.07.2018 16:37 20,7 °C 56 % 1012,2 hPa 0,0 mm 4,1 km/h (1 Bft) NO 42 ° 0 min 0,000 mm 2,3 UV-I 81 W/m² 11,6 °C 20,7 °C 6,4 km/h (2 Bft)
01.07.2018 16:38 20,7 °C 54 % 1012,2 hPa 0,0 mm 7,0 km/h (2 Bft) N-NO 13 ° 0 min 0,000 mm 2,3 UV-I 81 W/m² 11,1 °C 20,7 °C 14,5 km/h (3 Bft)
01.07.2018 16:39 20,8 °C 54 % 1012,2 hPa 0,0 mm 8,0 km/h (2 Bft) N 5 ° 0 min 0,000 mm 2,3 UV-I 79 W/m² 11,1 °C 20,8 °C 14,5 km/h (3 Bft)
01.07.2018 16:40 20,8 °C 54 % 1012,2 hPa 0,0 mm 10,6 km/h (2 Bft) N 360 ° 0 min 0,000 mm 2,3 UV-I 79 W/m² 11,1 °C 20,8 °C 16,1 km/h (3 Bft)
01.07.2018 16:41 20,8 °C 55 % 1012,1 hPa 0,0 mm 3,8 km/h (1 Bft) N-NW 341 ° 0 min 0,000 mm 2,3 UV-I 79 W/m² 11,4 °C 20,8 °C 6,4 km/h (2 Bft)
01.07.2018 16:42 20,9 °C 56 % 1012,1 hPa 0,0 mm 4,2 km/h (1 Bft) O-NO 74 ° 0 min 0,000 mm 2,2 UV-I 77 W/m² 11,8 °C 20,9 °C 8,0 km/h (2 Bft)
01.07.2018 16:43 20,9 °C 54 % 1012,2 hPa 0,0 mm 6,9 km/h (2 Bft) O-NO 77 ° 0 min 0,000 mm 2,2 UV-I 76 W/m² 11,2 °C 20,9 °C 12,9 km/h (3 Bft)
01.07.2018 16:44 20,8 °C 55 % 1012,2 hPa 0,0 mm 8,5 km/h (2 Bft) O-NO 61 ° 0 min 0,000 mm 2,2 UV-I 72 W/m² 11,4 °C 20,8 °C 12,9 km/h (3 Bft)
01.07.2018 16:45 20,8 °C 54 % 1012,2 hPa 0,0 mm 5,9 km/h (2 Bft) O-NO 74 ° 0 min 0,000 mm 2,2 UV-I 70 W/m² 11,1 °C 20,8 °C 8,0 km/h (2 Bft)
01.07.2018 16:46 20,8 °C 55 % 1012,2 hPa 0,0 mm 5,5 km/h (1 Bft) NO 52 ° 0 min 0,000 mm 2,2 UV-I 70 W/m² 11,4 °C 20,8 °C 8,0 km/h (2 Bft)
01.07.2018 16:47 20,8 °C 55 % 1012,1 hPa 0,0 mm 5,6 km/h (1 Bft) N-NO 29 ° 0 min 0,000 mm 2,2 UV-I 70 W/m² 11,4 °C 20,8 °C 9,7 km/h (2 Bft)
01.07.2018 16:48 20,8 °C 54 % 1012,1 hPa 0,0 mm 7,4 km/h (2 Bft) O-NO 69 ° 0 min 0,000 mm 2,2 UV-I 69 W/m² 11,1 °C 20,8 °C 11,3 km/h (2 Bft)
01.07.2018 16:49 20,8 °C 54 % 1012,1 hPa 0,0 mm 5,7 km/h (1 Bft) O-NO 74 ° 0 min 0,000 mm 2,1 UV-I 69 W/m² 11,1 °C 20,8 °C 14,5 km/h (3 Bft)
01.07.2018 16:50 20,9 °C 55 % 1012,1 hPa 0,0 mm 10,2 km/h (2 Bft) O-NO 74 ° 0 min 0,000 mm 2,1 UV-I 69 W/m² 11,5 °C 20,9 °C 14,5 km/h (3 Bft)
01.07.2018 16:51 20,9 °C 54 % 1012,1 hPa 0,0 mm 6,1 km/h (2 Bft) NO 40 ° 0 min 0,000 mm 2,1 UV-I 69 W/m² 11,2 °C 20,9 °C 9,7 km/h (2 Bft)
01.07.2018 16:52 20,8 °C 53 % 1012,1 hPa 0,0 mm 6,6 km/h (2 Bft) O-NO 63 ° 0 min 0,000 mm 2,1 UV-I 69 W/m² 10,9 °C 20,8 °C 9,7 km/h (2 Bft)
01.07.2018 16:53 20,8 °C 53 % 1012,1 hPa 0,0 mm 3,3 km/h (1 Bft) NO 46 ° 0 min 0,000 mm 2,1 UV-I 70 W/m² 10,9 °C 20,8 °C 6,4 km/h (2 Bft)
01.07.2018 16:54 20,8 °C 53 % 1012,1 hPa 0,0 mm 7,7 km/h (2 Bft) NO 56 ° 0 min 0,000 mm 2,1 UV-I 69 W/m² 10,9 °C 20,8 °C 9,7 km/h (2 Bft)
01.07.2018 16:55 20,8 °C 54 % 1012,1 hPa 0,0 mm 4,0 km/h (1 Bft) NO 46 ° 0 min 0,000 mm 2,1 UV-I 67 W/m² 11,1 °C 20,8 °C 6,4 km/h (2 Bft)
01.07.2018 16:56 20,8 °C 54 % 1012,0 hPa 0,0 mm 7,7 km/h (2 Bft) N-NO 22 ° 0 min 0,000 mm 2,1 UV-I 67 W/m² 11,1 °C 20,8 °C 12,9 km/h (3 Bft)
01.07.2018 16:57 20,9 °C 55 % 1012,0 hPa 0,0 mm 8,7 km/h (2 Bft) NO 51 ° 0 min 0,000 mm 2,1 UV-I 67 W/m² 11,5 °C 20,9 °C 12,9 km/h (3 Bft)
01.07.2018 16:58 20,9 °C 55 % 1012,0 hPa 0,0 mm 8,0 km/h (2 Bft) O-NO 65 ° 0 min 0,000 mm 2,1 UV-I 67 W/m² 11,5 °C 20,9 °C 11,3 km/h (2 Bft)
01.07.2018 16:59 21,1 °C 54 % 1012,0 hPa 0,0 mm 6,0 km/h (2 Bft) NO 48 ° 0 min 0,000 mm 2,0 UV-I 67 W/m² 11,4 °C 21,1 °C 12,9 km/h (3 Bft)
01.07.2018 17:00 21,0 °C 55 % 1012,0 hPa 0,0 mm 7,7 km/h (2 Bft) O-NO 61 ° 0 min 0,000 mm 2,0 UV-I 67 W/m² 11,6 °C 21,0 °C 9,7 km/h (2 Bft)
01.07.2018 17:01 21,1 °C 56 % 1012,0 hPa 0,0 mm 5,8 km/h (2 Bft) NO 39 ° 0 min 0,178 mm 2,0 UV-I 67 W/m² 12,0 °C 21,1 °C 9,7 km/h (2 Bft)
01.07.2018 17:02 21,1 °C 55 % 1012,0 hPa 0,0 mm 7,5 km/h (2 Bft) O-NO 61 ° 0 min 0,000 mm 2,0 UV-I 69 W/m² 11,7 °C 21,1 °C 11,3 km/h (2 Bft)
01.07.2018 17:03 21,1 °C 55 % 1012,0 hPa 0,0 mm 2,0 km/h (1 Bft) O-NO 66 ° 0 min 0,000 mm 2,0 UV-I 67 W/m² 11,7 °C 21,1 °C 6,4 km/h (2 Bft)
01.07.2018 17:04 21,1 °C 55 % 1012,0 hPa 0,0 mm 3,7 km/h (1 Bft) NO 42 ° 0 min 0,000 mm 2,0 UV-I 69 W/m² 11,7 °C 21,1 °C 8,0 km/h (2 Bft)
01.07.2018 17:05 21,1 °C 55 % 1012,0 hPa 0,0 mm 9,1 km/h (2 Bft) NO 38 ° 0 min 0,000 mm 2,0 UV-I 70 W/m² 11,7 °C 21,1 °C 14,5 km/h (3 Bft)
01.07.2018 17:06 21,1 °C 54 % 1012,0 hPa 0,0 mm 10,1 km/h (2 Bft) N-NO 24 ° 0 min 0,000 mm 2,0 UV-I 70 W/m² 11,4 °C 21,1 °C 14,5 km/h (3 Bft)
01.07.2018 17:07 21,1 °C 55 % 1012,0 hPa 0,0 mm 9,7 km/h (2 Bft) O-NO 73 ° 0 min 0,000 mm 2,0 UV-I 70 W/m² 11,7 °C 21,1 °C 17,7 km/h (3 Bft)
01.07.2018 17:08 21,1 °C 53 % 1012,1 hPa 0,0 mm 6,6 km/h (2 Bft) NO 50 ° 0 min 0,000 mm 2,0 UV-I 70 W/m² 11,1 °C 21,1 °C 12,9 km/h (3 Bft)
01.07.2018 17:09 21,1 °C 54 % 1012,1 hPa 0,0 mm 8,2 km/h (2 Bft) NO 46 ° 0 min 0,000 mm 2,0 UV-I 70 W/m² 11,4 °C 21,1 °C 9,7 km/h (2 Bft)
01.07.2018 17:10 21,0 °C 53 % 1012,1 hPa 0,0 mm 9,0 km/h (2 Bft) O-NO 67 ° 0 min 0,000 mm 2,0 UV-I 70 W/m² 11,0 °C 21,0 °C 14,5 km/h (3 Bft)
01.07.2018 17:11 20,9 °C 54 % 1012,1 hPa 0,0 mm 5,2 km/h (1 Bft) N-NO 15 ° 0 min 0,000 mm 1,9 UV-I 77 W/m² 11,2 °C 20,9 °C 8,0 km/h (2 Bft)
01.07.2018 17:12 20,9 °C 54 % 1012,0 hPa 0,0 mm 8,8 km/h (2 Bft) O-NO 76 ° 0 min 0,000 mm 1,9 UV-I 81 W/m² 11,2 °C 20,9 °C 11,3 km/h (2 Bft)
01.07.2018 17:13 20,9 °C 56 % 1012,0 hPa 0,0 mm 9,5 km/h (2 Bft) NO 40 ° 0 min 0,000 mm 1,9 UV-I 79 W/m² 11,8 °C 20,9 °C 14,5 km/h (3 Bft)
01.07.2018 17:14 21,0 °C 55 % 1012,1 hPa 0,0 mm 8,6 km/h (2 Bft) N-NO 16 ° 0 min 0,000 mm 1,9 UV-I 79 W/m² 11,6 °C 21,0 °C 11,3 km/h (2 Bft)
01.07.2018 17:15 21,1 °C 55 % 1012,0 hPa 0,0 mm 9,9 km/h (2 Bft) NO 47 ° 0 min 0,000 mm 1,9 UV-I 90 W/m² 11,7 °C 21,1 °C 14,5 km/h (3 Bft)
01.07.2018 17:16 21,1 °C 57 % 1012,1 hPa 0,0 mm 4,6 km/h (1 Bft) O 85 ° 0 min 0,000 mm 1,9 UV-I 77 W/m² 12,2 °C 21,1 °C 8,0 km/h (2 Bft)
01.07.2018 17:17 21,1 °C 57 % 1012,1 hPa 0,0 mm 7,0 km/h (2 Bft) O-NO 69 ° 0 min 0,000 mm 1,9 UV-I 70 W/m² 12,2 °C 21,1 °C 11,3 km/h (2 Bft)
01.07.2018 17:18 21,1 °C 57 % 1012,1 hPa 0,0 mm 1,5 km/h (1 Bft) O-NO 69 ° 0 min 0,000 mm 1,9 UV-I 69 W/m² 12,2 °C 21,1 °C 4,8 km/h (1 Bft)
01.07.2018 17:19 21,1 °C 57 % 1012,0 hPa 0,0 mm 2,1 km/h (1 Bft) O 92 ° 0 min 0,000 mm 1,9 UV-I 69 W/m² 12,2 °C 21,1 °C 6,4 km/h (2 Bft)
01.07.2018 17:20 21,1 °C 56 % 1012,1 hPa 0,0 mm 4,9 km/h (1 Bft) O-NO 74 ° 0 min 0,000 mm 1,9 UV-I 67 W/m² 12,0 °C 21,1 °C 8,0 km/h (2 Bft)
01.07.2018 17:21 21,1 °C 55 % 1012,0 hPa 0,0 mm 6,2 km/h (2 Bft) NO 43 ° 0 min 0,000 mm 1,8 UV-I 65 W/m² 11,7 °C 21,1 °C 11,3 km/h (2 Bft)
01.07.2018 17:22 21,0 °C 54 % 1012,1 hPa 0,0 mm 4,9 km/h (1 Bft) O-NO 75 ° 0 min 0,000 mm 1,8 UV-I 65 W/m² 11,3 °C 21,0 °C 12,9 km/h (3 Bft)
01.07.2018 17:23 20,9 °C 55 % 1012,1 hPa 0,0 mm 5,3 km/h (1 Bft) O-NO 67 ° 0 min 0,000 mm 1,8 UV-I 63 W/m² 11,5 °C 20,9 °C 9,7 km/h (2 Bft)
01.07.2018 17:24 20,9 °C 55 % 1012,1 hPa 0,0 mm 7,4 km/h (2 Bft) O 83 ° 0 min 0,000 mm 1,8 UV-I 63 W/m² 11,5 °C 20,9 °C 12,9 km/h (3 Bft)
01.07.2018 17:25 20,9 °C 58 % 1012,1 hPa 0,0 mm 4,7 km/h (1 Bft) O 79 ° 0 min 0,000 mm 1,8 UV-I 63 W/m² 12,3 °C 20,9 °C 11,3 km/h (2 Bft)
01.07.2018 17:26 20,8 °C 57 % 1012,0 hPa 0,0 mm 0,8 km/h (0 Bft) O-NO 76 ° 0 min 0,000 mm 1,8 UV-I 63 W/m² 12,0 °C 20,8 °C 4,8 km/h (1 Bft)
01.07.2018 17:27 20,8 °C 55 % 1012,0 hPa 0,0 mm 7,9 km/h (2 Bft) S 181 ° 0 min 0,000 mm 1,8 UV-I 63 W/m² 11,4 °C 20,8 °C 14,5 km/h (3 Bft)
01.07.2018 17:28 20,8 °C 55 % 1012,1 hPa 0,0 mm 7,6 km/h (2 Bft) O-NO 71 ° 0 min 0,000 mm 1,8 UV-I 63 W/m² 11,4 °C 20,8 °C 16,1 km/h (3 Bft)
01.07.2018 17:29 20,8 °C 55 % 1012,1 hPa 0,0 mm 8,0 km/h (2 Bft) O-NO 65 ° 0 min 0,000 mm 1,8 UV-I 63 W/m² 11,4 °C 20,8 °C 16,1 km/h (3 Bft)
01.07.2018 17:30 20,8 °C 54 % 1012,0 hPa 0,0 mm 5,7 km/h (1 Bft) NO 55 ° 0 min 0,000 mm 1,7 UV-I 63 W/m² 11,1 °C 20,8 °C 8,0 km/h (2 Bft)
01.07.2018 17:31 20,8 °C 57 % 1012,1 hPa 0,0 mm 6,4 km/h (2 Bft) O 80 ° 0 min 0,000 mm 1,7 UV-I 62 W/m² 12,0 °C 20,8 °C 12,9 km/h (3 Bft)
01.07.2018 17:32 20,8 °C 56 % 1012,0 hPa 0,0 mm 6,2 km/h (2 Bft) NO 53 ° 0 min 0,000 mm 1,7 UV-I 62 W/m² 11,7 °C 20,8 °C 8,0 km/h (2 Bft)
01.07.2018 17:33 20,9 °C 57 % 1012,0 hPa 0,0 mm 4,8 km/h (1 Bft) O-SO 103 ° 0 min 0,000 mm 1,7 UV-I 62 W/m² 12,1 °C 20,9 °C 9,7 km/h (2 Bft)
01.07.2018 17:34 21,0 °C 56 % 1012,1 hPa 0,0 mm 7,0 km/h (2 Bft) O-NO 65 ° 0 min 0,000 mm 1,7 UV-I 62 W/m² 11,9 °C 21,0 °C 12,9 km/h (3 Bft)
01.07.2018 17:35 20,9 °C 56 % 1012,0 hPa 0,0 mm 5,0 km/h (1 Bft) O-NO 74 ° 0 min 0,000 mm 1,7 UV-I 67 W/m² 11,8 °C 20,9 °C 9,7 km/h (2 Bft)
01.07.2018 17:36 20,9 °C 54 % 1012,1 hPa 0,0 mm 5,3 km/h (1 Bft) O-NO 67 ° 0 min 0,000 mm 1,7 UV-I 60 W/m² 11,2 °C 20,9 °C 12,9 km/h (3 Bft)
01.07.2018 17:37 20,8 °C 54 % 1012,0 hPa 0,0 mm 1,9 km/h (1 Bft) N-NW 342 ° 0 min 0,000 mm 1,7 UV-I 62 W/m² 11,1 °C 20,8 °C 4,8 km/h (1 Bft)
01.07.2018 17:38 20,8 °C 57 % 1012,0 hPa 0,0 mm 4,6 km/h (1 Bft) NO 37 ° 0 min 0,000 mm 1,7 UV-I 60 W/m² 12,0 °C 20,8 °C 6,4 km/h (2 Bft)
01.07.2018 17:39 20,8 °C 56 % 1012,0 hPa 0,0 mm 4,7 km/h (1 Bft) O-NO 59 ° 0 min 0,000 mm 1,7 UV-I 60 W/m² 11,7 °C 20,8 °C 8,0 km/h (2 Bft)
01.07.2018 17:40 20,8 °C 55 % 1012,0 hPa 0,0 mm 5,3 km/h (1 Bft) NO 36 ° 0 min 0,000 mm 1,7 UV-I 60 W/m² 11,4 °C 20,8 °C 12,9 km/h (3 Bft)
01.07.2018 17:41 20,8 °C 55 % 1012,0 hPa 0,0 mm 4,9 km/h (1 Bft) NO 44 ° 0 min 0,000 mm 1,7 UV-I 60 W/m² 11,4 °C 20,8 °C 12,9 km/h (3 Bft)
01.07.2018 17:42 20,8 °C 57 % 1012,0 hPa 0,0 mm 0,8 km/h (0 Bft) NO 44 ° 0 min 0,000 mm 1,6 UV-I 60 W/m² 12,0 °C 20,8 °C 4,8 km/h (1 Bft)
01.07.2018 17:43 20,9 °C 56 % 1011,9 hPa 0,0 mm 3,4 km/h (1 Bft) O-NO 69 ° 0 min 0,000 mm 1,6 UV-I 60 W/m² 11,8 °C 20,9 °C 6,4 km/h (2 Bft)
01.07.2018 17:44 20,9 °C 56 % 1011,9 hPa 0,0 mm 3,8 km/h (1 Bft) NO 38 ° 0 min 0,000 mm 1,6 UV-I 60 W/m² 11,8 °C 20,9 °C 4,8 km/h (1 Bft)
01.07.2018 17:45 20,9 °C 56 % 1011,9 hPa 0,0 mm 3,2 km/h (1 Bft) O 99 ° 0 min 0,000 mm 1,6 UV-I 69 W/m² 11,8 °C 20,9 °C 9,7 km/h (2 Bft)
01.07.2018 17:46 20,9 °C 55 % 1011,9 hPa 0,0 mm 9,4 km/h (2 Bft) O 94 ° 0 min 0,000 mm 1,6 UV-I 60 W/m² 11,5 °C 20,9 °C 14,5 km/h (3 Bft)
01.07.2018 17:47 20,9 °C 56 % 1011,9 hPa 0,0 mm 6,8 km/h (2 Bft) NO 55 ° 0 min 0,000 mm 1,6 UV-I 62 W/m² 11,8 °C 20,9 °C 9,7 km/h (2 Bft)
01.07.2018 17:48 20,9 °C 54 % 1011,9 hPa 0,0 mm 11,1 km/h (2 Bft) O-NO 61 ° 0 min 0,000 mm 1,6 UV-I 60 W/m² 11,2 °C 20,9 °C 14,5 km/h (3 Bft)
01.07.2018 17:49 20,8 °C 55 % 1011,9 hPa 0,0 mm 4,5 km/h (1 Bft) NO 48 ° 0 min 0,000 mm 1,6 UV-I 60 W/m² 11,4 °C 20,8 °C 9,7 km/h (2 Bft)
01.07.2018 17:50 20,8 °C 55 % 1011,9 hPa 0,0 mm 7,8 km/h (2 Bft) O-NO 58 ° 0 min 0,000 mm 1,6 UV-I 58 W/m² 11,4 °C 20,8 °C 11,3 km/h (2 Bft)
01.07.2018 17:51 20,8 °C 57 % 1011,9 hPa 0,0 mm 5,9 km/h (2 Bft) S 172 ° 0 min 0,000 mm 1,6 UV-I 60 W/m² 12,0 °C 20,8 °C 9,7 km/h (2 Bft)
01.07.2018 17:52 20,7 °C 55 % 1011,9 hPa 0,0 mm 4,8 km/h (1 Bft) O-NO 67 ° 0 min 0,000 mm 1,6 UV-I 60 W/m² 11,3 °C 20,7 °C 12,9 km/h (3 Bft)
01.07.2018 17:53 20,6 °C 55 % 1011,9 hPa 0,0 mm 8,0 km/h (2 Bft) O 92 ° 0 min 0,000 mm 1,5 UV-I 60 W/m² 11,2 °C 20,6 °C 16,1 km/h (3 Bft)
01.07.2018 17:54 20,6 °C 55 % 1011,9 hPa 0,0 mm 6,7 km/h (2 Bft) O 84 ° 0 min 0,000 mm 1,5 UV-I 62 W/m² 11,2 °C 20,6 °C 16,1 km/h (3 Bft)
01.07.2018 17:55 20,6 °C 55 % 1011,9 hPa 0,0 mm 4,1 km/h (1 Bft) O-NO 69 ° 0 min 0,000 mm 1,5 UV-I 62 W/m² 11,2 °C 20,6 °C 8,0 km/h (2 Bft)
01.07.2018 17:56 20,6 °C 56 % 1011,9 hPa 0,0 mm 4,4 km/h (1 Bft) NO 49 ° 0 min 0,000 mm 1,5 UV-I 60 W/m² 11,5 °C 20,6 °C 6,4 km/h (2 Bft)
01.07.2018 17:57 20,6 °C 56 % 1011,9 hPa 0,0 mm 2,5 km/h (1 Bft) NO 37 ° 0 min 0,000 mm 1,5 UV-I 62 W/m² 11,5 °C 20,6 °C 4,8 km/h (1 Bft)
01.07.2018 17:58 20,7 °C 56 % 1011,9 hPa 0,0 mm 3,9 km/h (1 Bft) O-SO 123 ° 0 min 0,000 mm 1,5 UV-I 60 W/m² 11,6 °C 20,7 °C 9,7 km/h (2 Bft)
01.07.2018 17:59 20,6 °C 55 % 1011,9 hPa 0,0 mm 1,7 km/h (1 Bft) SW 217 ° 0 min 0,000 mm 1,5 UV-I 60 W/m² 11,2 °C 20,6 °C 6,4 km/h (2 Bft)
01.07.2018 18:00 20,6 °C 55 % 1011,9 hPa 0,0 mm 3,5 km/h (1 Bft) SO 136 ° 0 min 0,000 mm 1,5 UV-I 60 W/m² 11,2 °C 20,6 °C 6,4 km/h (2 Bft)
01.07.2018 18:01 20,6 °C 55 % 1011,9 hPa 0,0 mm 0,4 km/h (0 Bft) SO 136 ° 0 min 0,076 mm 1,5 UV-I 60 W/m² 11,2 °C 20,6 °C 3,2 km/h (1 Bft)
01.07.2018 18:02 20,6 °C 57 % 1011,9 hPa 0,0 mm 1,8 km/h (1 Bft) O-NO 63 ° 0 min 0,000 mm 1,5 UV-I 60 W/m² 11,8 °C 20,6 °C 3,2 km/h (1 Bft)
01.07.2018 18:03 20,7 °C 57 % 1011,9 hPa 0,0 mm 6,6 km/h (2 Bft) O 86 ° 0 min 0,000 mm 1,5 UV-I 60 W/m² 11,9 °C 20,7 °C 12,9 km/h (3 Bft)
01.07.2018 18:04 20,8 °C 56 % 1011,9 hPa 0,0 mm 6,7 km/h (2 Bft) NO 49 ° 0 min 0,000 mm 1,5 UV-I 60 W/m² 11,7 °C 20,8 °C 11,3 km/h (2 Bft)
01.07.2018 18:05 20,8 °C 56 % 1011,9 hPa 0,0 mm 7,3 km/h (2 Bft) NO 40 ° 0 min 0,000 mm 1,4 UV-I 60 W/m² 11,7 °C 20,8 °C 12,9 km/h (3 Bft)
01.07.2018 18:06 20,8 °C 56 % 1011,9 hPa 0,0 mm 6,2 km/h (2 Bft) O-NO 77 ° 0 min 0,000 mm 1,4 UV-I 60 W/m² 11,7 °C 20,8 °C 11,3 km/h (2 Bft)
01.07.2018 18:07 20,8 °C 56 % 1011,9 hPa 0,0 mm 2,5 km/h (1 Bft) N 355 ° 0 min 0,000 mm 1,4 UV-I 60 W/m² 11,7 °C 20,8 °C 4,8 km/h (1 Bft)
01.07.2018 18:08 20,9 °C 57 % 1011,8 hPa 0,0 mm 1,5 km/h (1 Bft) NO 54 ° 0 min 0,000 mm 1,4 UV-I 60 W/m² 12,1 °C 20,9 °C 3,2 km/h (1 Bft)
01.07.2018 18:09 20,9 °C 56 % 1011,9 hPa 0,0 mm 4,1 km/h (1 Bft) N-NO 20 ° 0 min 0,000 mm 1,4 UV-I 60 W/m² 11,8 °C 20,9 °C 9,7 km/h (2 Bft)
01.07.2018 18:10 20,9 °C 56 % 1011,8 hPa 0,0 mm 7,1 km/h (2 Bft) O-NO 68 ° 0 min 0,000 mm 1,4 UV-I 60 W/m² 11,8 °C 20,9 °C 11,3 km/h (2 Bft)
01.07.2018 18:11 20,9 °C 56 % 1011,9 hPa 0,0 mm 10,3 km/h (2 Bft) O 91 ° 0 min 0,000 mm 1,4 UV-I 60 W/m² 11,8 °C 20,9 °C 16,1 km/h (3 Bft)
01.07.2018 18:12 20,9 °C 57 % 1011,9 hPa 0,0 mm 4,7 km/h (1 Bft) O 86 ° 0 min 0,000 mm 1,4 UV-I 60 W/m² 12,1 °C 20,9 °C 11,3 km/h (2 Bft)
01.07.2018 18:13 20,9 °C 56 % 1011,9 hPa 0,0 mm 7,4 km/h (2 Bft) O-NO 78 ° 0 min 0,000 mm 1,4 UV-I 60 W/m² 11,8 °C 20,9 °C 14,5 km/h (3 Bft)
01.07.2018 18:14 20,9 °C 56 % 1011,8 hPa 0,0 mm 6,6 km/h (2 Bft) O-NO 76 ° 0 min 0,000 mm 1,4 UV-I 60 W/m² 11,8 °C 20,9 °C 12,9 km/h (3 Bft)
01.07.2018 18:15 20,9 °C 57 % 1011,8 hPa 0,0 mm 5,0 km/h (1 Bft) O-NO 73 ° 0 min 0,000 mm 1,4 UV-I 60 W/m² 12,1 °C 20,9 °C 11,3 km/h (2 Bft)
01.07.2018 18:16 20,9 °C 58 % 1011,8 hPa 0,0 mm 6,4 km/h (2 Bft) SO 146 ° 0 min 0,000 mm 1,4 UV-I 60 W/m² 12,3 °C 20,9 °C 12,9 km/h (3 Bft)
01.07.2018 18:17 20,8 °C 55 % 1011,9 hPa 0,0 mm 4,2 km/h (1 Bft) O 80 ° 0 min 0,000 mm 1,3 UV-I 60 W/m² 11,4 °C 20,8 °C 8,0 km/h (2 Bft)
01.07.2018 18:18 20,8 °C 55 % 1011,8 hPa 0,0 mm 9,2 km/h (2 Bft) O-NO 66 ° 0 min 0,000 mm 1,3 UV-I 60 W/m² 11,4 °C 20,8 °C 16,1 km/h (3 Bft)
01.07.2018 18:19 20,8 °C 54 % 1011,9 hPa 0,0 mm 7,6 km/h (2 Bft) O 82 ° 0 min 0,000 mm 1,3 UV-I 60 W/m² 11,1 °C 20,8 °C 11,3 km/h (2 Bft)
01.07.2018 18:20 20,7 °C 54 % 1011,9 hPa 0,0 mm 7,6 km/h (2 Bft) NO 42 ° 0 min 0,000 mm 1,3 UV-I 60 W/m² 11,1 °C 20,7 °C 11,3 km/h (2 Bft)
01.07.2018 18:21 20,7 °C 54 % 1011,9 hPa 0,0 mm 4,6 km/h (1 Bft) N-NO 24 ° 0 min 0,000 mm 1,3 UV-I 60 W/m² 11,1 °C 20,7 °C 8,0 km/h (2 Bft)
01.07.2018 18:22 20,8 °C 55 % 1011,8 hPa 0,0 mm 3,0 km/h (1 Bft) O 88 ° 0 min 0,000 mm 1,3 UV-I 60 W/m² 11,4 °C 20,8 °C 6,4 km/h (2 Bft)
01.07.2018 18:23 20,8 °C 55 % 1011,8 hPa 0,0 mm 1,0 km/h (0 Bft) NO 46 ° 0 min 0,000 mm 1,3 UV-I 60 W/m² 11,4 °C 20,8 °C 3,2 km/h (1 Bft)
01.07.2018 18:24 20,8 °C 56 % 1011,9 hPa 0,0 mm 3,0 km/h (1 Bft) NO 49 ° 0 min 0,000 mm 1,3 UV-I 58 W/m² 11,7 °C 20,8 °C 4,8 km/h (1 Bft)
01.07.2018 18:25 20,8 °C 56 % 1011,9 hPa 0,0 mm 6,6 km/h (2 Bft) O-NO 69 ° 0 min 0,000 mm 1,3 UV-I 58 W/m² 11,7 °C 20,8 °C 11,3 km/h (2 Bft)
01.07.2018 18:26 20,8 °C 56 % 1011,8 hPa 0,0 mm 3,4 km/h (1 Bft) O 83 ° 0 min 0,000 mm 1,3 UV-I 58 W/m² 11,7 °C 20,8 °C 6,4 km/h (2 Bft)
01.07.2018 18:27 20,8 °C 55 % 1011,8 hPa 0,0 mm 4,6 km/h (1 Bft) O-NO 58 ° 0 min 0,000 mm 1,3 UV-I 58 W/m² 11,4 °C 20,8 °C 9,7 km/h (2 Bft)
01.07.2018 18:28 20,8 °C 55 % 1011,9 hPa 0,0 mm 5,1 km/h (1 Bft) O 79 ° 0 min 0,000 mm 1,3 UV-I 58 W/m² 11,4 °C 20,8 °C 6,4 km/h (2 Bft)
01.07.2018 18:29 20,8 °C 55 % 1011,9 hPa 0,0 mm 5,4 km/h (1 Bft) O-NO 59 ° 0 min 0,000 mm 1,3 UV-I 58 W/m² 11,4 °C 20,8 °C 11,3 km/h (2 Bft)
01.07.2018 18:30 20,7 °C 55 % 1011,9 hPa 0,0 mm 3,9 km/h (1 Bft) N-NO 26 ° 0 min 0,000 mm 1,2 UV-I 58 W/m² 11,3 °C 20,7 °C 6,4 km/h (2 Bft)
01.07.2018 18:31 20,7 °C 55 % 1011,9 hPa 0,0 mm 1,2 km/h (1 Bft) O 92 ° 0 min 0,000 mm 1,2 UV-I 62 W/m² 11,3 °C 20,7 °C 3,2 km/h (1 Bft)
01.07.2018 18:32 20,7 °C 55 % 1011,9 hPa 0,0 mm 4,1 km/h (1 Bft) O-NO 60 ° 0 min 0,000 mm 1,2 UV-I 63 W/m² 11,3 °C 20,7 °C 6,4 km/h (2 Bft)
01.07.2018 18:33 20,7 °C 56 % 1011,9 hPa 0,0 mm 4,8 km/h (1 Bft) S-SW 204 ° 0 min 0,000 mm 1,2 UV-I 60 W/m² 11,6 °C 20,7 °C 8,0 km/h (2 Bft)
01.07.2018 18:34 20,6 °C 55 % 1011,8 hPa 0,0 mm 1,8 km/h (1 Bft) S 180 ° 0 min 0,000 mm 1,2 UV-I 60 W/m² 11,2 °C 20,6 °C 4,8 km/h (1 Bft)
01.07.2018 18:35 20,5 °C 55 % 1011,9 hPa 0,0 mm 3,5 km/h (1 Bft) N 5 ° 0 min 0,000 mm 1,2 UV-I 62 W/m² 11,1 °C 20,5 °C 8,0 km/h (2 Bft)
01.07.2018 18:36 20,6 °C 57 % 1011,8 hPa 0,0 mm 6,5 km/h (2 Bft) NO 41 ° 0 min 0,000 mm 1,2 UV-I 63 W/m² 11,8 °C 20,6 °C 14,5 km/h (3 Bft)
01.07.2018 18:37 20,6 °C 56 % 1011,9 hPa 0,0 mm 6,5 km/h (2 Bft) O-NO 78 ° 0 min 0,000 mm 1,2 UV-I 62 W/m² 11,5 °C 20,6 °C 11,3 km/h (2 Bft)
01.07.2018 18:38 20,7 °C 55 % 1011,9 hPa 0,0 mm 6,4 km/h (2 Bft) NO 46 ° 0 min 0,000 mm 1,2 UV-I 60 W/m² 11,3 °C 20,7 °C 14,5 km/h (3 Bft)
01.07.2018 18:39 20,7 °C 55 % 1011,9 hPa 0,0 mm 7,2 km/h (2 Bft) O-NO 69 ° 0 min 0,000 mm 1,2 UV-I 97 W/m² 11,3 °C 20,7 °C 11,3 km/h (2 Bft)
01.07.2018 18:40 20,7 °C 55 % 1011,9 hPa 0,0 mm 7,2 km/h (2 Bft) O-NO 61 ° 0 min 0,000 mm 1,4 UV-I 97 W/m² 11,3 °C 20,7 °C 11,3 km/h (2 Bft)
01.07.2018 18:41 20,6 °C 54 % 1011,9 hPa 0,0 mm 4,7 km/h (1 Bft) NO 53 ° 0 min 0,000 mm 1,4 UV-I 97 W/m² 11,0 °C 20,6 °C 8,0 km/h (2 Bft)
01.07.2018 18:42 20,6 °C 56 % 1011,9 hPa 0,0 mm 3,9 km/h (1 Bft) O-NO 61 ° 0 min 0,000 mm 1,3 UV-I 297 W/m² 11,5 °C 20,6 °C 8,0 km/h (2 Bft)
01.07.2018 18:43 20,6 °C 56 % 1011,9 hPa 0,0 mm 5,3 km/h (1 Bft) O 84 ° 0 min 0,000 mm 1,4 UV-I 306 W/m² 11,5 °C 20,6 °C 9,7 km/h (2 Bft)
01.07.2018 18:44 20,7 °C 56 % 1011,9 hPa 0,0 mm 6,1 km/h (2 Bft) O 87 ° 0 min 0,000 mm 1,4 UV-I 302 W/m² 11,6 °C 20,7 °C 8,0 km/h (2 Bft)
01.07.2018 18:45 20,7 °C 55 % 1011,9 hPa 0,0 mm 6,3 km/h (2 Bft) O-NO 78 ° 0 min 0,000 mm 1,4 UV-I 301 W/m² 11,3 °C 20,7 °C 9,7 km/h (2 Bft)
01.07.2018 18:46 20,7 °C 55 % 1011,9 hPa 0,0 mm 4,2 km/h (1 Bft) O-NO 73 ° 0 min 0,000 mm 1,4 UV-I 297 W/m² 11,3 °C 20,7 °C 8,0 km/h (2 Bft)
01.07.2018 18:47 20,7 °C 54 % 1011,9 hPa 0,0 mm 5,6 km/h (1 Bft) O-NO 69 ° 0 min 0,000 mm 1,4 UV-I 294 W/m² 11,1 °C 20,7 °C 8,0 km/h (2 Bft)
01.07.2018 18:48 20,7 °C 55 % 1011,9 hPa 0,0 mm 4,6 km/h (1 Bft) NO 44 ° 0 min 0,000 mm 1,3 UV-I 288 W/m² 11,3 °C 20,7 °C 6,4 km/h (2 Bft)
01.07.2018 18:49 20,6 °C 56 % 1012,0 hPa 0,0 mm 6,4 km/h (2 Bft) O 80 ° 0 min 0,000 mm 1,3 UV-I 285 W/m² 11,5 °C 20,6 °C 9,7 km/h (2 Bft)
01.07.2018 18:50 20,6 °C 56 % 1011,9 hPa 0,0 mm 3,3 km/h (1 Bft) O-NO 71 ° 0 min 0,000 mm 1,3 UV-I 283 W/m² 11,5 °C 20,6 °C 6,4 km/h (2 Bft)
01.07.2018 18:51 20,6 °C 56 % 1011,9 hPa 0,0 mm 4,5 km/h (1 Bft) NO 51 ° 0 min 0,000 mm 1,3 UV-I 283 W/m² 11,5 °C 20,6 °C 8,0 km/h (2 Bft)
01.07.2018 18:52 20,6 °C 55 % 1011,9 hPa 0,0 mm 5,6 km/h (1 Bft) NO 37 ° 0 min 0,000 mm 1,3 UV-I 281 W/m² 11,2 °C 20,6 °C 8,0 km/h (2 Bft)
01.07.2018 18:53 20,7 °C 54 % 1011,9 hPa 0,0 mm 6,5 km/h (2 Bft) NO 35 ° 0 min 0,000 mm 1,3 UV-I 279 W/m² 11,1 °C 20,7 °C 12,9 km/h (3 Bft)
01.07.2018 18:54 20,7 °C 54 % 1011,9 hPa 0,0 mm 7,8 km/h (2 Bft) O-NO 57 ° 0 min 0,000 mm 1,3 UV-I 279 W/m² 11,1 °C 20,7 °C 11,3 km/h (2 Bft)
01.07.2018 18:55 20,7 °C 54 % 1011,9 hPa 0,0 mm 7,2 km/h (2 Bft) O-NO 59 ° 0 min 0,000 mm 1,3 UV-I 278 W/m² 11,1 °C 20,7 °C 12,9 km/h (3 Bft)
01.07.2018 18:56 20,7 °C 55 % 1011,9 hPa 0,0 mm 6,4 km/h (2 Bft) O-NO 65 ° 0 min 0,000 mm 1,3 UV-I 278 W/m² 11,3 °C 20,7 °C 9,7 km/h (2 Bft)
01.07.2018 18:57 20,7 °C 56 % 1012,0 hPa 0,0 mm 5,4 km/h (1 Bft) NO 42 ° 0 min 0,000 mm 1,2 UV-I 272 W/m² 11,6 °C 20,7 °C 9,7 km/h (2 Bft)
01.07.2018 18:58 20,6 °C 54 % 1012,0 hPa 0,0 mm 7,9 km/h (2 Bft) NO 49 ° 0 min 0,000 mm 1,2 UV-I 271 W/m² 11,0 °C 20,6 °C 14,5 km/h (3 Bft)
01.07.2018 18:59 20,6 °C 54 % 1012,0 hPa 0,0 mm 7,8 km/h (2 Bft) O-NO 59 ° 0 min 0,000 mm 1,2 UV-I 269 W/m² 11,0 °C 20,6 °C 12,9 km/h (3 Bft)
01.07.2018 19:00 20,6 °C 54 % 1012,0 hPa 0,0 mm 6,3 km/h (2 Bft) NO 44 ° 0 min 0,000 mm 1,2 UV-I 267 W/m² 11,0 °C 20,6 °C 12,9 km/h (3 Bft)
01.07.2018 19:01 20,5 °C 54 % 1011,9 hPa 0,0 mm 4,9 km/h (1 Bft) NO 55 ° 0 min 0,127 mm 1,2 UV-I 264 W/m² 10,9 °C 20,5 °C 9,7 km/h (2 Bft)
01.07.2018 19:02 20,4 °C 55 % 1012,0 hPa 0,0 mm 6,2 km/h (2 Bft) O-NO 73 ° 0 min 0,000 mm 1,2 UV-I 262 W/m² 11,1 °C 20,4 °C 8,0 km/h (2 Bft)
01.07.2018 19:03 20,4 °C 56 % 1011,9 hPa 0,0 mm 2,1 km/h (1 Bft) O 79 ° 0 min 0,000 mm 1,2 UV-I 258 W/m² 11,3 °C 20,4 °C 3,2 km/h (1 Bft)
01.07.2018 19:04 20,4 °C 56 % 1011,9 hPa 0,0 mm 5,4 km/h (1 Bft) O-NO 75 ° 0 min 0,000 mm 1,1 UV-I 255 W/m² 11,3 °C 20,4 °C 9,7 km/h (2 Bft)
01.07.2018 19:05 20,4 °C 57 % 1012,0 hPa 0,0 mm 10,4 km/h (2 Bft) O-NO 76 ° 0 min 0,000 mm 1,1 UV-I 251 W/m² 11,6 °C 20,4 °C 14,5 km/h (3 Bft)
01.07.2018 19:06 20,4 °C 57 % 1012,0 hPa 0,0 mm 6,8 km/h (2 Bft) O-NO 66 ° 0 min 0,000 mm 1,1 UV-I 248 W/m² 11,6 °C 20,4 °C 9,7 km/h (2 Bft)
01.07.2018 19:07 20,4 °C 55 % 1012,0 hPa 0,0 mm 10,4 km/h (2 Bft) NO 44 ° 0 min 0,000 mm 1,1 UV-I 246 W/m² 11,1 °C 20,4 °C 17,7 km/h (3 Bft)
01.07.2018 19:08 20,4 °C 55 % 1012,0 hPa 0,0 mm 5,6 km/h (1 Bft) NO 34 ° 0 min 0,000 mm 1,1 UV-I 244 W/m² 11,1 °C 20,4 °C 9,7 km/h (2 Bft)
01.07.2018 19:09 20,3 °C 57 % 1011,9 hPa 0,0 mm 7,0 km/h (2 Bft) O-NO 73 ° 0 min 0,000 mm 1,1 UV-I 239 W/m² 11,5 °C 20,3 °C 14,5 km/h (3 Bft)
01.07.2018 19:10 20,3 °C 56 % 1011,9 hPa 0,0 mm 2,4 km/h (1 Bft) O 97 ° 0 min 0,000 mm 1,0 UV-I 237 W/m² 11,2 °C 20,3 °C 4,8 km/h (1 Bft)
01.07.2018 19:11 20,3 °C 57 % 1011,9 hPa 0,0 mm 4,5 km/h (1 Bft) O-NO 73 ° 0 min 0,000 mm 1,0 UV-I 236 W/m² 11,5 °C 20,3 °C 8,0 km/h (2 Bft)
01.07.2018 19:12 20,3 °C 56 % 1011,9 hPa 0,0 mm 5,1 km/h (1 Bft) NO 51 ° 0 min 0,000 mm 1,0 UV-I 234 W/m² 11,2 °C 20,3 °C 8,0 km/h (2 Bft)
01.07.2018 19:13 20,3 °C 56 % 1012,0 hPa 0,0 mm 3,5 km/h (1 Bft) O-NO 63 ° 0 min 0,000 mm 1,0 UV-I 232 W/m² 11,2 °C 20,3 °C 6,4 km/h (2 Bft)
01.07.2018 19:14 20,3 °C 57 % 1011,9 hPa 0,0 mm 3,4 km/h (1 Bft) O-NO 73 ° 0 min 0,000 mm 1,0 UV-I 229 W/m² 11,5 °C 20,3 °C 4,8 km/h (1 Bft)
01.07.2018 19:15 20,3 °C 56 % 1011,9 hPa 0,0 mm 7,6 km/h (2 Bft) NO 38 ° 0 min 0,000 mm 1,0 UV-I 225 W/m² 11,2 °C 20,3 °C 14,5 km/h (3 Bft)
01.07.2018 19:16 20,2 °C 55 % 1011,9 hPa 0,0 mm 5,0 km/h (1 Bft) NO 52 ° 0 min 0,000 mm 0,9 UV-I 223 W/m² 10,9 °C 20,2 °C 8,0 km/h (2 Bft)
01.07.2018 19:17 20,2 °C 56 % 1012,0 hPa 0,0 mm 6,4 km/h (2 Bft) NO 53 ° 0 min 0,000 mm 0,9 UV-I 220 W/m² 11,1 °C 20,2 °C 8,0 km/h (2 Bft)
01.07.2018 19:18 20,2 °C 55 % 1011,9 hPa 0,0 mm 5,1 km/h (1 Bft) NO 54 ° 0 min 0,000 mm 0,9 UV-I 218 W/m² 10,9 °C 20,2 °C 9,7 km/h (2 Bft)
01.07.2018 19:19 20,2 °C 57 % 1012,0 hPa 0,0 mm 4,9 km/h (1 Bft) O-NO 78 ° 0 min 0,000 mm 0,9 UV-I 214 W/m² 11,4 °C 20,2 °C 6,4 km/h (2 Bft)
01.07.2018 19:20 20,2 °C 55 % 1012,0 hPa 0,0 mm 10,4 km/h (2 Bft) NO 39 ° 0 min 0,000 mm 0,9 UV-I 211 W/m² 10,9 °C 20,2 °C 14,5 km/h (3 Bft)
01.07.2018 19:21 20,2 °C 55 % 1011,9 hPa 0,0 mm 8,1 km/h (2 Bft) NO 37 ° 0 min 0,000 mm 0,9 UV-I 209 W/m² 10,9 °C 20,2 °C 14,5 km/h (3 Bft)
01.07.2018 19:22 20,3 °C 55 % 1012,0 hPa 0,0 mm 8,1 km/h (2 Bft) NO 37 ° 0 min 0,000 mm 0,9 UV-I 206 W/m² 11,0 °C 20,3 °C 12,9 km/h (3 Bft)
01.07.2018 19:23 20,2 °C 55 % 1012,0 hPa 0,0 mm 9,1 km/h (2 Bft) N-NO 27 ° 0 min 0,000 mm 0,9 UV-I 204 W/m² 10,9 °C 20,2 °C 14,5 km/h (3 Bft)
01.07.2018 19:24 20,2 °C 56 % 1012,0 hPa 0,0 mm 4,8 km/h (1 Bft) NO 50 ° 0 min 0,000 mm 0,8 UV-I 202 W/m² 11,1 °C 20,2 °C 9,7 km/h (2 Bft)
01.07.2018 19:25 20,2 °C 55 % 1012,0 hPa 0,0 mm 4,5 km/h (1 Bft) NO 40 ° 0 min 0,000 mm 0,8 UV-I 200 W/m² 10,9 °C 20,2 °C 8,0 km/h (2 Bft)
01.07.2018 19:26 20,2 °C 55 % 1012,0 hPa 0,0 mm 6,9 km/h (2 Bft) NO 34 ° 0 min 0,000 mm 0,8 UV-I 195 W/m² 10,9 °C 20,2 °C 11,3 km/h (2 Bft)
01.07.2018 19:27 20,2 °C 55 % 1012,0 hPa 0,0 mm 7,4 km/h (2 Bft) O 87 ° 0 min 0,000 mm 0,8 UV-I 193 W/m² 10,9 °C 20,2 °C 11,3 km/h (2 Bft)
01.07.2018 19:28 20,2 °C 55 % 1012,0 hPa 0,0 mm 7,3 km/h (2 Bft) O-NO 57 ° 0 min 0,000 mm 0,8 UV-I 190 W/m² 10,9 °C 20,2 °C 9,7 km/h (2 Bft)
01.07.2018 19:29 20,2 °C 56 % 1012,1 hPa 0,0 mm 5,2 km/h (1 Bft) NO 55 ° 0 min 0,000 mm 0,8 UV-I 188 W/m² 11,1 °C 20,2 °C 9,7 km/h (2 Bft)
01.07.2018 19:30 20,2 °C 56 % 1012,1 hPa 0,0 mm 3,0 km/h (1 Bft) NO 34 ° 0 min 0,000 mm 0,8 UV-I 186 W/m² 11,1 °C 20,2 °C 6,4 km/h (2 Bft)
01.07.2018 19:31 20,2 °C 56 % 1012,1 hPa 0,0 mm 4,2 km/h (1 Bft) O-NO 65 ° 0 min 0,000 mm 0,8 UV-I 183 W/m² 11,1 °C 20,2 °C 6,4 km/h (2 Bft)
01.07.2018 19:32 20,2 °C 56 % 1012,1 hPa 0,0 mm 5,2 km/h (1 Bft) O-NO 70 ° 0 min 0,000 mm 0,7 UV-I 178 W/m² 11,1 °C 20,2 °C 8,0 km/h (2 Bft)
01.07.2018 19:33 20,2 °C 56 % 1012,1 hPa 0,0 mm 8,4 km/h (2 Bft) O-SO 108 ° 0 min 0,000 mm 0,7 UV-I 176 W/m² 11,1 °C 20,2 °C 12,9 km/h (3 Bft)
01.07.2018 19:34 20,1 °C 56 % 1012,1 hPa 0,0 mm 5,8 km/h (2 Bft) O-NO 73 ° 0 min 0,000 mm 0,7 UV-I 174 W/m² 11,0 °C 20,1 °C 12,9 km/h (3 Bft)
01.07.2018 19:35 20,1 °C 55 % 1012,1 hPa 0,0 mm 2,5 km/h (1 Bft) O-NO 70 ° 0 min 0,000 mm 0,7 UV-I 172 W/m² 10,8 °C 20,1 °C 4,8 km/h (1 Bft)
01.07.2018 19:36 20,1 °C 56 % 1012,1 hPa 0,0 mm 5,4 km/h (1 Bft) NO 39 ° 0 min 0,000 mm 0,7 UV-I 171 W/m² 11,0 °C 20,1 °C 12,9 km/h (3 Bft)
01.07.2018 19:37 20,0 °C 56 % 1012,1 hPa 0,0 mm 4,3 km/h (1 Bft) O-NO 62 ° 0 min 0,000 mm 0,7 UV-I 169 W/m² 11,0 °C 20,0 °C 8,0 km/h (2 Bft)
01.07.2018 19:38 20,0 °C 55 % 1012,1 hPa 0,0 mm 4,8 km/h (1 Bft) NO 49 ° 0 min 0,000 mm 0,7 UV-I 163 W/m² 10,7 °C 20,0 °C 9,7 km/h (2 Bft)
01.07.2018 19:39 20,0 °C 55 % 1012,1 hPa 0,0 mm 5,5 km/h (1 Bft) NO 49 ° 0 min 0,000 mm 0,7 UV-I 160 W/m² 10,7 °C 20,0 °C 8,0 km/h (2 Bft)
01.07.2018 19:40 20,0 °C 56 % 1012,1 hPa 0,0 mm 4,5 km/h (1 Bft) O-NO 61 ° 0 min 0,000 mm 0,7 UV-I 158 W/m² 11,0 °C 20,0 °C 6,4 km/h (2 Bft)
01.07.2018 19:41 20,0 °C 56 % 1012,1 hPa 0,0 mm 3,1 km/h (1 Bft) O-NO 67 ° 0 min 0,000 mm 0,6 UV-I 155 W/m² 11,0 °C 20,0 °C 4,8 km/h (1 Bft)
01.07.2018 19:42 19,9 °C 58 % 1012,1 hPa 0,0 mm 2,1 km/h (1 Bft) O-NO 68 ° 0 min 0,000 mm 0,6 UV-I 153 W/m² 11,4 °C 19,9 °C 3,2 km/h (1 Bft)
01.07.2018 19:43 19,9 °C 57 % 1012,2 hPa 0,0 mm 5,4 km/h (1 Bft) O-NO 57 ° 0 min 0,000 mm 0,6 UV-I 149 W/m² 11,1 °C 19,9 °C 8,0 km/h (2 Bft)
01.07.2018 19:44 19,9 °C 57 % 1012,2 hPa 0,0 mm 7,0 km/h (2 Bft) O-NO 77 ° 0 min 0,000 mm 0,6 UV-I 146 W/m² 11,1 °C 19,9 °C 16,1 km/h (3 Bft)
01.07.2018 19:45 19,8 °C 55 % 1012,2 hPa 0,0 mm 5,4 km/h (1 Bft) O-NO 74 ° 0 min 0,000 mm 0,6 UV-I 144 W/m² 10,5 °C 19,8 °C 8,0 km/h (2 Bft)
01.07.2018 19:46 19,8 °C 56 % 1012,2 hPa 0,0 mm 5,7 km/h (1 Bft) O-NO 74 ° 0 min 0,000 mm 0,6 UV-I 141 W/m² 10,8 °C 19,8 °C 11,3 km/h (2 Bft)
01.07.2018 19:47 19,8 °C 57 % 1012,2 hPa 0,0 mm 6,8 km/h (2 Bft) O-NO 59 ° 0 min 0,000 mm 0,6 UV-I 139 W/m² 11,0 °C 19,8 °C 9,7 km/h (2 Bft)
01.07.2018 19:48 19,8 °C 56 % 1012,2 hPa 0,0 mm 5,2 km/h (1 Bft) NO 40 ° 0 min 0,000 mm 0,6 UV-I 135 W/m² 10,8 °C 19,8 °C 8,0 km/h (2 Bft)
01.07.2018 19:49 19,8 °C 56 % 1012,3 hPa 0,0 mm 6,0 km/h (2 Bft) O-NO 63 ° 0 min 0,000 mm 0,6 UV-I 134 W/m² 10,8 °C 19,8 °C 12,9 km/h (3 Bft)
01.07.2018 19:50 19,8 °C 55 % 1012,2 hPa 0,0 mm 4,4 km/h (1 Bft) O 83 ° 0 min 0,000 mm 0,5 UV-I 128 W/m² 10,5 °C 19,8 °C 9,7 km/h (2 Bft)
01.07.2018 19:51 19,8 °C 56 % 1012,1 hPa 0,0 mm 4,1 km/h (1 Bft) NO 51 ° 0 min 0,000 mm 0,5 UV-I 125 W/m² 10,8 °C 19,8 °C 6,4 km/h (2 Bft)
01.07.2018 19:52 19,7 °C 56 % 1012,2 hPa 0,0 mm 4,2 km/h (1 Bft) NO 52 ° 0 min 0,000 mm 0,5 UV-I 123 W/m² 10,7 °C 19,7 °C 8,0 km/h (2 Bft)
01.07.2018 19:53 19,7 °C 57 % 1012,2 hPa 0,0 mm 4,3 km/h (1 Bft) NO 34 ° 0 min 0,000 mm 0,5 UV-I 121 W/m² 10,9 °C 19,7 °C 6,4 km/h (2 Bft)
01.07.2018 19:54 19,7 °C 57 % 1012,2 hPa 0,0 mm 6,7 km/h (2 Bft) O 85 ° 0 min 0,000 mm 0,5 UV-I 120 W/m² 10,9 °C 19,7 °C 11,3 km/h (2 Bft)
01.07.2018 19:55 19,7 °C 56 % 1012,3 hPa 0,0 mm 5,0 km/h (1 Bft) NO 51 ° 0 min 0,000 mm 0,5 UV-I 118 W/m² 10,7 °C 19,7 °C 8,0 km/h (2 Bft)
01.07.2018 19:56 19,7 °C 56 % 1012,3 hPa 0,0 mm 2,6 km/h (1 Bft) NO 51 ° 0 min 0,000 mm 0,5 UV-I 114 W/m² 10,7 °C 19,7 °C 4,8 km/h (1 Bft)
01.07.2018 19:57 19,7 °C 56 % 1012,2 hPa 0,0 mm 5,8 km/h (2 Bft) NO 47 ° 0 min 0,000 mm 0,5 UV-I 113 W/m² 10,7 °C 19,7 °C 8,0 km/h (2 Bft)
01.07.2018 19:58 19,7 °C 57 % 1012,2 hPa 0,0 mm 4,6 km/h (1 Bft) O 81 ° 0 min 0,000 mm 0,5 UV-I 111 W/m² 10,9 °C 19,7 °C 8,0 km/h (2 Bft)
01.07.2018 19:59 19,6 °C 57 % 1012,3 hPa 0,0 mm 1,1 km/h (1 Bft) O 81 ° 0 min 0,000 mm 0,5 UV-I 107 W/m² 10,8 °C 19,6 °C 3,2 km/h (1 Bft)
01.07.2018 20:00 19,6 °C 58 % 1012,3 hPa 0,0 mm 3,1 km/h (1 Bft) O-NO 59 ° 0 min 0,000 mm 0,5 UV-I 105 W/m² 11,1 °C 19,6 °C 6,4 km/h (2 Bft)
01.07.2018 20:01 19,6 °C 58 % 1012,2 hPa 0,0 mm 1,9 km/h (1 Bft) O-NO 71 ° 0 min 0,153 mm 0,0 UV-I 102 W/m² 11,1 °C 19,6 °C 3,2 km/h (1 Bft)
01.07.2018 20:02 19,6 °C 58 % 1012,3 hPa 0,0 mm 0,7 km/h (0 Bft) O-NO 71 ° 0 min 0,000 mm 0,0 UV-I 100 W/m² 11,1 °C 19,6 °C 3,2 km/h (1 Bft)
01.07.2018 20:03 19,5 °C 59 % 1012,3 hPa 0,0 mm 1,8 km/h (1 Bft) O-NO 71 ° 0 min 0,000 mm 0,0 UV-I 97 W/m² 11,3 °C 19,5 °C 4,8 km/h (1 Bft)
01.07.2018 20:04 19,4 °C 58 % 1012,3 hPa 0,0 mm 1,2 km/h (1 Bft) O 88 ° 0 min 0,000 mm 0,0 UV-I 95 W/m² 10,9 °C 19,4 °C 3,2 km/h (1 Bft)
01.07.2018 20:05 19,4 °C 58 % 1012,3 hPa 0,0 mm 2,3 km/h (1 Bft) O-NO 60 ° 0 min 0,000 mm 0,0 UV-I 93 W/m² 10,9 °C 19,4 °C 6,4 km/h (2 Bft)
01.07.2018 20:06 19,4 °C 58 % 1012,3 hPa 0,0 mm 2,8 km/h (1 Bft) SO 139 ° 0 min 0,000 mm 0,0 UV-I 91 W/m² 10,9 °C 19,4 °C 6,4 km/h (2 Bft)
01.07.2018 20:07 19,3 °C 57 % 1012,3 hPa 0,0 mm 3,3 km/h (1 Bft) NO 56 ° 0 min 0,000 mm 0,0 UV-I 88 W/m² 10,6 °C 19,3 °C 6,4 km/h (2 Bft)
01.07.2018 20:08 19,3 °C 58 % 1012,3 hPa 0,0 mm 6,5 km/h (2 Bft) N-NO 17 ° 0 min 0,000 mm 0,0 UV-I 86 W/m² 10,8 °C 19,3 °C 9,7 km/h (2 Bft)
01.07.2018 20:09 19,3 °C 57 % 1012,3 hPa 0,0 mm 5,9 km/h (2 Bft) NO 43 ° 0 min 0,000 mm 0,0 UV-I 84 W/m² 10,6 °C 19,3 °C 11,3 km/h (2 Bft)
01.07.2018 20:10 19,3 °C 58 % 1012,2 hPa 0,0 mm 4,0 km/h (1 Bft) O-SO 113 ° 0 min 0,000 mm 0,0 UV-I 83 W/m² 10,8 °C 19,3 °C 8,0 km/h (2 Bft)
01.07.2018 20:11 19,3 °C 57 % 1012,3 hPa 0,0 mm 6,7 km/h (2 Bft) NO 53 ° 0 min 0,000 mm 0,0 UV-I 79 W/m² 10,6 °C 19,3 °C 9,7 km/h (2 Bft)
01.07.2018 20:12 19,3 °C 57 % 1012,2 hPa 0,0 mm 5,8 km/h (2 Bft) NO 56 ° 0 min 0,000 mm 0,0 UV-I 77 W/m² 10,6 °C 19,3 °C 9,7 km/h (2 Bft)
01.07.2018 20:13 19,2 °C 57 % 1012,3 hPa 0,0 mm 4,9 km/h (1 Bft) O-NO 67 ° 0 min 0,000 mm 0,0 UV-I 74 W/m² 10,5 °C 19,2 °C 8,0 km/h (2 Bft)
01.07.2018 20:14 19,2 °C 57 % 1012,3 hPa 0,0 mm 2,7 km/h (1 Bft) O-NO 66 ° 0 min 0,000 mm 0,0 UV-I 72 W/m² 10,5 °C 19,2 °C 3,2 km/h (1 Bft)
01.07.2018 20:15 19,2 °C 57 % 1012,3 hPa 0,0 mm 4,0 km/h (1 Bft) NO 50 ° 0 min 0,000 mm 0,0 UV-I 70 W/m² 10,5 °C 19,2 °C 6,4 km/h (2 Bft)
01.07.2018 20:16 19,2 °C 60 % 1012,3 hPa 0,0 mm 4,9 km/h (1 Bft) O-NO 70 ° 0 min 0,000 mm 0,0 UV-I 69 W/m² 11,2 °C 19,2 °C 8,0 km/h (2 Bft)
01.07.2018 20:17 19,1 °C 57 % 1012,3 hPa 0,0 mm 6,2 km/h (2 Bft) O 91 ° 0 min 0,000 mm 0,0 UV-I 67 W/m² 10,4 °C 19,1 °C 9,7 km/h (2 Bft)
01.07.2018 20:18 19,0 °C 57 % 1012,3 hPa 0,0 mm 1,8 km/h (1 Bft) O-NO 67 ° 0 min 0,000 mm 0,0 UV-I 65 W/m² 10,3 °C 19,0 °C 6,4 km/h (2 Bft)
01.07.2018 20:19 19,0 °C 57 % 1012,3 hPa 0,0 mm 4,3 km/h (1 Bft) O-NO 58 ° 0 min 0,000 mm 0,0 UV-I 62 W/m² 10,3 °C 19,0 °C 8,0 km/h (2 Bft)
01.07.2018 20:20 18,9 °C 62 % 1012,3 hPa 0,0 mm 2,4 km/h (1 Bft) NO 44 ° 0 min 0,000 mm 0,0 UV-I 60 W/m² 11,5 °C 18,9 °C 9,7 km/h (2 Bft)
01.07.2018 20:21 18,8 °C 60 % 1012,3 hPa 0,0 mm 5,5 km/h (1 Bft) O-NO 73 ° 0 min 0,000 mm 0,0 UV-I 58 W/m² 10,9 °C 18,8 °C 9,7 km/h (2 Bft)
01.07.2018 20:22 18,7 °C 60 % 1012,3 hPa 0,0 mm 4,0 km/h (1 Bft) O-NO 72 ° 0 min 0,000 mm 0,0 UV-I 56 W/m² 10,8 °C 18,7 °C 8,0 km/h (2 Bft)
01.07.2018 20:23 18,7 °C 60 % 1012,4 hPa 0,0 mm 5,0 km/h (1 Bft) NO 52 ° 0 min 0,000 mm 0,0 UV-I 54 W/m² 10,8 °C 18,7 °C 8,0 km/h (2 Bft)
01.07.2018 20:24 18,7 °C 59 % 1012,3 hPa 0,0 mm 3,9 km/h (1 Bft) O-SO 108 ° 0 min 0,000 mm 0,0 UV-I 53 W/m² 10,5 °C 18,7 °C 8,0 km/h (2 Bft)
01.07.2018 20:25 18,6 °C 60 % 1012,4 hPa 0,0 mm 2,0 km/h (1 Bft) O-SO 107 ° 0 min 0,000 mm 0,0 UV-I 49 W/m² 10,7 °C 18,6 °C 4,8 km/h (1 Bft)
01.07.2018 20:26 18,6 °C 59 % 1012,4 hPa 0,0 mm 1,7 km/h (1 Bft) NO 38 ° 0 min 0,000 mm 0,0 UV-I 49 W/m² 10,4 °C 18,6 °C 3,2 km/h (1 Bft)
01.07.2018 20:27 18,6 °C 58 % 1012,4 hPa 0,0 mm 2,2 km/h (1 Bft) O-NO 71 ° 0 min 0,000 mm 0,0 UV-I 47 W/m² 10,2 °C 18,6 °C 4,8 km/h (1 Bft)
01.07.2018 20:28 18,6 °C 57 % 1012,4 hPa 0,0 mm 3,9 km/h (1 Bft) O-NO 72 ° 0 min 0,000 mm 0,0 UV-I 46 W/m² 9,9 °C 18,6 °C 8,0 km/h (2 Bft)
01.07.2018 20:29 18,6 °C 58 % 1012,4 hPa 0,0 mm 6,8 km/h (2 Bft) NO 39 ° 0 min 0,000 mm 0,0 UV-I 44 W/m² 10,2 °C 18,6 °C 9,7 km/h (2 Bft)
01.07.2018 20:30 18,5 °C 59 % 1012,4 hPa 0,0 mm 1,8 km/h (1 Bft) NO 36 ° 0 min 0,000 mm 0,0 UV-I 42 W/m² 10,3 °C 18,5 °C 4,8 km/h (1 Bft)
01.07.2018 20:31 18,5 °C 59 % 1012,4 hPa 0,0 mm 0,7 km/h (0 Bft) NO 36 ° 0 min 0,000 mm 0,0 UV-I 42 W/m² 10,3 °C 18,5 °C 1,6 km/h (1 Bft)
01.07.2018 20:32 18,4 °C 59 % 1012,4 hPa 0,0 mm 0,8 km/h (0 Bft) NO 44 ° 0 min 0,000 mm 0,0 UV-I 39 W/m² 10,2 °C 18,4 °C 3,2 km/h (1 Bft)
01.07.2018 20:33 18,3 °C 59 % 1012,4 hPa 0,0 mm 1,5 km/h (1 Bft) O-NO 58 ° 0 min 0,000 mm 0,0 UV-I 37 W/m² 10,1 °C 18,3 °C 3,2 km/h (1 Bft)
01.07.2018 20:34 18,3 °C 59 % 1012,4 hPa 0,0 mm 3,5 km/h (1 Bft) NO 54 ° 0 min 0,000 mm 0,0 UV-I 35 W/m² 10,1 °C 18,3 °C 8,0 km/h (2 Bft)
01.07.2018 20:35 18,2 °C 59 % 1012,4 hPa 0,0 mm 1,6 km/h (1 Bft) O 84 ° 0 min 0,000 mm 0,0 UV-I 33 W/m² 10,1 °C 18,2 °C 4,8 km/h (1 Bft)
01.07.2018 20:36 18,2 °C 58 % 1012,4 hPa 0,0 mm 2,3 km/h (1 Bft) O 81 ° 0 min 0,000 mm 0,0 UV-I 28 W/m² 9,8 °C 18,2 °C 4,8 km/h (1 Bft)
01.07.2018 20:37 18,2 °C 59 % 1012,3 hPa 0,0 mm 3,5 km/h (1 Bft) O-SO 103 ° 0 min 0,000 mm 0,0 UV-I 25 W/m² 10,1 °C 18,2 °C 6,4 km/h (2 Bft)
01.07.2018 20:38 18,1 °C 59 % 1012,4 hPa 0,0 mm 2,3 km/h (1 Bft) O-SO 104 ° 0 min 0,000 mm 0,0 UV-I 25 W/m² 10,0 °C 18,1 °C 4,8 km/h (1 Bft)
01.07.2018 20:39 18,1 °C 59 % 1012,4 hPa 0,0 mm 2,6 km/h (1 Bft) O-NO 60 ° 0 min 0,000 mm 0,0 UV-I 23 W/m² 10,0 °C 18,1 °C 6,4 km/h (2 Bft)
01.07.2018 20:40 18,1 °C 59 % 1012,4 hPa 0,0 mm 2,2 km/h (1 Bft) O 87 ° 0 min 0,000 mm 0,0 UV-I 21 W/m² 10,0 °C 18,1 °C 4,8 km/h (1 Bft)
01.07.2018 20:41 18,0 °C 59 % 1012,4 hPa 0,0 mm 2,5 km/h (1 Bft) O 88 ° 0 min 0,000 mm 0,0 UV-I 21 W/m² 9,9 °C 18,0 °C 6,4 km/h (2 Bft)
01.07.2018 20:42 17,9 °C 60 % 1012,5 hPa 0,0 mm 1,4 km/h (1 Bft) O-NO 71 ° 0 min 0,000 mm 0,0 UV-I 21 W/m² 10,0 °C 17,9 °C 3,2 km/h (1 Bft)
01.07.2018 20:43 17,9 °C 59 % 1012,5 hPa 0,0 mm 1,7 km/h (1 Bft) O-NO 75 ° 0 min 0,000 mm 0,0 UV-I 19 W/m² 9,8 °C 17,9 °C 6,4 km/h (2 Bft)
01.07.2018 20:44 17,8 °C 60 % 1012,4 hPa 0,0 mm 2,1 km/h (1 Bft) O-NO 61 ° 0 min 0,000 mm 0,0 UV-I 19 W/m² 9,9 °C 17,8 °C 6,4 km/h (2 Bft)
01.07.2018 20:45 17,8 °C 59 % 1012,4 hPa 0,0 mm 0,0 km/h (0 Bft) O-NO 61 ° 0 min 0,000 mm 0,0 UV-I 19 W/m² 9,7 °C 17,8 °C 0,0 km/h (0 Bft)
01.07.2018 20:46 17,7 °C 61 % 1012,4 hPa 0,0 mm 0,0 km/h (0 Bft) O-NO 61 ° 0 min 0,000 mm 0,0 UV-I 19 W/m² 10,1 °C 17,7 °C 0,0 km/h (0 Bft)
01.07.2018 20:47 17,6 °C 61 % 1012,4 hPa 0,0 mm 0,0 km/h (0 Bft) O-NO 61 ° 0 min 0,000 mm 0,0 UV-I 18 W/m² 10,0 °C 17,6 °C 0,0 km/h (0 Bft)
01.07.2018 20:48 17,5 °C 61 % 1012,4 hPa 0,0 mm 0,0 km/h (0 Bft) O-NO 61 ° 0 min 0,000 mm 0,0 UV-I 18 W/m² 9,9 °C 17,5 °C 0,0 km/h (0 Bft)
01.07.2018 20:49 17,5 °C 60 % 1012,4 hPa 0,0 mm 0,0 km/h (0 Bft) O-NO 61 ° 0 min 0,000 mm 0,0 UV-I 18 W/m² 9,6 °C 17,5 °C 0,0 km/h (0 Bft)
01.07.2018 20:50 17,4 °C 62 % 1012,4 hPa 0,0 mm 0,0 km/h (0 Bft) O-NO 61 ° 0 min 0,000 mm 0,0 UV-I 18 W/m² 10,0 °C 17,4 °C 0,0 km/h (0 Bft)
01.07.2018 20:51 17,4 °C 61 % 1012,4 hPa 0,0 mm 3,1 km/h (1 Bft) O-NO 61 ° 0 min 0,000 mm 0,0 UV-I 16 W/m² 9,8 °C 17,4 °C 4,8 km/h (1 Bft)
01.07.2018 20:52 17,3 °C 63 % 1012,4 hPa 0,0 mm 0,3 km/h (0 Bft) O-NO 61 ° 0 min 0,000 mm 0,0 UV-I 16 W/m² 10,2 °C 17,3 °C 1,6 km/h (1 Bft)
01.07.2018 20:53 17,2 °C 64 % 1012,3 hPa 0,0 mm 2,2 km/h (1 Bft) O-NO 74 ° 0 min 0,000 mm 0,0 UV-I 16 W/m² 10,3 °C 17,2 °C 4,8 km/h (1 Bft)
01.07.2018 20:54 17,0 °C 64 % 1012,4 hPa 0,0 mm 1,2 km/h (1 Bft) O-NO 74 ° 0 min 0,000 mm 0,0 UV-I 14 W/m² 10,1 °C 17,0 °C 3,2 km/h (1 Bft)
01.07.2018 20:55 16,9 °C 64 % 1012,4 hPa 0,0 mm 0,0 km/h (0 Bft) O-NO 74 ° 0 min 0,000 mm 0,0 UV-I 14 W/m² 10,0 °C 16,9 °C 0,0 km/h (0 Bft)
01.07.2018 20:56 16,8 °C 63 % 1012,4 hPa 0,0 mm 1,2 km/h (1 Bft) O-NO 74 ° 0 min 0,000 mm 0,0 UV-I 14 W/m² 9,7 °C 16,8 °C 3,2 km/h (1 Bft)
01.07.2018 20:57 16,8 °C 64 % 1012,4 hPa 0,0 mm 0,3 km/h (0 Bft) O-NO 74 ° 0 min 0,000 mm 0,0 UV-I 14 W/m² 10,0 °C 16,8 °C 1,6 km/h (1 Bft)
01.07.2018 20:58 16,8 °C 63 % 1012,4 hPa 0,0 mm 2,1 km/h (1 Bft) O-SO 104 ° 0 min 0,000 mm 0,0 UV-I 14 W/m² 9,7 °C 16,8 °C 4,8 km/h (1 Bft)
01.07.2018 20:59 16,7 °C 65 % 1012,5 hPa 0,0 mm 2,2 km/h (1 Bft) SO 131 ° 0 min 0,000 mm 0,0 UV-I 12 W/m² 10,1 °C 16,7 °C 6,4 km/h (2 Bft)
01.07.2018 21:00 16,7 °C 63 % 1012,5 hPa 0,0 mm 0,0 km/h (0 Bft) SO 131 ° 0 min 0,000 mm 0,0 UV-I 12 W/m² 9,6 °C 16,7 °C 0,0 km/h (0 Bft)
01.07.2018 21:01 16,7 °C 64 % 1012,5 hPa 0,0 mm 1,0 km/h (0 Bft) O-NO 61 ° 0 min 0,051 mm 0,0 UV-I 12 W/m² 9,9 °C 16,7 °C 6,4 km/h (2 Bft)
01.07.2018 21:02 16,7 °C 63 % 1012,5 hPa 0,0 mm 6,2 km/h (2 Bft) O-SO 104 ° 0 min 0,000 mm 0,0 UV-I 11 W/m² 9,6 °C 16,7 °C 9,7 km/h (2 Bft)
01.07.2018 21:03 16,7 °C 63 % 1012,5 hPa 0,0 mm 1,5 km/h (1 Bft) O 86 ° 0 min 0,000 mm 0,0 UV-I 11 W/m² 9,6 °C 16,7 °C 4,8 km/h (1 Bft)
01.07.2018 21:04 16,7 °C 62 % 1012,5 hPa 0,0 mm 0,1 km/h (0 Bft) O 86 ° 0 min 0,000 mm 0,0 UV-I 11 W/m² 9,4 °C 16,7 °C 1,6 km/h (1 Bft)
01.07.2018 21:05 16,8 °C 63 % 1012,5 hPa 0,0 mm 0,4 km/h (0 Bft) O 85 ° 0 min 0,000 mm 0,0 UV-I 11 W/m² 9,7 °C 16,8 °C 1,6 km/h (1 Bft)
01.07.2018 21:06 16,7 °C 63 % 1012,5 hPa 0,0 mm 0,0 km/h (0 Bft) O 85 ° 0 min 0,000 mm 0,0 UV-I 9 W/m² 9,6 °C 16,7 °C 0,0 km/h (0 Bft)
01.07.2018 21:07 16,7 °C 63 % 1012,5 hPa 0,0 mm 0,2 km/h (0 Bft) O 85 ° 0 min 0,000 mm 0,0 UV-I 7 W/m² 9,6 °C 16,7 °C 1,6 km/h (1 Bft)
01.07.2018 21:08 16,7 °C 62 % 1012,5 hPa 0,0 mm 0,3 km/h (0 Bft) O 85 ° 0 min 0,000 mm 0,0 UV-I 7 W/m² 9,4 °C 16,7 °C 3,2 km/h (1 Bft)
01.07.2018 21:09 16,6 °C 64 % 1012,5 hPa 0,0 mm 1,4 km/h (1 Bft) O 95 ° 0 min 0,000 mm 0,0 UV-I 7 W/m² 9,8 °C 16,6 °C 3,2 km/h (1 Bft)
01.07.2018 21:10 16,6 °C 63 % 1012,4 hPa 0,0 mm 2,7 km/h (1 Bft) O 87 ° 0 min 0,000 mm 0,0 UV-I 7 W/m² 9,5 °C 16,6 °C 6,4 km/h (2 Bft)
01.07.2018 21:11 16,5 °C 63 % 1012,5 hPa 0,0 mm 0,5 km/h (0 Bft) O 87 ° 0 min 0,000 mm 0,0 UV-I 7 W/m² 9,4 °C 16,5 °C 1,6 km/h (1 Bft)
01.07.2018 21:12 16,4 °C 63 % 1012,5 hPa 0,0 mm 1,8 km/h (1 Bft) O 86 ° 0 min 0,000 mm 0,0 UV-I 5 W/m² 9,3 °C 16,4 °C 4,8 km/h (1 Bft)
01.07.2018 21:13 16,4 °C 63 % 1012,5 hPa 0,0 mm 0,3 km/h (0 Bft) O 86 ° 0 min 0,000 mm 0,0 UV-I 5 W/m² 9,3 °C 16,4 °C 1,6 km/h (1 Bft)
01.07.2018 21:14 16,3 °C 63 % 1012,5 hPa 0,0 mm 0,0 km/h (0 Bft) O 87 ° 0 min 0,000 mm 0,0 UV-I 5 W/m² 9,2 °C 16,3 °C 0,0 km/h (0 Bft)
01.07.2018 21:15 16,4 °C 66 % 1012,5 hPa 0,0 mm 0,1 km/h (0 Bft) O 87 ° 0 min 0,000 mm 0,0 UV-I 5 W/m² 10,0 °C 16,4 °C 1,6 km/h (1 Bft)
01.07.2018 21:16 16,3 °C 66 % 1012,5 hPa 0,0 mm 0,0 km/h (0 Bft) O 87 ° 0 min 0,000 mm 0,0 UV-I 5 W/m² 9,9 °C 16,3 °C 0,0 km/h (0 Bft)
01.07.2018 21:17 16,2 °C 63 % 1012,5 hPa 0,0 mm 0,3 km/h (0 Bft) O 87 ° 0 min 0,000 mm 0,0 UV-I 5 W/m² 9,1 °C 16,2 °C 1,6 km/h (1 Bft)
01.07.2018 21:18 16,2 °C 63 % 1012,5 hPa 0,0 mm 0,0 km/h (0 Bft) O 87 ° 0 min 0,000 mm 0,0 UV-I 0 W/m² 9,1 °C 16,2 °C 0,0 km/h (0 Bft)
01.07.2018 21:19 16,1 °C 66 % 1012,6 hPa 0,0 mm 0,4 km/h (0 Bft) O 87 ° 0 min 0,000 mm 0,0 UV-I 0 W/m² 9,7 °C 16,1 °C 1,6 km/h (1 Bft)
01.07.2018 21:20 16,0 °C 66 % 1012,5 hPa 0,0 mm 0,0 km/h (0 Bft) O 87 ° 0 min 0,000 mm 0,0 UV-I 0 W/m² 9,7 °C 16,0 °C 0,0 km/h (0 Bft)
01.07.2018 21:21 15,9 °C 64 % 1012,5 hPa 0,0 mm 0,0 km/h (0 Bft) O 87 ° 0 min 0,000 mm 0,0 UV-I 0 W/m² 9,1 °C 15,9 °C 0,0 km/h (0 Bft)
01.07.2018 21:22 15,8 °C 66 % 1012,5 hPa 0,0 mm 0,3 km/h (0 Bft) O 87 ° 0 min 0,000 mm 0,0 UV-I 0 W/m² 9,5 °C 15,8 °C 1,6 km/h (1 Bft)
01.07.2018 21:23 15,7 °C 66 % 1012,6 hPa 0,0 mm 1,3 km/h (1 Bft) O 90 ° 0 min 0,000 mm 0,0 UV-I 0 W/m² 9,4 °C 15,7 °C 3,2 km/h (1 Bft)
01.07.2018 21:24 15,4 °C 67 % 1012,6 hPa 0,0 mm 0,9 km/h (0 Bft) O 90 ° 0 min 0,000 mm 0,0 UV-I 0 W/m² 9,3 °C 15,4 °C 1,6 km/h (1 Bft)
01.07.2018 21:25 15,4 °C 67 % 1012,6 hPa 0,0 mm 0,3 km/h (0 Bft) O 90 ° 0 min 0,000 mm 0,0 UV-I 0 W/m² 9,3 °C 15,4 °C 1,6 km/h (1 Bft)
01.07.2018 21:26 15,4 °C 66 % 1012,6 hPa 0,0 mm 0,3 km/h (0 Bft) O 90 ° 0 min 0,000 mm 0,0 UV-I 0 W/m² 9,1 °C 15,4 °C 1,6 km/h (1 Bft)
01.07.2018 21:27 15,4 °C 65 % 1012,6 hPa 0,0 mm 0,0 km/h (0 Bft) O 90 ° 0 min 0,000 mm 0,0 UV-I 0 W/m² 8,9 °C 15,4 °C 0,0 km/h (0 Bft)
01.07.2018 21:28 15,6 °C 66 % 1012,6 hPa 0,0 mm 0,4 km/h (0 Bft) O 90 ° 0 min 0,000 mm 0,0 UV-I 0 W/m² 9,3 °C 15,6 °C 3,2 km/h (1 Bft)
01.07.2018 21:29 15,6 °C 66 % 1012,7 hPa 0,0 mm 3,7 km/h (1 Bft) O 98 ° 0 min 0,000 mm 0,0 UV-I 0 W/m² 9,3 °C 15,6 °C 6,4 km/h (2 Bft)
01.07.2018 21:30 15,6 °C 64 % 1012,6 hPa 0,0 mm 0,7 km/h (0 Bft) O-SO 105 ° 0 min 0,000 mm 0,0 UV-I 0 W/m² 8,8 °C 15,6 °C 1,6 km/h (1 Bft)
01.07.2018 21:31 15,7 °C 65 % 1012,7 hPa 0,0 mm 1,3 km/h (1 Bft) O-SO 118 ° 0 min 0,000 mm 0,0 UV-I 0 W/m² 9,1 °C 15,7 °C 4,8 km/h (1 Bft)
01.07.2018 21:32 15,7 °C 63 % 1012,6 hPa 0,0 mm 0,7 km/h (0 Bft) O-SO 118 ° 0 min 0,000 mm 0,0 UV-I 0 W/m² 8,7 °C 15,7 °C 3,2 km/h (1 Bft)
01.07.2018 21:33 15,7 °C 64 % 1012,6 hPa 0,0 mm 0,2 km/h (0 Bft) O-SO 118 ° 0 min 0,000 mm 0,0 UV-I 0 W/m² 8,9 °C 15,7 °C 1,6 km/h (1 Bft)
01.07.2018 21:34 15,7 °C 64 % 1012,7 hPa 0,0 mm 1,8 km/h (1 Bft) O-SO 118 ° 0 min 0,000 mm 0,0 UV-I 0 W/m² 8,9 °C 15,7 °C 3,2 km/h (1 Bft)
01.07.2018 21:35 15,6 °C 64 % 1012,7 hPa 0,0 mm 1,5 km/h (1 Bft) SO 145 ° 0 min 0,000 mm 0,0 UV-I 0 W/m² 8,8 °C 15,6 °C 4,8 km/h (1 Bft)
01.07.2018 21:36 15,6 °C 64 % 1012,7 hPa 0,0 mm 2,6 km/h (1 Bft) S-SO 147 ° 0 min 0,000 mm 0,0 UV-I 0 W/m² 8,8 °C 15,6 °C 4,8 km/h (1 Bft)
01.07.2018 21:37 15,7 °C 63 % 1012,7 hPa 0,0 mm 2,3 km/h (1 Bft) O-NO 59 ° 0 min 0,000 mm 0,0 UV-I 0 W/m² 8,7 °C 15,7 °C 6,4 km/h (2 Bft)
01.07.2018 21:38 15,6 °C 64 % 1012,7 hPa 0,0 mm 2,1 km/h (1 Bft) O 92 ° 0 min 0,000 mm 0,0 UV-I 0 W/m² 8,8 °C 15,6 °C 4,8 km/h (1 Bft)
01.07.2018 21:39 15,5 °C 64 % 1012,7 hPa 0,0 mm 2,3 km/h (1 Bft) SO 144 ° 0 min 0,000 mm 0,0 UV-I 0 W/m² 8,7 °C 15,5 °C 4,8 km/h (1 Bft)
01.07.2018 21:40 15,5 °C 63 % 1012,7 hPa 0,0 mm 2,5 km/h (1 Bft) O-SO 116 ° 0 min 0,000 mm 0,0 UV-I 0 W/m² 8,5 °C 15,5 °C 4,8 km/h (1 Bft)
01.07.2018 21:41 15,6 °C 63 % 1012,7 hPa 0,0 mm 0,9 km/h (0 Bft) O-SO 116 ° 0 min 0,000 mm 0,0 UV-I 0 W/m² 8,6 °C 15,6 °C 3,2 km/h (1 Bft)
01.07.2018 21:42 15,6 °C 62 % 1012,6 hPa 0,0 mm 1,4 km/h (1 Bft) O-SO 116 ° 0 min 0,000 mm 0,0 UV-I 0 W/m² 8,3 °C 15,6 °C 4,8 km/h (1 Bft)
01.07.2018 21:43 15,6 °C 64 % 1012,7 hPa 0,0 mm 2,6 km/h (1 Bft) O-SO 116 ° 0 min 0,000 mm 0,0 UV-I 0 W/m² 8,8 °C 15,6 °C 4,8 km/h (1 Bft)
01.07.2018 21:44 15,5 °C 64 % 1012,8 hPa 0,0 mm 0,2 km/h (0 Bft) O-SO 116 ° 0 min 0,000 mm 0,0 UV-I 0 W/m² 8,7 °C 15,5 °C 1,6 km/h (1 Bft)
01.07.2018 21:45 15,4 °C 63 % 1012,7 hPa 0,0 mm 0,1 km/h (0 Bft) O-SO 116 ° 0 min 0,000 mm 0,0 UV-I 0 W/m² 8,4 °C 15,4 °C 1,6 km/h (1 Bft)
01.07.2018 21:46 15,4 °C 63 % 1012,8 hPa 0,0 mm 0,7 km/h (0 Bft) O-SO 116 ° 0 min 0,000 mm 0,0 UV-I 0 W/m² 8,4 °C 15,4 °C 1,6 km/h (1 Bft)
01.07.2018 21:47 15,4 °C 63 % 1012,7 hPa 0,0 mm 0,0 km/h (0 Bft) O-SO 116 ° 0 min 0,000 mm 0,0 UV-I 0 W/m² 8,4 °C 15,4 °C 0,0 km/h (0 Bft)
01.07.2018 21:48 15,6 °C 62 % 1012,7 hPa 0,0 mm 0,0 km/h (0 Bft) O-SO 116 ° 0 min 0,000 mm 0,0 UV-I 0 W/m² 8,3 °C 15,6 °C 0,0 km/h (0 Bft)
01.07.2018 21:49 15,5 °C 64 % 1012,7 hPa 0,0 mm 0,0 km/h (0 Bft) O-SO 116 ° 0 min 0,000 mm 0,0 UV-I 0 W/m² 8,7 °C 15,5 °C 0,0 km/h (0 Bft)
01.07.2018 21:50 15,4 °C 64 % 1012,7 hPa 0,0 mm 0,5 km/h (0 Bft) O-SO 117 ° 0 min 0,000 mm 0,0 UV-I 0 W/m² 8,6 °C 15,4 °C 3,2 km/h (1 Bft)
01.07.2018 21:51 15,4 °C 62 % 1012,8 hPa 0,0 mm 0,4 km/h (0 Bft) O-SO 117 ° 0 min 0,000 mm 0,0 UV-I 0 W/m² 8,2 °C 15,4 °C 1,6 km/h (1 Bft)
01.07.2018 21:52 15,4 °C 64 % 1012,8 hPa 0,0 mm 3,6 km/h (1 Bft) O-SO 111 ° 0 min 0,000 mm 0,0 UV-I 0 W/m² 8,6 °C 15,4 °C 6,4 km/h (2 Bft)
01.07.2018 21:53 15,3 °C 63 % 1012,8 hPa 0,0 mm 0,9 km/h (0 Bft) O-SO 111 ° 0 min 0,000 mm 0,0 UV-I 0 W/m² 8,3 °C 15,3 °C 3,2 km/h (1 Bft)
01.07.2018 21:54 15,3 °C 63 % 1012,8 hPa 0,0 mm 0,4 km/h (0 Bft) O-SO 112 ° 0 min 0,000 mm 0,0 UV-I 0 W/m² 8,3 °C 15,3 °C 1,6 km/h (1 Bft)
01.07.2018 21:55 15,1 °C 64 % 1012,8 hPa 0,0 mm 0,6 km/h (0 Bft) O-SO 111 ° 0 min 0,000 mm 0,0 UV-I 0 W/m² 8,3 °C 15,1 °C 1,6 km/h (1 Bft)
01.07.2018 21:56 15,1 °C 64 % 1012,8 hPa 0,0 mm 0,0 km/h (0 Bft) O-SO 111 ° 0 min 0,000 mm 0,0 UV-I 0 W/m² 8,3 °C 15,1 °C 0,0 km/h (0 Bft)
01.07.2018 21:57 15,1 °C 64 % 1012,8 hPa 0,0 mm 0,0 km/h (0 Bft) O-SO 112 ° 0 min 0,000 mm 0,0 UV-I 0 W/m² 8,3 °C 15,1 °C 0,0 km/h (0 Bft)
01.07.2018 21:58 15,1 °C 63 % 1012,8 hPa 0,0 mm 0,2 km/h (0 Bft) O-SO 111 ° 0 min 0,000 mm 0,0 UV-I 0 W/m² 8,1 °C 15,1 °C 1,6 km/h (1 Bft)
01.07.2018 21:59 15,1 °C 65 % 1012,8 hPa 0,0 mm 0,3 km/h (0 Bft) O-SO 112 ° 0 min 0,000 mm 0,0 UV-I 0 W/m² 8,6 °C 15,1 °C 1,6 km/h (1 Bft)
01.07.2018 22:00 15,1 °C 64 % 1012,8 hPa 0,0 mm 0,1 km/h (0 Bft) O-SO 112 ° 0 min 0,000 mm 0,0 UV-I 0 W/m² 8,3 °C 15,1 °C 1,6 km/h (1 Bft)
01.07.2018 22:01 15,1 °C 62 % 1012,8 hPa 0,0 mm 0,0 km/h (0 Bft) O-SO 112 ° 0 min 0,025 mm 0,0 UV-I 0 W/m² 7,9 °C 15,1 °C 0,0 km/h (0 Bft)
01.07.2018 22:02 15,0 °C 65 % 1012,8 hPa 0,0 mm 0,0 km/h (0 Bft) O-SO 111 ° 0 min 0,000 mm 0,0 UV-I 0 W/m² 8,5 °C 15,0 °C 0,0 km/h (0 Bft)
01.07.2018 22:03 14,9 °C 65 % 1012,8 hPa 0,0 mm 0,2 km/h (0 Bft) O-SO 111 ° 0 min 0,000 mm 0,0 UV-I 0 W/m² 8,4 °C 14,9 °C 1,6 km/h (1 Bft)
01.07.2018 22:04 14,8 °C 65 % 1012,8 hPa 0,0 mm 1,2 km/h (1 Bft) O-SO 112 ° 0 min 0,000 mm 0,0 UV-I 0 W/m² 8,3 °C 14,8 °C 3,2 km/h (1 Bft)
01.07.2018 22:05 14,8 °C 64 % 1012,8 hPa 0,0 mm 0,3 km/h (0 Bft) O-SO 112 ° 0 min 0,000 mm 0,0 UV-I 0 W/m² 8,1 °C 14,8 °C 1,6 km/h (1 Bft)
01.07.2018 22:06 14,7 °C 65 % 1012,8 hPa 0,0 mm 0,0 km/h (0 Bft) O-SO 112 ° 0 min 0,000 mm 0,0 UV-I 0 W/m² 8,2 °C 14,7 °C 0,0 km/h (0 Bft)
01.07.2018 22:07 14,7 °C 65 % 1012,8 hPa 0,0 mm 0,0 km/h (0 Bft) O-SO 112 ° 0 min 0,000 mm 0,0 UV-I 0 W/m² 8,2 °C 14,7 °C 0,0 km/h (0 Bft)
01.07.2018 22:08 14,7 °C 65 % 1012,8 hPa 0,0 mm 0,0 km/h (0 Bft) O-SO 111 ° 0 min 0,000 mm 0,0 UV-I 0 W/m² 8,2 °C 14,7 °C 0,0 km/h (0 Bft)
01.07.2018 22:09 14,6 °C 66 % 1012,9 hPa 0,0 mm 1,2 km/h (1 Bft) O-SO 112 ° 0 min 0,000 mm 0,0 UV-I 0 W/m² 8,3 °C 14,6 °C 4,8 km/h (1 Bft)
01.07.2018 22:10 14,5 °C 67 % 1012,8 hPa 0,0 mm 0,3 km/h (0 Bft) O-SO 112 ° 0 min 0,000 mm 0,0 UV-I 0 W/m² 8,4 °C 14,5 °C 1,6 km/h (1 Bft)
01.07.2018 22:11 14,4 °C 67 % 1012,9 hPa 0,0 mm 0,0 km/h (0 Bft) O-SO 112 ° 0 min 0,000 mm 0,0 UV-I 0 W/m² 8,4 °C 14,4 °C 0,0 km/h (0 Bft)
01.07.2018 22:12 14,4 °C 67 % 1012,9 hPa 0,0 mm 0,0 km/h (0 Bft) O-SO 112 ° 0 min 0,000 mm 0,0 UV-I 0 W/m² 8,4 °C 14,4 °C 0,0 km/h (0 Bft)
01.07.2018 22:13 14,4 °C 69 % 1012,8 hPa 0,0 mm 0,0 km/h (0 Bft) O-SO 112 ° 0 min 0,000 mm 0,0 UV-I 0 W/m² 8,8 °C 14,4 °C 0,0 km/h (0 Bft)
01.07.2018 22:14 14,3 °C 68 % 1012,9 hPa 0,0 mm 0,0 km/h (0 Bft) O-SO 112 ° 0 min 0,000 mm 0,0 UV-I 0 W/m² 8,5 °C 14,3 °C 0,0 km/h (0 Bft)
01.07.2018 22:15 14,2 °C 68 % 1012,9 hPa 0,0 mm 0,0 km/h (0 Bft) O-SO 112 ° 0 min 0,000 mm 0,0 UV-I 0 W/m² 8,4 °C 14,2 °C 0,0 km/h (0 Bft)
01.07.2018 22:16 14,1 °C 67 % 1012,8 hPa 0,0 mm 0,1 km/h (0 Bft) O-SO 112 ° 0 min 0,000 mm 0,0 UV-I 0 W/m² 8,1 °C 14,1 °C 1,6 km/h (1 Bft)
01.07.2018 22:17 14,1 °C 67 % 1012,8 hPa 0,0 mm 0,1 km/h (0 Bft) O-SO 112 ° 0 min 0,000 mm 0,0 UV-I 0 W/m² 8,1 °C 14,1 °C 1,6 km/h (1 Bft)
01.07.2018 22:18 14,1 °C 68 % 1012,9 hPa 0,0 mm 0,0 km/h (0 Bft) O-SO 112 ° 0 min 0,000 mm 0,0 UV-I 0 W/m² 8,3 °C 14,1 °C 0,0 km/h (0 Bft)
01.07.2018 22:19 14,1 °C 67 % 1012,8 hPa 0,0 mm 0,0 km/h (0 Bft) O-SO 112 ° 0 min 0,000 mm 0,0 UV-I 0 W/m² 8,1 °C 14,1 °C 0,0 km/h (0 Bft)
01.07.2018 22:20 14,1 °C 68 % 1012,9 hPa 0,0 mm 0,6 km/h (0 Bft) O-SO 112 ° 0 min 0,000 mm 0,0 UV-I 0 W/m² 8,3 °C 14,1 °C 1,6 km/h (1 Bft)
01.07.2018 22:21 14,1 °C 66 % 1012,9 hPa 0,0 mm 0,4 km/h (0 Bft) O-SO 112 ° 0 min 0,000 mm 0,0 UV-I 0 W/m² 7,8 °C 14,1 °C 1,6 km/h (1 Bft)
01.07.2018 22:22 14,1 °C 66 % 1012,9 hPa 0,0 mm 0,0 km/h (0 Bft) O-SO 112 ° 0 min 0,000 mm 0,0 UV-I 0 W/m² 7,8 °C 14,1 °C 0,0 km/h (0 Bft)
01.07.2018 22:23 14,1 °C 67 % 1012,9 hPa 0,0 mm 0,0 km/h (0 Bft) O-SO 112 ° 0 min 0,000 mm 0,0 UV-I 0 W/m² 8,1 °C 14,1 °C 0,0 km/h (0 Bft)
01.07.2018 22:24 14,1 °C 67 % 1012,9 hPa 0,0 mm 1,0 km/h (0 Bft) O-SO 112 ° 0 min 0,000 mm 0,0 UV-I 0 W/m² 8,1 °C 14,1 °C 3,2 km/h (1 Bft)
01.07.2018 22:25 14,0 °C 67 % 1012,9 hPa 0,0 mm 0,1 km/h (0 Bft) O-SO 112 ° 0 min 0,000 mm 0,0 UV-I 0 W/m² 8,0 °C 14,0 °C 1,6 km/h (1 Bft)
01.07.2018 22:26 13,9 °C 68 % 1012,9 hPa 0,0 mm 0,7 km/h (0 Bft) O-SO 112 ° 0 min 0,000 mm 0,0 UV-I 0 W/m² 8,1 °C 13,9 °C 1,6 km/h (1 Bft)
01.07.2018 22:27 13,9 °C 68 % 1013,0 hPa 0,0 mm 1,0 km/h (0 Bft) O-SO 112 ° 0 min 0,000 mm 0,0 UV-I 0 W/m² 8,1 °C 13,9 °C 3,2 km/h (1 Bft)
01.07.2018 22:28 13,9 °C 67 % 1013,0 hPa 0,0 mm 0,7 km/h (0 Bft) O-SO 112 ° 0 min 0,000 mm 0,0 UV-I 0 W/m² 7,9 °C 13,9 °C 3,2 km/h (1 Bft)
01.07.2018 22:29 13,8 °C 67 % 1013,0 hPa 0,0 mm 0,0 km/h (0 Bft) O-SO 112 ° 0 min 0,000 mm 0,0 UV-I 0 W/m² 7,8 °C 13,8 °C 0,0 km/h (0 Bft)
01.07.2018 22:30 13,7 °C 69 % 1012,9 hPa 0,0 mm 0,0 km/h (0 Bft) O-SO 112 ° 0 min 0,000 mm 0,0 UV-I 0 W/m² 8,1 °C 13,7 °C 0,0 km/h (0 Bft)
01.07.2018 22:31 13,7 °C 69 % 1013,0 hPa 0,0 mm 0,0 km/h (0 Bft) O-SO 112 ° 0 min 0,000 mm 0,0 UV-I 0 W/m² 8,1 °C 13,7 °C 0,0 km/h (0 Bft)
01.07.2018 22:32 13,7 °C 67 % 1012,9 hPa 0,0 mm 0,1 km/h (0 Bft) O-SO 112 ° 0 min 0,000 mm 0,0 UV-I 0 W/m² 7,7 °C 13,7 °C 1,6 km/h (1 Bft)
01.07.2018 22:33 13,7 °C 67 % 1012,9 hPa 0,0 mm 0,0 km/h (0 Bft) O-SO 112 ° 0 min 0,000 mm 0,0 UV-I 0 W/m² 7,7 °C 13,7 °C 0,0 km/h (0 Bft)
01.07.2018 22:34 13,7 °C 67 % 1012,9 hPa 0,0 mm 0,0 km/h (0 Bft) O-SO 112 ° 0 min 0,000 mm 0,0 UV-I 0 W/m² 7,7 °C 13,7 °C 0,0 km/h (0 Bft)
01.07.2018 22:35 13,7 °C 67 % 1012,9 hPa 0,0 mm 0,0 km/h (0 Bft) O-SO 112 ° 0 min 0,000 mm 0,0 UV-I 0 W/m² 7,7 °C 13,7 °C 0,0 km/h (0 Bft)
01.07.2018 22:36 13,7 °C 67 % 1012,9 hPa 0,0 mm 0,0 km/h (0 Bft) O-SO 112 ° 0 min 0,000 mm 0,0 UV-I 0 W/m² 7,7 °C 13,7 °C 0,0 km/h (0 Bft)
01.07.2018 22:37 13,6 °C 68 % 1012,9 hPa 0,0 mm 0,0 km/h (0 Bft) O-SO 112 ° 0 min 0,000 mm 0,0 UV-I 0 W/m² 7,8 °C 13,6 °C 0,0 km/h (0 Bft)
01.07.2018 22:38 13,6 °C 68 % 1012,9 hPa 0,0 mm 0,3 km/h (0 Bft) O-SO 112 ° 0 min 0,000 mm 0,0 UV-I 0 W/m² 7,8 °C 13,6 °C 1,6 km/h (1 Bft)
01.07.2018 22:39 13,6 °C 68 % 1012,9 hPa 0,0 mm 0,0 km/h (0 Bft) O-SO 112 ° 0 min 0,000 mm 0,0 UV-I 0 W/m² 7,8 °C 13,6 °C 0,0 km/h (0 Bft)
01.07.2018 22:40 13,6 °C 69 % 1012,9 hPa 0,0 mm 0,0 km/h (0 Bft) O-SO 112 ° 0 min 0,000 mm 0,0 UV-I 0 W/m² 8,0 °C 13,6 °C 0,0 km/h (0 Bft)
01.07.2018 22:41 13,5 °C 68 % 1012,9 hPa 0,0 mm 0,0 km/h (0 Bft) O-SO 112 ° 0 min 0,000 mm 0,0 UV-I 0 W/m² 7,7 °C 13,5 °C 0,0 km/h (0 Bft)
01.07.2018 22:42 13,5 °C 69 % 1012,9 hPa 0,0 mm 0,0 km/h (0 Bft) O-SO 112 ° 0 min 0,000 mm 0,0 UV-I 0 W/m² 7,9 °C 13,5 °C 0,0 km/h (0 Bft)
01.07.2018 22:43 13,4 °C 69 % 1012,9 hPa 0,0 mm 0,3 km/h (0 Bft) O-SO 112 ° 0 min 0,000 mm 0,0 UV-I 0 W/m² 7,8 °C 13,4 °C 1,6 km/h (1 Bft)
01.07.2018 22:44 13,4 °C 69 % 1012,9 hPa 0,0 mm 0,1 km/h (0 Bft) O-SO 112 ° 0 min 0,000 mm 0,0 UV-I 0 W/m² 7,8 °C 13,4 °C 1,6 km/h (1 Bft)
01.07.2018 22:45 13,3 °C 69 % 1012,9 hPa 0,0 mm 0,0 km/h (0 Bft) O-SO 112 ° 0 min 0,000 mm 0,0 UV-I 0 W/m² 7,7 °C 13,3 °C 0,0 km/h (0 Bft)
01.07.2018 22:46 13,1 °C 70 % 1013,0 hPa 0,0 mm 0,0 km/h (0 Bft) O-SO 112 ° 0 min 0,000 mm 0,0 UV-I 0 W/m² 7,8 °C 13,1 °C 0,0 km/h (0 Bft)
01.07.2018 22:47 13,0 °C 71 % 1012,9 hPa 0,0 mm 0,0 km/h (0 Bft) O-SO 112 ° 0 min 0,000 mm 0,0 UV-I 0 W/m² 7,9 °C 13,0 °C 0,0 km/h (0 Bft)
01.07.2018 22:48 13,0 °C 70 % 1012,9 hPa 0,0 mm 0,0 km/h (0 Bft) O-SO 112 ° 0 min 0,000 mm 0,0 UV-I 0 W/m² 7,7 °C 13,0 °C 0,0 km/h (0 Bft)
01.07.2018 22:49 13,0 °C 71 % 1012,9 hPa 0,0 mm 0,0 km/h (0 Bft) O-SO 112 ° 0 min 0,000 mm 0,0 UV-I 0 W/m² 7,9 °C 13,0 °C 0,0 km/h (0 Bft)
01.07.2018 22:50 12,9 °C 71 % 1012,9 hPa 0,0 mm 0,0 km/h (0 Bft) O-SO 112 ° 0 min 0,000 mm 0,0 UV-I 0 W/m² 7,8 °C 12,9 °C 0,0 km/h (0 Bft)
01.07.2018 22:51 12,9 °C 71 % 1012,9 hPa 0,0 mm 0,0 km/h (0 Bft) O-SO 112 ° 0 min 0,000 mm 0,0 UV-I 0 W/m² 7,8 °C 12,9 °C 0,0 km/h (0 Bft)
01.07.2018 22:52 12,8 °C 72 % 1012,9 hPa 0,0 mm 0,0 km/h (0 Bft) O-SO 112 ° 0 min 0,000 mm 0,0 UV-I 0 W/m² 7,9 °C 12,8 °C 0,0 km/h (0 Bft)
01.07.2018 22:53 12,7 °C 72 % 1012,9 hPa 0,0 mm 0,0 km/h (0 Bft) O-SO 112 ° 0 min 0,000 mm 0,0 UV-I 0 W/m² 7,8 °C 12,7 °C 0,0 km/h (0 Bft)
01.07.2018 22:54 12,6 °C 73 % 1012,9 hPa 0,0 mm 0,0 km/h (0 Bft) O-SO 112 ° 0 min 0,000 mm 0,0 UV-I 0 W/m² 7,9 °C 12,6 °C 0,0 km/h (0 Bft)
01.07.2018 22:55 12,6 °C 74 % 1012,9 hPa 0,0 mm 0,0 km/h (0 Bft) O-SO 112 ° 0 min 0,000 mm 0,0 UV-I 0 W/m² 8,1 °C 12,6 °C 0,0 km/h (0 Bft)
01.07.2018 22:56 12,6 °C 73 % 1012,9 hPa 0,0 mm 0,0 km/h (0 Bft) O-SO 112 ° 0 min 0,000 mm 0,0 UV-I 0 W/m² 7,9 °C 12,6 °C 0,0 km/h (0 Bft)
01.07.2018 22:57 12,6 °C 73 % 1012,9 hPa 0,0 mm 0,0 km/h (0 Bft) O-SO 112 ° 0 min 0,000 mm 0,0 UV-I 0 W/m² 7,9 °C 12,6 °C 0,0 km/h (0 Bft)
01.07.2018 22:58 12,5 °C 74 % 1012,9 hPa 0,0 mm 0,0 km/h (0 Bft) O-SO 112 ° 0 min 0,000 mm 0,0 UV-I 0 W/m² 8,0 °C 12,5 °C 0,0 km/h (0 Bft)
01.07.2018 22:59 12,5 °C 74 % 1012,9 hPa 0,0 mm 0,0 km/h (0 Bft) O-SO 112 ° 0 min 0,000 mm 0,0 UV-I 0 W/m² 8,0 °C 12,5 °C 0,0 km/h (0 Bft)
01.07.2018 23:00 12,5 °C 73 % 1012,9 hPa 0,0 mm 0,0 km/h (0 Bft) O-SO 112 ° 0 min 0,000 mm 0,0 UV-I 0 W/m² 7,8 °C 12,5 °C 0,0 km/h (0 Bft)
01.07.2018 23:01 12,5 °C 74 % 1012,9 hPa 0,0 mm 0,0 km/h (0 Bft) O-SO 112 ° 0 min 0,025 mm 0,0 UV-I 0 W/m² 8,0 °C 12,5 °C 0,0 km/h (0 Bft)
01.07.2018 23:02 12,5 °C 74 % 1012,9 hPa 0,0 mm 0,0 km/h (0 Bft) O-SO 112 ° 0 min 0,000 mm 0,0 UV-I 0 W/m² 8,0 °C 12,5 °C 0,0 km/h (0 Bft)
01.07.2018 23:03 12,4 °C 74 % 1012,8 hPa 0,0 mm 0,0 km/h (0 Bft) O-SO 112 ° 0 min 0,000 mm 0,0 UV-I 0 W/m² 7,9 °C 12,4 °C 0,0 km/h (0 Bft)
01.07.2018 23:04 12,4 °C 74 % 1012,8 hPa 0,0 mm 0,0 km/h (0 Bft) O-SO 112 ° 0 min 0,000 mm 0,0 UV-I 0 W/m² 7,9 °C 12,4 °C 0,0 km/h (0 Bft)
01.07.2018 23:05 12,4 °C 72 % 1012,8 hPa 0,0 mm 0,0 km/h (0 Bft) O-SO 112 ° 0 min 0,000 mm 0,0 UV-I 0 W/m² 7,5 °C 12,4 °C 0,0 km/h (0 Bft)
01.07.2018 23:06 12,4 °C 73 % 1012,8 hPa 0,0 mm 0,0 km/h (0 Bft) O-SO 112 ° 0 min 0,000 mm 0,0 UV-I 0 W/m² 7,7 °C 12,4 °C 0,0 km/h (0 Bft)
01.07.2018 23:07 12,3 °C 72 % 1012,7 hPa 0,0 mm 0,0 km/h (0 Bft) O-SO 112 ° 0 min 0,000 mm 0,0 UV-I 0 W/m² 7,4 °C 12,3 °C 0,0 km/h (0 Bft)
01.07.2018 23:08 12,3 °C 73 % 1012,8 hPa 0,0 mm 0,0 km/h (0 Bft) O-SO 112 ° 0 min 0,000 mm 0,0 UV-I 0 W/m² 7,6 °C 12,3 °C 0,0 km/h (0 Bft)
01.07.2018 23:09 12,2 °C 73 % 1012,8 hPa 0,0 mm 0,0 km/h (0 Bft) O-SO 112 ° 0 min 0,000 mm 0,0 UV-I 0 W/m² 7,5 °C 12,2 °C 0,0 km/h (0 Bft)
01.07.2018 23:10 12,2 °C 74 % 1012,8 hPa 0,0 mm 0,0 km/h (0 Bft) O-SO 112 ° 0 min 0,000 mm 0,0 UV-I 0 W/m² 7,7 °C 12,2 °C 0,0 km/h (0 Bft)
01.07.2018 23:11 12,2 °C 74 % 1012,8 hPa 0,0 mm 0,0 km/h (0 Bft) O-SO 112 ° 0 min 0,000 mm 0,0 UV-I 0 W/m² 7,7 °C 12,2 °C 0,0 km/h (0 Bft)
01.07.2018 23:12 12,2 °C 74 % 1012,8 hPa 0,0 mm 0,0 km/h (0 Bft) O-SO 112 ° 0 min 0,000 mm 0,0 UV-I 0 W/m² 7,7 °C 12,2 °C 0,0 km/h (0 Bft)
01.07.2018 23:13 12,2 °C 75 % 1012,8 hPa 0,0 mm 0,0 km/h (0 Bft) O-SO 112 ° 0 min 0,000 mm 0,0 UV-I 0 W/m² 7,9 °C 12,2 °C 0,0 km/h (0 Bft)
01.07.2018 23:14 12,2 °C 74 % 1012,8 hPa 0,0 mm 0,0 km/h (0 Bft) O-SO 112 ° 0 min 0,000 mm 0,0 UV-I 0 W/m² 7,7 °C 12,2 °C 0,0 km/h (0 Bft)
01.07.2018 23:15 12,2 °C 74 % 1012,8 hPa 0,0 mm 0,0 km/h (0 Bft) O-SO 112 ° 0 min 0,000 mm 0,0 UV-I 0 W/m² 7,7 °C 12,2 °C 0,0 km/h (0 Bft)
01.07.2018 23:16 12,1 °C 74 % 1012,8 hPa 0,0 mm 0,0 km/h (0 Bft) O-SO 112 ° 0 min 0,000 mm 0,0 UV-I 0 W/m² 7,6 °C 12,1 °C 0,0 km/h (0 Bft)
01.07.2018 23:17 12,1 °C 74 % 1012,8 hPa 0,0 mm 0,0 km/h (0 Bft) O-SO 112 ° 0 min 0,000 mm 0,0 UV-I 0 W/m² 7,6 °C 12,1 °C 0,0 km/h (0 Bft)
01.07.2018 23:18 12,0 °C 74 % 1012,8 hPa 0,0 mm 0,0 km/h (0 Bft) O-SO 112 ° 0 min 0,000 mm 0,0 UV-I 0 W/m² 7,5 °C 12,0 °C 0,0 km/h (0 Bft)
01.07.2018 23:19 12,0 °C 75 % 1012,8 hPa 0,0 mm 0,0 km/h (0 Bft) O-SO 112 ° 0 min 0,000 mm 0,0 UV-I 0 W/m² 7,7 °C 12,0 °C 0,0 km/h (0 Bft)
01.07.2018 23:20 11,9 °C 74 % 1012,8 hPa 0,0 mm 0,0 km/h (0 Bft) O-SO 112 ° 0 min 0,000 mm 0,0 UV-I 0 W/m² 7,4 °C 11,9 °C 0,0 km/h (0 Bft)
01.07.2018 23:21 11,9 °C 74 % 1012,8 hPa 0,0 mm 0,0 km/h (0 Bft) O-SO 112 ° 0 min 0,000 mm 0,0 UV-I 0 W/m² 7,4 °C 11,9 °C 0,0 km/h (0 Bft)
01.07.2018 23:22 11,8 °C 75 % 1012,7 hPa 0,0 mm 0,0 km/h (0 Bft) O-SO 112 ° 0 min 0,000 mm 0,0 UV-I 0 W/m² 7,5 °C 11,8 °C 0,0 km/h (0 Bft)
01.07.2018 23:23 11,8 °C 75 % 1012,7 hPa 0,0 mm 0,0 km/h (0 Bft) O-SO 112 ° 0 min 0,000 mm 0,0 UV-I 0 W/m² 7,5 °C 11,8 °C 0,0 km/h (0 Bft)
01.07.2018 23:24 11,8 °C 74 % 1012,8 hPa 0,0 mm 0,0 km/h (0 Bft) O-SO 112 ° 0 min 0,000 mm 0,0 UV-I 0 W/m² 7,3 °C 11,8 °C 0,0 km/h (0 Bft)
01.07.2018 23:25 11,8 °C 74 % 1012,8 hPa 0,0 mm 0,0 km/h (0 Bft) O-SO 112 ° 0 min 0,000 mm 0,0 UV-I 0 W/m² 7,3 °C 11,8 °C 0,0 km/h (0 Bft)
01.07.2018 23:26 11,7 °C 74 % 1012,8 hPa 0,0 mm 0,0 km/h (0 Bft) O-SO 112 ° 0 min 0,000 mm 0,0 UV-I 0 W/m² 7,2 °C 11,7 °C 0,0 km/h (0 Bft)
01.07.2018 23:27 11,7 °C 73 % 1012,8 hPa 0,0 mm 0,0 km/h (0 Bft) O-SO 112 ° 0 min 0,000 mm 0,0 UV-I 0 W/m² 7,0 °C 11,7 °C 0,0 km/h (0 Bft)
01.07.2018 23:28 11,7 °C 74 % 1012,8 hPa 0,0 mm 0,0 km/h (0 Bft) O-SO 112 ° 0 min 0,000 mm 0,0 UV-I 0 W/m² 7,2 °C 11,7 °C 0,0 km/h (0 Bft)
01.07.2018 23:29 11,6 °C 74 % 1012,8 hPa 0,0 mm 0,0 km/h (0 Bft) O-SO 112 ° 0 min 0,000 mm 0,0 UV-I 0 W/m² 7,1 °C 11,6 °C 0,0 km/h (0 Bft)
01.07.2018 23:30 11,6 °C 75 % 1012,7 hPa 0,0 mm 0,0 km/h (0 Bft) O-SO 112 ° 0 min 0,000 mm 0,0 UV-I 0 W/m² 7,3 °C 11,6 °C 0,0 km/h (0 Bft)
01.07.2018 23:31 11,6 °C 75 % 1012,7 hPa 0,0 mm 0,0 km/h (0 Bft) O-SO 112 ° 0 min 0,000 mm 0,0 UV-I 0 W/m² 7,3 °C 11,6 °C 0,0 km/h (0 Bft)
01.07.2018 23:32 11,5 °C 75 % 1012,7 hPa 0,0 mm 0,0 km/h (0 Bft) O-SO 112 ° 0 min 0,000 mm 0,0 UV-I 0 W/m² 7,2 °C 11,5 °C 0,0 km/h (0 Bft)
01.07.2018 23:33 11,6 °C 74 % 1012,7 hPa 0,0 mm 0,0 km/h (0 Bft) O-SO 112 ° 0 min 0,000 mm 0,0 UV-I 0 W/m² 7,1 °C 11,6 °C 0,0 km/h (0 Bft)
01.07.2018 23:34 11,6 °C 74 % 1012,7 hPa 0,0 mm 0,0 km/h (0 Bft) O-SO 112 ° 0 min 0,000 mm 0,0 UV-I 0 W/m² 7,1 °C 11,6 °C 0,0 km/h (0 Bft)
01.07.2018 23:35 11,6 °C 75 % 1012,7 hPa 0,0 mm 0,0 km/h (0 Bft) O-SO 112 ° 0 min 0,000 mm 0,0 UV-I 0 W/m² 7,3 °C 11,6 °C 0,0 km/h (0 Bft)
01.07.2018 23:36 11,5 °C 76 % 1012,7 hPa 0,0 mm 0,0 km/h (0 Bft) O-SO 112 ° 0 min 0,000 mm 0,0 UV-I 0 W/m² 7,4 °C 11,5 °C 0,0 km/h (0 Bft)
01.07.2018 23:37 11,5 °C 75 % 1012,7 hPa 0,0 mm 0,0 km/h (0 Bft) O-SO 112 ° 0 min 0,000 mm 0,0 UV-I 0 W/m² 7,2 °C 11,5 °C 0,0 km/h (0 Bft)
01.07.2018 23:38 11,4 °C 75 % 1012,7 hPa 0,0 mm 0,0 km/h (0 Bft) O-SO 112 ° 0 min 0,000 mm 0,0 UV-I 0 W/m² 7,1 °C 11,4 °C 0,0 km/h (0 Bft)
01.07.2018 23:39 11,4 °C 75 % 1012,7 hPa 0,0 mm 0,0 km/h (0 Bft) O-SO 112 ° 0 min 0,000 mm 0,0 UV-I 0 W/m² 7,1 °C 11,4 °C 0,0 km/h (0 Bft)
01.07.2018 23:40 11,3 °C 75 % 1012,7 hPa 0,0 mm 0,0 km/h (0 Bft) O-SO 112 ° 0 min 0,000 mm 0,0 UV-I 0 W/m² 7,0 °C 11,3 °C 0,0 km/h (0 Bft)
01.07.2018 23:41 11,3 °C 75 % 1012,6 hPa 0,0 mm 0,0 km/h (0 Bft) O-SO 112 ° 0 min 0,000 mm 0,0 UV-I 0 W/m² 7,0 °C 11,3 °C 0,0 km/h (0 Bft)
01.07.2018 23:42 11,3 °C 75 % 1012,7 hPa 0,0 mm 0,0 km/h (0 Bft) O-SO 112 ° 0 min 0,000 mm 0,0 UV-I 0 W/m² 7,0 °C 11,3 °C 0,0 km/h (0 Bft)
01.07.2018 23:43 11,3 °C 76 % 1012,7 hPa 0,0 mm 0,0 km/h (0 Bft) O-SO 112 ° 0 min 0,000 mm 0,0 UV-I 0 W/m² 7,2 °C 11,3 °C 0,0 km/h (0 Bft)
01.07.2018 23:44 11,4 °C 76 % 1012,7 hPa 0,0 mm 0,0 km/h (0 Bft) O-SO 112 ° 0 min 0,000 mm 0,0 UV-I 0 W/m² 7,3 °C 11,4 °C 0,0 km/h (0 Bft)
01.07.2018 23:45 11,4 °C 75 % 1012,7 hPa 0,0 mm 0,0 km/h (0 Bft) O-SO 112 ° 0 min 0,000 mm 0,0 UV-I 0 W/m² 7,1 °C 11,4 °C 0,0 km/h (0 Bft)
01.07.2018 23:46 11,4 °C 76 % 1012,7 hPa 0,0 mm 0,0 km/h (0 Bft) O-SO 112 ° 0 min 0,000 mm 0,0 UV-I 0 W/m² 7,3 °C 11,4 °C 0,0 km/h (0 Bft)
01.07.2018 23:47 11,3 °C 76 % 1012,7 hPa 0,0 mm 0,0 km/h (0 Bft) O-SO 112 ° 0 min 0,000 mm 0,0 UV-I 0 W/m² 7,2 °C 11,3 °C 0,0 km/h (0 Bft)
01.07.2018 23:48 11,3 °C 77 % 1012,6 hPa 0,0 mm 0,0 km/h (0 Bft) O-SO 112 ° 0 min 0,000 mm 0,0 UV-I 0 W/m² 7,4 °C 11,3 °C 0,0 km/h (0 Bft)
01.07.2018 23:49 11,3 °C 76 % 1012,7 hPa 0,0 mm 0,0 km/h (0 Bft) O-SO 112 ° 0 min 0,000 mm 0,0 UV-I 0 W/m² 7,2 °C 11,3 °C 0,0 km/h (0 Bft)
01.07.2018 23:50 11,3 °C 76 % 1012,7 hPa 0,0 mm 0,0 km/h (0 Bft) O-SO 112 ° 0 min 0,000 mm 0,0 UV-I 0 W/m² 7,2 °C 11,3 °C 0,0 km/h (0 Bft)
01.07.2018 23:51 11,2 °C 76 % 1012,7 hPa 0,0 mm 0,0 km/h (0 Bft) O-SO 112 ° 0 min 0,000 mm 0,0 UV-I 0 W/m² 7,1 °C 11,2 °C 0,0 km/h (0 Bft)
01.07.2018 23:52 11,3 °C 76 % 1012,7 hPa 0,0 mm 0,0 km/h (0 Bft) O-SO 112 ° 0 min 0,000 mm 0,0 UV-I 0 W/m² 7,2 °C 11,3 °C 0,0 km/h (0 Bft)
01.07.2018 23:53 11,3 °C 76 % 1012,7 hPa 0,0 mm 0,0 km/h (0 Bft) O-SO 112 ° 0 min 0,000 mm 0,0 UV-I 0 W/m² 7,2 °C 11,3 °C 0,0 km/h (0 Bft)
01.07.2018 23:54 11,2 °C 76 % 1012,7 hPa 0,0 mm 0,0 km/h (0 Bft) O-SO 112 ° 0 min 0,000 mm 0,0 UV-I 0 W/m² 7,1 °C 11,2 °C 0,0 km/h (0 Bft)
01.07.2018 23:55 11,2 °C 77 % 1012,6 hPa 0,0 mm 0,0 km/h (0 Bft) O-SO 112 ° 0 min 0,000 mm 0,0 UV-I 0 W/m² 7,3 °C 11,2 °C 0,0 km/h (0 Bft)
01.07.2018 23:56 11,1 °C 77 % 1012,7 hPa 0,0 mm 0,0 km/h (0 Bft) O-SO 112 ° 0 min 0,000 mm 0,0 UV-I 0 W/m² 7,2 °C 11,1 °C 0,0 km/h (0 Bft)
01.07.2018 23:57 11,0 °C 78 % 1012,6 hPa 0,0 mm 0,0 km/h (0 Bft) O-SO 112 ° 0 min 0,000 mm 0,0 UV-I 0 W/m² 7,3 °C 11,0 °C 0,0 km/h (0 Bft)
01.07.2018 23:58 10,9 °C 79 % 1012,7 hPa 0,0 mm 0,0 km/h (0 Bft) O-SO 112 ° 0 min 0,000 mm 0,0 UV-I 0 W/m² 7,4 °C 10,9 °C 0,0 km/h (0 Bft)
01.07.2018 23:59 10,9 °C 79 % 1012,7 hPa 0,0 mm 0,0 km/h (0 Bft) O-SO 112 ° 0 min 0,000 mm 0,0 UV-I 0 W/m² 7,4 °C 10,9 °C 0,0 km/h (0 Bft)
_ Min-Zeit 05:34 15:52 04:03 - 23:59 - - - - - - 23:27 05:34 23:59
Minimum _ 9,2 °C 52 % 1011,2 hPa - 0,0 km/h (0 Bft) - - - - - - 7,0 °C 9,2 °C 0,0 km/h (0 Bft)
_ Max-Zeit 14:31 06:26 22:46 23:59 13:21 - - 16:12 14:01 13:17 13:10 13:31 14:31 13:21
Maximum _ 21,4 °C 90 % 1013,0 hPa 0,0 mm 13,2 km/h
NO (3 Bft)
- - 1 min 0,559 mm 7,6 UV-I 1004 W/m² 13,9 °C 21,4 °C 20,9 km/h
O-NO (4 Bft)
Durchschnitt _ 15,7 °C 71 % 1012,1 hPa #0,0 mm 3,0 km/h (1 Bft) NO - #4:58 h #3,962 mm 3,6 UV-I 260 W/m² 10,1 °C 15,7 °C 5,3 km/h (1 Bft)